<?xml version="1.0" encoding="UTF-8" standalone="no" ?>
<gpx xmlns="http://www.topografix.com/GPX/1/1" xmlns:xsi="http://www.w3.org/2001/XMLSchema-instance" xsi:schemaLocation="http://www.topografix.com/GPX/1/1 http://www.topografix.com/GPX/1/1/gpx.xsd" version="1.1" creator="VisuGPX - https://www.visugpx.com">
  <metadata>
    <name>Pornichet 16/09/2021</name>
    <desc><![CDATA[Sortie VTT jeudi 16 septembre 2021]]></desc>
  </metadata>
  <trk>
    <name><![CDATA[Pornichet Cyclisme]]></name>
    <trkseg>
      <trkpt lat="47.26409" lon="-2.31577">
        <ele>9.7</ele>
        <time>2021-09-16T06:48:11.000Z</time>
      </trkpt>
      <trkpt lat="47.2641" lon="-2.31588">
        <ele>9.8</ele>
        <time>2021-09-16T06:48:13.000Z</time>
      </trkpt>
      <trkpt lat="47.2641" lon="-2.31593">
        <ele>-0.20000000298023</ele>
        <time>2021-09-16T06:48:14.000Z</time>
      </trkpt>
      <trkpt lat="47.2641" lon="-2.31598">
        <ele>0.20000000298023</ele>
        <time>2021-09-16T06:48:15.000Z</time>
      </trkpt>
      <trkpt lat="47.2641" lon="-2.31604">
        <ele>0.60000002384186</ele>
        <time>2021-09-16T06:48:16.000Z</time>
      </trkpt>
      <trkpt lat="47.2641" lon="-2.3161">
        <ele>0.60000002384186</ele>
        <time>2021-09-16T06:48:17.000Z</time>
      </trkpt>
      <trkpt lat="47.2641" lon="-2.31656">
        <ele>0.60000002384186</ele>
        <time>2021-09-16T06:48:25.000Z</time>
      </trkpt>
      <trkpt lat="47.264" lon="-2.31661">
        <ele>0.60000002384186</ele>
        <time>2021-09-16T06:48:29.000Z</time>
      </trkpt>
      <trkpt lat="47.26396" lon="-2.31662">
        <ele>0.60000002384186</ele>
        <time>2021-09-16T06:48:30.000Z</time>
      </trkpt>
      <trkpt lat="47.26384" lon="-2.31669">
        <ele>0.60000002384186</ele>
        <time>2021-09-16T06:48:33.000Z</time>
      </trkpt>
      <trkpt lat="47.26362" lon="-2.31679">
        <ele>0.60000002384186</ele>
        <time>2021-09-16T06:48:38.000Z</time>
      </trkpt>
      <trkpt lat="47.26337" lon="-2.31693">
        <ele>0.60000002384186</ele>
        <time>2021-09-16T06:48:44.000Z</time>
      </trkpt>
      <trkpt lat="47.26335" lon="-2.31697">
        <ele>6</ele>
        <time>2021-09-16T06:48:45.000Z</time>
      </trkpt>
      <trkpt lat="47.26333" lon="-2.31702">
        <ele>-0.80000001192093</ele>
        <time>2021-09-16T06:48:46.000Z</time>
      </trkpt>
      <trkpt lat="47.2633" lon="-2.31706">
        <ele>-1.3999999761581</ele>
        <time>2021-09-16T06:48:47.000Z</time>
      </trkpt>
      <trkpt lat="47.26327" lon="-2.31709">
        <ele>-2.2000000476837</ele>
        <time>2021-09-16T06:48:48.000Z</time>
      </trkpt>
      <trkpt lat="47.26323" lon="-2.31711">
        <ele>-3</ele>
        <time>2021-09-16T06:48:49.000Z</time>
      </trkpt>
      <trkpt lat="47.26314" lon="-2.31714">
        <ele>-3</ele>
        <time>2021-09-16T06:48:51.000Z</time>
      </trkpt>
      <trkpt lat="47.26304" lon="-2.3172">
        <ele>-3</ele>
        <time>2021-09-16T06:48:53.000Z</time>
      </trkpt>
      <trkpt lat="47.26301" lon="-2.31731">
        <ele>-3.4000000953674</ele>
        <time>2021-09-16T06:48:55.000Z</time>
      </trkpt>
      <trkpt lat="47.26301" lon="-2.31737">
        <ele>-3.7999999523163</ele>
        <time>2021-09-16T06:48:56.000Z</time>
      </trkpt>
      <trkpt lat="47.26301" lon="-2.31742">
        <ele>-4.5999999046326</ele>
        <time>2021-09-16T06:48:57.000Z</time>
      </trkpt>
      <trkpt lat="47.26301" lon="-2.31748">
        <ele>-5</ele>
        <time>2021-09-16T06:48:58.000Z</time>
      </trkpt>
      <trkpt lat="47.26301" lon="-2.31753">
        <ele>-5</ele>
        <time>2021-09-16T06:48:59.000Z</time>
      </trkpt>
      <trkpt lat="47.26302" lon="-2.3176">
        <ele>-5</ele>
        <time>2021-09-16T06:49:00.000Z</time>
      </trkpt>
      <trkpt lat="47.26305" lon="-2.31788">
        <ele>-5</ele>
        <time>2021-09-16T06:49:04.000Z</time>
      </trkpt>
      <trkpt lat="47.26306" lon="-2.31818">
        <ele>-5</ele>
        <time>2021-09-16T06:49:08.000Z</time>
      </trkpt>
      <trkpt lat="47.26304" lon="-2.3184">
        <ele>-5</ele>
        <time>2021-09-16T06:49:11.000Z</time>
      </trkpt>
      <trkpt lat="47.263" lon="-2.31877">
        <ele>-5</ele>
        <time>2021-09-16T06:49:16.000Z</time>
      </trkpt>
      <trkpt lat="47.263" lon="-2.31884">
        <ele>-5</ele>
        <time>2021-09-16T06:49:17.000Z</time>
      </trkpt>
      <trkpt lat="47.26292" lon="-2.31898">
        <ele>-5</ele>
        <time>2021-09-16T06:49:20.000Z</time>
      </trkpt>
      <trkpt lat="47.26289" lon="-2.31902">
        <ele>-5</ele>
        <time>2021-09-16T06:49:21.000Z</time>
      </trkpt>
      <trkpt lat="47.26276" lon="-2.31921">
        <ele>-5</ele>
        <time>2021-09-16T06:49:25.000Z</time>
      </trkpt>
      <trkpt lat="47.26264" lon="-2.31937">
        <ele>-5</ele>
        <time>2021-09-16T06:49:28.000Z</time>
      </trkpt>
      <trkpt lat="47.26254" lon="-2.31952">
        <ele>-5</ele>
        <time>2021-09-16T06:49:31.000Z</time>
      </trkpt>
      <trkpt lat="47.26246" lon="-2.31969">
        <ele>-5</ele>
        <time>2021-09-16T06:49:34.000Z</time>
      </trkpt>
      <trkpt lat="47.2624" lon="-2.31976">
        <ele>-5</ele>
        <time>2021-09-16T06:49:36.000Z</time>
      </trkpt>
      <trkpt lat="47.26225" lon="-2.31984">
        <ele>-5</ele>
        <time>2021-09-16T06:49:41.000Z</time>
      </trkpt>
      <trkpt lat="47.26222" lon="-2.31986">
        <ele>-5</ele>
        <time>2021-09-16T06:49:42.000Z</time>
      </trkpt>
      <trkpt lat="47.26206" lon="-2.32">
        <ele>-5</ele>
        <time>2021-09-16T06:49:47.000Z</time>
      </trkpt>
      <trkpt lat="47.26198" lon="-2.32015">
        <ele>-5</ele>
        <time>2021-09-16T06:49:51.000Z</time>
      </trkpt>
      <trkpt lat="47.26196" lon="-2.32017">
        <ele>-5</ele>
        <time>2021-09-16T06:49:52.000Z</time>
      </trkpt>
      <trkpt lat="47.26191" lon="-2.32017">
        <ele>-5</ele>
        <time>2021-09-16T06:49:54.000Z</time>
      </trkpt>
      <trkpt lat="47.26173" lon="-2.32019">
        <ele>-5</ele>
        <time>2021-09-16T06:50:00.000Z</time>
      </trkpt>
      <trkpt lat="47.2616" lon="-2.32031">
        <ele>-5</ele>
        <time>2021-09-16T06:50:04.000Z</time>
      </trkpt>
      <trkpt lat="47.26154" lon="-2.32054">
        <ele>-5</ele>
        <time>2021-09-16T06:50:09.000Z</time>
      </trkpt>
      <trkpt lat="47.26148" lon="-2.32073">
        <ele>-5</ele>
        <time>2021-09-16T06:50:15.000Z</time>
      </trkpt>
      <trkpt lat="47.2614" lon="-2.32101">
        <ele>-5</ele>
        <time>2021-09-16T06:50:20.000Z</time>
      </trkpt>
      <trkpt lat="47.26128" lon="-2.32142">
        <ele>-5</ele>
        <time>2021-09-16T06:50:27.000Z</time>
      </trkpt>
      <trkpt lat="47.26126" lon="-2.32148">
        <ele>-5</ele>
        <time>2021-09-16T06:50:28.000Z</time>
      </trkpt>
      <trkpt lat="47.26115" lon="-2.32179">
        <ele>-5</ele>
        <time>2021-09-16T06:50:33.000Z</time>
      </trkpt>
      <trkpt lat="47.26108" lon="-2.32196">
        <ele>-5</ele>
        <time>2021-09-16T06:50:36.000Z</time>
      </trkpt>
      <trkpt lat="47.26103" lon="-2.32207">
        <ele>-5</ele>
        <time>2021-09-16T06:50:38.000Z</time>
      </trkpt>
      <trkpt lat="47.26098" lon="-2.32217">
        <ele>-5</ele>
        <time>2021-09-16T06:50:40.000Z</time>
      </trkpt>
      <trkpt lat="47.26075" lon="-2.32248">
        <ele>-5</ele>
        <time>2021-09-16T06:50:46.000Z</time>
      </trkpt>
      <trkpt lat="47.26047" lon="-2.32279">
        <ele>-5</ele>
        <time>2021-09-16T06:50:53.000Z</time>
      </trkpt>
      <trkpt lat="47.26017" lon="-2.32314">
        <ele>-5</ele>
        <time>2021-09-16T06:51:00.000Z</time>
      </trkpt>
      <trkpt lat="47.26013" lon="-2.32318">
        <ele>-5</ele>
        <time>2021-09-16T06:51:01.000Z</time>
      </trkpt>
      <trkpt lat="47.25997" lon="-2.3234">
        <ele>-5</ele>
        <time>2021-09-16T06:51:05.000Z</time>
      </trkpt>
      <trkpt lat="47.25963" lon="-2.32382">
        <ele>-5</ele>
        <time>2021-09-16T06:51:13.000Z</time>
      </trkpt>
      <trkpt lat="47.25932" lon="-2.32423">
        <ele>-5</ele>
        <time>2021-09-16T06:51:21.000Z</time>
      </trkpt>
      <trkpt lat="47.25923" lon="-2.32431">
        <ele>-5</ele>
        <time>2021-09-16T06:51:23.000Z</time>
      </trkpt>
      <trkpt lat="47.25914" lon="-2.32434">
        <ele>-5</ele>
        <time>2021-09-16T06:51:25.000Z</time>
      </trkpt>
      <trkpt lat="47.25901" lon="-2.32451">
        <ele>-5</ele>
        <time>2021-09-16T06:51:29.000Z</time>
      </trkpt>
      <trkpt lat="47.25904" lon="-2.32466">
        <ele>-5</ele>
        <time>2021-09-16T06:51:32.000Z</time>
      </trkpt>
      <trkpt lat="47.25911" lon="-2.32474">
        <ele>-5</ele>
        <time>2021-09-16T06:51:34.000Z</time>
      </trkpt>
      <trkpt lat="47.25919" lon="-2.32482">
        <ele>-5</ele>
        <time>2021-09-16T06:51:36.000Z</time>
      </trkpt>
      <trkpt lat="47.25932" lon="-2.3251">
        <ele>-5</ele>
        <time>2021-09-16T06:51:40.000Z</time>
      </trkpt>
      <trkpt lat="47.25948" lon="-2.32561">
        <ele>-5</ele>
        <time>2021-09-16T06:51:47.000Z</time>
      </trkpt>
      <trkpt lat="47.25963" lon="-2.32627">
        <ele>-5</ele>
        <time>2021-09-16T06:51:56.000Z</time>
      </trkpt>
      <trkpt lat="47.25964" lon="-2.32641">
        <ele>-5</ele>
        <time>2021-09-16T06:51:58.000Z</time>
      </trkpt>
      <trkpt lat="47.25966" lon="-2.32657">
        <ele>-5</ele>
        <time>2021-09-16T06:52:01.000Z</time>
      </trkpt>
      <trkpt lat="47.25973" lon="-2.32656">
        <ele>-5</ele>
        <time>2021-09-16T06:52:04.000Z</time>
      </trkpt>
      <trkpt lat="47.25983" lon="-2.32657">
        <ele>-5</ele>
        <time>2021-09-16T06:52:07.000Z</time>
      </trkpt>
      <trkpt lat="47.25987" lon="-2.32657">
        <ele>-5</ele>
        <time>2021-09-16T06:52:08.000Z</time>
      </trkpt>
      <trkpt lat="47.26014" lon="-2.32655">
        <ele>-5</ele>
        <time>2021-09-16T06:52:14.000Z</time>
      </trkpt>
      <trkpt lat="47.26039" lon="-2.32651">
        <ele>-5</ele>
        <time>2021-09-16T06:52:20.000Z</time>
      </trkpt>
      <trkpt lat="47.26071" lon="-2.32645">
        <ele>-5</ele>
        <time>2021-09-16T06:52:27.000Z</time>
      </trkpt>
      <trkpt lat="47.26104" lon="-2.3264">
        <ele>-5</ele>
        <time>2021-09-16T06:52:34.000Z</time>
      </trkpt>
      <trkpt lat="47.26138" lon="-2.3264">
        <ele>-5</ele>
        <time>2021-09-16T06:52:41.000Z</time>
      </trkpt>
      <trkpt lat="47.26143" lon="-2.32641">
        <ele>-5</ele>
        <time>2021-09-16T06:52:42.000Z</time>
      </trkpt>
      <trkpt lat="47.26177" lon="-2.32658">
        <ele>-5</ele>
        <time>2021-09-16T06:52:49.000Z</time>
      </trkpt>
      <trkpt lat="47.26191" lon="-2.32669">
        <ele>-5</ele>
        <time>2021-09-16T06:52:52.000Z</time>
      </trkpt>
      <trkpt lat="47.26209" lon="-2.32688">
        <ele>-5</ele>
        <time>2021-09-16T06:52:56.000Z</time>
      </trkpt>
      <trkpt lat="47.26238" lon="-2.32727">
        <ele>-5</ele>
        <time>2021-09-16T06:53:03.000Z</time>
      </trkpt>
      <trkpt lat="47.26271" lon="-2.3278">
        <ele>-5</ele>
        <time>2021-09-16T06:53:11.000Z</time>
      </trkpt>
      <trkpt lat="47.26286" lon="-2.32821">
        <ele>-5</ele>
        <time>2021-09-16T06:53:16.000Z</time>
      </trkpt>
      <trkpt lat="47.26288" lon="-2.3283">
        <ele>-5</ele>
        <time>2021-09-16T06:53:17.000Z</time>
      </trkpt>
      <trkpt lat="47.26293" lon="-2.32854">
        <ele>-5</ele>
        <time>2021-09-16T06:53:20.000Z</time>
      </trkpt>
      <trkpt lat="47.26297" lon="-2.3286">
        <ele>-5</ele>
        <time>2021-09-16T06:53:21.000Z</time>
      </trkpt>
      <trkpt lat="47.26313" lon="-2.32869">
        <ele>-5</ele>
        <time>2021-09-16T06:53:24.000Z</time>
      </trkpt>
      <trkpt lat="47.26317" lon="-2.32873">
        <ele>-5</ele>
        <time>2021-09-16T06:53:25.000Z</time>
      </trkpt>
      <trkpt lat="47.26324" lon="-2.32887">
        <ele>-5</ele>
        <time>2021-09-16T06:53:27.000Z</time>
      </trkpt>
      <trkpt lat="47.2633" lon="-2.32903">
        <ele>-5</ele>
        <time>2021-09-16T06:53:29.000Z</time>
      </trkpt>
      <trkpt lat="47.2634" lon="-2.32935">
        <ele>-5</ele>
        <time>2021-09-16T06:53:33.000Z</time>
      </trkpt>
      <trkpt lat="47.2635" lon="-2.32966">
        <ele>-5.4000000953674</ele>
        <time>2021-09-16T06:53:37.000Z</time>
      </trkpt>
      <trkpt lat="47.26354" lon="-2.32973">
        <ele>-5.8000001907349</ele>
        <time>2021-09-16T06:53:38.000Z</time>
      </trkpt>
      <trkpt lat="47.26358" lon="-2.32979">
        <ele>-6.1999998092651</ele>
        <time>2021-09-16T06:53:39.000Z</time>
      </trkpt>
      <trkpt lat="47.26362" lon="-2.32984">
        <ele>-6.5999999046326</ele>
        <time>2021-09-16T06:53:40.000Z</time>
      </trkpt>
      <trkpt lat="47.26365" lon="-2.32991">
        <ele>-7</ele>
        <time>2021-09-16T06:53:41.000Z</time>
      </trkpt>
      <trkpt lat="47.26368" lon="-2.33006">
        <ele>-7</ele>
        <time>2021-09-16T06:53:43.000Z</time>
      </trkpt>
      <trkpt lat="47.26369" lon="-2.33023">
        <ele>-7</ele>
        <time>2021-09-16T06:53:45.000Z</time>
      </trkpt>
      <trkpt lat="47.26371" lon="-2.33057">
        <ele>-7</ele>
        <time>2021-09-16T06:53:49.000Z</time>
      </trkpt>
      <trkpt lat="47.26375" lon="-2.33124">
        <ele>-7</ele>
        <time>2021-09-16T06:53:57.000Z</time>
      </trkpt>
      <trkpt lat="47.26378" lon="-2.33181">
        <ele>-7</ele>
        <time>2021-09-16T06:54:04.000Z</time>
      </trkpt>
      <trkpt lat="47.26383" lon="-2.33243">
        <ele>-7</ele>
        <time>2021-09-16T06:54:12.000Z</time>
      </trkpt>
      <trkpt lat="47.26394" lon="-2.33265">
        <ele>-7</ele>
        <time>2021-09-16T06:54:16.000Z</time>
      </trkpt>
      <trkpt lat="47.26409" lon="-2.33268">
        <ele>-7</ele>
        <time>2021-09-16T06:54:19.000Z</time>
      </trkpt>
      <trkpt lat="47.26414" lon="-2.33269">
        <ele>-7</ele>
        <time>2021-09-16T06:54:20.000Z</time>
      </trkpt>
      <trkpt lat="47.26451" lon="-2.33273">
        <ele>-7</ele>
        <time>2021-09-16T06:54:27.000Z</time>
      </trkpt>
      <trkpt lat="47.26493" lon="-2.3328">
        <ele>-7</ele>
        <time>2021-09-16T06:54:36.000Z</time>
      </trkpt>
      <trkpt lat="47.26505" lon="-2.33284">
        <ele>-7</ele>
        <time>2021-09-16T06:54:41.000Z</time>
      </trkpt>
      <trkpt lat="47.26517" lon="-2.33291">
        <ele>-7</ele>
        <time>2021-09-16T06:54:46.000Z</time>
      </trkpt>
      <trkpt lat="47.26533" lon="-2.33293">
        <ele>-7</ele>
        <time>2021-09-16T06:54:51.000Z</time>
      </trkpt>
      <trkpt lat="47.26539" lon="-2.33297">
        <ele>-7</ele>
        <time>2021-09-16T06:54:53.000Z</time>
      </trkpt>
      <trkpt lat="47.26543" lon="-2.33296">
        <ele>-7</ele>
        <time>2021-09-16T06:54:54.000Z</time>
      </trkpt>
      <trkpt lat="47.26558" lon="-2.3328">
        <ele>-7</ele>
        <time>2021-09-16T06:54:58.000Z</time>
      </trkpt>
      <trkpt lat="47.26583" lon="-2.33254">
        <ele>-7</ele>
        <time>2021-09-16T06:55:04.000Z</time>
      </trkpt>
      <trkpt lat="47.26619" lon="-2.33219">
        <ele>-7</ele>
        <time>2021-09-16T06:55:12.000Z</time>
      </trkpt>
      <trkpt lat="47.26659" lon="-2.33179">
        <ele>-7</ele>
        <time>2021-09-16T06:55:21.000Z</time>
      </trkpt>
      <trkpt lat="47.26685" lon="-2.33153">
        <ele>-7</ele>
        <time>2021-09-16T06:55:27.000Z</time>
      </trkpt>
      <trkpt lat="47.26698" lon="-2.3314">
        <ele>-6.5999999046326</ele>
        <time>2021-09-16T06:55:30.000Z</time>
      </trkpt>
      <trkpt lat="47.26702" lon="-2.33136">
        <ele>-6.1999998092651</ele>
        <time>2021-09-16T06:55:31.000Z</time>
      </trkpt>
      <trkpt lat="47.26707" lon="-2.33131">
        <ele>-5.8000001907349</ele>
        <time>2021-09-16T06:55:32.000Z</time>
      </trkpt>
      <trkpt lat="47.26711" lon="-2.33127">
        <ele>-5</ele>
        <time>2021-09-16T06:55:33.000Z</time>
      </trkpt>
      <trkpt lat="47.26719" lon="-2.33118">
        <ele>-5</ele>
        <time>2021-09-16T06:55:35.000Z</time>
      </trkpt>
      <trkpt lat="47.26743" lon="-2.33094">
        <ele>-5</ele>
        <time>2021-09-16T06:55:41.000Z</time>
      </trkpt>
      <trkpt lat="47.26754" lon="-2.33088">
        <ele>-5</ele>
        <time>2021-09-16T06:55:44.000Z</time>
      </trkpt>
      <trkpt lat="47.26758" lon="-2.3309">
        <ele>-5</ele>
        <time>2021-09-16T06:55:45.000Z</time>
      </trkpt>
      <trkpt lat="47.26767" lon="-2.33108">
        <ele>-5</ele>
        <time>2021-09-16T06:55:48.000Z</time>
      </trkpt>
      <trkpt lat="47.26767" lon="-2.33139">
        <ele>-5</ele>
        <time>2021-09-16T06:55:52.000Z</time>
      </trkpt>
      <trkpt lat="47.26763" lon="-2.33155">
        <ele>-5</ele>
        <time>2021-09-16T06:55:54.000Z</time>
      </trkpt>
      <trkpt lat="47.26761" lon="-2.33163">
        <ele>-5</ele>
        <time>2021-09-16T06:55:55.000Z</time>
      </trkpt>
      <trkpt lat="47.26757" lon="-2.33178">
        <ele>-5</ele>
        <time>2021-09-16T06:55:57.000Z</time>
      </trkpt>
      <trkpt lat="47.26753" lon="-2.33193">
        <ele>-5</ele>
        <time>2021-09-16T06:55:59.000Z</time>
      </trkpt>
      <trkpt lat="47.26744" lon="-2.33222">
        <ele>-5</ele>
        <time>2021-09-16T06:56:03.000Z</time>
      </trkpt>
      <trkpt lat="47.26733" lon="-2.33269">
        <ele>-5</ele>
        <time>2021-09-16T06:56:09.000Z</time>
      </trkpt>
      <trkpt lat="47.26732" lon="-2.33278">
        <ele>-5</ele>
        <time>2021-09-16T06:56:10.000Z</time>
      </trkpt>
      <trkpt lat="47.26738" lon="-2.33311">
        <ele>-5</ele>
        <time>2021-09-16T06:56:14.000Z</time>
      </trkpt>
      <trkpt lat="47.26748" lon="-2.33358">
        <ele>-5</ele>
        <time>2021-09-16T06:56:20.000Z</time>
      </trkpt>
      <trkpt lat="47.26751" lon="-2.33374">
        <ele>-5</ele>
        <time>2021-09-16T06:56:22.000Z</time>
      </trkpt>
      <trkpt lat="47.26753" lon="-2.33399">
        <ele>-5</ele>
        <time>2021-09-16T06:56:25.000Z</time>
      </trkpt>
      <trkpt lat="47.2676" lon="-2.33466">
        <ele>-5</ele>
        <time>2021-09-16T06:56:33.000Z</time>
      </trkpt>
      <trkpt lat="47.26772" lon="-2.33533">
        <ele>-5</ele>
        <time>2021-09-16T06:56:41.000Z</time>
      </trkpt>
      <trkpt lat="47.26779" lon="-2.33589">
        <ele>-5</ele>
        <time>2021-09-16T06:56:48.000Z</time>
      </trkpt>
      <trkpt lat="47.26781" lon="-2.33655">
        <ele>-5</ele>
        <time>2021-09-16T06:56:57.000Z</time>
      </trkpt>
      <trkpt lat="47.26781" lon="-2.33675">
        <ele>-5</ele>
        <time>2021-09-16T06:57:00.000Z</time>
      </trkpt>
      <trkpt lat="47.26783" lon="-2.337">
        <ele>-5</ele>
        <time>2021-09-16T06:57:04.000Z</time>
      </trkpt>
      <trkpt lat="47.26786" lon="-2.3371">
        <ele>-5</ele>
        <time>2021-09-16T06:57:06.000Z</time>
      </trkpt>
      <trkpt lat="47.26792" lon="-2.33719">
        <ele>-5</ele>
        <time>2021-09-16T06:57:08.000Z</time>
      </trkpt>
      <trkpt lat="47.26803" lon="-2.33731">
        <ele>-5</ele>
        <time>2021-09-16T06:57:11.000Z</time>
      </trkpt>
      <trkpt lat="47.26807" lon="-2.33735">
        <ele>-4</ele>
        <time>2021-09-16T06:57:12.000Z</time>
      </trkpt>
      <trkpt lat="47.26811" lon="-2.33738">
        <ele>-3.5999999046326</ele>
        <time>2021-09-16T06:57:13.000Z</time>
      </trkpt>
      <trkpt lat="47.26814" lon="-2.33742">
        <ele>-3.2000000476837</ele>
        <time>2021-09-16T06:57:14.000Z</time>
      </trkpt>
      <trkpt lat="47.26818" lon="-2.33746">
        <ele>-2.7999999523163</ele>
        <time>2021-09-16T06:57:15.000Z</time>
      </trkpt>
      <trkpt lat="47.26822" lon="-2.33751">
        <ele>-2.7999999523163</ele>
        <time>2021-09-16T06:57:16.000Z</time>
      </trkpt>
      <trkpt lat="47.2683" lon="-2.3376">
        <ele>-2.7999999523163</ele>
        <time>2021-09-16T06:57:18.000Z</time>
      </trkpt>
      <trkpt lat="47.26841" lon="-2.33774">
        <ele>-2.7999999523163</ele>
        <time>2021-09-16T06:57:21.000Z</time>
      </trkpt>
      <trkpt lat="47.2685" lon="-2.3378">
        <ele>-2.7999999523163</ele>
        <time>2021-09-16T06:57:23.000Z</time>
      </trkpt>
      <trkpt lat="47.26864" lon="-2.33786">
        <ele>-2.7999999523163</ele>
        <time>2021-09-16T06:57:26.000Z</time>
      </trkpt>
      <trkpt lat="47.26878" lon="-2.33791">
        <ele>-2.7999999523163</ele>
        <time>2021-09-16T06:57:29.000Z</time>
      </trkpt>
      <trkpt lat="47.26891" lon="-2.33797">
        <ele>-2.7999999523163</ele>
        <time>2021-09-16T06:57:32.000Z</time>
      </trkpt>
      <trkpt lat="47.26897" lon="-2.33807">
        <ele>-2.7999999523163</ele>
        <time>2021-09-16T06:57:34.000Z</time>
      </trkpt>
      <trkpt lat="47.26902" lon="-2.33827">
        <ele>-2.7999999523163</ele>
        <time>2021-09-16T06:57:37.000Z</time>
      </trkpt>
      <trkpt lat="47.26906" lon="-2.33841">
        <ele>-2.7999999523163</ele>
        <time>2021-09-16T06:57:39.000Z</time>
      </trkpt>
      <trkpt lat="47.26919" lon="-2.33897">
        <ele>-2.7999999523163</ele>
        <time>2021-09-16T06:57:47.000Z</time>
      </trkpt>
      <trkpt lat="47.2693" lon="-2.33938">
        <ele>-2.7999999523163</ele>
        <time>2021-09-16T06:57:53.000Z</time>
      </trkpt>
      <trkpt lat="47.26932" lon="-2.33944">
        <ele>-2.7999999523163</ele>
        <time>2021-09-16T06:57:54.000Z</time>
      </trkpt>
      <trkpt lat="47.26945" lon="-2.34006">
        <ele>-2.7999999523163</ele>
        <time>2021-09-16T06:58:03.000Z</time>
      </trkpt>
      <trkpt lat="47.26946" lon="-2.34012">
        <ele>-2.4000000953674</ele>
        <time>2021-09-16T06:58:04.000Z</time>
      </trkpt>
      <trkpt lat="47.26948" lon="-2.34019">
        <ele>-2</ele>
        <time>2021-09-16T06:58:05.000Z</time>
      </trkpt>
      <trkpt lat="47.26949" lon="-2.34026">
        <ele>-1.6000000238419</ele>
        <time>2021-09-16T06:58:06.000Z</time>
      </trkpt>
      <trkpt lat="47.26951" lon="-2.34033">
        <ele>-1.2000000476837</ele>
        <time>2021-09-16T06:58:07.000Z</time>
      </trkpt>
      <trkpt lat="47.26953" lon="-2.34039">
        <ele>-0.80000001192093</ele>
        <time>2021-09-16T06:58:08.000Z</time>
      </trkpt>
      <trkpt lat="47.26962" lon="-2.34077">
        <ele>-0.80000001192093</ele>
        <time>2021-09-16T06:58:13.000Z</time>
      </trkpt>
      <trkpt lat="47.26974" lon="-2.34126">
        <ele>-0.80000001192093</ele>
        <time>2021-09-16T06:58:20.000Z</time>
      </trkpt>
      <trkpt lat="47.26986" lon="-2.34181">
        <ele>-0.80000001192093</ele>
        <time>2021-09-16T06:58:28.000Z</time>
      </trkpt>
      <trkpt lat="47.27001" lon="-2.34251">
        <ele>-0.80000001192093</ele>
        <time>2021-09-16T06:58:38.000Z</time>
      </trkpt>
      <trkpt lat="47.2701" lon="-2.34297">
        <ele>-0.80000001192093</ele>
        <time>2021-09-16T06:58:45.000Z</time>
      </trkpt>
      <trkpt lat="47.27011" lon="-2.34303">
        <ele>-0.80000001192093</ele>
        <time>2021-09-16T06:58:46.000Z</time>
      </trkpt>
      <trkpt lat="47.27012" lon="-2.34317">
        <ele>-0.80000001192093</ele>
        <time>2021-09-16T06:58:50.000Z</time>
      </trkpt>
      <trkpt lat="47.27012" lon="-2.34318">
        <ele>-0.80000001192093</ele>
        <time>2021-09-16T06:58:52.000Z</time>
      </trkpt>
      <trkpt lat="47.27014" lon="-2.34319">
        <ele>-0.80000001192093</ele>
        <time>2021-09-16T06:58:54.000Z</time>
      </trkpt>
      <trkpt lat="47.27016" lon="-2.34321">
        <ele>-0.80000001192093</ele>
        <time>2021-09-16T06:58:55.000Z</time>
      </trkpt>
      <trkpt lat="47.27027" lon="-2.34324">
        <ele>-0.80000001192093</ele>
        <time>2021-09-16T06:58:58.000Z</time>
      </trkpt>
      <trkpt lat="47.27031" lon="-2.34324">
        <ele>-0.80000001192093</ele>
        <time>2021-09-16T06:58:59.000Z</time>
      </trkpt>
      <trkpt lat="47.27035" lon="-2.34325">
        <ele>-0.80000001192093</ele>
        <time>2021-09-16T06:59:00.000Z</time>
      </trkpt>
      <trkpt lat="47.27043" lon="-2.3434">
        <ele>-0.80000001192093</ele>
        <time>2021-09-16T06:59:03.000Z</time>
      </trkpt>
      <trkpt lat="47.27047" lon="-2.34355">
        <ele>-0.80000001192093</ele>
        <time>2021-09-16T06:59:05.000Z</time>
      </trkpt>
      <trkpt lat="47.27051" lon="-2.34378">
        <ele>-0.80000001192093</ele>
        <time>2021-09-16T06:59:08.000Z</time>
      </trkpt>
      <trkpt lat="47.27063" lon="-2.34434">
        <ele>-0.80000001192093</ele>
        <time>2021-09-16T06:59:15.000Z</time>
      </trkpt>
      <trkpt lat="47.27077" lon="-2.34492">
        <ele>-0.80000001192093</ele>
        <time>2021-09-16T06:59:22.000Z</time>
      </trkpt>
      <trkpt lat="47.2709" lon="-2.34541">
        <ele>-0.80000001192093</ele>
        <time>2021-09-16T06:59:28.000Z</time>
      </trkpt>
      <trkpt lat="47.27093" lon="-2.34557">
        <ele>-0.40000000596046</ele>
        <time>2021-09-16T06:59:30.000Z</time>
      </trkpt>
      <trkpt lat="47.27095" lon="-2.34565">
        <ele>10.8</ele>
        <time>2021-09-16T06:59:31.000Z</time>
      </trkpt>
      <trkpt lat="47.27097" lon="-2.34573">
        <ele>0.40000000596046</ele>
        <time>2021-09-16T06:59:32.000Z</time>
      </trkpt>
      <trkpt lat="47.27099" lon="-2.34582">
        <ele>0.80000001192093</ele>
        <time>2021-09-16T06:59:33.000Z</time>
      </trkpt>
      <trkpt lat="47.27101" lon="-2.3459">
        <ele>1.2000000476837</ele>
        <time>2021-09-16T06:59:34.000Z</time>
      </trkpt>
      <trkpt lat="47.27105" lon="-2.34607">
        <ele>1.2000000476837</ele>
        <time>2021-09-16T06:59:36.000Z</time>
      </trkpt>
      <trkpt lat="47.27121" lon="-2.34678">
        <ele>1.2000000476837</ele>
        <time>2021-09-16T06:59:44.000Z</time>
      </trkpt>
      <trkpt lat="47.27136" lon="-2.34745">
        <ele>1.2000000476837</ele>
        <time>2021-09-16T06:59:52.000Z</time>
      </trkpt>
      <trkpt lat="47.27147" lon="-2.34803">
        <ele>1.2000000476837</ele>
        <time>2021-09-16T06:59:59.000Z</time>
      </trkpt>
      <trkpt lat="47.27162" lon="-2.34875">
        <ele>1.2000000476837</ele>
        <time>2021-09-16T07:00:08.000Z</time>
      </trkpt>
      <trkpt lat="47.27176" lon="-2.3492">
        <ele>1.2000000476837</ele>
        <time>2021-09-16T07:00:14.000Z</time>
      </trkpt>
      <trkpt lat="47.27178" lon="-2.34928">
        <ele>1.2000000476837</ele>
        <time>2021-09-16T07:00:17.000Z</time>
      </trkpt>
      <trkpt lat="47.27178" lon="-2.34928">
        <ele>1.2000000476837</ele>
        <time>2021-09-16T07:00:20.000Z</time>
      </trkpt>
      <trkpt lat="47.27179" lon="-2.34931">
        <ele>1.2000000476837</ele>
        <time>2021-09-16T07:00:31.000Z</time>
      </trkpt>
      <trkpt lat="47.27184" lon="-2.3495">
        <ele>1.2000000476837</ele>
        <time>2021-09-16T07:00:36.000Z</time>
      </trkpt>
      <trkpt lat="47.27196" lon="-2.34986">
        <ele>1.2000000476837</ele>
        <time>2021-09-16T07:00:44.000Z</time>
      </trkpt>
      <trkpt lat="47.27208" lon="-2.35024">
        <ele>1.2000000476837</ele>
        <time>2021-09-16T07:00:52.000Z</time>
      </trkpt>
      <trkpt lat="47.2722" lon="-2.35057">
        <ele>1.2000000476837</ele>
        <time>2021-09-16T07:00:58.000Z</time>
      </trkpt>
      <trkpt lat="47.27234" lon="-2.35092">
        <ele>1.2000000476837</ele>
        <time>2021-09-16T07:01:05.000Z</time>
      </trkpt>
      <trkpt lat="47.27254" lon="-2.35126">
        <ele>1.2000000476837</ele>
        <time>2021-09-16T07:01:13.000Z</time>
      </trkpt>
      <trkpt lat="47.27258" lon="-2.35126">
        <ele>1.2000000476837</ele>
        <time>2021-09-16T07:01:14.000Z</time>
      </trkpt>
      <trkpt lat="47.27272" lon="-2.35118">
        <ele>1.2000000476837</ele>
        <time>2021-09-16T07:01:18.000Z</time>
      </trkpt>
      <trkpt lat="47.27275" lon="-2.35116">
        <ele>1.2000000476837</ele>
        <time>2021-09-16T07:01:19.000Z</time>
      </trkpt>
      <trkpt lat="47.2729" lon="-2.35108">
        <ele>1.2000000476837</ele>
        <time>2021-09-16T07:01:24.000Z</time>
      </trkpt>
      <trkpt lat="47.27292" lon="-2.35107">
        <ele>1.6000000238419</ele>
        <time>2021-09-16T07:01:25.000Z</time>
      </trkpt>
      <trkpt lat="47.27294" lon="-2.35105">
        <ele>2</ele>
        <time>2021-09-16T07:01:26.000Z</time>
      </trkpt>
      <trkpt lat="47.27294" lon="-2.35103">
        <ele>2.4000000953674</ele>
        <time>2021-09-16T07:01:27.000Z</time>
      </trkpt>
      <trkpt lat="47.27295" lon="-2.35102">
        <ele>2.7999999523163</ele>
        <time>2021-09-16T07:01:28.000Z</time>
      </trkpt>
      <trkpt lat="47.27296" lon="-2.35102">
        <ele>3.4000000953674</ele>
        <time>2021-09-16T07:01:29.000Z</time>
      </trkpt>
      <trkpt lat="47.27297" lon="-2.35102">
        <ele>3.4000000953674</ele>
        <time>2021-09-16T07:01:30.000Z</time>
      </trkpt>
      <trkpt lat="47.27302" lon="-2.35102">
        <ele>3.4000000953674</ele>
        <time>2021-09-16T07:01:32.000Z</time>
      </trkpt>
      <trkpt lat="47.27313" lon="-2.35095">
        <ele>3.4000000953674</ele>
        <time>2021-09-16T07:01:36.000Z</time>
      </trkpt>
      <trkpt lat="47.27319" lon="-2.35092">
        <ele>3.4000000953674</ele>
        <time>2021-09-16T07:01:38.000Z</time>
      </trkpt>
      <trkpt lat="47.27329" lon="-2.35089">
        <ele>4.1999998092651</ele>
        <time>2021-09-16T07:01:42.000Z</time>
      </trkpt>
      <trkpt lat="47.27331" lon="-2.35087">
        <ele>4.5999999046326</ele>
        <time>2021-09-16T07:01:43.000Z</time>
      </trkpt>
      <trkpt lat="47.27334" lon="-2.35086">
        <ele>5</ele>
        <time>2021-09-16T07:01:44.000Z</time>
      </trkpt>
      <trkpt lat="47.27336" lon="-2.35085">
        <ele>5.4000000953674</ele>
        <time>2021-09-16T07:01:45.000Z</time>
      </trkpt>
      <trkpt lat="47.27353" lon="-2.35076">
        <ele>5.8000001907349</ele>
        <time>2021-09-16T07:01:51.000Z</time>
      </trkpt>
      <trkpt lat="47.27356" lon="-2.35074">
        <ele>6.1999998092651</ele>
        <time>2021-09-16T07:01:52.000Z</time>
      </trkpt>
      <trkpt lat="47.27359" lon="-2.35073">
        <ele>6.5999999046326</ele>
        <time>2021-09-16T07:01:53.000Z</time>
      </trkpt>
      <trkpt lat="47.27362" lon="-2.35071">
        <ele>7</ele>
        <time>2021-09-16T07:01:54.000Z</time>
      </trkpt>
      <trkpt lat="47.27365" lon="-2.3507">
        <ele>7.4000000953674</ele>
        <time>2021-09-16T07:01:55.000Z</time>
      </trkpt>
      <trkpt lat="47.27373" lon="-2.35066">
        <ele>7.4000000953674</ele>
        <time>2021-09-16T07:01:58.000Z</time>
      </trkpt>
      <trkpt lat="47.27392" lon="-2.35057">
        <ele>7.4000000953674</ele>
        <time>2021-09-16T07:02:05.000Z</time>
      </trkpt>
      <trkpt lat="47.27398" lon="-2.35057">
        <ele>7.8000001907349</ele>
        <time>2021-09-16T07:02:08.000Z</time>
      </trkpt>
      <trkpt lat="47.274" lon="-2.35058">
        <ele>8.1999998092651</ele>
        <time>2021-09-16T07:02:09.000Z</time>
      </trkpt>
      <trkpt lat="47.27401" lon="-2.35061">
        <ele>8.6000003814697</ele>
        <time>2021-09-16T07:02:10.000Z</time>
      </trkpt>
      <trkpt lat="47.27402" lon="-2.35065">
        <ele>9</ele>
        <time>2021-09-16T07:02:11.000Z</time>
      </trkpt>
      <trkpt lat="47.27403" lon="-2.35069">
        <ele>9.3999996185303</ele>
        <time>2021-09-16T07:02:12.000Z</time>
      </trkpt>
      <trkpt lat="47.27406" lon="-2.35082">
        <ele>9.3999996185303</ele>
        <time>2021-09-16T07:02:15.000Z</time>
      </trkpt>
      <trkpt lat="47.27414" lon="-2.35115">
        <ele>9.3999996185303</ele>
        <time>2021-09-16T07:02:22.000Z</time>
      </trkpt>
      <trkpt lat="47.27422" lon="-2.35149">
        <ele>9.3999996185303</ele>
        <time>2021-09-16T07:02:29.000Z</time>
      </trkpt>
      <trkpt lat="47.27429" lon="-2.3517">
        <ele>9.3999996185303</ele>
        <time>2021-09-16T07:02:35.000Z</time>
      </trkpt>
      <trkpt lat="47.27433" lon="-2.35172">
        <ele>9.3999996185303</ele>
        <time>2021-09-16T07:02:37.000Z</time>
      </trkpt>
      <trkpt lat="47.27438" lon="-2.35169">
        <ele>9.3999996185303</ele>
        <time>2021-09-16T07:02:39.000Z</time>
      </trkpt>
      <trkpt lat="47.27445" lon="-2.35165">
        <ele>9.3999996185303</ele>
        <time>2021-09-16T07:02:41.000Z</time>
      </trkpt>
      <trkpt lat="47.27457" lon="-2.35159">
        <ele>9.3999996185303</ele>
        <time>2021-09-16T07:02:45.000Z</time>
      </trkpt>
      <trkpt lat="47.27473" lon="-2.35153">
        <ele>10</ele>
        <time>2021-09-16T07:02:50.000Z</time>
      </trkpt>
      <trkpt lat="47.27475" lon="-2.35151">
        <ele>10.39999961853</ele>
        <time>2021-09-16T07:02:51.000Z</time>
      </trkpt>
      <trkpt lat="47.27478" lon="-2.35149">
        <ele>10.800000190735</ele>
        <time>2021-09-16T07:02:52.000Z</time>
      </trkpt>
      <trkpt lat="47.27481" lon="-2.35148">
        <ele>11.199999809265</ele>
        <time>2021-09-16T07:02:53.000Z</time>
      </trkpt>
      <trkpt lat="47.27484" lon="-2.35146">
        <ele>11.60000038147</ele>
        <time>2021-09-16T07:02:54.000Z</time>
      </trkpt>
      <trkpt lat="47.27498" lon="-2.35139">
        <ele>11.60000038147</ele>
        <time>2021-09-16T07:02:59.000Z</time>
      </trkpt>
      <trkpt lat="47.275" lon="-2.35136">
        <ele>11.60000038147</ele>
        <time>2021-09-16T07:03:00.000Z</time>
      </trkpt>
      <trkpt lat="47.27504" lon="-2.35128">
        <ele>11.60000038147</ele>
        <time>2021-09-16T07:03:03.000Z</time>
      </trkpt>
      <trkpt lat="47.27515" lon="-2.3513">
        <ele>11.60000038147</ele>
        <time>2021-09-16T07:03:07.000Z</time>
      </trkpt>
      <trkpt lat="47.27536" lon="-2.35141">
        <ele>11.60000038147</ele>
        <time>2021-09-16T07:03:14.000Z</time>
      </trkpt>
      <trkpt lat="47.27554" lon="-2.35137">
        <ele>11.60000038147</ele>
        <time>2021-09-16T07:03:19.000Z</time>
      </trkpt>
      <trkpt lat="47.27574" lon="-2.35134">
        <ele>12</ele>
        <time>2021-09-16T07:03:24.000Z</time>
      </trkpt>
      <trkpt lat="47.27578" lon="-2.35133">
        <ele>12.39999961853</ele>
        <time>2021-09-16T07:03:25.000Z</time>
      </trkpt>
      <trkpt lat="47.27582" lon="-2.35132">
        <ele>12.800000190735</ele>
        <time>2021-09-16T07:03:26.000Z</time>
      </trkpt>
      <trkpt lat="47.27586" lon="-2.35131">
        <ele>13.199999809265</ele>
        <time>2021-09-16T07:03:27.000Z</time>
      </trkpt>
      <trkpt lat="47.2759" lon="-2.35131">
        <ele>13.60000038147</ele>
        <time>2021-09-16T07:03:28.000Z</time>
      </trkpt>
      <trkpt lat="47.27605" lon="-2.35134">
        <ele>13.60000038147</ele>
        <time>2021-09-16T07:03:32.000Z</time>
      </trkpt>
      <trkpt lat="47.27607" lon="-2.35139">
        <ele>13.60000038147</ele>
        <time>2021-09-16T07:03:33.000Z</time>
      </trkpt>
      <trkpt lat="47.27611" lon="-2.35149">
        <ele>13.60000038147</ele>
        <time>2021-09-16T07:03:35.000Z</time>
      </trkpt>
      <trkpt lat="47.27616" lon="-2.35173">
        <ele>13.60000038147</ele>
        <time>2021-09-16T07:03:39.000Z</time>
      </trkpt>
      <trkpt lat="47.27627" lon="-2.35176">
        <ele>13.60000038147</ele>
        <time>2021-09-16T07:03:42.000Z</time>
      </trkpt>
      <trkpt lat="47.27639" lon="-2.35174">
        <ele>13.199999809265</ele>
        <time>2021-09-16T07:03:45.000Z</time>
      </trkpt>
      <trkpt lat="47.27643" lon="-2.35174">
        <ele>12.800000190735</ele>
        <time>2021-09-16T07:03:46.000Z</time>
      </trkpt>
      <trkpt lat="47.27647" lon="-2.35173">
        <ele>12.39999961853</ele>
        <time>2021-09-16T07:03:47.000Z</time>
      </trkpt>
      <trkpt lat="47.27651" lon="-2.35172">
        <ele>11.800000190735</ele>
        <time>2021-09-16T07:03:48.000Z</time>
      </trkpt>
      <trkpt lat="47.27656" lon="-2.35172">
        <ele>11.39999961853</ele>
        <time>2021-09-16T07:03:49.000Z</time>
      </trkpt>
      <trkpt lat="47.27671" lon="-2.35179">
        <ele>11.39999961853</ele>
        <time>2021-09-16T07:03:53.000Z</time>
      </trkpt>
      <trkpt lat="47.27673" lon="-2.35197">
        <ele>11.39999961853</ele>
        <time>2021-09-16T07:03:56.000Z</time>
      </trkpt>
      <trkpt lat="47.27674" lon="-2.35204">
        <ele>11.39999961853</ele>
        <time>2021-09-16T07:03:57.000Z</time>
      </trkpt>
      <trkpt lat="47.27675" lon="-2.35219">
        <ele>11</ele>
        <time>2021-09-16T07:04:00.000Z</time>
      </trkpt>
      <trkpt lat="47.27676" lon="-2.35221">
        <ele>10.60000038147</ele>
        <time>2021-09-16T07:04:01.000Z</time>
      </trkpt>
      <trkpt lat="47.27679" lon="-2.35223">
        <ele>10.199999809265</ele>
        <time>2021-09-16T07:04:02.000Z</time>
      </trkpt>
      <trkpt lat="47.27683" lon="-2.35222">
        <ele>9.6000003814697</ele>
        <time>2021-09-16T07:04:03.000Z</time>
      </trkpt>
      <trkpt lat="47.27686" lon="-2.35221">
        <ele>9.1999998092651</ele>
        <time>2021-09-16T07:04:04.000Z</time>
      </trkpt>
      <trkpt lat="47.27721" lon="-2.3521">
        <ele>9.1999998092651</ele>
        <time>2021-09-16T07:04:12.000Z</time>
      </trkpt>
      <trkpt lat="47.27759" lon="-2.35201">
        <ele>9.1999998092651</ele>
        <time>2021-09-16T07:04:20.000Z</time>
      </trkpt>
      <trkpt lat="47.27763" lon="-2.35201">
        <ele>8.8000001907349</ele>
        <time>2021-09-16T07:04:21.000Z</time>
      </trkpt>
      <trkpt lat="47.27767" lon="-2.352">
        <ele>8.1999998092651</ele>
        <time>2021-09-16T07:04:22.000Z</time>
      </trkpt>
      <trkpt lat="47.27771" lon="-2.352">
        <ele>7.8000001907349</ele>
        <time>2021-09-16T07:04:23.000Z</time>
      </trkpt>
      <trkpt lat="47.27772" lon="-2.35201">
        <ele>7.4000000953674</ele>
        <time>2021-09-16T07:04:24.000Z</time>
      </trkpt>
      <trkpt lat="47.27773" lon="-2.352">
        <ele>7</ele>
        <time>2021-09-16T07:04:25.000Z</time>
      </trkpt>
      <trkpt lat="47.27774" lon="-2.35202">
        <ele>7</ele>
        <time>2021-09-16T07:04:26.000Z</time>
      </trkpt>
      <trkpt lat="47.27777" lon="-2.35212">
        <ele>7</ele>
        <time>2021-09-16T07:04:29.000Z</time>
      </trkpt>
      <trkpt lat="47.27779" lon="-2.35221">
        <ele>7</ele>
        <time>2021-09-16T07:04:31.000Z</time>
      </trkpt>
      <trkpt lat="47.27783" lon="-2.3525">
        <ele>7</ele>
        <time>2021-09-16T07:04:36.000Z</time>
      </trkpt>
      <trkpt lat="47.27788" lon="-2.35275">
        <ele>7</ele>
        <time>2021-09-16T07:04:40.000Z</time>
      </trkpt>
      <trkpt lat="47.27791" lon="-2.35287">
        <ele>7</ele>
        <time>2021-09-16T07:04:42.000Z</time>
      </trkpt>
      <trkpt lat="47.27799" lon="-2.35333">
        <ele>7</ele>
        <time>2021-09-16T07:04:49.000Z</time>
      </trkpt>
      <trkpt lat="47.27803" lon="-2.35351">
        <ele>7</ele>
        <time>2021-09-16T07:04:52.000Z</time>
      </trkpt>
      <trkpt lat="47.27813" lon="-2.35363">
        <ele>7</ele>
        <time>2021-09-16T07:04:55.000Z</time>
      </trkpt>
      <trkpt lat="47.27831" lon="-2.35364">
        <ele>7</ele>
        <time>2021-09-16T07:04:59.000Z</time>
      </trkpt>
      <trkpt lat="47.27835" lon="-2.35364">
        <ele>7</ele>
        <time>2021-09-16T07:05:00.000Z</time>
      </trkpt>
      <trkpt lat="47.27848" lon="-2.35362">
        <ele>7</ele>
        <time>2021-09-16T07:05:03.000Z</time>
      </trkpt>
      <trkpt lat="47.27862" lon="-2.35361">
        <ele>7</ele>
        <time>2021-09-16T07:05:07.000Z</time>
      </trkpt>
      <trkpt lat="47.27883" lon="-2.3537">
        <ele>7</ele>
        <time>2021-09-16T07:05:13.000Z</time>
      </trkpt>
      <trkpt lat="47.279" lon="-2.35396">
        <ele>7</ele>
        <time>2021-09-16T07:05:19.000Z</time>
      </trkpt>
      <trkpt lat="47.27929" lon="-2.35436">
        <ele>7</ele>
        <time>2021-09-16T07:05:28.000Z</time>
      </trkpt>
      <trkpt lat="47.27954" lon="-2.35462">
        <ele>7</ele>
        <time>2021-09-16T07:05:35.000Z</time>
      </trkpt>
      <trkpt lat="47.2797" lon="-2.35471">
        <ele>7</ele>
        <time>2021-09-16T07:05:39.000Z</time>
      </trkpt>
      <trkpt lat="47.27982" lon="-2.35483">
        <ele>7</ele>
        <time>2021-09-16T07:05:42.000Z</time>
      </trkpt>
      <trkpt lat="47.27989" lon="-2.35501">
        <ele>7</ele>
        <time>2021-09-16T07:05:45.000Z</time>
      </trkpt>
      <trkpt lat="47.27996" lon="-2.35517">
        <ele>7</ele>
        <time>2021-09-16T07:05:48.000Z</time>
      </trkpt>
      <trkpt lat="47.28006" lon="-2.35545">
        <ele>7</ele>
        <time>2021-09-16T07:05:54.000Z</time>
      </trkpt>
      <trkpt lat="47.2801" lon="-2.35556">
        <ele>7.4000000953674</ele>
        <time>2021-09-16T07:05:57.000Z</time>
      </trkpt>
      <trkpt lat="47.28012" lon="-2.3556">
        <ele>7.8000001907349</ele>
        <time>2021-09-16T07:05:58.000Z</time>
      </trkpt>
      <trkpt lat="47.28014" lon="-2.35564">
        <ele>8.1999998092651</ele>
        <time>2021-09-16T07:05:59.000Z</time>
      </trkpt>
      <trkpt lat="47.28016" lon="-2.35567">
        <ele>8.6000003814697</ele>
        <time>2021-09-16T07:06:00.000Z</time>
      </trkpt>
      <trkpt lat="47.28019" lon="-2.35568">
        <ele>9</ele>
        <time>2021-09-16T07:06:01.000Z</time>
      </trkpt>
      <trkpt lat="47.28025" lon="-2.35567">
        <ele>9</ele>
        <time>2021-09-16T07:06:03.000Z</time>
      </trkpt>
      <trkpt lat="47.28038" lon="-2.35574">
        <ele>9</ele>
        <time>2021-09-16T07:06:07.000Z</time>
      </trkpt>
      <trkpt lat="47.28056" lon="-2.35583">
        <ele>9</ele>
        <time>2021-09-16T07:06:13.000Z</time>
      </trkpt>
      <trkpt lat="47.28058" lon="-2.35584">
        <ele>9.3999996185303</ele>
        <time>2021-09-16T07:06:14.000Z</time>
      </trkpt>
      <trkpt lat="47.28061" lon="-2.35585">
        <ele>9.8000001907349</ele>
        <time>2021-09-16T07:06:15.000Z</time>
      </trkpt>
      <trkpt lat="47.28064" lon="-2.35585">
        <ele>10.199999809265</ele>
        <time>2021-09-16T07:06:16.000Z</time>
      </trkpt>
      <trkpt lat="47.28066" lon="-2.35587">
        <ele>10.60000038147</ele>
        <time>2021-09-16T07:06:17.000Z</time>
      </trkpt>
      <trkpt lat="47.28069" lon="-2.35589">
        <ele>11</ele>
        <time>2021-09-16T07:06:18.000Z</time>
      </trkpt>
      <trkpt lat="47.2807" lon="-2.35592">
        <ele>11</ele>
        <time>2021-09-16T07:06:19.000Z</time>
      </trkpt>
      <trkpt lat="47.2808" lon="-2.35611">
        <ele>11</ele>
        <time>2021-09-16T07:06:25.000Z</time>
      </trkpt>
      <trkpt lat="47.28083" lon="-2.35618">
        <ele>11</ele>
        <time>2021-09-16T07:06:30.000Z</time>
      </trkpt>
      <trkpt lat="47.28084" lon="-2.35618">
        <ele>11</ele>
        <time>2021-09-16T07:06:31.000Z</time>
      </trkpt>
      <trkpt lat="47.28079" lon="-2.35613">
        <ele>11</ele>
        <time>2021-09-16T07:12:06.000Z</time>
      </trkpt>
      <trkpt lat="47.28077" lon="-2.35609">
        <ele>11</ele>
        <time>2021-09-16T07:12:08.000Z</time>
      </trkpt>
      <trkpt lat="47.28074" lon="-2.35601">
        <ele>11</ele>
        <time>2021-09-16T07:12:11.000Z</time>
      </trkpt>
      <trkpt lat="47.28068" lon="-2.35591">
        <ele>11</ele>
        <time>2021-09-16T07:12:15.000Z</time>
      </trkpt>
      <trkpt lat="47.28067" lon="-2.35583">
        <ele>11</ele>
        <time>2021-09-16T07:12:18.000Z</time>
      </trkpt>
      <trkpt lat="47.28069" lon="-2.35578">
        <ele>11</ele>
        <time>2021-09-16T07:12:20.000Z</time>
      </trkpt>
      <trkpt lat="47.28071" lon="-2.35576">
        <ele>11</ele>
        <time>2021-09-16T07:12:21.000Z</time>
      </trkpt>
      <trkpt lat="47.28079" lon="-2.35567">
        <ele>11</ele>
        <time>2021-09-16T07:12:26.000Z</time>
      </trkpt>
      <trkpt lat="47.28082" lon="-2.35563">
        <ele>11</ele>
        <time>2021-09-16T07:12:29.000Z</time>
      </trkpt>
      <trkpt lat="47.28084" lon="-2.3556">
        <ele>11</ele>
        <time>2021-09-16T07:12:30.000Z</time>
      </trkpt>
      <trkpt lat="47.28092" lon="-2.35557">
        <ele>11</ele>
        <time>2021-09-16T07:12:34.000Z</time>
      </trkpt>
      <trkpt lat="47.28111" lon="-2.35557">
        <ele>11</ele>
        <time>2021-09-16T07:12:40.000Z</time>
      </trkpt>
      <trkpt lat="47.28128" lon="-2.35556">
        <ele>11</ele>
        <time>2021-09-16T07:12:46.000Z</time>
      </trkpt>
      <trkpt lat="47.28138" lon="-2.3555">
        <ele>11</ele>
        <time>2021-09-16T07:12:49.000Z</time>
      </trkpt>
      <trkpt lat="47.28143" lon="-2.35541">
        <ele>11</ele>
        <time>2021-09-16T07:12:51.000Z</time>
      </trkpt>
      <trkpt lat="47.2816" lon="-2.35511">
        <ele>11</ele>
        <time>2021-09-16T07:12:57.000Z</time>
      </trkpt>
      <trkpt lat="47.28166" lon="-2.35499">
        <ele>11.39999961853</ele>
        <time>2021-09-16T07:12:59.000Z</time>
      </trkpt>
      <trkpt lat="47.2817" lon="-2.35494">
        <ele>11.800000190735</ele>
        <time>2021-09-16T07:13:00.000Z</time>
      </trkpt>
      <trkpt lat="47.28173" lon="-2.35489">
        <ele>12.199999809265</ele>
        <time>2021-09-16T07:13:01.000Z</time>
      </trkpt>
      <trkpt lat="47.28175" lon="-2.35484">
        <ele>12.60000038147</ele>
        <time>2021-09-16T07:13:02.000Z</time>
      </trkpt>
      <trkpt lat="47.28178" lon="-2.35479">
        <ele>13</ele>
        <time>2021-09-16T07:13:03.000Z</time>
      </trkpt>
      <trkpt lat="47.28181" lon="-2.35475">
        <ele>13</ele>
        <time>2021-09-16T07:13:04.000Z</time>
      </trkpt>
      <trkpt lat="47.28206" lon="-2.35442">
        <ele>13</ele>
        <time>2021-09-16T07:13:11.000Z</time>
      </trkpt>
      <trkpt lat="47.28233" lon="-2.35413">
        <ele>13</ele>
        <time>2021-09-16T07:13:18.000Z</time>
      </trkpt>
      <trkpt lat="47.28246" lon="-2.35397">
        <ele>13</ele>
        <time>2021-09-16T07:13:23.000Z</time>
      </trkpt>
      <trkpt lat="47.28251" lon="-2.35399">
        <ele>13</ele>
        <time>2021-09-16T07:13:25.000Z</time>
      </trkpt>
      <trkpt lat="47.28254" lon="-2.35402">
        <ele>13</ele>
        <time>2021-09-16T07:13:27.000Z</time>
      </trkpt>
      <trkpt lat="47.28257" lon="-2.35406">
        <ele>13</ele>
        <time>2021-09-16T07:13:29.000Z</time>
      </trkpt>
      <trkpt lat="47.28263" lon="-2.35408">
        <ele>13</ele>
        <time>2021-09-16T07:13:33.000Z</time>
      </trkpt>
      <trkpt lat="47.2827" lon="-2.35404">
        <ele>13</ele>
        <time>2021-09-16T07:13:37.000Z</time>
      </trkpt>
      <trkpt lat="47.28273" lon="-2.35403">
        <ele>13</ele>
        <time>2021-09-16T07:13:38.000Z</time>
      </trkpt>
      <trkpt lat="47.28284" lon="-2.35392">
        <ele>13</ele>
        <time>2021-09-16T07:13:43.000Z</time>
      </trkpt>
      <trkpt lat="47.28301" lon="-2.35373">
        <ele>13</ele>
        <time>2021-09-16T07:13:49.000Z</time>
      </trkpt>
      <trkpt lat="47.28327" lon="-2.35353">
        <ele>13</ele>
        <time>2021-09-16T07:13:57.000Z</time>
      </trkpt>
      <trkpt lat="47.28353" lon="-2.35336">
        <ele>13</ele>
        <time>2021-09-16T07:14:05.000Z</time>
      </trkpt>
      <trkpt lat="47.28357" lon="-2.35336">
        <ele>13</ele>
        <time>2021-09-16T07:14:07.000Z</time>
      </trkpt>
      <trkpt lat="47.28359" lon="-2.35337">
        <ele>13</ele>
        <time>2021-09-16T07:14:08.000Z</time>
      </trkpt>
      <trkpt lat="47.2836" lon="-2.35341">
        <ele>13</ele>
        <time>2021-09-16T07:14:09.000Z</time>
      </trkpt>
      <trkpt lat="47.28364" lon="-2.35354">
        <ele>13</ele>
        <time>2021-09-16T07:14:13.000Z</time>
      </trkpt>
      <trkpt lat="47.28375" lon="-2.35368">
        <ele>13.39999961853</ele>
        <time>2021-09-16T07:14:19.000Z</time>
      </trkpt>
      <trkpt lat="47.28377" lon="-2.3537">
        <ele>13.800000190735</ele>
        <time>2021-09-16T07:14:20.000Z</time>
      </trkpt>
      <trkpt lat="47.28378" lon="-2.35373">
        <ele>14.199999809265</ele>
        <time>2021-09-16T07:14:21.000Z</time>
      </trkpt>
      <trkpt lat="47.2838" lon="-2.35375">
        <ele>14.60000038147</ele>
        <time>2021-09-16T07:14:22.000Z</time>
      </trkpt>
      <trkpt lat="47.28381" lon="-2.35376">
        <ele>15</ele>
        <time>2021-09-16T07:14:23.000Z</time>
      </trkpt>
      <trkpt lat="47.28385" lon="-2.35379">
        <ele>15</ele>
        <time>2021-09-16T07:14:25.000Z</time>
      </trkpt>
      <trkpt lat="47.28386" lon="-2.35381">
        <ele>16</ele>
        <time>2021-09-16T07:14:26.000Z</time>
      </trkpt>
      <trkpt lat="47.28387" lon="-2.35382">
        <ele>16.39999961853</ele>
        <time>2021-09-16T07:14:27.000Z</time>
      </trkpt>
      <trkpt lat="47.28387" lon="-2.35386">
        <ele>16.799999237061</ele>
        <time>2021-09-16T07:14:28.000Z</time>
      </trkpt>
      <trkpt lat="47.28387" lon="-2.35389">
        <ele>17.200000762939</ele>
        <time>2021-09-16T07:14:29.000Z</time>
      </trkpt>
      <trkpt lat="47.28387" lon="-2.35394">
        <ele>17.60000038147</ele>
        <time>2021-09-16T07:14:31.000Z</time>
      </trkpt>
      <trkpt lat="47.28388" lon="-2.35396">
        <ele>18</ele>
        <time>2021-09-16T07:14:32.000Z</time>
      </trkpt>
      <trkpt lat="47.28389" lon="-2.35397">
        <ele>18.60000038147</ele>
        <time>2021-09-16T07:14:33.000Z</time>
      </trkpt>
      <trkpt lat="47.28389" lon="-2.35399">
        <ele>19</ele>
        <time>2021-09-16T07:14:34.000Z</time>
      </trkpt>
      <trkpt lat="47.28389" lon="-2.354">
        <ele>19.39999961853</ele>
        <time>2021-09-16T07:14:35.000Z</time>
      </trkpt>
      <trkpt lat="47.28393" lon="-2.35406">
        <ele>20</ele>
        <time>2021-09-16T07:14:39.000Z</time>
      </trkpt>
      <trkpt lat="47.28394" lon="-2.35407">
        <ele>20.39999961853</ele>
        <time>2021-09-16T07:14:40.000Z</time>
      </trkpt>
      <trkpt lat="47.28394" lon="-2.35409">
        <ele>20.799999237061</ele>
        <time>2021-09-16T07:14:41.000Z</time>
      </trkpt>
      <trkpt lat="47.28393" lon="-2.3541">
        <ele>21.200000762939</ele>
        <time>2021-09-16T07:14:42.000Z</time>
      </trkpt>
      <trkpt lat="47.28393" lon="-2.3541">
        <ele>21.60000038147</ele>
        <time>2021-09-16T07:14:43.000Z</time>
      </trkpt>
      <trkpt lat="47.28395" lon="-2.35415">
        <ele>21.60000038147</ele>
        <time>2021-09-16T07:14:49.000Z</time>
      </trkpt>
      <trkpt lat="47.28397" lon="-2.35421">
        <ele>21.60000038147</ele>
        <time>2021-09-16T07:14:52.000Z</time>
      </trkpt>
      <trkpt lat="47.28407" lon="-2.35427">
        <ele>21.60000038147</ele>
        <time>2021-09-16T07:15:07.000Z</time>
      </trkpt>
      <trkpt lat="47.28411" lon="-2.35426">
        <ele>21.60000038147</ele>
        <time>2021-09-16T07:15:09.000Z</time>
      </trkpt>
      <trkpt lat="47.2842" lon="-2.35415">
        <ele>21.60000038147</ele>
        <time>2021-09-16T07:15:15.000Z</time>
      </trkpt>
      <trkpt lat="47.28425" lon="-2.35411">
        <ele>21.60000038147</ele>
        <time>2021-09-16T07:15:20.000Z</time>
      </trkpt>
      <trkpt lat="47.28429" lon="-2.35409">
        <ele>22</ele>
        <time>2021-09-16T07:15:22.000Z</time>
      </trkpt>
      <trkpt lat="47.28431" lon="-2.35409">
        <ele>22.39999961853</ele>
        <time>2021-09-16T07:15:23.000Z</time>
      </trkpt>
      <trkpt lat="47.28433" lon="-2.35409">
        <ele>23</ele>
        <time>2021-09-16T07:15:24.000Z</time>
      </trkpt>
      <trkpt lat="47.28435" lon="-2.35409">
        <ele>23.39999961853</ele>
        <time>2021-09-16T07:15:25.000Z</time>
      </trkpt>
      <trkpt lat="47.28438" lon="-2.35408">
        <ele>23.799999237061</ele>
        <time>2021-09-16T07:15:26.000Z</time>
      </trkpt>
      <trkpt lat="47.28445" lon="-2.35392">
        <ele>23.39999961853</ele>
        <time>2021-09-16T07:15:30.000Z</time>
      </trkpt>
      <trkpt lat="47.28446" lon="-2.35385">
        <ele>23</ele>
        <time>2021-09-16T07:15:31.000Z</time>
      </trkpt>
      <trkpt lat="47.28447" lon="-2.35379">
        <ele>22.60000038147</ele>
        <time>2021-09-16T07:15:32.000Z</time>
      </trkpt>
      <trkpt lat="47.28448" lon="-2.35374">
        <ele>22</ele>
        <time>2021-09-16T07:15:33.000Z</time>
      </trkpt>
      <trkpt lat="47.28449" lon="-2.3537">
        <ele>21.60000038147</ele>
        <time>2021-09-16T07:15:34.000Z</time>
      </trkpt>
      <trkpt lat="47.2845" lon="-2.35365">
        <ele>21.200000762939</ele>
        <time>2021-09-16T07:15:35.000Z</time>
      </trkpt>
      <trkpt lat="47.2845" lon="-2.35361">
        <ele>20.799999237061</ele>
        <time>2021-09-16T07:15:36.000Z</time>
      </trkpt>
      <trkpt lat="47.2845" lon="-2.35356">
        <ele>20.39999961853</ele>
        <time>2021-09-16T07:15:37.000Z</time>
      </trkpt>
      <trkpt lat="47.28451" lon="-2.35352">
        <ele>19.799999237061</ele>
        <time>2021-09-16T07:15:38.000Z</time>
      </trkpt>
      <trkpt lat="47.28451" lon="-2.35348">
        <ele>19.200000762939</ele>
        <time>2021-09-16T07:15:39.000Z</time>
      </trkpt>
      <trkpt lat="47.28452" lon="-2.35345">
        <ele>18.60000038147</ele>
        <time>2021-09-16T07:15:40.000Z</time>
      </trkpt>
      <trkpt lat="47.28454" lon="-2.35343">
        <ele>17.39999961853</ele>
        <time>2021-09-16T07:15:41.000Z</time>
      </trkpt>
      <trkpt lat="47.28457" lon="-2.35343">
        <ele>17</ele>
        <time>2021-09-16T07:15:42.000Z</time>
      </trkpt>
      <trkpt lat="47.2846" lon="-2.35345">
        <ele>16.39999961853</ele>
        <time>2021-09-16T07:15:43.000Z</time>
      </trkpt>
      <trkpt lat="47.28464" lon="-2.35348">
        <ele>15.800000190735</ele>
        <time>2021-09-16T07:15:44.000Z</time>
      </trkpt>
      <trkpt lat="47.28467" lon="-2.35352">
        <ele>15.39999961853</ele>
        <time>2021-09-16T07:15:45.000Z</time>
      </trkpt>
      <trkpt lat="47.28471" lon="-2.35356">
        <ele>14.800000190735</ele>
        <time>2021-09-16T07:15:46.000Z</time>
      </trkpt>
      <trkpt lat="47.28482" lon="-2.35375">
        <ele>14.800000190735</ele>
        <time>2021-09-16T07:15:50.000Z</time>
      </trkpt>
      <trkpt lat="47.28487" lon="-2.35404">
        <ele>14.800000190735</ele>
        <time>2021-09-16T07:15:55.000Z</time>
      </trkpt>
      <trkpt lat="47.28492" lon="-2.35422">
        <ele>14.800000190735</ele>
        <time>2021-09-16T07:16:00.000Z</time>
      </trkpt>
      <trkpt lat="47.28495" lon="-2.35433">
        <ele>15.199999809265</ele>
        <time>2021-09-16T07:16:03.000Z</time>
      </trkpt>
      <trkpt lat="47.28496" lon="-2.35436">
        <ele>15.60000038147</ele>
        <time>2021-09-16T07:16:04.000Z</time>
      </trkpt>
      <trkpt lat="47.28497" lon="-2.35439">
        <ele>16.39999961853</ele>
        <time>2021-09-16T07:16:05.000Z</time>
      </trkpt>
      <trkpt lat="47.28498" lon="-2.35443">
        <ele>17</ele>
        <time>2021-09-16T07:16:06.000Z</time>
      </trkpt>
      <trkpt lat="47.28504" lon="-2.35451">
        <ele>17</ele>
        <time>2021-09-16T07:16:09.000Z</time>
      </trkpt>
      <trkpt lat="47.28514" lon="-2.35469">
        <ele>17</ele>
        <time>2021-09-16T07:16:15.000Z</time>
      </trkpt>
      <trkpt lat="47.2852" lon="-2.35476">
        <ele>17</ele>
        <time>2021-09-16T07:16:21.000Z</time>
      </trkpt>
      <trkpt lat="47.28527" lon="-2.35482">
        <ele>17</ele>
        <time>2021-09-16T07:16:27.000Z</time>
      </trkpt>
      <trkpt lat="47.28529" lon="-2.35482">
        <ele>17</ele>
        <time>2021-09-16T07:16:29.000Z</time>
      </trkpt>
      <trkpt lat="47.28529" lon="-2.35488">
        <ele>17</ele>
        <time>2021-09-16T07:16:41.000Z</time>
      </trkpt>
      <trkpt lat="47.2853" lon="-2.3549">
        <ele>17</ele>
        <time>2021-09-16T07:16:42.000Z</time>
      </trkpt>
      <trkpt lat="47.2853" lon="-2.35492">
        <ele>17</ele>
        <time>2021-09-16T07:16:43.000Z</time>
      </trkpt>
      <trkpt lat="47.28531" lon="-2.35515">
        <ele>17</ele>
        <time>2021-09-16T07:16:49.000Z</time>
      </trkpt>
      <trkpt lat="47.28531" lon="-2.35526">
        <ele>17.39999961853</ele>
        <time>2021-09-16T07:16:52.000Z</time>
      </trkpt>
      <trkpt lat="47.28531" lon="-2.35528">
        <ele>17.799999237061</ele>
        <time>2021-09-16T07:16:53.000Z</time>
      </trkpt>
      <trkpt lat="47.28532" lon="-2.35531">
        <ele>18.200000762939</ele>
        <time>2021-09-16T07:16:54.000Z</time>
      </trkpt>
      <trkpt lat="47.28532" lon="-2.35534">
        <ele>19.200000762939</ele>
        <time>2021-09-16T07:16:55.000Z</time>
      </trkpt>
      <trkpt lat="47.28538" lon="-2.35555">
        <ele>19.60000038147</ele>
        <time>2021-09-16T07:17:00.000Z</time>
      </trkpt>
      <trkpt lat="47.28539" lon="-2.3556">
        <ele>20</ele>
        <time>2021-09-16T07:17:01.000Z</time>
      </trkpt>
      <trkpt lat="47.2854" lon="-2.35565">
        <ele>20.39999961853</ele>
        <time>2021-09-16T07:17:02.000Z</time>
      </trkpt>
      <trkpt lat="47.28541" lon="-2.35568">
        <ele>20.799999237061</ele>
        <time>2021-09-16T07:17:03.000Z</time>
      </trkpt>
      <trkpt lat="47.28541" lon="-2.35572">
        <ele>21.200000762939</ele>
        <time>2021-09-16T07:17:04.000Z</time>
      </trkpt>
      <trkpt lat="47.28539" lon="-2.35579">
        <ele>21.200000762939</ele>
        <time>2021-09-16T07:17:06.000Z</time>
      </trkpt>
      <trkpt lat="47.28534" lon="-2.35591">
        <ele>21.799999237061</ele>
        <time>2021-09-16T07:17:10.000Z</time>
      </trkpt>
      <trkpt lat="47.28533" lon="-2.35594">
        <ele>22.200000762939</ele>
        <time>2021-09-16T07:17:11.000Z</time>
      </trkpt>
      <trkpt lat="47.28532" lon="-2.35597">
        <ele>22.60000038147</ele>
        <time>2021-09-16T07:17:12.000Z</time>
      </trkpt>
      <trkpt lat="47.2853" lon="-2.35599">
        <ele>23</ele>
        <time>2021-09-16T07:17:13.000Z</time>
      </trkpt>
      <trkpt lat="47.28528" lon="-2.35601">
        <ele>23.39999961853</ele>
        <time>2021-09-16T07:17:14.000Z</time>
      </trkpt>
      <trkpt lat="47.28528" lon="-2.35605">
        <ele>23.39999961853</ele>
        <time>2021-09-16T07:17:16.000Z</time>
      </trkpt>
      <trkpt lat="47.28533" lon="-2.35611">
        <ele>23.799999237061</ele>
        <time>2021-09-16T07:17:22.000Z</time>
      </trkpt>
      <trkpt lat="47.28535" lon="-2.3561">
        <ele>24.200000762939</ele>
        <time>2021-09-16T07:17:23.000Z</time>
      </trkpt>
      <trkpt lat="47.28536" lon="-2.3561">
        <ele>24.60000038147</ele>
        <time>2021-09-16T07:17:24.000Z</time>
      </trkpt>
      <trkpt lat="47.28538" lon="-2.35609">
        <ele>25</ele>
        <time>2021-09-16T07:17:25.000Z</time>
      </trkpt>
      <trkpt lat="47.2854" lon="-2.35609">
        <ele>25.39999961853</ele>
        <time>2021-09-16T07:17:26.000Z</time>
      </trkpt>
      <trkpt lat="47.28542" lon="-2.3561">
        <ele>25.39999961853</ele>
        <time>2021-09-16T07:17:27.000Z</time>
      </trkpt>
      <trkpt lat="47.28543" lon="-2.35612">
        <ele>25.39999961853</ele>
        <time>2021-09-16T07:17:28.000Z</time>
      </trkpt>
      <trkpt lat="47.28543" lon="-2.35628">
        <ele>25.39999961853</ele>
        <time>2021-09-16T07:17:32.000Z</time>
      </trkpt>
      <trkpt lat="47.28543" lon="-2.35634">
        <ele>25</ele>
        <time>2021-09-16T07:17:33.000Z</time>
      </trkpt>
      <trkpt lat="47.28541" lon="-2.35641">
        <ele>24.60000038147</ele>
        <time>2021-09-16T07:17:34.000Z</time>
      </trkpt>
      <trkpt lat="47.2854" lon="-2.35649">
        <ele>24</ele>
        <time>2021-09-16T07:17:35.000Z</time>
      </trkpt>
      <trkpt lat="47.28538" lon="-2.35657">
        <ele>23.60000038147</ele>
        <time>2021-09-16T07:17:36.000Z</time>
      </trkpt>
      <trkpt lat="47.28538" lon="-2.35665">
        <ele>23.200000762939</ele>
        <time>2021-09-16T07:17:37.000Z</time>
      </trkpt>
      <trkpt lat="47.28538" lon="-2.35673">
        <ele>22.60000038147</ele>
        <time>2021-09-16T07:17:38.000Z</time>
      </trkpt>
      <trkpt lat="47.28538" lon="-2.3568">
        <ele>22</ele>
        <time>2021-09-16T07:17:39.000Z</time>
      </trkpt>
      <trkpt lat="47.28537" lon="-2.35687">
        <ele>21.60000038147</ele>
        <time>2021-09-16T07:17:40.000Z</time>
      </trkpt>
      <trkpt lat="47.28537" lon="-2.35693">
        <ele>21</ele>
        <time>2021-09-16T07:17:41.000Z</time>
      </trkpt>
      <trkpt lat="47.28536" lon="-2.35701">
        <ele>20.60000038147</ele>
        <time>2021-09-16T07:17:43.000Z</time>
      </trkpt>
      <trkpt lat="47.28536" lon="-2.35703">
        <ele>20.200000762939</ele>
        <time>2021-09-16T07:17:44.000Z</time>
      </trkpt>
      <trkpt lat="47.28535" lon="-2.35705">
        <ele>19.39999961853</ele>
        <time>2021-09-16T07:17:45.000Z</time>
      </trkpt>
      <trkpt lat="47.28534" lon="-2.35706">
        <ele>19</ele>
        <time>2021-09-16T07:17:46.000Z</time>
      </trkpt>
      <trkpt lat="47.28533" lon="-2.35706">
        <ele>19</ele>
        <time>2021-09-16T07:17:47.000Z</time>
      </trkpt>
      <trkpt lat="47.2853" lon="-2.35719">
        <ele>19</ele>
        <time>2021-09-16T07:18:06.000Z</time>
      </trkpt>
      <trkpt lat="47.28531" lon="-2.35721">
        <ele>19</ele>
        <time>2021-09-16T07:18:07.000Z</time>
      </trkpt>
      <trkpt lat="47.28532" lon="-2.35725">
        <ele>19</ele>
        <time>2021-09-16T07:18:09.000Z</time>
      </trkpt>
      <trkpt lat="47.28535" lon="-2.35733">
        <ele>19</ele>
        <time>2021-09-16T07:18:12.000Z</time>
      </trkpt>
      <trkpt lat="47.28544" lon="-2.35753">
        <ele>19</ele>
        <time>2021-09-16T07:18:17.000Z</time>
      </trkpt>
      <trkpt lat="47.28548" lon="-2.35775">
        <ele>19</ele>
        <time>2021-09-16T07:18:22.000Z</time>
      </trkpt>
      <trkpt lat="47.28556" lon="-2.35806">
        <ele>19</ele>
        <time>2021-09-16T07:18:29.000Z</time>
      </trkpt>
      <trkpt lat="47.28559" lon="-2.35818">
        <ele>19</ele>
        <time>2021-09-16T07:18:33.000Z</time>
      </trkpt>
      <trkpt lat="47.28561" lon="-2.35819">
        <ele>19</ele>
        <time>2021-09-16T07:18:34.000Z</time>
      </trkpt>
      <trkpt lat="47.28562" lon="-2.35819">
        <ele>19</ele>
        <time>2021-09-16T07:18:35.000Z</time>
      </trkpt>
      <trkpt lat="47.28568" lon="-2.35813">
        <ele>19</ele>
        <time>2021-09-16T07:18:37.000Z</time>
      </trkpt>
      <trkpt lat="47.28576" lon="-2.35799">
        <ele>19</ele>
        <time>2021-09-16T07:18:40.000Z</time>
      </trkpt>
      <trkpt lat="47.28584" lon="-2.35785">
        <ele>19</ele>
        <time>2021-09-16T07:18:43.000Z</time>
      </trkpt>
      <trkpt lat="47.28586" lon="-2.35779">
        <ele>19</ele>
        <time>2021-09-16T07:18:44.000Z</time>
      </trkpt>
      <trkpt lat="47.28598" lon="-2.35761">
        <ele>19</ele>
        <time>2021-09-16T07:18:48.000Z</time>
      </trkpt>
      <trkpt lat="47.28612" lon="-2.35735">
        <ele>19</ele>
        <time>2021-09-16T07:18:54.000Z</time>
      </trkpt>
      <trkpt lat="47.28614" lon="-2.35735">
        <ele>19</ele>
        <time>2021-09-16T07:18:55.000Z</time>
      </trkpt>
      <trkpt lat="47.28619" lon="-2.35738">
        <ele>19</ele>
        <time>2021-09-16T07:18:58.000Z</time>
      </trkpt>
      <trkpt lat="47.28619" lon="-2.35739">
        <ele>19</ele>
        <time>2021-09-16T07:18:59.000Z</time>
      </trkpt>
      <trkpt lat="47.28623" lon="-2.35742">
        <ele>19</ele>
        <time>2021-09-16T07:19:18.000Z</time>
      </trkpt>
      <trkpt lat="47.28626" lon="-2.35746">
        <ele>19</ele>
        <time>2021-09-16T07:19:20.000Z</time>
      </trkpt>
      <trkpt lat="47.28633" lon="-2.35765">
        <ele>19</ele>
        <time>2021-09-16T07:19:25.000Z</time>
      </trkpt>
      <trkpt lat="47.28641" lon="-2.358">
        <ele>19</ele>
        <time>2021-09-16T07:19:32.000Z</time>
      </trkpt>
      <trkpt lat="47.28644" lon="-2.35827">
        <ele>19</ele>
        <time>2021-09-16T07:19:38.000Z</time>
      </trkpt>
      <trkpt lat="47.28647" lon="-2.35849">
        <ele>19</ele>
        <time>2021-09-16T07:19:44.000Z</time>
      </trkpt>
      <trkpt lat="47.28656" lon="-2.35869">
        <ele>19</ele>
        <time>2021-09-16T07:19:49.000Z</time>
      </trkpt>
      <trkpt lat="47.28667" lon="-2.35901">
        <ele>19</ele>
        <time>2021-09-16T07:19:56.000Z</time>
      </trkpt>
      <trkpt lat="47.28675" lon="-2.35919">
        <ele>19</ele>
        <time>2021-09-16T07:20:01.000Z</time>
      </trkpt>
      <trkpt lat="47.28683" lon="-2.35911">
        <ele>19</ele>
        <time>2021-09-16T07:20:04.000Z</time>
      </trkpt>
      <trkpt lat="47.28687" lon="-2.35907">
        <ele>19</ele>
        <time>2021-09-16T07:20:05.000Z</time>
      </trkpt>
      <trkpt lat="47.2869" lon="-2.35902">
        <ele>19</ele>
        <time>2021-09-16T07:20:06.000Z</time>
      </trkpt>
      <trkpt lat="47.28703" lon="-2.35886">
        <ele>19</ele>
        <time>2021-09-16T07:20:10.000Z</time>
      </trkpt>
      <trkpt lat="47.28706" lon="-2.3588">
        <ele>19</ele>
        <time>2021-09-16T07:20:11.000Z</time>
      </trkpt>
      <trkpt lat="47.28712" lon="-2.35871">
        <ele>19.39999961853</ele>
        <time>2021-09-16T07:20:13.000Z</time>
      </trkpt>
      <trkpt lat="47.28715" lon="-2.35866">
        <ele>20.200000762939</ele>
        <time>2021-09-16T07:20:14.000Z</time>
      </trkpt>
      <trkpt lat="47.28717" lon="-2.35862">
        <ele>20.60000038147</ele>
        <time>2021-09-16T07:20:15.000Z</time>
      </trkpt>
      <trkpt lat="47.2872" lon="-2.35857">
        <ele>21.200000762939</ele>
        <time>2021-09-16T07:20:16.000Z</time>
      </trkpt>
      <trkpt lat="47.28729" lon="-2.35842">
        <ele>21.200000762939</ele>
        <time>2021-09-16T07:20:19.000Z</time>
      </trkpt>
      <trkpt lat="47.28747" lon="-2.35809">
        <ele>21.200000762939</ele>
        <time>2021-09-16T07:20:26.000Z</time>
      </trkpt>
      <trkpt lat="47.28758" lon="-2.35788">
        <ele>21.200000762939</ele>
        <time>2021-09-16T07:20:30.000Z</time>
      </trkpt>
      <trkpt lat="47.28763" lon="-2.35777">
        <ele>21.200000762939</ele>
        <time>2021-09-16T07:20:32.000Z</time>
      </trkpt>
      <trkpt lat="47.28783" lon="-2.35738">
        <ele>21.200000762939</ele>
        <time>2021-09-16T07:20:39.000Z</time>
      </trkpt>
      <trkpt lat="47.28806" lon="-2.35693">
        <ele>21.200000762939</ele>
        <time>2021-09-16T07:20:47.000Z</time>
      </trkpt>
      <trkpt lat="47.28821" lon="-2.3567">
        <ele>21.200000762939</ele>
        <time>2021-09-16T07:20:52.000Z</time>
      </trkpt>
      <trkpt lat="47.28828" lon="-2.35661">
        <ele>21.200000762939</ele>
        <time>2021-09-16T07:20:54.000Z</time>
      </trkpt>
      <trkpt lat="47.28835" lon="-2.35653">
        <ele>21.200000762939</ele>
        <time>2021-09-16T07:20:56.000Z</time>
      </trkpt>
      <trkpt lat="47.28853" lon="-2.35634">
        <ele>21.200000762939</ele>
        <time>2021-09-16T07:21:01.000Z</time>
      </trkpt>
      <trkpt lat="47.28876" lon="-2.35607">
        <ele>21.200000762939</ele>
        <time>2021-09-16T07:21:08.000Z</time>
      </trkpt>
      <trkpt lat="47.28906" lon="-2.35574">
        <ele>21.200000762939</ele>
        <time>2021-09-16T07:21:17.000Z</time>
      </trkpt>
      <trkpt lat="47.28922" lon="-2.35556">
        <ele>21.200000762939</ele>
        <time>2021-09-16T07:21:24.000Z</time>
      </trkpt>
      <trkpt lat="47.28925" lon="-2.35556">
        <ele>21.200000762939</ele>
        <time>2021-09-16T07:21:25.000Z</time>
      </trkpt>
      <trkpt lat="47.28929" lon="-2.35559">
        <ele>21.200000762939</ele>
        <time>2021-09-16T07:21:27.000Z</time>
      </trkpt>
      <trkpt lat="47.28933" lon="-2.3557">
        <ele>21.200000762939</ele>
        <time>2021-09-16T07:21:30.000Z</time>
      </trkpt>
      <trkpt lat="47.28939" lon="-2.35583">
        <ele>21.200000762939</ele>
        <time>2021-09-16T07:21:33.000Z</time>
      </trkpt>
      <trkpt lat="47.28957" lon="-2.35629">
        <ele>21.200000762939</ele>
        <time>2021-09-16T07:21:41.000Z</time>
      </trkpt>
      <trkpt lat="47.28974" lon="-2.35672">
        <ele>21.200000762939</ele>
        <time>2021-09-16T07:21:49.000Z</time>
      </trkpt>
      <trkpt lat="47.28977" lon="-2.35678">
        <ele>21.60000038147</ele>
        <time>2021-09-16T07:21:50.000Z</time>
      </trkpt>
      <trkpt lat="47.2898" lon="-2.35683">
        <ele>22</ele>
        <time>2021-09-16T07:21:51.000Z</time>
      </trkpt>
      <trkpt lat="47.28983" lon="-2.35688">
        <ele>22.799999237061</ele>
        <time>2021-09-16T07:21:52.000Z</time>
      </trkpt>
      <trkpt lat="47.28986" lon="-2.35692">
        <ele>23.200000762939</ele>
        <time>2021-09-16T07:21:53.000Z</time>
      </trkpt>
      <trkpt lat="47.2899" lon="-2.35696">
        <ele>23.200000762939</ele>
        <time>2021-09-16T07:21:54.000Z</time>
      </trkpt>
      <trkpt lat="47.28994" lon="-2.35699">
        <ele>23.200000762939</ele>
        <time>2021-09-16T07:21:55.000Z</time>
      </trkpt>
      <trkpt lat="47.29006" lon="-2.35704">
        <ele>23.200000762939</ele>
        <time>2021-09-16T07:21:58.000Z</time>
      </trkpt>
      <trkpt lat="47.29024" lon="-2.357">
        <ele>23.200000762939</ele>
        <time>2021-09-16T07:22:02.000Z</time>
      </trkpt>
      <trkpt lat="47.29036" lon="-2.35691">
        <ele>23.200000762939</ele>
        <time>2021-09-16T07:22:05.000Z</time>
      </trkpt>
      <trkpt lat="47.29047" lon="-2.3568">
        <ele>23.200000762939</ele>
        <time>2021-09-16T07:22:08.000Z</time>
      </trkpt>
      <trkpt lat="47.29077" lon="-2.35648">
        <ele>23.200000762939</ele>
        <time>2021-09-16T07:22:17.000Z</time>
      </trkpt>
      <trkpt lat="47.29083" lon="-2.35641">
        <ele>23.200000762939</ele>
        <time>2021-09-16T07:22:20.000Z</time>
      </trkpt>
      <trkpt lat="47.29083" lon="-2.35633">
        <ele>23.200000762939</ele>
        <time>2021-09-16T07:22:22.000Z</time>
      </trkpt>
      <trkpt lat="47.29074" lon="-2.35615">
        <ele>23.200000762939</ele>
        <time>2021-09-16T07:22:26.000Z</time>
      </trkpt>
      <trkpt lat="47.29071" lon="-2.35609">
        <ele>23.200000762939</ele>
        <time>2021-09-16T07:22:27.000Z</time>
      </trkpt>
      <trkpt lat="47.29053" lon="-2.35563">
        <ele>23.200000762939</ele>
        <time>2021-09-16T07:22:34.000Z</time>
      </trkpt>
      <trkpt lat="47.29041" lon="-2.35529">
        <ele>23.200000762939</ele>
        <time>2021-09-16T07:22:39.000Z</time>
      </trkpt>
      <trkpt lat="47.29041" lon="-2.35521">
        <ele>23.200000762939</ele>
        <time>2021-09-16T07:22:40.000Z</time>
      </trkpt>
      <trkpt lat="47.29048" lon="-2.355">
        <ele>23.200000762939</ele>
        <time>2021-09-16T07:22:43.000Z</time>
      </trkpt>
      <trkpt lat="47.29052" lon="-2.35494">
        <ele>23.200000762939</ele>
        <time>2021-09-16T07:22:44.000Z</time>
      </trkpt>
      <trkpt lat="47.29073" lon="-2.35464">
        <ele>23.200000762939</ele>
        <time>2021-09-16T07:22:50.000Z</time>
      </trkpt>
      <trkpt lat="47.29085" lon="-2.3545">
        <ele>23.200000762939</ele>
        <time>2021-09-16T07:22:55.000Z</time>
      </trkpt>
      <trkpt lat="47.29092" lon="-2.35461">
        <ele>23.200000762939</ele>
        <time>2021-09-16T07:22:59.000Z</time>
      </trkpt>
      <trkpt lat="47.29093" lon="-2.35464">
        <ele>23.200000762939</ele>
        <time>2021-09-16T07:23:00.000Z</time>
      </trkpt>
      <trkpt lat="47.29097" lon="-2.35473">
        <ele>23.200000762939</ele>
        <time>2021-09-16T07:23:05.000Z</time>
      </trkpt>
      <trkpt lat="47.29103" lon="-2.35467">
        <ele>23.200000762939</ele>
        <time>2021-09-16T07:23:08.000Z</time>
      </trkpt>
      <trkpt lat="47.29109" lon="-2.35462">
        <ele>23.200000762939</ele>
        <time>2021-09-16T07:23:11.000Z</time>
      </trkpt>
      <trkpt lat="47.29123" lon="-2.35463">
        <ele>23.200000762939</ele>
        <time>2021-09-16T07:23:15.000Z</time>
      </trkpt>
      <trkpt lat="47.29127" lon="-2.35462">
        <ele>23.200000762939</ele>
        <time>2021-09-16T07:23:16.000Z</time>
      </trkpt>
      <trkpt lat="47.29155" lon="-2.35449">
        <ele>23.200000762939</ele>
        <time>2021-09-16T07:23:23.000Z</time>
      </trkpt>
      <trkpt lat="47.2919" lon="-2.35436">
        <ele>23.200000762939</ele>
        <time>2021-09-16T07:23:31.000Z</time>
      </trkpt>
      <trkpt lat="47.29194" lon="-2.35434">
        <ele>23.200000762939</ele>
        <time>2021-09-16T07:23:32.000Z</time>
      </trkpt>
      <trkpt lat="47.29216" lon="-2.35426">
        <ele>23.200000762939</ele>
        <time>2021-09-16T07:23:37.000Z</time>
      </trkpt>
      <trkpt lat="47.29253" lon="-2.3541">
        <ele>23.200000762939</ele>
        <time>2021-09-16T07:23:45.000Z</time>
      </trkpt>
      <trkpt lat="47.29258" lon="-2.35408">
        <ele>23.200000762939</ele>
        <time>2021-09-16T07:23:46.000Z</time>
      </trkpt>
      <trkpt lat="47.29288" lon="-2.35387">
        <ele>23.200000762939</ele>
        <time>2021-09-16T07:23:53.000Z</time>
      </trkpt>
      <trkpt lat="47.2932" lon="-2.35357">
        <ele>23.200000762939</ele>
        <time>2021-09-16T07:24:00.000Z</time>
      </trkpt>
      <trkpt lat="47.29339" lon="-2.35336">
        <ele>23.200000762939</ele>
        <time>2021-09-16T07:24:04.000Z</time>
      </trkpt>
      <trkpt lat="47.29362" lon="-2.3531">
        <ele>22.799999237061</ele>
        <time>2021-09-16T07:24:09.000Z</time>
      </trkpt>
      <trkpt lat="47.29366" lon="-2.35305">
        <ele>22.39999961853</ele>
        <time>2021-09-16T07:24:10.000Z</time>
      </trkpt>
      <trkpt lat="47.29371" lon="-2.353">
        <ele>22</ele>
        <time>2021-09-16T07:24:11.000Z</time>
      </trkpt>
      <trkpt lat="47.29375" lon="-2.35295">
        <ele>21.60000038147</ele>
        <time>2021-09-16T07:24:12.000Z</time>
      </trkpt>
      <trkpt lat="47.29379" lon="-2.3529">
        <ele>21.200000762939</ele>
        <time>2021-09-16T07:24:13.000Z</time>
      </trkpt>
      <trkpt lat="47.29406" lon="-2.35255">
        <ele>21.200000762939</ele>
        <time>2021-09-16T07:24:20.000Z</time>
      </trkpt>
      <trkpt lat="47.29427" lon="-2.35223">
        <ele>21.200000762939</ele>
        <time>2021-09-16T07:24:26.000Z</time>
      </trkpt>
      <trkpt lat="47.2944" lon="-2.35192">
        <ele>20.799999237061</ele>
        <time>2021-09-16T07:24:31.000Z</time>
      </trkpt>
      <trkpt lat="47.29443" lon="-2.35186">
        <ele>20.39999961853</ele>
        <time>2021-09-16T07:24:32.000Z</time>
      </trkpt>
      <trkpt lat="47.29445" lon="-2.35179">
        <ele>20</ele>
        <time>2021-09-16T07:24:33.000Z</time>
      </trkpt>
      <trkpt lat="47.29447" lon="-2.35173">
        <ele>19.60000038147</ele>
        <time>2021-09-16T07:24:34.000Z</time>
      </trkpt>
      <trkpt lat="47.29449" lon="-2.35167">
        <ele>19.200000762939</ele>
        <time>2021-09-16T07:24:35.000Z</time>
      </trkpt>
      <trkpt lat="47.29465" lon="-2.35125">
        <ele>19.200000762939</ele>
        <time>2021-09-16T07:24:41.000Z</time>
      </trkpt>
      <trkpt lat="47.2948" lon="-2.35081">
        <ele>19.200000762939</ele>
        <time>2021-09-16T07:24:47.000Z</time>
      </trkpt>
      <trkpt lat="47.29493" lon="-2.3504">
        <ele>19.200000762939</ele>
        <time>2021-09-16T07:24:53.000Z</time>
      </trkpt>
      <trkpt lat="47.29508" lon="-2.35004">
        <ele>19.200000762939</ele>
        <time>2021-09-16T07:24:57.000Z</time>
      </trkpt>
      <trkpt lat="47.29513" lon="-2.34995">
        <ele>18.60000038147</ele>
        <time>2021-09-16T07:24:58.000Z</time>
      </trkpt>
      <trkpt lat="47.29517" lon="-2.34987">
        <ele>18.200000762939</ele>
        <time>2021-09-16T07:24:59.000Z</time>
      </trkpt>
      <trkpt lat="47.29522" lon="-2.34978">
        <ele>17.60000038147</ele>
        <time>2021-09-16T07:25:00.000Z</time>
      </trkpt>
      <trkpt lat="47.29527" lon="-2.3497">
        <ele>17.200000762939</ele>
        <time>2021-09-16T07:25:01.000Z</time>
      </trkpt>
      <trkpt lat="47.29532" lon="-2.34962">
        <ele>16.799999237061</ele>
        <time>2021-09-16T07:25:02.000Z</time>
      </trkpt>
      <trkpt lat="47.29537" lon="-2.34954">
        <ele>16.799999237061</ele>
        <time>2021-09-16T07:25:03.000Z</time>
      </trkpt>
      <trkpt lat="47.29558" lon="-2.3492">
        <ele>16.799999237061</ele>
        <time>2021-09-16T07:25:08.000Z</time>
      </trkpt>
      <trkpt lat="47.29586" lon="-2.34877">
        <ele>16.799999237061</ele>
        <time>2021-09-16T07:25:16.000Z</time>
      </trkpt>
      <trkpt lat="47.29605" lon="-2.34844">
        <ele>16.799999237061</ele>
        <time>2021-09-16T07:25:22.000Z</time>
      </trkpt>
      <trkpt lat="47.29608" lon="-2.34839">
        <ele>16.799999237061</ele>
        <time>2021-09-16T07:25:23.000Z</time>
      </trkpt>
      <trkpt lat="47.29613" lon="-2.34837">
        <ele>16.799999237061</ele>
        <time>2021-09-16T07:25:24.000Z</time>
      </trkpt>
      <trkpt lat="47.29623" lon="-2.34836">
        <ele>16.799999237061</ele>
        <time>2021-09-16T07:25:26.000Z</time>
      </trkpt>
      <trkpt lat="47.29641" lon="-2.34851">
        <ele>16.799999237061</ele>
        <time>2021-09-16T07:25:30.000Z</time>
      </trkpt>
      <trkpt lat="47.29668" lon="-2.3488">
        <ele>16.799999237061</ele>
        <time>2021-09-16T07:25:35.000Z</time>
      </trkpt>
      <trkpt lat="47.29673" lon="-2.34885">
        <ele>16.799999237061</ele>
        <time>2021-09-16T07:25:36.000Z</time>
      </trkpt>
      <trkpt lat="47.2969" lon="-2.34892">
        <ele>16.799999237061</ele>
        <time>2021-09-16T07:25:39.000Z</time>
      </trkpt>
      <trkpt lat="47.29707" lon="-2.34886">
        <ele>16.799999237061</ele>
        <time>2021-09-16T07:25:42.000Z</time>
      </trkpt>
      <trkpt lat="47.29713" lon="-2.34883">
        <ele>16.799999237061</ele>
        <time>2021-09-16T07:25:43.000Z</time>
      </trkpt>
      <trkpt lat="47.2973" lon="-2.34875">
        <ele>16.799999237061</ele>
        <time>2021-09-16T07:25:46.000Z</time>
      </trkpt>
      <trkpt lat="47.29742" lon="-2.34872">
        <ele>16.799999237061</ele>
        <time>2021-09-16T07:25:48.000Z</time>
      </trkpt>
      <trkpt lat="47.29767" lon="-2.34867">
        <ele>16.799999237061</ele>
        <time>2021-09-16T07:25:53.000Z</time>
      </trkpt>
      <trkpt lat="47.29773" lon="-2.34864">
        <ele>16.799999237061</ele>
        <time>2021-09-16T07:25:54.000Z</time>
      </trkpt>
      <trkpt lat="47.29803" lon="-2.34853">
        <ele>16.799999237061</ele>
        <time>2021-09-16T07:25:59.000Z</time>
      </trkpt>
      <trkpt lat="47.29845" lon="-2.34845">
        <ele>16.799999237061</ele>
        <time>2021-09-16T07:26:05.000Z</time>
      </trkpt>
      <trkpt lat="47.29887" lon="-2.34836">
        <ele>16.799999237061</ele>
        <time>2021-09-16T07:26:13.000Z</time>
      </trkpt>
      <trkpt lat="47.29909" lon="-2.34834">
        <ele>17.200000762939</ele>
        <time>2021-09-16T07:26:17.000Z</time>
      </trkpt>
      <trkpt lat="47.29915" lon="-2.34833">
        <ele>17.60000038147</ele>
        <time>2021-09-16T07:26:18.000Z</time>
      </trkpt>
      <trkpt lat="47.29919" lon="-2.34832">
        <ele>18</ele>
        <time>2021-09-16T07:26:19.000Z</time>
      </trkpt>
      <trkpt lat="47.29925" lon="-2.34831">
        <ele>18.39999961853</ele>
        <time>2021-09-16T07:26:20.000Z</time>
      </trkpt>
      <trkpt lat="47.2993" lon="-2.34831">
        <ele>18.799999237061</ele>
        <time>2021-09-16T07:26:21.000Z</time>
      </trkpt>
      <trkpt lat="47.29964" lon="-2.34824">
        <ele>18.799999237061</ele>
        <time>2021-09-16T07:26:29.000Z</time>
      </trkpt>
      <trkpt lat="47.29978" lon="-2.34824">
        <ele>18.799999237061</ele>
        <time>2021-09-16T07:26:33.000Z</time>
      </trkpt>
      <trkpt lat="47.29981" lon="-2.34826">
        <ele>18.799999237061</ele>
        <time>2021-09-16T07:26:34.000Z</time>
      </trkpt>
      <trkpt lat="47.29987" lon="-2.34839">
        <ele>18.799999237061</ele>
        <time>2021-09-16T07:26:37.000Z</time>
      </trkpt>
      <trkpt lat="47.29989" lon="-2.34857">
        <ele>18.799999237061</ele>
        <time>2021-09-16T07:26:40.000Z</time>
      </trkpt>
      <trkpt lat="47.29991" lon="-2.3487">
        <ele>19.200000762939</ele>
        <time>2021-09-16T07:26:42.000Z</time>
      </trkpt>
      <trkpt lat="47.29992" lon="-2.34877">
        <ele>19.60000038147</ele>
        <time>2021-09-16T07:26:43.000Z</time>
      </trkpt>
      <trkpt lat="47.29992" lon="-2.34883">
        <ele>20</ele>
        <time>2021-09-16T07:26:44.000Z</time>
      </trkpt>
      <trkpt lat="47.29993" lon="-2.3489">
        <ele>20.39999961853</ele>
        <time>2021-09-16T07:26:45.000Z</time>
      </trkpt>
      <trkpt lat="47.29994" lon="-2.34897">
        <ele>20.799999237061</ele>
        <time>2021-09-16T07:26:46.000Z</time>
      </trkpt>
      <trkpt lat="47.29997" lon="-2.34931">
        <ele>20.799999237061</ele>
        <time>2021-09-16T07:26:51.000Z</time>
      </trkpt>
      <trkpt lat="47.29995" lon="-2.34989">
        <ele>20.799999237061</ele>
        <time>2021-09-16T07:26:59.000Z</time>
      </trkpt>
      <trkpt lat="47.2999" lon="-2.35061">
        <ele>20.799999237061</ele>
        <time>2021-09-16T07:27:08.000Z</time>
      </trkpt>
      <trkpt lat="47.29985" lon="-2.35133">
        <ele>20.799999237061</ele>
        <time>2021-09-16T07:27:16.000Z</time>
      </trkpt>
      <trkpt lat="47.29987" lon="-2.35193">
        <ele>20.799999237061</ele>
        <time>2021-09-16T07:27:23.000Z</time>
      </trkpt>
      <trkpt lat="47.29997" lon="-2.3523">
        <ele>20.799999237061</ele>
        <time>2021-09-16T07:27:28.000Z</time>
      </trkpt>
      <trkpt lat="47.30006" lon="-2.3525">
        <ele>20.799999237061</ele>
        <time>2021-09-16T07:27:32.000Z</time>
      </trkpt>
      <trkpt lat="47.30009" lon="-2.35255">
        <ele>20.799999237061</ele>
        <time>2021-09-16T07:27:34.000Z</time>
      </trkpt>
      <trkpt lat="47.30013" lon="-2.35255">
        <ele>20.799999237061</ele>
        <time>2021-09-16T07:27:36.000Z</time>
      </trkpt>
      <trkpt lat="47.30017" lon="-2.35253">
        <ele>20.39999961853</ele>
        <time>2021-09-16T07:27:39.000Z</time>
      </trkpt>
      <trkpt lat="47.30018" lon="-2.35252">
        <ele>20</ele>
        <time>2021-09-16T07:27:40.000Z</time>
      </trkpt>
      <trkpt lat="47.30019" lon="-2.35252">
        <ele>19.60000038147</ele>
        <time>2021-09-16T07:27:41.000Z</time>
      </trkpt>
      <trkpt lat="47.3002" lon="-2.35251">
        <ele>19.200000762939</ele>
        <time>2021-09-16T07:27:42.000Z</time>
      </trkpt>
      <trkpt lat="47.30021" lon="-2.3525">
        <ele>18.799999237061</ele>
        <time>2021-09-16T07:27:43.000Z</time>
      </trkpt>
      <trkpt lat="47.30025" lon="-2.35248">
        <ele>18.799999237061</ele>
        <time>2021-09-16T07:27:46.000Z</time>
      </trkpt>
      <trkpt lat="47.30027" lon="-2.35247">
        <ele>18.799999237061</ele>
        <time>2021-09-16T07:27:48.000Z</time>
      </trkpt>
      <trkpt lat="47.30034" lon="-2.35242">
        <ele>18.799999237061</ele>
        <time>2021-09-16T07:27:51.000Z</time>
      </trkpt>
      <trkpt lat="47.30038" lon="-2.3524">
        <ele>18.799999237061</ele>
        <time>2021-09-16T07:27:52.000Z</time>
      </trkpt>
      <trkpt lat="47.30062" lon="-2.35228">
        <ele>18.799999237061</ele>
        <time>2021-09-16T07:27:58.000Z</time>
      </trkpt>
      <trkpt lat="47.3007" lon="-2.35224">
        <ele>18.799999237061</ele>
        <time>2021-09-16T07:28:00.000Z</time>
      </trkpt>
      <trkpt lat="47.30082" lon="-2.35218">
        <ele>18.799999237061</ele>
        <time>2021-09-16T07:28:03.000Z</time>
      </trkpt>
      <trkpt lat="47.30086" lon="-2.35217">
        <ele>18.799999237061</ele>
        <time>2021-09-16T07:28:04.000Z</time>
      </trkpt>
      <trkpt lat="47.3009" lon="-2.35215">
        <ele>18.799999237061</ele>
        <time>2021-09-16T07:28:05.000Z</time>
      </trkpt>
      <trkpt lat="47.30107" lon="-2.35208">
        <ele>18.799999237061</ele>
        <time>2021-09-16T07:28:09.000Z</time>
      </trkpt>
      <trkpt lat="47.30112" lon="-2.35205">
        <ele>18.799999237061</ele>
        <time>2021-09-16T07:28:10.000Z</time>
      </trkpt>
      <trkpt lat="47.30126" lon="-2.35198">
        <ele>18.799999237061</ele>
        <time>2021-09-16T07:28:13.000Z</time>
      </trkpt>
      <trkpt lat="47.30139" lon="-2.35196">
        <ele>18.799999237061</ele>
        <time>2021-09-16T07:28:16.000Z</time>
      </trkpt>
      <trkpt lat="47.30151" lon="-2.35194">
        <ele>18.799999237061</ele>
        <time>2021-09-16T07:28:19.000Z</time>
      </trkpt>
      <trkpt lat="47.30163" lon="-2.35188">
        <ele>18.799999237061</ele>
        <time>2021-09-16T07:28:22.000Z</time>
      </trkpt>
      <trkpt lat="47.30166" lon="-2.35185">
        <ele>18.799999237061</ele>
        <time>2021-09-16T07:28:23.000Z</time>
      </trkpt>
      <trkpt lat="47.30181" lon="-2.35178">
        <ele>18.799999237061</ele>
        <time>2021-09-16T07:28:27.000Z</time>
      </trkpt>
      <trkpt lat="47.30194" lon="-2.35174">
        <ele>18.799999237061</ele>
        <time>2021-09-16T07:28:30.000Z</time>
      </trkpt>
      <trkpt lat="47.30203" lon="-2.35166">
        <ele>18.799999237061</ele>
        <time>2021-09-16T07:28:32.000Z</time>
      </trkpt>
      <trkpt lat="47.30212" lon="-2.35146">
        <ele>18.799999237061</ele>
        <time>2021-09-16T07:28:35.000Z</time>
      </trkpt>
      <trkpt lat="47.30212" lon="-2.35126">
        <ele>19.200000762939</ele>
        <time>2021-09-16T07:28:38.000Z</time>
      </trkpt>
      <trkpt lat="47.30211" lon="-2.35119">
        <ele>19.60000038147</ele>
        <time>2021-09-16T07:28:39.000Z</time>
      </trkpt>
      <trkpt lat="47.30211" lon="-2.35112">
        <ele>20</ele>
        <time>2021-09-16T07:28:40.000Z</time>
      </trkpt>
      <trkpt lat="47.30211" lon="-2.35106">
        <ele>20.39999961853</ele>
        <time>2021-09-16T07:28:41.000Z</time>
      </trkpt>
      <trkpt lat="47.30212" lon="-2.35099">
        <ele>20.799999237061</ele>
        <time>2021-09-16T07:28:42.000Z</time>
      </trkpt>
      <trkpt lat="47.30211" lon="-2.35092">
        <ele>20.799999237061</ele>
        <time>2021-09-16T07:28:43.000Z</time>
      </trkpt>
      <trkpt lat="47.30211" lon="-2.35071">
        <ele>20.799999237061</ele>
        <time>2021-09-16T07:28:46.000Z</time>
      </trkpt>
      <trkpt lat="47.3021" lon="-2.35032">
        <ele>20.799999237061</ele>
        <time>2021-09-16T07:28:52.000Z</time>
      </trkpt>
      <trkpt lat="47.30209" lon="-2.35012">
        <ele>20.799999237061</ele>
        <time>2021-09-16T07:28:55.000Z</time>
      </trkpt>
      <trkpt lat="47.30209" lon="-2.35006">
        <ele>21.200000762939</ele>
        <time>2021-09-16T07:28:56.000Z</time>
      </trkpt>
      <trkpt lat="47.30208" lon="-2.35">
        <ele>21.60000038147</ele>
        <time>2021-09-16T07:28:57.000Z</time>
      </trkpt>
      <trkpt lat="47.30208" lon="-2.34994">
        <ele>22</ele>
        <time>2021-09-16T07:28:58.000Z</time>
      </trkpt>
      <trkpt lat="47.30208" lon="-2.34988">
        <ele>22.39999961853</ele>
        <time>2021-09-16T07:28:59.000Z</time>
      </trkpt>
      <trkpt lat="47.30208" lon="-2.34983">
        <ele>22.799999237061</ele>
        <time>2021-09-16T07:29:00.000Z</time>
      </trkpt>
      <trkpt lat="47.30211" lon="-2.34947">
        <ele>22.799999237061</ele>
        <time>2021-09-16T07:29:06.000Z</time>
      </trkpt>
      <trkpt lat="47.30212" lon="-2.34912">
        <ele>23.200000762939</ele>
        <time>2021-09-16T07:29:12.000Z</time>
      </trkpt>
      <trkpt lat="47.30213" lon="-2.34906">
        <ele>23.60000038147</ele>
        <time>2021-09-16T07:29:13.000Z</time>
      </trkpt>
      <trkpt lat="47.30216" lon="-2.34902">
        <ele>24.200000762939</ele>
        <time>2021-09-16T07:29:14.000Z</time>
      </trkpt>
      <trkpt lat="47.30219" lon="-2.34898">
        <ele>24.60000038147</ele>
        <time>2021-09-16T07:29:15.000Z</time>
      </trkpt>
      <trkpt lat="47.30222" lon="-2.34894">
        <ele>25</ele>
        <time>2021-09-16T07:29:16.000Z</time>
      </trkpt>
      <trkpt lat="47.30225" lon="-2.34891">
        <ele>25</ele>
        <time>2021-09-16T07:29:17.000Z</time>
      </trkpt>
      <trkpt lat="47.30237" lon="-2.34881">
        <ele>25</ele>
        <time>2021-09-16T07:29:20.000Z</time>
      </trkpt>
      <trkpt lat="47.30241" lon="-2.34879">
        <ele>25</ele>
        <time>2021-09-16T07:29:21.000Z</time>
      </trkpt>
      <trkpt lat="47.30261" lon="-2.34868">
        <ele>25</ele>
        <time>2021-09-16T07:29:26.000Z</time>
      </trkpt>
      <trkpt lat="47.30265" lon="-2.34865">
        <ele>25</ele>
        <time>2021-09-16T07:29:27.000Z</time>
      </trkpt>
      <trkpt lat="47.30291" lon="-2.34853">
        <ele>25</ele>
        <time>2021-09-16T07:29:33.000Z</time>
      </trkpt>
      <trkpt lat="47.30309" lon="-2.3483">
        <ele>25</ele>
        <time>2021-09-16T07:29:38.000Z</time>
      </trkpt>
      <trkpt lat="47.30325" lon="-2.34805">
        <ele>25</ele>
        <time>2021-09-16T07:29:43.000Z</time>
      </trkpt>
      <trkpt lat="47.30328" lon="-2.348">
        <ele>25</ele>
        <time>2021-09-16T07:29:44.000Z</time>
      </trkpt>
      <trkpt lat="47.30336" lon="-2.34784">
        <ele>25</ele>
        <time>2021-09-16T07:29:47.000Z</time>
      </trkpt>
      <trkpt lat="47.3034" lon="-2.3478">
        <ele>25</ele>
        <time>2021-09-16T07:29:48.000Z</time>
      </trkpt>
      <trkpt lat="47.30362" lon="-2.34762">
        <ele>25</ele>
        <time>2021-09-16T07:29:53.000Z</time>
      </trkpt>
      <trkpt lat="47.30393" lon="-2.34743">
        <ele>25</ele>
        <time>2021-09-16T07:30:00.000Z</time>
      </trkpt>
      <trkpt lat="47.30419" lon="-2.34725">
        <ele>25</ele>
        <time>2021-09-16T07:30:06.000Z</time>
      </trkpt>
      <trkpt lat="47.30423" lon="-2.34721">
        <ele>25</ele>
        <time>2021-09-16T07:30:07.000Z</time>
      </trkpt>
      <trkpt lat="47.3044" lon="-2.34703">
        <ele>25</ele>
        <time>2021-09-16T07:30:11.000Z</time>
      </trkpt>
      <trkpt lat="47.30449" lon="-2.34696">
        <ele>25</ele>
        <time>2021-09-16T07:30:13.000Z</time>
      </trkpt>
      <trkpt lat="47.30463" lon="-2.34682">
        <ele>25</ele>
        <time>2021-09-16T07:30:16.000Z</time>
      </trkpt>
      <trkpt lat="47.30477" lon="-2.34668">
        <ele>25</ele>
        <time>2021-09-16T07:30:19.000Z</time>
      </trkpt>
      <trkpt lat="47.30491" lon="-2.34653">
        <ele>25</ele>
        <time>2021-09-16T07:30:22.000Z</time>
      </trkpt>
      <trkpt lat="47.30504" lon="-2.34631">
        <ele>25</ele>
        <time>2021-09-16T07:30:26.000Z</time>
      </trkpt>
      <trkpt lat="47.30522" lon="-2.34604">
        <ele>25</ele>
        <time>2021-09-16T07:30:32.000Z</time>
      </trkpt>
      <trkpt lat="47.30548" lon="-2.34566">
        <ele>25</ele>
        <time>2021-09-16T07:30:39.000Z</time>
      </trkpt>
      <trkpt lat="47.30567" lon="-2.34533">
        <ele>25</ele>
        <time>2021-09-16T07:30:45.000Z</time>
      </trkpt>
      <trkpt lat="47.3057" lon="-2.34528">
        <ele>25.39999961853</ele>
        <time>2021-09-16T07:30:46.000Z</time>
      </trkpt>
      <trkpt lat="47.30573" lon="-2.34522">
        <ele>25.799999237061</ele>
        <time>2021-09-16T07:30:47.000Z</time>
      </trkpt>
      <trkpt lat="47.30576" lon="-2.34516">
        <ele>26.200000762939</ele>
        <time>2021-09-16T07:30:48.000Z</time>
      </trkpt>
      <trkpt lat="47.30579" lon="-2.3451">
        <ele>26.60000038147</ele>
        <time>2021-09-16T07:30:49.000Z</time>
      </trkpt>
      <trkpt lat="47.30582" lon="-2.34505">
        <ele>27.200000762939</ele>
        <time>2021-09-16T07:30:50.000Z</time>
      </trkpt>
      <trkpt lat="47.30591" lon="-2.34489">
        <ele>27.200000762939</ele>
        <time>2021-09-16T07:30:53.000Z</time>
      </trkpt>
      <trkpt lat="47.30615" lon="-2.34449">
        <ele>27.200000762939</ele>
        <time>2021-09-16T07:31:00.000Z</time>
      </trkpt>
      <trkpt lat="47.30644" lon="-2.34407">
        <ele>27.200000762939</ele>
        <time>2021-09-16T07:31:07.000Z</time>
      </trkpt>
      <trkpt lat="47.30665" lon="-2.34371">
        <ele>27.200000762939</ele>
        <time>2021-09-16T07:31:13.000Z</time>
      </trkpt>
      <trkpt lat="47.30668" lon="-2.34365">
        <ele>27.200000762939</ele>
        <time>2021-09-16T07:31:14.000Z</time>
      </trkpt>
      <trkpt lat="47.30671" lon="-2.34358">
        <ele>27.200000762939</ele>
        <time>2021-09-16T07:31:15.000Z</time>
      </trkpt>
      <trkpt lat="47.30687" lon="-2.34318">
        <ele>27.200000762939</ele>
        <time>2021-09-16T07:31:21.000Z</time>
      </trkpt>
      <trkpt lat="47.30713" lon="-2.34259">
        <ele>27.200000762939</ele>
        <time>2021-09-16T07:31:28.000Z</time>
      </trkpt>
      <trkpt lat="47.30719" lon="-2.34231">
        <ele>27.200000762939</ele>
        <time>2021-09-16T07:31:32.000Z</time>
      </trkpt>
      <trkpt lat="47.30732" lon="-2.34221">
        <ele>27.200000762939</ele>
        <time>2021-09-16T07:31:35.000Z</time>
      </trkpt>
      <trkpt lat="47.30741" lon="-2.3422">
        <ele>27.200000762939</ele>
        <time>2021-09-16T07:31:37.000Z</time>
      </trkpt>
      <trkpt lat="47.30751" lon="-2.34219">
        <ele>27.200000762939</ele>
        <time>2021-09-16T07:31:39.000Z</time>
      </trkpt>
      <trkpt lat="47.30756" lon="-2.34216">
        <ele>27.200000762939</ele>
        <time>2021-09-16T07:31:40.000Z</time>
      </trkpt>
      <trkpt lat="47.30764" lon="-2.34199">
        <ele>27.200000762939</ele>
        <time>2021-09-16T07:31:43.000Z</time>
      </trkpt>
      <trkpt lat="47.30765" lon="-2.34179">
        <ele>27.200000762939</ele>
        <time>2021-09-16T07:31:46.000Z</time>
      </trkpt>
      <trkpt lat="47.30765" lon="-2.34165">
        <ele>27.200000762939</ele>
        <time>2021-09-16T07:31:48.000Z</time>
      </trkpt>
      <trkpt lat="47.30771" lon="-2.3411">
        <ele>27.200000762939</ele>
        <time>2021-09-16T07:31:55.000Z</time>
      </trkpt>
      <trkpt lat="47.30772" lon="-2.34094">
        <ele>27.200000762939</ele>
        <time>2021-09-16T07:31:57.000Z</time>
      </trkpt>
      <trkpt lat="47.30773" lon="-2.34062">
        <ele>27.200000762939</ele>
        <time>2021-09-16T07:32:01.000Z</time>
      </trkpt>
      <trkpt lat="47.30777" lon="-2.34026">
        <ele>27.200000762939</ele>
        <time>2021-09-16T07:32:06.000Z</time>
      </trkpt>
      <trkpt lat="47.30782" lon="-2.33988">
        <ele>27.200000762939</ele>
        <time>2021-09-16T07:32:12.000Z</time>
      </trkpt>
      <trkpt lat="47.30788" lon="-2.33973">
        <ele>27.200000762939</ele>
        <time>2021-09-16T07:32:15.000Z</time>
      </trkpt>
      <trkpt lat="47.30792" lon="-2.33971">
        <ele>27.200000762939</ele>
        <time>2021-09-16T07:32:16.000Z</time>
      </trkpt>
      <trkpt lat="47.30807" lon="-2.33966">
        <ele>27.200000762939</ele>
        <time>2021-09-16T07:32:19.000Z</time>
      </trkpt>
      <trkpt lat="47.30818" lon="-2.33963">
        <ele>27.200000762939</ele>
        <time>2021-09-16T07:32:21.000Z</time>
      </trkpt>
      <trkpt lat="47.30846" lon="-2.33954">
        <ele>27.200000762939</ele>
        <time>2021-09-16T07:32:26.000Z</time>
      </trkpt>
      <trkpt lat="47.30857" lon="-2.33952">
        <ele>27.200000762939</ele>
        <time>2021-09-16T07:32:28.000Z</time>
      </trkpt>
      <trkpt lat="47.30898" lon="-2.33947">
        <ele>27.200000762939</ele>
        <time>2021-09-16T07:32:36.000Z</time>
      </trkpt>
      <trkpt lat="47.30941" lon="-2.33949">
        <ele>27.200000762939</ele>
        <time>2021-09-16T07:32:44.000Z</time>
      </trkpt>
      <trkpt lat="47.30967" lon="-2.33955">
        <ele>27.200000762939</ele>
        <time>2021-09-16T07:32:50.000Z</time>
      </trkpt>
      <trkpt lat="47.30972" lon="-2.33956">
        <ele>27.200000762939</ele>
        <time>2021-09-16T07:32:51.000Z</time>
      </trkpt>
      <trkpt lat="47.30986" lon="-2.33955">
        <ele>27.200000762939</ele>
        <time>2021-09-16T07:32:54.000Z</time>
      </trkpt>
      <trkpt lat="47.31006" lon="-2.33954">
        <ele>27.200000762939</ele>
        <time>2021-09-16T07:32:58.000Z</time>
      </trkpt>
      <trkpt lat="47.31021" lon="-2.33951">
        <ele>26.60000038147</ele>
        <time>2021-09-16T07:33:01.000Z</time>
      </trkpt>
      <trkpt lat="47.31026" lon="-2.3395">
        <ele>26.200000762939</ele>
        <time>2021-09-16T07:33:02.000Z</time>
      </trkpt>
      <trkpt lat="47.31032" lon="-2.33949">
        <ele>25.799999237061</ele>
        <time>2021-09-16T07:33:03.000Z</time>
      </trkpt>
      <trkpt lat="47.31036" lon="-2.33949">
        <ele>25.39999961853</ele>
        <time>2021-09-16T07:33:04.000Z</time>
      </trkpt>
      <trkpt lat="47.3104" lon="-2.33948">
        <ele>25</ele>
        <time>2021-09-16T07:33:05.000Z</time>
      </trkpt>
      <trkpt lat="47.31055" lon="-2.33945">
        <ele>25</ele>
        <time>2021-09-16T07:33:09.000Z</time>
      </trkpt>
      <trkpt lat="47.3106" lon="-2.33939">
        <ele>25</ele>
        <time>2021-09-16T07:33:11.000Z</time>
      </trkpt>
      <trkpt lat="47.31062" lon="-2.33934">
        <ele>25</ele>
        <time>2021-09-16T07:33:12.000Z</time>
      </trkpt>
      <trkpt lat="47.31063" lon="-2.33917">
        <ele>25</ele>
        <time>2021-09-16T07:33:15.000Z</time>
      </trkpt>
      <trkpt lat="47.31064" lon="-2.33908">
        <ele>25</ele>
        <time>2021-09-16T07:33:17.000Z</time>
      </trkpt>
      <trkpt lat="47.31065" lon="-2.33898">
        <ele>24.60000038147</ele>
        <time>2021-09-16T07:33:19.000Z</time>
      </trkpt>
      <trkpt lat="47.31065" lon="-2.33892">
        <ele>24.200000762939</ele>
        <time>2021-09-16T07:33:20.000Z</time>
      </trkpt>
      <trkpt lat="47.31065" lon="-2.33886">
        <ele>23.799999237061</ele>
        <time>2021-09-16T07:33:21.000Z</time>
      </trkpt>
      <trkpt lat="47.31065" lon="-2.3388">
        <ele>23.39999961853</ele>
        <time>2021-09-16T07:33:22.000Z</time>
      </trkpt>
      <trkpt lat="47.31065" lon="-2.33873">
        <ele>22.799999237061</ele>
        <time>2021-09-16T07:33:23.000Z</time>
      </trkpt>
      <trkpt lat="47.31068" lon="-2.3383">
        <ele>22.799999237061</ele>
        <time>2021-09-16T07:33:29.000Z</time>
      </trkpt>
      <trkpt lat="47.31074" lon="-2.33802">
        <ele>22.799999237061</ele>
        <time>2021-09-16T07:33:33.000Z</time>
      </trkpt>
      <trkpt lat="47.31078" lon="-2.33788">
        <ele>22.799999237061</ele>
        <time>2021-09-16T07:33:35.000Z</time>
      </trkpt>
      <trkpt lat="47.31095" lon="-2.33741">
        <ele>22.799999237061</ele>
        <time>2021-09-16T07:33:42.000Z</time>
      </trkpt>
      <trkpt lat="47.31097" lon="-2.33726">
        <ele>22.799999237061</ele>
        <time>2021-09-16T07:33:44.000Z</time>
      </trkpt>
      <trkpt lat="47.31101" lon="-2.33698">
        <ele>22.799999237061</ele>
        <time>2021-09-16T07:33:48.000Z</time>
      </trkpt>
      <trkpt lat="47.31109" lon="-2.33637">
        <ele>22.799999237061</ele>
        <time>2021-09-16T07:33:56.000Z</time>
      </trkpt>
      <trkpt lat="47.31113" lon="-2.33576">
        <ele>22.799999237061</ele>
        <time>2021-09-16T07:34:03.000Z</time>
      </trkpt>
      <trkpt lat="47.31106" lon="-2.33507">
        <ele>22.799999237061</ele>
        <time>2021-09-16T07:34:08.000Z</time>
      </trkpt>
      <trkpt lat="47.31106" lon="-2.33507">
        <ele>22.799999237061</ele>
        <time>2021-09-16T07:34:10.000Z</time>
      </trkpt>
      <trkpt lat="47.31099" lon="-2.33451">
        <ele>22.799999237061</ele>
        <time>2021-09-16T07:34:16.000Z</time>
      </trkpt>
      <trkpt lat="47.31096" lon="-2.33369">
        <ele>22.799999237061</ele>
        <time>2021-09-16T07:34:24.000Z</time>
      </trkpt>
      <trkpt lat="47.31096" lon="-2.33359">
        <ele>22.799999237061</ele>
        <time>2021-09-16T07:34:25.000Z</time>
      </trkpt>
      <trkpt lat="47.31097" lon="-2.33322">
        <ele>22.39999961853</ele>
        <time>2021-09-16T07:34:29.000Z</time>
      </trkpt>
      <trkpt lat="47.31098" lon="-2.33313">
        <ele>22</ele>
        <time>2021-09-16T07:34:30.000Z</time>
      </trkpt>
      <trkpt lat="47.31098" lon="-2.33304">
        <ele>21.60000038147</ele>
        <time>2021-09-16T07:34:31.000Z</time>
      </trkpt>
      <trkpt lat="47.31099" lon="-2.33296">
        <ele>21.200000762939</ele>
        <time>2021-09-16T07:34:32.000Z</time>
      </trkpt>
      <trkpt lat="47.31099" lon="-2.33288">
        <ele>20.799999237061</ele>
        <time>2021-09-16T07:34:33.000Z</time>
      </trkpt>
      <trkpt lat="47.31104" lon="-2.33233">
        <ele>20.799999237061</ele>
        <time>2021-09-16T07:34:40.000Z</time>
      </trkpt>
      <trkpt lat="47.31107" lon="-2.3321">
        <ele>20.799999237061</ele>
        <time>2021-09-16T07:34:43.000Z</time>
      </trkpt>
      <trkpt lat="47.31114" lon="-2.33201">
        <ele>20.799999237061</ele>
        <time>2021-09-16T07:34:45.000Z</time>
      </trkpt>
      <trkpt lat="47.3113" lon="-2.33196">
        <ele>20.799999237061</ele>
        <time>2021-09-16T07:34:48.000Z</time>
      </trkpt>
      <trkpt lat="47.31135" lon="-2.33194">
        <ele>20.799999237061</ele>
        <time>2021-09-16T07:34:49.000Z</time>
      </trkpt>
      <trkpt lat="47.31164" lon="-2.33175">
        <ele>20.799999237061</ele>
        <time>2021-09-16T07:34:54.000Z</time>
      </trkpt>
      <trkpt lat="47.31182" lon="-2.33164">
        <ele>20.39999961853</ele>
        <time>2021-09-16T07:34:57.000Z</time>
      </trkpt>
      <trkpt lat="47.31187" lon="-2.3316">
        <ele>20</ele>
        <time>2021-09-16T07:34:58.000Z</time>
      </trkpt>
      <trkpt lat="47.31193" lon="-2.33157">
        <ele>19.60000038147</ele>
        <time>2021-09-16T07:34:59.000Z</time>
      </trkpt>
      <trkpt lat="47.31199" lon="-2.33154">
        <ele>18.60000038147</ele>
        <time>2021-09-16T07:35:00.000Z</time>
      </trkpt>
      <trkpt lat="47.31205" lon="-2.33151">
        <ele>18.60000038147</ele>
        <time>2021-09-16T07:35:01.000Z</time>
      </trkpt>
      <trkpt lat="47.31231" lon="-2.33147">
        <ele>18.60000038147</ele>
        <time>2021-09-16T07:35:05.000Z</time>
      </trkpt>
      <trkpt lat="47.31237" lon="-2.33147">
        <ele>18.60000038147</ele>
        <time>2021-09-16T07:35:06.000Z</time>
      </trkpt>
      <trkpt lat="47.31274" lon="-2.33158">
        <ele>18.60000038147</ele>
        <time>2021-09-16T07:35:12.000Z</time>
      </trkpt>
      <trkpt lat="47.31285" lon="-2.33164">
        <ele>18.60000038147</ele>
        <time>2021-09-16T07:35:14.000Z</time>
      </trkpt>
      <trkpt lat="47.31308" lon="-2.33181">
        <ele>18.60000038147</ele>
        <time>2021-09-16T07:35:18.000Z</time>
      </trkpt>
      <trkpt lat="47.31334" lon="-2.33206">
        <ele>18.60000038147</ele>
        <time>2021-09-16T07:35:23.000Z</time>
      </trkpt>
      <trkpt lat="47.31366" lon="-2.33231">
        <ele>18.60000038147</ele>
        <time>2021-09-16T07:35:29.000Z</time>
      </trkpt>
      <trkpt lat="47.31416" lon="-2.33266">
        <ele>18.60000038147</ele>
        <time>2021-09-16T07:35:38.000Z</time>
      </trkpt>
      <trkpt lat="47.3145" lon="-2.33302">
        <ele>18.60000038147</ele>
        <time>2021-09-16T07:35:45.000Z</time>
      </trkpt>
      <trkpt lat="47.31454" lon="-2.33309">
        <ele>18.60000038147</ele>
        <time>2021-09-16T07:35:46.000Z</time>
      </trkpt>
      <trkpt lat="47.31467" lon="-2.33335">
        <ele>18.60000038147</ele>
        <time>2021-09-16T07:35:50.000Z</time>
      </trkpt>
      <trkpt lat="47.31479" lon="-2.33361">
        <ele>19</ele>
        <time>2021-09-16T07:35:54.000Z</time>
      </trkpt>
      <trkpt lat="47.31483" lon="-2.33366">
        <ele>19.39999961853</ele>
        <time>2021-09-16T07:35:55.000Z</time>
      </trkpt>
      <trkpt lat="47.31488" lon="-2.33367">
        <ele>20</ele>
        <time>2021-09-16T07:35:56.000Z</time>
      </trkpt>
      <trkpt lat="47.31493" lon="-2.33366">
        <ele>20.39999961853</ele>
        <time>2021-09-16T07:35:57.000Z</time>
      </trkpt>
      <trkpt lat="47.31498" lon="-2.33364">
        <ele>20.799999237061</ele>
        <time>2021-09-16T07:35:58.000Z</time>
      </trkpt>
      <trkpt lat="47.31503" lon="-2.33361">
        <ele>20.799999237061</ele>
        <time>2021-09-16T07:35:59.000Z</time>
      </trkpt>
      <trkpt lat="47.31538" lon="-2.33342">
        <ele>20.799999237061</ele>
        <time>2021-09-16T07:36:06.000Z</time>
      </trkpt>
      <trkpt lat="47.3158" lon="-2.33324">
        <ele>20.799999237061</ele>
        <time>2021-09-16T07:36:14.000Z</time>
      </trkpt>
      <trkpt lat="47.31618" lon="-2.33301">
        <ele>20.799999237061</ele>
        <time>2021-09-16T07:36:21.000Z</time>
      </trkpt>
      <trkpt lat="47.31665" lon="-2.33274">
        <ele>20.799999237061</ele>
        <time>2021-09-16T07:36:29.000Z</time>
      </trkpt>
      <trkpt lat="47.31695" lon="-2.33262">
        <ele>20.799999237061</ele>
        <time>2021-09-16T07:36:34.000Z</time>
      </trkpt>
      <trkpt lat="47.31706" lon="-2.33256">
        <ele>20.799999237061</ele>
        <time>2021-09-16T07:36:36.000Z</time>
      </trkpt>
      <trkpt lat="47.31725" lon="-2.33247">
        <ele>20.200000762939</ele>
        <time>2021-09-16T07:36:39.000Z</time>
      </trkpt>
      <trkpt lat="47.31731" lon="-2.33244">
        <ele>19.799999237061</ele>
        <time>2021-09-16T07:36:40.000Z</time>
      </trkpt>
      <trkpt lat="47.31736" lon="-2.33243">
        <ele>19.39999961853</ele>
        <time>2021-09-16T07:36:41.000Z</time>
      </trkpt>
      <trkpt lat="47.31741" lon="-2.33243">
        <ele>18.799999237061</ele>
        <time>2021-09-16T07:36:42.000Z</time>
      </trkpt>
      <trkpt lat="47.31747" lon="-2.33245">
        <ele>18.39999961853</ele>
        <time>2021-09-16T07:36:43.000Z</time>
      </trkpt>
      <trkpt lat="47.31758" lon="-2.33261">
        <ele>18.39999961853</ele>
        <time>2021-09-16T07:36:46.000Z</time>
      </trkpt>
      <trkpt lat="47.31762" lon="-2.33273">
        <ele>18.39999961853</ele>
        <time>2021-09-16T07:36:48.000Z</time>
      </trkpt>
      <trkpt lat="47.31763" lon="-2.33281">
        <ele>18.39999961853</ele>
        <time>2021-09-16T07:36:49.000Z</time>
      </trkpt>
      <trkpt lat="47.31766" lon="-2.33296">
        <ele>18.39999961853</ele>
        <time>2021-09-16T07:36:51.000Z</time>
      </trkpt>
      <trkpt lat="47.31769" lon="-2.33304">
        <ele>18</ele>
        <time>2021-09-16T07:36:52.000Z</time>
      </trkpt>
      <trkpt lat="47.31771" lon="-2.33312">
        <ele>17.60000038147</ele>
        <time>2021-09-16T07:36:53.000Z</time>
      </trkpt>
      <trkpt lat="47.31775" lon="-2.33319">
        <ele>17.200000762939</ele>
        <time>2021-09-16T07:36:54.000Z</time>
      </trkpt>
      <trkpt lat="47.31779" lon="-2.33326">
        <ele>16.799999237061</ele>
        <time>2021-09-16T07:36:55.000Z</time>
      </trkpt>
      <trkpt lat="47.31783" lon="-2.33329">
        <ele>16.39999961853</ele>
        <time>2021-09-16T07:36:56.000Z</time>
      </trkpt>
      <trkpt lat="47.31793" lon="-2.33326">
        <ele>16.39999961853</ele>
        <time>2021-09-16T07:36:58.000Z</time>
      </trkpt>
      <trkpt lat="47.31799" lon="-2.33322">
        <ele>16</ele>
        <time>2021-09-16T07:36:59.000Z</time>
      </trkpt>
      <trkpt lat="47.31804" lon="-2.33318">
        <ele>15.60000038147</ele>
        <time>2021-09-16T07:37:00.000Z</time>
      </trkpt>
      <trkpt lat="47.3181" lon="-2.33313">
        <ele>15.199999809265</ele>
        <time>2021-09-16T07:37:01.000Z</time>
      </trkpt>
      <trkpt lat="47.31814" lon="-2.33308">
        <ele>14.60000038147</ele>
        <time>2021-09-16T07:37:02.000Z</time>
      </trkpt>
      <trkpt lat="47.3182" lon="-2.33303">
        <ele>14.199999809265</ele>
        <time>2021-09-16T07:37:03.000Z</time>
      </trkpt>
      <trkpt lat="47.31825" lon="-2.333">
        <ele>13.39999961853</ele>
        <time>2021-09-16T07:37:04.000Z</time>
      </trkpt>
      <trkpt lat="47.31831" lon="-2.33295">
        <ele>13</ele>
        <time>2021-09-16T07:37:05.000Z</time>
      </trkpt>
      <trkpt lat="47.31836" lon="-2.33288">
        <ele>12.39999961853</ele>
        <time>2021-09-16T07:37:06.000Z</time>
      </trkpt>
      <trkpt lat="47.31841" lon="-2.33281">
        <ele>12</ele>
        <time>2021-09-16T07:37:07.000Z</time>
      </trkpt>
      <trkpt lat="47.31846" lon="-2.33273">
        <ele>12</ele>
        <time>2021-09-16T07:37:08.000Z</time>
      </trkpt>
      <trkpt lat="47.31854" lon="-2.33255">
        <ele>12</ele>
        <time>2021-09-16T07:37:10.000Z</time>
      </trkpt>
      <trkpt lat="47.31857" lon="-2.33245">
        <ele>11.60000038147</ele>
        <time>2021-09-16T07:37:11.000Z</time>
      </trkpt>
      <trkpt lat="47.3186" lon="-2.33236">
        <ele>11.199999809265</ele>
        <time>2021-09-16T07:37:12.000Z</time>
      </trkpt>
      <trkpt lat="47.31862" lon="-2.33226">
        <ele>10.800000190735</ele>
        <time>2021-09-16T07:37:13.000Z</time>
      </trkpt>
      <trkpt lat="47.31864" lon="-2.33214">
        <ele>10.199999809265</ele>
        <time>2021-09-16T07:37:14.000Z</time>
      </trkpt>
      <trkpt lat="47.31865" lon="-2.33202">
        <ele>9.8000001907349</ele>
        <time>2021-09-16T07:37:15.000Z</time>
      </trkpt>
      <trkpt lat="47.31866" lon="-2.3319">
        <ele>9.8000001907349</ele>
        <time>2021-09-16T07:37:16.000Z</time>
      </trkpt>
      <trkpt lat="47.31874" lon="-2.33131">
        <ele>9.3999996185303</ele>
        <time>2021-09-16T07:37:21.000Z</time>
      </trkpt>
      <trkpt lat="47.31874" lon="-2.33118">
        <ele>8.8000001907349</ele>
        <time>2021-09-16T07:37:22.000Z</time>
      </trkpt>
      <trkpt lat="47.31875" lon="-2.33106">
        <ele>8.3999996185303</ele>
        <time>2021-09-16T07:37:23.000Z</time>
      </trkpt>
      <trkpt lat="47.31876" lon="-2.33095">
        <ele>7.8000001907349</ele>
        <time>2021-09-16T07:37:24.000Z</time>
      </trkpt>
      <trkpt lat="47.31876" lon="-2.33083">
        <ele>7.4000000953674</ele>
        <time>2021-09-16T07:37:25.000Z</time>
      </trkpt>
      <trkpt lat="47.31877" lon="-2.33049">
        <ele>7</ele>
        <time>2021-09-16T07:37:28.000Z</time>
      </trkpt>
      <trkpt lat="47.31878" lon="-2.33039">
        <ele>6.5999999046326</ele>
        <time>2021-09-16T07:37:29.000Z</time>
      </trkpt>
      <trkpt lat="47.31879" lon="-2.33028">
        <ele>6.1999998092651</ele>
        <time>2021-09-16T07:37:30.000Z</time>
      </trkpt>
      <trkpt lat="47.3188" lon="-2.33016">
        <ele>5.5999999046326</ele>
        <time>2021-09-16T07:37:31.000Z</time>
      </trkpt>
      <trkpt lat="47.31879" lon="-2.33005">
        <ele>5.1999998092651</ele>
        <time>2021-09-16T07:37:32.000Z</time>
      </trkpt>
      <trkpt lat="47.31878" lon="-2.32994">
        <ele>5.1999998092651</ele>
        <time>2021-09-16T07:37:33.000Z</time>
      </trkpt>
      <trkpt lat="47.3188" lon="-2.32943">
        <ele>5.1999998092651</ele>
        <time>2021-09-16T07:37:38.000Z</time>
      </trkpt>
      <trkpt lat="47.3188" lon="-2.32915">
        <ele>5.1999998092651</ele>
        <time>2021-09-16T07:37:41.000Z</time>
      </trkpt>
      <trkpt lat="47.3188" lon="-2.32897">
        <ele>5.1999998092651</ele>
        <time>2021-09-16T07:37:43.000Z</time>
      </trkpt>
      <trkpt lat="47.31881" lon="-2.32886">
        <ele>5.1999998092651</ele>
        <time>2021-09-16T07:37:44.000Z</time>
      </trkpt>
      <trkpt lat="47.31886" lon="-2.32856">
        <ele>5.1999998092651</ele>
        <time>2021-09-16T07:37:47.000Z</time>
      </trkpt>
      <trkpt lat="47.31886" lon="-2.32799">
        <ele>5.1999998092651</ele>
        <time>2021-09-16T07:37:53.000Z</time>
      </trkpt>
      <trkpt lat="47.31881" lon="-2.32755">
        <ele>5.1999998092651</ele>
        <time>2021-09-16T07:37:58.000Z</time>
      </trkpt>
      <trkpt lat="47.31873" lon="-2.32726">
        <ele>5.1999998092651</ele>
        <time>2021-09-16T07:38:02.000Z</time>
      </trkpt>
      <trkpt lat="47.3187" lon="-2.3272">
        <ele>5.1999998092651</ele>
        <time>2021-09-16T07:38:03.000Z</time>
      </trkpt>
      <trkpt lat="47.31865" lon="-2.32706">
        <ele>5.5999999046326</ele>
        <time>2021-09-16T07:38:05.000Z</time>
      </trkpt>
      <trkpt lat="47.31862" lon="-2.32699">
        <ele>6</ele>
        <time>2021-09-16T07:38:06.000Z</time>
      </trkpt>
      <trkpt lat="47.3186" lon="-2.32693">
        <ele>6.4000000953674</ele>
        <time>2021-09-16T07:38:07.000Z</time>
      </trkpt>
      <trkpt lat="47.31857" lon="-2.32686">
        <ele>6.8000001907349</ele>
        <time>2021-09-16T07:38:08.000Z</time>
      </trkpt>
      <trkpt lat="47.31853" lon="-2.32679">
        <ele>7.4000000953674</ele>
        <time>2021-09-16T07:38:09.000Z</time>
      </trkpt>
      <trkpt lat="47.31841" lon="-2.32647">
        <ele>7.4000000953674</ele>
        <time>2021-09-16T07:38:14.000Z</time>
      </trkpt>
      <trkpt lat="47.31835" lon="-2.32615">
        <ele>7.4000000953674</ele>
        <time>2021-09-16T07:38:20.000Z</time>
      </trkpt>
      <trkpt lat="47.31832" lon="-2.32601">
        <ele>7.8000001907349</ele>
        <time>2021-09-16T07:38:23.000Z</time>
      </trkpt>
      <trkpt lat="47.31831" lon="-2.32597">
        <ele>8.1999998092651</ele>
        <time>2021-09-16T07:38:24.000Z</time>
      </trkpt>
      <trkpt lat="47.3183" lon="-2.32592">
        <ele>8.6000003814697</ele>
        <time>2021-09-16T07:38:25.000Z</time>
      </trkpt>
      <trkpt lat="47.31829" lon="-2.32587">
        <ele>9</ele>
        <time>2021-09-16T07:38:26.000Z</time>
      </trkpt>
      <trkpt lat="47.31828" lon="-2.32581">
        <ele>9.3999996185303</ele>
        <time>2021-09-16T07:38:27.000Z</time>
      </trkpt>
      <trkpt lat="47.31826" lon="-2.32576">
        <ele>9.3999996185303</ele>
        <time>2021-09-16T07:38:28.000Z</time>
      </trkpt>
      <trkpt lat="47.31818" lon="-2.32548">
        <ele>9.3999996185303</ele>
        <time>2021-09-16T07:38:35.000Z</time>
      </trkpt>
      <trkpt lat="47.31815" lon="-2.32533">
        <ele>9.8000001907349</ele>
        <time>2021-09-16T07:38:39.000Z</time>
      </trkpt>
      <trkpt lat="47.31814" lon="-2.32529">
        <ele>10.199999809265</ele>
        <time>2021-09-16T07:38:40.000Z</time>
      </trkpt>
      <trkpt lat="47.31813" lon="-2.32526">
        <ele>10.60000038147</ele>
        <time>2021-09-16T07:38:41.000Z</time>
      </trkpt>
      <trkpt lat="47.31812" lon="-2.32523">
        <ele>11.39999961853</ele>
        <time>2021-09-16T07:38:42.000Z</time>
      </trkpt>
      <trkpt lat="47.31804" lon="-2.32496">
        <ele>11.39999961853</ele>
        <time>2021-09-16T07:38:49.000Z</time>
      </trkpt>
      <trkpt lat="47.31799" lon="-2.32482">
        <ele>11.800000190735</ele>
        <time>2021-09-16T07:38:53.000Z</time>
      </trkpt>
      <trkpt lat="47.31797" lon="-2.32478">
        <ele>12.199999809265</ele>
        <time>2021-09-16T07:38:54.000Z</time>
      </trkpt>
      <trkpt lat="47.31796" lon="-2.32475">
        <ele>12.60000038147</ele>
        <time>2021-09-16T07:38:55.000Z</time>
      </trkpt>
      <trkpt lat="47.31794" lon="-2.32472">
        <ele>13.199999809265</ele>
        <time>2021-09-16T07:38:56.000Z</time>
      </trkpt>
      <trkpt lat="47.31794" lon="-2.32466">
        <ele>13.60000038147</ele>
        <time>2021-09-16T07:38:57.000Z</time>
      </trkpt>
      <trkpt lat="47.31792" lon="-2.32446">
        <ele>13.60000038147</ele>
        <time>2021-09-16T07:39:00.000Z</time>
      </trkpt>
      <trkpt lat="47.3179" lon="-2.32428">
        <ele>14</ele>
        <time>2021-09-16T07:39:03.000Z</time>
      </trkpt>
      <trkpt lat="47.31789" lon="-2.32422">
        <ele>14.39999961853</ele>
        <time>2021-09-16T07:39:04.000Z</time>
      </trkpt>
      <trkpt lat="47.31788" lon="-2.32418">
        <ele>14.800000190735</ele>
        <time>2021-09-16T07:39:05.000Z</time>
      </trkpt>
      <trkpt lat="47.31787" lon="-2.32413">
        <ele>15.39999961853</ele>
        <time>2021-09-16T07:39:06.000Z</time>
      </trkpt>
      <trkpt lat="47.31786" lon="-2.32408">
        <ele>15.800000190735</ele>
        <time>2021-09-16T07:39:07.000Z</time>
      </trkpt>
      <trkpt lat="47.31781" lon="-2.32382">
        <ele>15.800000190735</ele>
        <time>2021-09-16T07:39:12.000Z</time>
      </trkpt>
      <trkpt lat="47.31778" lon="-2.32361">
        <ele>16.200000762939</ele>
        <time>2021-09-16T07:39:16.000Z</time>
      </trkpt>
      <trkpt lat="47.31778" lon="-2.32356">
        <ele>16.60000038147</ele>
        <time>2021-09-16T07:39:17.000Z</time>
      </trkpt>
      <trkpt lat="47.31776" lon="-2.3235">
        <ele>17</ele>
        <time>2021-09-16T07:39:18.000Z</time>
      </trkpt>
      <trkpt lat="47.31775" lon="-2.32345">
        <ele>17.39999961853</ele>
        <time>2021-09-16T07:39:19.000Z</time>
      </trkpt>
      <trkpt lat="47.31774" lon="-2.3234">
        <ele>17.799999237061</ele>
        <time>2021-09-16T07:39:20.000Z</time>
      </trkpt>
      <trkpt lat="47.31767" lon="-2.32302">
        <ele>17.799999237061</ele>
        <time>2021-09-16T07:39:26.000Z</time>
      </trkpt>
      <trkpt lat="47.31758" lon="-2.32266">
        <ele>17.799999237061</ele>
        <time>2021-09-16T07:39:33.000Z</time>
      </trkpt>
      <trkpt lat="47.31755" lon="-2.32238">
        <ele>17.799999237061</ele>
        <time>2021-09-16T07:39:39.000Z</time>
      </trkpt>
      <trkpt lat="47.31757" lon="-2.32235">
        <ele>17.799999237061</ele>
        <time>2021-09-16T07:39:40.000Z</time>
      </trkpt>
      <trkpt lat="47.31763" lon="-2.32232">
        <ele>17.799999237061</ele>
        <time>2021-09-16T07:39:42.000Z</time>
      </trkpt>
      <trkpt lat="47.31774" lon="-2.32231">
        <ele>17.799999237061</ele>
        <time>2021-09-16T07:39:45.000Z</time>
      </trkpt>
      <trkpt lat="47.31784" lon="-2.32229">
        <ele>17.799999237061</ele>
        <time>2021-09-16T07:39:48.000Z</time>
      </trkpt>
      <trkpt lat="47.31809" lon="-2.32226">
        <ele>17.799999237061</ele>
        <time>2021-09-16T07:39:54.000Z</time>
      </trkpt>
      <trkpt lat="47.31845" lon="-2.32218">
        <ele>17.799999237061</ele>
        <time>2021-09-16T07:40:01.000Z</time>
      </trkpt>
      <trkpt lat="47.3185" lon="-2.32216">
        <ele>17.39999961853</ele>
        <time>2021-09-16T07:40:02.000Z</time>
      </trkpt>
      <trkpt lat="47.31856" lon="-2.32214">
        <ele>17</ele>
        <time>2021-09-16T07:40:03.000Z</time>
      </trkpt>
      <trkpt lat="47.31861" lon="-2.32212">
        <ele>16.60000038147</ele>
        <time>2021-09-16T07:40:04.000Z</time>
      </trkpt>
      <trkpt lat="47.31868" lon="-2.3221">
        <ele>16.200000762939</ele>
        <time>2021-09-16T07:40:05.000Z</time>
      </trkpt>
      <trkpt lat="47.31874" lon="-2.32208">
        <ele>15.800000190735</ele>
        <time>2021-09-16T07:40:06.000Z</time>
      </trkpt>
      <trkpt lat="47.31888" lon="-2.32205">
        <ele>15.800000190735</ele>
        <time>2021-09-16T07:40:08.000Z</time>
      </trkpt>
      <trkpt lat="47.31901" lon="-2.32204">
        <ele>15.39999961853</ele>
        <time>2021-09-16T07:40:10.000Z</time>
      </trkpt>
      <trkpt lat="47.31908" lon="-2.32204">
        <ele>14.800000190735</ele>
        <time>2021-09-16T07:40:11.000Z</time>
      </trkpt>
      <trkpt lat="47.31915" lon="-2.32203">
        <ele>14.39999961853</ele>
        <time>2021-09-16T07:40:12.000Z</time>
      </trkpt>
      <trkpt lat="47.31921" lon="-2.32205">
        <ele>14</ele>
        <time>2021-09-16T07:40:13.000Z</time>
      </trkpt>
      <trkpt lat="47.31929" lon="-2.32206">
        <ele>13.60000038147</ele>
        <time>2021-09-16T07:40:14.000Z</time>
      </trkpt>
      <trkpt lat="47.31936" lon="-2.32208">
        <ele>13.199999809265</ele>
        <time>2021-09-16T07:40:15.000Z</time>
      </trkpt>
      <trkpt lat="47.31943" lon="-2.3221">
        <ele>12.60000038147</ele>
        <time>2021-09-16T07:40:16.000Z</time>
      </trkpt>
      <trkpt lat="47.31948" lon="-2.32211">
        <ele>12.199999809265</ele>
        <time>2021-09-16T07:40:17.000Z</time>
      </trkpt>
      <trkpt lat="47.31952" lon="-2.32214">
        <ele>11.60000038147</ele>
        <time>2021-09-16T07:40:18.000Z</time>
      </trkpt>
      <trkpt lat="47.31955" lon="-2.32217">
        <ele>11</ele>
        <time>2021-09-16T07:40:19.000Z</time>
      </trkpt>
      <trkpt lat="47.31958" lon="-2.32222">
        <ele>10.39999961853</ele>
        <time>2021-09-16T07:40:20.000Z</time>
      </trkpt>
      <trkpt lat="47.31958" lon="-2.32228">
        <ele>9.1999998092651</ele>
        <time>2021-09-16T07:40:21.000Z</time>
      </trkpt>
      <trkpt lat="47.31952" lon="-2.32243">
        <ele>9.1999998092651</ele>
        <time>2021-09-16T07:40:24.000Z</time>
      </trkpt>
      <trkpt lat="47.31951" lon="-2.32248">
        <ele>8.8000001907349</ele>
        <time>2021-09-16T07:40:25.000Z</time>
      </trkpt>
      <trkpt lat="47.31949" lon="-2.32254">
        <ele>8.3999996185303</ele>
        <time>2021-09-16T07:40:26.000Z</time>
      </trkpt>
      <trkpt lat="47.31949" lon="-2.32259">
        <ele>8</ele>
        <time>2021-09-16T07:40:27.000Z</time>
      </trkpt>
      <trkpt lat="47.3195" lon="-2.32262">
        <ele>7.5999999046326</ele>
        <time>2021-09-16T07:40:28.000Z</time>
      </trkpt>
      <trkpt lat="47.31953" lon="-2.32263">
        <ele>7.1999998092651</ele>
        <time>2021-09-16T07:40:29.000Z</time>
      </trkpt>
      <trkpt lat="47.3196" lon="-2.32255">
        <ele>7.1999998092651</ele>
        <time>2021-09-16T07:40:31.000Z</time>
      </trkpt>
      <trkpt lat="47.31967" lon="-2.32242">
        <ele>6.8000001907349</ele>
        <time>2021-09-16T07:40:33.000Z</time>
      </trkpt>
      <trkpt lat="47.31972" lon="-2.32236">
        <ele>6.1999998092651</ele>
        <time>2021-09-16T07:40:34.000Z</time>
      </trkpt>
      <trkpt lat="47.31978" lon="-2.3223">
        <ele>5.8000001907349</ele>
        <time>2021-09-16T07:40:35.000Z</time>
      </trkpt>
      <trkpt lat="47.31984" lon="-2.32223">
        <ele>5.4000000953674</ele>
        <time>2021-09-16T07:40:36.000Z</time>
      </trkpt>
      <trkpt lat="47.3199" lon="-2.32217">
        <ele>5</ele>
        <time>2021-09-16T07:40:37.000Z</time>
      </trkpt>
      <trkpt lat="47.31997" lon="-2.32212">
        <ele>4.5999999046326</ele>
        <time>2021-09-16T07:40:38.000Z</time>
      </trkpt>
      <trkpt lat="47.32003" lon="-2.32206">
        <ele>4.1999998092651</ele>
        <time>2021-09-16T07:40:39.000Z</time>
      </trkpt>
      <trkpt lat="47.32009" lon="-2.32201">
        <ele>3.7999999523163</ele>
        <time>2021-09-16T07:40:40.000Z</time>
      </trkpt>
      <trkpt lat="47.32031" lon="-2.32188">
        <ele>3</ele>
        <time>2021-09-16T07:40:43.000Z</time>
      </trkpt>
      <trkpt lat="47.32044" lon="-2.32186">
        <ele>3</ele>
        <time>2021-09-16T07:40:45.000Z</time>
      </trkpt>
      <trkpt lat="47.32086" lon="-2.32181">
        <ele>2.5999999046326</ele>
        <time>2021-09-16T07:40:51.000Z</time>
      </trkpt>
      <trkpt lat="47.32093" lon="-2.32181">
        <ele>2.2000000476837</ele>
        <time>2021-09-16T07:40:52.000Z</time>
      </trkpt>
      <trkpt lat="47.32101" lon="-2.32181">
        <ele>1.6000000238419</ele>
        <time>2021-09-16T07:40:53.000Z</time>
      </trkpt>
      <trkpt lat="47.32108" lon="-2.3218">
        <ele>1.2000000476837</ele>
        <time>2021-09-16T07:40:54.000Z</time>
      </trkpt>
      <trkpt lat="47.32115" lon="-2.32178">
        <ele>0.80000001192093</ele>
        <time>2021-09-16T07:40:55.000Z</time>
      </trkpt>
      <trkpt lat="47.32136" lon="-2.32169">
        <ele>0.80000001192093</ele>
        <time>2021-09-16T07:40:58.000Z</time>
      </trkpt>
      <trkpt lat="47.32142" lon="-2.32164">
        <ele>0.80000001192093</ele>
        <time>2021-09-16T07:40:59.000Z</time>
      </trkpt>
      <trkpt lat="47.32167" lon="-2.32143">
        <ele>0.80000001192093</ele>
        <time>2021-09-16T07:41:03.000Z</time>
      </trkpt>
      <trkpt lat="47.32182" lon="-2.3213">
        <ele>0.40000000596046</ele>
        <time>2021-09-16T07:41:06.000Z</time>
      </trkpt>
      <trkpt lat="47.32187" lon="-2.32126">
        <ele>8.3</ele>
        <time>2021-09-16T07:41:07.000Z</time>
      </trkpt>
      <trkpt lat="47.3219" lon="-2.32122">
        <ele>-0.40000000596046</ele>
        <time>2021-09-16T07:41:08.000Z</time>
      </trkpt>
      <trkpt lat="47.32192" lon="-2.3212">
        <ele>-0.80000001192093</ele>
        <time>2021-09-16T07:41:09.000Z</time>
      </trkpt>
      <trkpt lat="47.32194" lon="-2.32118">
        <ele>-1.2000000476837</ele>
        <time>2021-09-16T07:41:10.000Z</time>
      </trkpt>
      <trkpt lat="47.32199" lon="-2.32115">
        <ele>-1.2000000476837</ele>
        <time>2021-09-16T07:41:12.000Z</time>
      </trkpt>
      <trkpt lat="47.32218" lon="-2.3211">
        <ele>-1.2000000476837</ele>
        <time>2021-09-16T07:41:17.000Z</time>
      </trkpt>
      <trkpt lat="47.3224" lon="-2.32104">
        <ele>-1.2000000476837</ele>
        <time>2021-09-16T07:41:22.000Z</time>
      </trkpt>
      <trkpt lat="47.32273" lon="-2.321">
        <ele>-1.2000000476837</ele>
        <time>2021-09-16T07:41:28.000Z</time>
      </trkpt>
      <trkpt lat="47.32307" lon="-2.32098">
        <ele>-0.80000001192093</ele>
        <time>2021-09-16T07:41:34.000Z</time>
      </trkpt>
      <trkpt lat="47.32312" lon="-2.32099">
        <ele>11.2</ele>
        <time>2021-09-16T07:41:35.000Z</time>
      </trkpt>
      <trkpt lat="47.32317" lon="-2.32099">
        <ele>0.40000000596046</ele>
        <time>2021-09-16T07:41:36.000Z</time>
      </trkpt>
      <trkpt lat="47.32322" lon="-2.32101">
        <ele>0.80000001192093</ele>
        <time>2021-09-16T07:41:37.000Z</time>
      </trkpt>
      <trkpt lat="47.3234" lon="-2.32103">
        <ele>0.80000001192093</ele>
        <time>2021-09-16T07:41:42.000Z</time>
      </trkpt>
      <trkpt lat="47.32342" lon="-2.32103">
        <ele>0.80000001192093</ele>
        <time>2021-09-16T07:41:46.000Z</time>
      </trkpt>
      <trkpt lat="47.32344" lon="-2.32104">
        <ele>0.80000001192093</ele>
        <time>2021-09-16T07:41:48.000Z</time>
      </trkpt>
      <trkpt lat="47.32352" lon="-2.32107">
        <ele>0.80000001192093</ele>
        <time>2021-09-16T07:41:51.000Z</time>
      </trkpt>
      <trkpt lat="47.32376" lon="-2.32105">
        <ele>0.80000001192093</ele>
        <time>2021-09-16T07:41:56.000Z</time>
      </trkpt>
      <trkpt lat="47.3241" lon="-2.32102">
        <ele>0.80000001192093</ele>
        <time>2021-09-16T07:42:02.000Z</time>
      </trkpt>
      <trkpt lat="47.32446" lon="-2.32099">
        <ele>0.80000001192093</ele>
        <time>2021-09-16T07:42:08.000Z</time>
      </trkpt>
      <trkpt lat="47.32488" lon="-2.32098">
        <ele>0.80000001192093</ele>
        <time>2021-09-16T07:42:15.000Z</time>
      </trkpt>
      <trkpt lat="47.32533" lon="-2.32095">
        <ele>0.80000001192093</ele>
        <time>2021-09-16T07:42:23.000Z</time>
      </trkpt>
      <trkpt lat="47.32569" lon="-2.32093">
        <ele>0.80000001192093</ele>
        <time>2021-09-16T07:42:29.000Z</time>
      </trkpt>
      <trkpt lat="47.3258" lon="-2.32093">
        <ele>0.80000001192093</ele>
        <time>2021-09-16T07:42:31.000Z</time>
      </trkpt>
      <trkpt lat="47.32588" lon="-2.32103">
        <ele>0.80000001192093</ele>
        <time>2021-09-16T07:42:33.000Z</time>
      </trkpt>
      <trkpt lat="47.32594" lon="-2.32129">
        <ele>0.80000001192093</ele>
        <time>2021-09-16T07:42:36.000Z</time>
      </trkpt>
      <trkpt lat="47.3259" lon="-2.32147">
        <ele>0.40000000596046</ele>
        <time>2021-09-16T07:42:38.000Z</time>
      </trkpt>
      <trkpt lat="47.32587" lon="-2.32157">
        <ele>7.2</ele>
        <time>2021-09-16T07:42:39.000Z</time>
      </trkpt>
      <trkpt lat="47.32585" lon="-2.32167">
        <ele>-0.40000000596046</ele>
        <time>2021-09-16T07:42:40.000Z</time>
      </trkpt>
      <trkpt lat="47.32582" lon="-2.32177">
        <ele>-0.80000001192093</ele>
        <time>2021-09-16T07:42:41.000Z</time>
      </trkpt>
      <trkpt lat="47.32578" lon="-2.32188">
        <ele>-1.3999999761581</ele>
        <time>2021-09-16T07:42:42.000Z</time>
      </trkpt>
      <trkpt lat="47.3257" lon="-2.32209">
        <ele>-1.3999999761581</ele>
        <time>2021-09-16T07:42:44.000Z</time>
      </trkpt>
      <trkpt lat="47.32549" lon="-2.32268">
        <ele>-1.3999999761581</ele>
        <time>2021-09-16T07:42:50.000Z</time>
      </trkpt>
      <trkpt lat="47.32537" lon="-2.3231">
        <ele>-1.3999999761581</ele>
        <time>2021-09-16T07:42:56.000Z</time>
      </trkpt>
      <trkpt lat="47.3254" lon="-2.32318">
        <ele>-1.3999999761581</ele>
        <time>2021-09-16T07:42:58.000Z</time>
      </trkpt>
      <trkpt lat="47.32544" lon="-2.32318">
        <ele>-1.3999999761581</ele>
        <time>2021-09-16T07:42:59.000Z</time>
      </trkpt>
      <trkpt lat="47.32557" lon="-2.32317">
        <ele>-1</ele>
        <time>2021-09-16T07:43:02.000Z</time>
      </trkpt>
      <trkpt lat="47.32563" lon="-2.32316">
        <ele>-0.60000002384186</ele>
        <time>2021-09-16T07:43:03.000Z</time>
      </trkpt>
      <trkpt lat="47.32568" lon="-2.32315">
        <ele>-0.20000000298023</ele>
        <time>2021-09-16T07:43:04.000Z</time>
      </trkpt>
      <trkpt lat="47.32574" lon="-2.32315">
        <ele>0.20000000298023</ele>
        <time>2021-09-16T07:43:05.000Z</time>
      </trkpt>
      <trkpt lat="47.32579" lon="-2.32314">
        <ele>0.80000001192093</ele>
        <time>2021-09-16T07:43:06.000Z</time>
      </trkpt>
      <trkpt lat="47.32604" lon="-2.3231">
        <ele>0.80000001192093</ele>
        <time>2021-09-16T07:43:10.000Z</time>
      </trkpt>
      <trkpt lat="47.32643" lon="-2.32311">
        <ele>0.80000001192093</ele>
        <time>2021-09-16T07:43:16.000Z</time>
      </trkpt>
      <trkpt lat="47.3269" lon="-2.32323">
        <ele>0.80000001192093</ele>
        <time>2021-09-16T07:43:23.000Z</time>
      </trkpt>
      <trkpt lat="47.32738" lon="-2.32344">
        <ele>0.20000000298023</ele>
        <time>2021-09-16T07:43:30.000Z</time>
      </trkpt>
      <trkpt lat="47.32745" lon="-2.32348">
        <ele>-0.20000000298023</ele>
        <time>2021-09-16T07:43:31.000Z</time>
      </trkpt>
      <trkpt lat="47.32752" lon="-2.32353">
        <ele>-0.60000002384186</ele>
        <time>2021-09-16T07:43:32.000Z</time>
      </trkpt>
      <trkpt lat="47.32759" lon="-2.32358">
        <ele>-1</ele>
        <time>2021-09-16T07:43:33.000Z</time>
      </trkpt>
      <trkpt lat="47.32766" lon="-2.32362">
        <ele>-1.3999999761581</ele>
        <time>2021-09-16T07:43:34.000Z</time>
      </trkpt>
      <trkpt lat="47.32781" lon="-2.3237">
        <ele>-1.3999999761581</ele>
        <time>2021-09-16T07:43:36.000Z</time>
      </trkpt>
      <trkpt lat="47.32801" lon="-2.32385">
        <ele>-1.3999999761581</ele>
        <time>2021-09-16T07:43:39.000Z</time>
      </trkpt>
      <trkpt lat="47.32813" lon="-2.32398">
        <ele>-1.3999999761581</ele>
        <time>2021-09-16T07:43:41.000Z</time>
      </trkpt>
      <trkpt lat="47.3285" lon="-2.32429">
        <ele>-1.3999999761581</ele>
        <time>2021-09-16T07:43:47.000Z</time>
      </trkpt>
      <trkpt lat="47.32886" lon="-2.32453">
        <ele>-1.3999999761581</ele>
        <time>2021-09-16T07:43:53.000Z</time>
      </trkpt>
      <trkpt lat="47.32892" lon="-2.32458">
        <ele>-1.3999999761581</ele>
        <time>2021-09-16T07:43:54.000Z</time>
      </trkpt>
      <trkpt lat="47.32903" lon="-2.32482">
        <ele>-1.3999999761581</ele>
        <time>2021-09-16T07:43:57.000Z</time>
      </trkpt>
      <trkpt lat="47.32908" lon="-2.32499">
        <ele>-1.3999999761581</ele>
        <time>2021-09-16T07:43:59.000Z</time>
      </trkpt>
      <trkpt lat="47.32918" lon="-2.32534">
        <ele>-1.3999999761581</ele>
        <time>2021-09-16T07:44:03.000Z</time>
      </trkpt>
      <trkpt lat="47.32921" lon="-2.32562">
        <ele>-1.3999999761581</ele>
        <time>2021-09-16T07:44:06.000Z</time>
      </trkpt>
      <trkpt lat="47.32921" lon="-2.32579">
        <ele>-1.3999999761581</ele>
        <time>2021-09-16T07:44:08.000Z</time>
      </trkpt>
      <trkpt lat="47.32918" lon="-2.32632">
        <ele>-1.7999999523163</ele>
        <time>2021-09-16T07:44:14.000Z</time>
      </trkpt>
      <trkpt lat="47.32922" lon="-2.32638">
        <ele>-2.2000000476837</ele>
        <time>2021-09-16T07:44:15.000Z</time>
      </trkpt>
      <trkpt lat="47.32927" lon="-2.32642">
        <ele>-2.5999999046326</ele>
        <time>2021-09-16T07:44:16.000Z</time>
      </trkpt>
      <trkpt lat="47.32933" lon="-2.32644">
        <ele>-3.2000000476837</ele>
        <time>2021-09-16T07:44:17.000Z</time>
      </trkpt>
      <trkpt lat="47.32938" lon="-2.32645">
        <ele>-3.5999999046326</ele>
        <time>2021-09-16T07:44:18.000Z</time>
      </trkpt>
      <trkpt lat="47.32945" lon="-2.32645">
        <ele>-3.5999999046326</ele>
        <time>2021-09-16T07:44:19.000Z</time>
      </trkpt>
      <trkpt lat="47.32962" lon="-2.3264">
        <ele>-3.5999999046326</ele>
        <time>2021-09-16T07:44:22.000Z</time>
      </trkpt>
      <trkpt lat="47.32968" lon="-2.32638">
        <ele>-3.5999999046326</ele>
        <time>2021-09-16T07:44:23.000Z</time>
      </trkpt>
      <trkpt lat="47.3298" lon="-2.32631">
        <ele>-3.5999999046326</ele>
        <time>2021-09-16T07:44:25.000Z</time>
      </trkpt>
      <trkpt lat="47.32999" lon="-2.32624">
        <ele>-3.5999999046326</ele>
        <time>2021-09-16T07:44:28.000Z</time>
      </trkpt>
      <trkpt lat="47.3301" lon="-2.3263">
        <ele>-4</ele>
        <time>2021-09-16T07:44:30.000Z</time>
      </trkpt>
      <trkpt lat="47.33016" lon="-2.32633">
        <ele>-4.4000000953674</ele>
        <time>2021-09-16T07:44:31.000Z</time>
      </trkpt>
      <trkpt lat="47.33023" lon="-2.32634">
        <ele>-4.8000001907349</ele>
        <time>2021-09-16T07:44:32.000Z</time>
      </trkpt>
      <trkpt lat="47.33029" lon="-2.32635">
        <ele>-5.1999998092651</ele>
        <time>2021-09-16T07:44:33.000Z</time>
      </trkpt>
      <trkpt lat="47.33036" lon="-2.32633">
        <ele>-5.5999999046326</ele>
        <time>2021-09-16T07:44:34.000Z</time>
      </trkpt>
      <trkpt lat="47.33046" lon="-2.32622">
        <ele>-5.5999999046326</ele>
        <time>2021-09-16T07:44:36.000Z</time>
      </trkpt>
      <trkpt lat="47.33052" lon="-2.32618">
        <ele>-5.5999999046326</ele>
        <time>2021-09-16T07:44:37.000Z</time>
      </trkpt>
      <trkpt lat="47.33083" lon="-2.32593">
        <ele>-5.5999999046326</ele>
        <time>2021-09-16T07:44:43.000Z</time>
      </trkpt>
      <trkpt lat="47.33098" lon="-2.3258">
        <ele>-5.1999998092651</ele>
        <time>2021-09-16T07:44:46.000Z</time>
      </trkpt>
      <trkpt lat="47.33103" lon="-2.32575">
        <ele>-4.8000001907349</ele>
        <time>2021-09-16T07:44:47.000Z</time>
      </trkpt>
      <trkpt lat="47.33108" lon="-2.3257">
        <ele>-4.1999998092651</ele>
        <time>2021-09-16T07:44:48.000Z</time>
      </trkpt>
      <trkpt lat="47.33114" lon="-2.32565">
        <ele>-3.7999999523163</ele>
        <time>2021-09-16T07:44:49.000Z</time>
      </trkpt>
      <trkpt lat="47.3312" lon="-2.32561">
        <ele>-3.4000000953674</ele>
        <time>2021-09-16T07:44:50.000Z</time>
      </trkpt>
      <trkpt lat="47.33151" lon="-2.32536">
        <ele>-3.4000000953674</ele>
        <time>2021-09-16T07:44:56.000Z</time>
      </trkpt>
      <trkpt lat="47.33175" lon="-2.32521">
        <ele>-3.4000000953674</ele>
        <time>2021-09-16T07:45:01.000Z</time>
      </trkpt>
      <trkpt lat="47.3318" lon="-2.32519">
        <ele>-3</ele>
        <time>2021-09-16T07:45:02.000Z</time>
      </trkpt>
      <trkpt lat="47.33186" lon="-2.32517">
        <ele>-2.5999999046326</ele>
        <time>2021-09-16T07:45:03.000Z</time>
      </trkpt>
      <trkpt lat="47.33192" lon="-2.32514">
        <ele>-2.2000000476837</ele>
        <time>2021-09-16T07:45:04.000Z</time>
      </trkpt>
      <trkpt lat="47.33197" lon="-2.32512">
        <ele>-1.6000000238419</ele>
        <time>2021-09-16T07:45:05.000Z</time>
      </trkpt>
      <trkpt lat="47.33203" lon="-2.32509">
        <ele>-1.2000000476837</ele>
        <time>2021-09-16T07:45:06.000Z</time>
      </trkpt>
      <trkpt lat="47.33208" lon="-2.32507">
        <ele>-1.2000000476837</ele>
        <time>2021-09-16T07:45:07.000Z</time>
      </trkpt>
      <trkpt lat="47.33259" lon="-2.32481">
        <ele>-1.2000000476837</ele>
        <time>2021-09-16T07:45:16.000Z</time>
      </trkpt>
      <trkpt lat="47.33301" lon="-2.32462">
        <ele>-1.2000000476837</ele>
        <time>2021-09-16T07:45:23.000Z</time>
      </trkpt>
      <trkpt lat="47.33318" lon="-2.32456">
        <ele>-1.2000000476837</ele>
        <time>2021-09-16T07:45:26.000Z</time>
      </trkpt>
      <trkpt lat="47.3333" lon="-2.3245">
        <ele>-1.2000000476837</ele>
        <time>2021-09-16T07:45:28.000Z</time>
      </trkpt>
      <trkpt lat="47.33353" lon="-2.32425">
        <ele>-1.2000000476837</ele>
        <time>2021-09-16T07:45:32.000Z</time>
      </trkpt>
      <trkpt lat="47.33358" lon="-2.32417">
        <ele>-1.2000000476837</ele>
        <time>2021-09-16T07:45:33.000Z</time>
      </trkpt>
      <trkpt lat="47.33365" lon="-2.32411">
        <ele>-1.2000000476837</ele>
        <time>2021-09-16T07:45:34.000Z</time>
      </trkpt>
      <trkpt lat="47.33377" lon="-2.324">
        <ele>-1.2000000476837</ele>
        <time>2021-09-16T07:45:36.000Z</time>
      </trkpt>
      <trkpt lat="47.3342" lon="-2.32363">
        <ele>-1.2000000476837</ele>
        <time>2021-09-16T07:45:43.000Z</time>
      </trkpt>
      <trkpt lat="47.3346" lon="-2.32334">
        <ele>-1.2000000476837</ele>
        <time>2021-09-16T07:45:49.000Z</time>
      </trkpt>
      <trkpt lat="47.33494" lon="-2.32316">
        <ele>-1.6000000238419</ele>
        <time>2021-09-16T07:45:54.000Z</time>
      </trkpt>
      <trkpt lat="47.33501" lon="-2.32313">
        <ele>-2</ele>
        <time>2021-09-16T07:45:55.000Z</time>
      </trkpt>
      <trkpt lat="47.33508" lon="-2.32309">
        <ele>-2.4000000953674</ele>
        <time>2021-09-16T07:45:56.000Z</time>
      </trkpt>
      <trkpt lat="47.33515" lon="-2.32307">
        <ele>-2.7999999523163</ele>
        <time>2021-09-16T07:45:57.000Z</time>
      </trkpt>
      <trkpt lat="47.33521" lon="-2.32304">
        <ele>-3.2000000476837</ele>
        <time>2021-09-16T07:45:58.000Z</time>
      </trkpt>
      <trkpt lat="47.33532" lon="-2.32301">
        <ele>-3.2000000476837</ele>
        <time>2021-09-16T07:46:00.000Z</time>
      </trkpt>
      <trkpt lat="47.33538" lon="-2.32302">
        <ele>-3.2000000476837</ele>
        <time>2021-09-16T07:46:01.000Z</time>
      </trkpt>
      <trkpt lat="47.33554" lon="-2.32302">
        <ele>-3.2000000476837</ele>
        <time>2021-09-16T07:46:04.000Z</time>
      </trkpt>
      <trkpt lat="47.33565" lon="-2.32299">
        <ele>-3.2000000476837</ele>
        <time>2021-09-16T07:46:06.000Z</time>
      </trkpt>
      <trkpt lat="47.33588" lon="-2.32291">
        <ele>-2.7999999523163</ele>
        <time>2021-09-16T07:46:10.000Z</time>
      </trkpt>
      <trkpt lat="47.33593" lon="-2.3229">
        <ele>-2.4000000953674</ele>
        <time>2021-09-16T07:46:11.000Z</time>
      </trkpt>
      <trkpt lat="47.33599" lon="-2.3229">
        <ele>-2</ele>
        <time>2021-09-16T07:46:12.000Z</time>
      </trkpt>
      <trkpt lat="47.33605" lon="-2.32289">
        <ele>-1.6000000238419</ele>
        <time>2021-09-16T07:46:13.000Z</time>
      </trkpt>
      <trkpt lat="47.33611" lon="-2.32288">
        <ele>-1.2000000476837</ele>
        <time>2021-09-16T07:46:14.000Z</time>
      </trkpt>
      <trkpt lat="47.33629" lon="-2.32284">
        <ele>-1.2000000476837</ele>
        <time>2021-09-16T07:46:17.000Z</time>
      </trkpt>
      <trkpt lat="47.33635" lon="-2.32283">
        <ele>-1.2000000476837</ele>
        <time>2021-09-16T07:46:18.000Z</time>
      </trkpt>
      <trkpt lat="47.33672" lon="-2.32269">
        <ele>-1.2000000476837</ele>
        <time>2021-09-16T07:46:24.000Z</time>
      </trkpt>
      <trkpt lat="47.33703" lon="-2.3225">
        <ele>-1.2000000476837</ele>
        <time>2021-09-16T07:46:29.000Z</time>
      </trkpt>
      <trkpt lat="47.33744" lon="-2.32225">
        <ele>-1.2000000476837</ele>
        <time>2021-09-16T07:46:36.000Z</time>
      </trkpt>
      <trkpt lat="47.33788" lon="-2.32209">
        <ele>-1.2000000476837</ele>
        <time>2021-09-16T07:46:43.000Z</time>
      </trkpt>
      <trkpt lat="47.33825" lon="-2.32201">
        <ele>-1.2000000476837</ele>
        <time>2021-09-16T07:46:49.000Z</time>
      </trkpt>
      <trkpt lat="47.33869" lon="-2.32197">
        <ele>-1.2000000476837</ele>
        <time>2021-09-16T07:46:55.000Z</time>
      </trkpt>
      <trkpt lat="47.33913" lon="-2.322">
        <ele>-1.2000000476837</ele>
        <time>2021-09-16T07:47:01.000Z</time>
      </trkpt>
      <trkpt lat="47.33939" lon="-2.322">
        <ele>-1.2000000476837</ele>
        <time>2021-09-16T07:47:05.000Z</time>
      </trkpt>
      <trkpt lat="47.33945" lon="-2.32203">
        <ele>-1.2000000476837</ele>
        <time>2021-09-16T07:47:06.000Z</time>
      </trkpt>
      <trkpt lat="47.33951" lon="-2.32208">
        <ele>-1.6000000238419</ele>
        <time>2021-09-16T07:47:07.000Z</time>
      </trkpt>
      <trkpt lat="47.33957" lon="-2.32212">
        <ele>-2</ele>
        <time>2021-09-16T07:47:08.000Z</time>
      </trkpt>
      <trkpt lat="47.33965" lon="-2.32215">
        <ele>-2.5999999046326</ele>
        <time>2021-09-16T07:47:09.000Z</time>
      </trkpt>
      <trkpt lat="47.33972" lon="-2.32216">
        <ele>-3</ele>
        <time>2021-09-16T07:47:10.000Z</time>
      </trkpt>
      <trkpt lat="47.33979" lon="-2.32216">
        <ele>-3.4000000953674</ele>
        <time>2021-09-16T07:47:11.000Z</time>
      </trkpt>
      <trkpt lat="47.33994" lon="-2.32216">
        <ele>-3.4000000953674</ele>
        <time>2021-09-16T07:47:13.000Z</time>
      </trkpt>
      <trkpt lat="47.34007" lon="-2.32215">
        <ele>-3.4000000953674</ele>
        <time>2021-09-16T07:47:15.000Z</time>
      </trkpt>
      <trkpt lat="47.3405" lon="-2.32216">
        <ele>-3.4000000953674</ele>
        <time>2021-09-16T07:47:22.000Z</time>
      </trkpt>
      <trkpt lat="47.34063" lon="-2.32219">
        <ele>-3.4000000953674</ele>
        <time>2021-09-16T07:47:24.000Z</time>
      </trkpt>
      <trkpt lat="47.34079" lon="-2.32231">
        <ele>-3.4000000953674</ele>
        <time>2021-09-16T07:47:27.000Z</time>
      </trkpt>
      <trkpt lat="47.34093" lon="-2.32261">
        <ele>-3.4000000953674</ele>
        <time>2021-09-16T07:47:31.000Z</time>
      </trkpt>
      <trkpt lat="47.34095" lon="-2.32268">
        <ele>-3</ele>
        <time>2021-09-16T07:47:32.000Z</time>
      </trkpt>
      <trkpt lat="47.34097" lon="-2.32275">
        <ele>-2.5999999046326</ele>
        <time>2021-09-16T07:47:33.000Z</time>
      </trkpt>
      <trkpt lat="47.34099" lon="-2.32283">
        <ele>-2</ele>
        <time>2021-09-16T07:47:34.000Z</time>
      </trkpt>
      <trkpt lat="47.34101" lon="-2.3229">
        <ele>-1.6000000238419</ele>
        <time>2021-09-16T07:47:35.000Z</time>
      </trkpt>
      <trkpt lat="47.34104" lon="-2.32298">
        <ele>-1.2000000476837</ele>
        <time>2021-09-16T07:47:36.000Z</time>
      </trkpt>
      <trkpt lat="47.34106" lon="-2.32305">
        <ele>-1.2000000476837</ele>
        <time>2021-09-16T07:47:37.000Z</time>
      </trkpt>
      <trkpt lat="47.34118" lon="-2.3235">
        <ele>-0.80000001192093</ele>
        <time>2021-09-16T07:47:43.000Z</time>
      </trkpt>
      <trkpt lat="47.3412" lon="-2.32357">
        <ele>-0.40000000596046</ele>
        <time>2021-09-16T07:47:44.000Z</time>
      </trkpt>
      <trkpt lat="47.34122" lon="-2.32365">
        <ele>10.1</ele>
        <time>2021-09-16T07:47:45.000Z</time>
      </trkpt>
      <trkpt lat="47.34123" lon="-2.32371">
        <ele>0.80000001192093</ele>
        <time>2021-09-16T07:47:46.000Z</time>
      </trkpt>
      <trkpt lat="47.34128" lon="-2.32393">
        <ele>0.80000001192093</ele>
        <time>2021-09-16T07:47:49.000Z</time>
      </trkpt>
      <trkpt lat="47.34143" lon="-2.32446">
        <ele>0.80000001192093</ele>
        <time>2021-09-16T07:47:56.000Z</time>
      </trkpt>
      <trkpt lat="47.34153" lon="-2.32489">
        <ele>0.80000001192093</ele>
        <time>2021-09-16T07:48:02.000Z</time>
      </trkpt>
      <trkpt lat="47.34155" lon="-2.32496">
        <ele>0.80000001192093</ele>
        <time>2021-09-16T07:48:03.000Z</time>
      </trkpt>
      <trkpt lat="47.34156" lon="-2.32518">
        <ele>0.80000001192093</ele>
        <time>2021-09-16T07:48:06.000Z</time>
      </trkpt>
      <trkpt lat="47.34157" lon="-2.32537">
        <ele>0.80000001192093</ele>
        <time>2021-09-16T07:48:09.000Z</time>
      </trkpt>
      <trkpt lat="47.34159" lon="-2.32575">
        <ele>0.80000001192093</ele>
        <time>2021-09-16T07:48:16.000Z</time>
      </trkpt>
      <trkpt lat="47.34154" lon="-2.32591">
        <ele>0.80000001192093</ele>
        <time>2021-09-16T07:48:21.000Z</time>
      </trkpt>
      <trkpt lat="47.34153" lon="-2.32596">
        <ele>0.80000001192093</ele>
        <time>2021-09-16T07:48:25.000Z</time>
      </trkpt>
      <trkpt lat="47.34153" lon="-2.32599">
        <ele>0.80000001192093</ele>
        <time>2021-09-16T07:49:13.000Z</time>
      </trkpt>
      <trkpt lat="47.34154" lon="-2.32611">
        <ele>0.80000001192093</ele>
        <time>2021-09-16T07:49:16.000Z</time>
      </trkpt>
      <trkpt lat="47.34156" lon="-2.3264">
        <ele>0.80000001192093</ele>
        <time>2021-09-16T07:49:21.000Z</time>
      </trkpt>
      <trkpt lat="47.34156" lon="-2.32646">
        <ele>1.2000000476837</ele>
        <time>2021-09-16T07:49:22.000Z</time>
      </trkpt>
      <trkpt lat="47.34156" lon="-2.32652">
        <ele>1.6000000238419</ele>
        <time>2021-09-16T07:49:23.000Z</time>
      </trkpt>
      <trkpt lat="47.34156" lon="-2.32658">
        <ele>2</ele>
        <time>2021-09-16T07:49:24.000Z</time>
      </trkpt>
      <trkpt lat="47.34156" lon="-2.32664">
        <ele>2.7999999523163</ele>
        <time>2021-09-16T07:49:25.000Z</time>
      </trkpt>
      <trkpt lat="47.34158" lon="-2.32688">
        <ele>2.7999999523163</ele>
        <time>2021-09-16T07:49:28.000Z</time>
      </trkpt>
      <trkpt lat="47.3416" lon="-2.32746">
        <ele>2.7999999523163</ele>
        <time>2021-09-16T07:49:35.000Z</time>
      </trkpt>
      <trkpt lat="47.3416" lon="-2.32753">
        <ele>2.7999999523163</ele>
        <time>2021-09-16T07:49:36.000Z</time>
      </trkpt>
      <trkpt lat="47.34161" lon="-2.32766">
        <ele>2.7999999523163</ele>
        <time>2021-09-16T07:49:38.000Z</time>
      </trkpt>
      <trkpt lat="47.34163" lon="-2.32778">
        <ele>2.7999999523163</ele>
        <time>2021-09-16T07:49:40.000Z</time>
      </trkpt>
      <trkpt lat="47.34166" lon="-2.32783">
        <ele>2.7999999523163</ele>
        <time>2021-09-16T07:49:43.000Z</time>
      </trkpt>
      <trkpt lat="47.34167" lon="-2.32785">
        <ele>2.4000000953674</ele>
        <time>2021-09-16T07:49:45.000Z</time>
      </trkpt>
      <trkpt lat="47.34167" lon="-2.32785">
        <ele>2</ele>
        <time>2021-09-16T07:49:46.000Z</time>
      </trkpt>
      <trkpt lat="47.34167" lon="-2.32786">
        <ele>1.6000000238419</ele>
        <time>2021-09-16T07:49:47.000Z</time>
      </trkpt>
      <trkpt lat="47.34169" lon="-2.32791">
        <ele>0.80000001192093</ele>
        <time>2021-09-16T07:49:56.000Z</time>
      </trkpt>
      <trkpt lat="47.3417" lon="-2.32795">
        <ele>0.80000001192093</ele>
        <time>2021-09-16T07:49:57.000Z</time>
      </trkpt>
      <trkpt lat="47.34173" lon="-2.32797">
        <ele>0.80000001192093</ele>
        <time>2021-09-16T07:50:01.000Z</time>
      </trkpt>
      <trkpt lat="47.34177" lon="-2.32811">
        <ele>0.80000001192093</ele>
        <time>2021-09-16T07:50:05.000Z</time>
      </trkpt>
      <trkpt lat="47.3419" lon="-2.32839">
        <ele>0.80000001192093</ele>
        <time>2021-09-16T07:50:11.000Z</time>
      </trkpt>
      <trkpt lat="47.34201" lon="-2.3286">
        <ele>0.80000001192093</ele>
        <time>2021-09-16T07:50:16.000Z</time>
      </trkpt>
      <trkpt lat="47.34208" lon="-2.32875">
        <ele>0.40000000596046</ele>
        <time>2021-09-16T07:50:19.000Z</time>
      </trkpt>
      <trkpt lat="47.3421" lon="-2.32879">
        <ele>8.4</ele>
        <time>2021-09-16T07:50:20.000Z</time>
      </trkpt>
      <trkpt lat="47.34212" lon="-2.32884">
        <ele>-0.40000000596046</ele>
        <time>2021-09-16T07:50:21.000Z</time>
      </trkpt>
      <trkpt lat="47.34214" lon="-2.32887">
        <ele>-0.80000001192093</ele>
        <time>2021-09-16T07:50:22.000Z</time>
      </trkpt>
      <trkpt lat="47.34216" lon="-2.32891">
        <ele>-1.2000000476837</ele>
        <time>2021-09-16T07:50:23.000Z</time>
      </trkpt>
      <trkpt lat="47.34221" lon="-2.32898">
        <ele>-1.2000000476837</ele>
        <time>2021-09-16T07:50:26.000Z</time>
      </trkpt>
      <trkpt lat="47.34227" lon="-2.32912">
        <ele>-1.6000000238419</ele>
        <time>2021-09-16T07:50:30.000Z</time>
      </trkpt>
      <trkpt lat="47.34229" lon="-2.32915">
        <ele>-2</ele>
        <time>2021-09-16T07:50:31.000Z</time>
      </trkpt>
      <trkpt lat="47.3423" lon="-2.32919">
        <ele>-2.4000000953674</ele>
        <time>2021-09-16T07:50:32.000Z</time>
      </trkpt>
      <trkpt lat="47.34231" lon="-2.32923">
        <ele>-3</ele>
        <time>2021-09-16T07:50:33.000Z</time>
      </trkpt>
      <trkpt lat="47.34232" lon="-2.32926">
        <ele>-3.4000000953674</ele>
        <time>2021-09-16T07:50:34.000Z</time>
      </trkpt>
      <trkpt lat="47.34242" lon="-2.32952">
        <ele>-3.4000000953674</ele>
        <time>2021-09-16T07:50:38.000Z</time>
      </trkpt>
      <trkpt lat="47.34245" lon="-2.32957">
        <ele>-3.4000000953674</ele>
        <time>2021-09-16T07:50:39.000Z</time>
      </trkpt>
      <trkpt lat="47.34268" lon="-2.33001">
        <ele>-3.4000000953674</ele>
        <time>2021-09-16T07:50:45.000Z</time>
      </trkpt>
      <trkpt lat="47.34286" lon="-2.33032">
        <ele>-3.7999999523163</ele>
        <time>2021-09-16T07:50:50.000Z</time>
      </trkpt>
      <trkpt lat="47.3429" lon="-2.33038">
        <ele>-4.1999998092651</ele>
        <time>2021-09-16T07:50:51.000Z</time>
      </trkpt>
      <trkpt lat="47.34293" lon="-2.33042">
        <ele>-4.5999999046326</ele>
        <time>2021-09-16T07:50:52.000Z</time>
      </trkpt>
      <trkpt lat="47.34297" lon="-2.33046">
        <ele>-5</ele>
        <time>2021-09-16T07:50:53.000Z</time>
      </trkpt>
      <trkpt lat="47.343" lon="-2.33049">
        <ele>-5.4000000953674</ele>
        <time>2021-09-16T07:50:54.000Z</time>
      </trkpt>
      <trkpt lat="47.34306" lon="-2.3305">
        <ele>-5.4000000953674</ele>
        <time>2021-09-16T07:50:56.000Z</time>
      </trkpt>
      <trkpt lat="47.34335" lon="-2.33046">
        <ele>-5.4000000953674</ele>
        <time>2021-09-16T07:51:03.000Z</time>
      </trkpt>
      <trkpt lat="47.34351" lon="-2.3304">
        <ele>-5.4000000953674</ele>
        <time>2021-09-16T07:51:06.000Z</time>
      </trkpt>
      <trkpt lat="47.34359" lon="-2.33041">
        <ele>-5.4000000953674</ele>
        <time>2021-09-16T07:51:08.000Z</time>
      </trkpt>
      <trkpt lat="47.34369" lon="-2.33056">
        <ele>-5.4000000953674</ele>
        <time>2021-09-16T07:51:12.000Z</time>
      </trkpt>
      <trkpt lat="47.34378" lon="-2.33086">
        <ele>-5.4000000953674</ele>
        <time>2021-09-16T07:51:17.000Z</time>
      </trkpt>
      <trkpt lat="47.3438" lon="-2.33092">
        <ele>-5.4000000953674</ele>
        <time>2021-09-16T07:51:18.000Z</time>
      </trkpt>
      <trkpt lat="47.34386" lon="-2.33118">
        <ele>-5.4000000953674</ele>
        <time>2021-09-16T07:51:22.000Z</time>
      </trkpt>
      <trkpt lat="47.34399" lon="-2.33167">
        <ele>-5.4000000953674</ele>
        <time>2021-09-16T07:51:30.000Z</time>
      </trkpt>
      <trkpt lat="47.34407" lon="-2.33197">
        <ele>-5.4000000953674</ele>
        <time>2021-09-16T07:51:35.000Z</time>
      </trkpt>
      <trkpt lat="47.3441" lon="-2.3321">
        <ele>-5.4000000953674</ele>
        <time>2021-09-16T07:51:37.000Z</time>
      </trkpt>
      <trkpt lat="47.34415" lon="-2.33235">
        <ele>-5.4000000953674</ele>
        <time>2021-09-16T07:51:41.000Z</time>
      </trkpt>
      <trkpt lat="47.34425" lon="-2.33274">
        <ele>-5.4000000953674</ele>
        <time>2021-09-16T07:51:47.000Z</time>
      </trkpt>
      <trkpt lat="47.34427" lon="-2.33281">
        <ele>-5</ele>
        <time>2021-09-16T07:51:48.000Z</time>
      </trkpt>
      <trkpt lat="47.34429" lon="-2.33288">
        <ele>-4.5999999046326</ele>
        <time>2021-09-16T07:51:49.000Z</time>
      </trkpt>
      <trkpt lat="47.34431" lon="-2.33293">
        <ele>-4.1999998092651</ele>
        <time>2021-09-16T07:51:50.000Z</time>
      </trkpt>
      <trkpt lat="47.34434" lon="-2.33297">
        <ele>-3.7999999523163</ele>
        <time>2021-09-16T07:51:51.000Z</time>
      </trkpt>
      <trkpt lat="47.34436" lon="-2.333">
        <ele>-3.2000000476837</ele>
        <time>2021-09-16T07:51:52.000Z</time>
      </trkpt>
      <trkpt lat="47.34447" lon="-2.33308">
        <ele>-3.2000000476837</ele>
        <time>2021-09-16T07:51:55.000Z</time>
      </trkpt>
      <trkpt lat="47.3445" lon="-2.33312">
        <ele>-3.2000000476837</ele>
        <time>2021-09-16T07:51:56.000Z</time>
      </trkpt>
      <trkpt lat="47.34458" lon="-2.33329">
        <ele>-3.2000000476837</ele>
        <time>2021-09-16T07:51:59.000Z</time>
      </trkpt>
      <trkpt lat="47.34459" lon="-2.33341">
        <ele>-3.2000000476837</ele>
        <time>2021-09-16T07:52:01.000Z</time>
      </trkpt>
      <trkpt lat="47.3446" lon="-2.3336">
        <ele>-3.2000000476837</ele>
        <time>2021-09-16T07:52:05.000Z</time>
      </trkpt>
      <trkpt lat="47.34462" lon="-2.33365">
        <ele>-3.2000000476837</ele>
        <time>2021-09-16T07:52:06.000Z</time>
      </trkpt>
      <trkpt lat="47.34468" lon="-2.33398">
        <ele>-3.2000000476837</ele>
        <time>2021-09-16T07:52:13.000Z</time>
      </trkpt>
      <trkpt lat="47.34468" lon="-2.33402">
        <ele>-3.2000000476837</ele>
        <time>2021-09-16T07:52:14.000Z</time>
      </trkpt>
      <trkpt lat="47.34468" lon="-2.33412">
        <ele>-3.2000000476837</ele>
        <time>2021-09-16T07:52:17.000Z</time>
      </trkpt>
      <trkpt lat="47.34471" lon="-2.33436">
        <ele>-3.2000000476837</ele>
        <time>2021-09-16T07:52:23.000Z</time>
      </trkpt>
      <trkpt lat="47.34474" lon="-2.33464">
        <ele>-3.2000000476837</ele>
        <time>2021-09-16T07:52:28.000Z</time>
      </trkpt>
      <trkpt lat="47.34478" lon="-2.33494">
        <ele>-3.2000000476837</ele>
        <time>2021-09-16T07:52:34.000Z</time>
      </trkpt>
      <trkpt lat="47.34481" lon="-2.33522">
        <ele>-3.2000000476837</ele>
        <time>2021-09-16T07:52:39.000Z</time>
      </trkpt>
      <trkpt lat="47.34486" lon="-2.33554">
        <ele>-3.2000000476837</ele>
        <time>2021-09-16T07:52:45.000Z</time>
      </trkpt>
      <trkpt lat="47.34489" lon="-2.33572">
        <ele>-3.2000000476837</ele>
        <time>2021-09-16T07:52:50.000Z</time>
      </trkpt>
      <trkpt lat="47.34489" lon="-2.33572">
        <ele>-3.2000000476837</ele>
        <time>2021-09-16T07:52:51.000Z</time>
      </trkpt>
      <trkpt lat="47.34492" lon="-2.33577">
        <ele>-2.7999999523163</ele>
        <time>2021-09-16T07:52:58.000Z</time>
      </trkpt>
      <trkpt lat="47.34493" lon="-2.3358">
        <ele>-2.4000000953674</ele>
        <time>2021-09-16T07:52:59.000Z</time>
      </trkpt>
      <trkpt lat="47.34495" lon="-2.33583">
        <ele>-2</ele>
        <time>2021-09-16T07:53:00.000Z</time>
      </trkpt>
      <trkpt lat="47.34497" lon="-2.33587">
        <ele>-1.6000000238419</ele>
        <time>2021-09-16T07:53:01.000Z</time>
      </trkpt>
      <trkpt lat="47.34498" lon="-2.33592">
        <ele>-1.2000000476837</ele>
        <time>2021-09-16T07:53:02.000Z</time>
      </trkpt>
      <trkpt lat="47.345" lon="-2.33597">
        <ele>-1.2000000476837</ele>
        <time>2021-09-16T07:53:03.000Z</time>
      </trkpt>
      <trkpt lat="47.34501" lon="-2.33604">
        <ele>-1.2000000476837</ele>
        <time>2021-09-16T07:53:05.000Z</time>
      </trkpt>
      <trkpt lat="47.34509" lon="-2.33639">
        <ele>-1.2000000476837</ele>
        <time>2021-09-16T07:53:12.000Z</time>
      </trkpt>
      <trkpt lat="47.3451" lon="-2.33646">
        <ele>-1.2000000476837</ele>
        <time>2021-09-16T07:53:14.000Z</time>
      </trkpt>
      <trkpt lat="47.34513" lon="-2.33655">
        <ele>-1.2000000476837</ele>
        <time>2021-09-16T07:53:17.000Z</time>
      </trkpt>
      <trkpt lat="47.34515" lon="-2.33668">
        <ele>-1.2000000476837</ele>
        <time>2021-09-16T07:53:22.000Z</time>
      </trkpt>
      <trkpt lat="47.34521" lon="-2.33689">
        <ele>-1.2000000476837</ele>
        <time>2021-09-16T07:53:28.000Z</time>
      </trkpt>
      <trkpt lat="47.34525" lon="-2.3371">
        <ele>-1.2000000476837</ele>
        <time>2021-09-16T07:53:33.000Z</time>
      </trkpt>
      <trkpt lat="47.34531" lon="-2.33739">
        <ele>-1.2000000476837</ele>
        <time>2021-09-16T07:53:39.000Z</time>
      </trkpt>
      <trkpt lat="47.34537" lon="-2.33769">
        <ele>-1.2000000476837</ele>
        <time>2021-09-16T07:53:44.000Z</time>
      </trkpt>
      <trkpt lat="47.34541" lon="-2.33788">
        <ele>-0.80000001192093</ele>
        <time>2021-09-16T07:53:47.000Z</time>
      </trkpt>
      <trkpt lat="47.34543" lon="-2.33794">
        <ele>-0.40000000596046</ele>
        <time>2021-09-16T07:53:48.000Z</time>
      </trkpt>
      <trkpt lat="47.34544" lon="-2.33802">
        <ele>12</ele>
        <time>2021-09-16T07:53:49.000Z</time>
      </trkpt>
      <trkpt lat="47.34545" lon="-2.33809">
        <ele>0.40000000596046</ele>
        <time>2021-09-16T07:53:50.000Z</time>
      </trkpt>
      <trkpt lat="47.34547" lon="-2.33816">
        <ele>0.80000001192093</ele>
        <time>2021-09-16T07:53:51.000Z</time>
      </trkpt>
      <trkpt lat="47.34553" lon="-2.33859">
        <ele>0.80000001192093</ele>
        <time>2021-09-16T07:53:57.000Z</time>
      </trkpt>
      <trkpt lat="47.34565" lon="-2.33896">
        <ele>0.80000001192093</ele>
        <time>2021-09-16T07:54:03.000Z</time>
      </trkpt>
      <trkpt lat="47.34579" lon="-2.33932">
        <ele>0.80000001192093</ele>
        <time>2021-09-16T07:54:09.000Z</time>
      </trkpt>
      <trkpt lat="47.3459" lon="-2.33968">
        <ele>0.80000001192093</ele>
        <time>2021-09-16T07:54:14.000Z</time>
      </trkpt>
      <trkpt lat="47.34596" lon="-2.33988">
        <ele>0.40000000596046</ele>
        <time>2021-09-16T07:54:17.000Z</time>
      </trkpt>
      <trkpt lat="47.34599" lon="-2.33995">
        <ele>9</ele>
        <time>2021-09-16T07:54:18.000Z</time>
      </trkpt>
      <trkpt lat="47.34601" lon="-2.34002">
        <ele>-0.40000000596046</ele>
        <time>2021-09-16T07:54:19.000Z</time>
      </trkpt>
      <trkpt lat="47.34603" lon="-2.34008">
        <ele>-0.80000001192093</ele>
        <time>2021-09-16T07:54:20.000Z</time>
      </trkpt>
      <trkpt lat="47.34606" lon="-2.34014">
        <ele>-1.2000000476837</ele>
        <time>2021-09-16T07:54:21.000Z</time>
      </trkpt>
      <trkpt lat="47.34609" lon="-2.34025">
        <ele>-1.2000000476837</ele>
        <time>2021-09-16T07:54:23.000Z</time>
      </trkpt>
      <trkpt lat="47.34611" lon="-2.34031">
        <ele>-1.2000000476837</ele>
        <time>2021-09-16T07:54:24.000Z</time>
      </trkpt>
      <trkpt lat="47.34615" lon="-2.34051">
        <ele>-1.2000000476837</ele>
        <time>2021-09-16T07:54:27.000Z</time>
      </trkpt>
      <trkpt lat="47.3462" lon="-2.34072">
        <ele>-1.2000000476837</ele>
        <time>2021-09-16T07:54:30.000Z</time>
      </trkpt>
      <trkpt lat="47.34632" lon="-2.34112">
        <ele>-1.2000000476837</ele>
        <time>2021-09-16T07:54:36.000Z</time>
      </trkpt>
      <trkpt lat="47.34634" lon="-2.34122">
        <ele>-0.80000001192093</ele>
        <time>2021-09-16T07:54:38.000Z</time>
      </trkpt>
      <trkpt lat="47.34636" lon="-2.34126">
        <ele>-0.40000000596046</ele>
        <time>2021-09-16T07:54:39.000Z</time>
      </trkpt>
      <trkpt lat="47.34638" lon="-2.3413">
        <ele>11.7</ele>
        <time>2021-09-16T07:54:40.000Z</time>
      </trkpt>
      <trkpt lat="47.3464" lon="-2.34134">
        <ele>0.40000000596046</ele>
        <time>2021-09-16T07:54:41.000Z</time>
      </trkpt>
      <trkpt lat="47.34643" lon="-2.34137">
        <ele>0.80000001192093</ele>
        <time>2021-09-16T07:54:42.000Z</time>
      </trkpt>
      <trkpt lat="47.34662" lon="-2.34152">
        <ele>0.80000001192093</ele>
        <time>2021-09-16T07:54:49.000Z</time>
      </trkpt>
      <trkpt lat="47.34673" lon="-2.34156">
        <ele>0.80000001192093</ele>
        <time>2021-09-16T07:54:53.000Z</time>
      </trkpt>
      <trkpt lat="47.34675" lon="-2.34159">
        <ele>0.80000001192093</ele>
        <time>2021-09-16T07:54:54.000Z</time>
      </trkpt>
      <trkpt lat="47.34676" lon="-2.34174">
        <ele>0.80000001192093</ele>
        <time>2021-09-16T07:54:58.000Z</time>
      </trkpt>
      <trkpt lat="47.34672" lon="-2.34187">
        <ele>0.80000001192093</ele>
        <time>2021-09-16T07:55:02.000Z</time>
      </trkpt>
      <trkpt lat="47.34671" lon="-2.3419">
        <ele>0.80000001192093</ele>
        <time>2021-09-16T07:55:03.000Z</time>
      </trkpt>
      <trkpt lat="47.34669" lon="-2.34201">
        <ele>0.80000001192093</ele>
        <time>2021-09-16T07:55:09.000Z</time>
      </trkpt>
      <trkpt lat="47.34666" lon="-2.34206">
        <ele>0.80000001192093</ele>
        <time>2021-09-16T08:01:28.000Z</time>
      </trkpt>
      <trkpt lat="47.34665" lon="-2.3421">
        <ele>0.80000001192093</ele>
        <time>2021-09-16T08:01:30.000Z</time>
      </trkpt>
      <trkpt lat="47.34665" lon="-2.34226">
        <ele>0.80000001192093</ele>
        <time>2021-09-16T08:01:35.000Z</time>
      </trkpt>
      <trkpt lat="47.34666" lon="-2.3424">
        <ele>1.2000000476837</ele>
        <time>2021-09-16T08:01:38.000Z</time>
      </trkpt>
      <trkpt lat="47.34665" lon="-2.34245">
        <ele>1.6000000238419</ele>
        <time>2021-09-16T08:01:39.000Z</time>
      </trkpt>
      <trkpt lat="47.34665" lon="-2.3425">
        <ele>2.5999999046326</ele>
        <time>2021-09-16T08:01:40.000Z</time>
      </trkpt>
      <trkpt lat="47.34665" lon="-2.34255">
        <ele>3</ele>
        <time>2021-09-16T08:01:41.000Z</time>
      </trkpt>
      <trkpt lat="47.34669" lon="-2.34261">
        <ele>3</ele>
        <time>2021-09-16T08:01:43.000Z</time>
      </trkpt>
      <trkpt lat="47.34672" lon="-2.34261">
        <ele>3</ele>
        <time>2021-09-16T08:01:44.000Z</time>
      </trkpt>
      <trkpt lat="47.34692" lon="-2.34258">
        <ele>3</ele>
        <time>2021-09-16T08:01:49.000Z</time>
      </trkpt>
      <trkpt lat="47.34724" lon="-2.34253">
        <ele>3</ele>
        <time>2021-09-16T08:01:57.000Z</time>
      </trkpt>
      <trkpt lat="47.34748" lon="-2.34247">
        <ele>3.4000000953674</ele>
        <time>2021-09-16T08:02:03.000Z</time>
      </trkpt>
      <trkpt lat="47.34752" lon="-2.34246">
        <ele>3.7999999523163</ele>
        <time>2021-09-16T08:02:04.000Z</time>
      </trkpt>
      <trkpt lat="47.34756" lon="-2.34245">
        <ele>4.5999999046326</ele>
        <time>2021-09-16T08:02:05.000Z</time>
      </trkpt>
      <trkpt lat="47.34759" lon="-2.34244">
        <ele>5</ele>
        <time>2021-09-16T08:02:06.000Z</time>
      </trkpt>
      <trkpt lat="47.34789" lon="-2.34236">
        <ele>5</ele>
        <time>2021-09-16T08:02:14.000Z</time>
      </trkpt>
      <trkpt lat="47.34813" lon="-2.34231">
        <ele>5</ele>
        <time>2021-09-16T08:02:21.000Z</time>
      </trkpt>
      <trkpt lat="47.34816" lon="-2.34231">
        <ele>5.4000000953674</ele>
        <time>2021-09-16T08:02:22.000Z</time>
      </trkpt>
      <trkpt lat="47.34818" lon="-2.34231">
        <ele>5.8000001907349</ele>
        <time>2021-09-16T08:02:23.000Z</time>
      </trkpt>
      <trkpt lat="47.34821" lon="-2.3423">
        <ele>6.1999998092651</ele>
        <time>2021-09-16T08:02:24.000Z</time>
      </trkpt>
      <trkpt lat="47.34824" lon="-2.3423">
        <ele>6.5999999046326</ele>
        <time>2021-09-16T08:02:25.000Z</time>
      </trkpt>
      <trkpt lat="47.34827" lon="-2.3423">
        <ele>7</ele>
        <time>2021-09-16T08:02:26.000Z</time>
      </trkpt>
      <trkpt lat="47.34829" lon="-2.3423">
        <ele>7</ele>
        <time>2021-09-16T08:02:27.000Z</time>
      </trkpt>
      <trkpt lat="47.34846" lon="-2.3423">
        <ele>7.4000000953674</ele>
        <time>2021-09-16T08:02:34.000Z</time>
      </trkpt>
      <trkpt lat="47.34849" lon="-2.34231">
        <ele>7.8000001907349</ele>
        <time>2021-09-16T08:02:35.000Z</time>
      </trkpt>
      <trkpt lat="47.34851" lon="-2.34233">
        <ele>8.1999998092651</ele>
        <time>2021-09-16T08:02:36.000Z</time>
      </trkpt>
      <trkpt lat="47.34853" lon="-2.34234">
        <ele>8.6000003814697</ele>
        <time>2021-09-16T08:02:37.000Z</time>
      </trkpt>
      <trkpt lat="47.34855" lon="-2.34235">
        <ele>9</ele>
        <time>2021-09-16T08:02:38.000Z</time>
      </trkpt>
      <trkpt lat="47.34859" lon="-2.34237">
        <ele>9</ele>
        <time>2021-09-16T08:02:40.000Z</time>
      </trkpt>
      <trkpt lat="47.34863" lon="-2.34236">
        <ele>9.3999996185303</ele>
        <time>2021-09-16T08:02:42.000Z</time>
      </trkpt>
      <trkpt lat="47.34865" lon="-2.34235">
        <ele>9.8000001907349</ele>
        <time>2021-09-16T08:02:43.000Z</time>
      </trkpt>
      <trkpt lat="47.34867" lon="-2.34232">
        <ele>10.199999809265</ele>
        <time>2021-09-16T08:02:44.000Z</time>
      </trkpt>
      <trkpt lat="47.34869" lon="-2.3423">
        <ele>10.800000190735</ele>
        <time>2021-09-16T08:02:45.000Z</time>
      </trkpt>
      <trkpt lat="47.34869" lon="-2.34228">
        <ele>11.199999809265</ele>
        <time>2021-09-16T08:02:46.000Z</time>
      </trkpt>
      <trkpt lat="47.34873" lon="-2.34219">
        <ele>11.199999809265</ele>
        <time>2021-09-16T08:02:50.000Z</time>
      </trkpt>
      <trkpt lat="47.34873" lon="-2.34215">
        <ele>11.60000038147</ele>
        <time>2021-09-16T08:02:51.000Z</time>
      </trkpt>
      <trkpt lat="47.34874" lon="-2.34212">
        <ele>12</ele>
        <time>2021-09-16T08:02:52.000Z</time>
      </trkpt>
      <trkpt lat="47.34874" lon="-2.34209">
        <ele>12.39999961853</ele>
        <time>2021-09-16T08:02:53.000Z</time>
      </trkpt>
      <trkpt lat="47.34874" lon="-2.34207">
        <ele>12.800000190735</ele>
        <time>2021-09-16T08:02:54.000Z</time>
      </trkpt>
      <trkpt lat="47.34874" lon="-2.34204">
        <ele>13.199999809265</ele>
        <time>2021-09-16T08:02:55.000Z</time>
      </trkpt>
      <trkpt lat="47.34875" lon="-2.34199">
        <ele>13.199999809265</ele>
        <time>2021-09-16T08:02:57.000Z</time>
      </trkpt>
      <trkpt lat="47.3488" lon="-2.34196">
        <ele>13.199999809265</ele>
        <time>2021-09-16T08:03:00.000Z</time>
      </trkpt>
      <trkpt lat="47.34884" lon="-2.34199">
        <ele>13.60000038147</ele>
        <time>2021-09-16T08:03:03.000Z</time>
      </trkpt>
      <trkpt lat="47.34886" lon="-2.34201">
        <ele>14</ele>
        <time>2021-09-16T08:03:04.000Z</time>
      </trkpt>
      <trkpt lat="47.34887" lon="-2.34202">
        <ele>14.39999961853</ele>
        <time>2021-09-16T08:03:05.000Z</time>
      </trkpt>
      <trkpt lat="47.34889" lon="-2.34203">
        <ele>14.800000190735</ele>
        <time>2021-09-16T08:03:06.000Z</time>
      </trkpt>
      <trkpt lat="47.34891" lon="-2.34203">
        <ele>15.199999809265</ele>
        <time>2021-09-16T08:03:07.000Z</time>
      </trkpt>
      <trkpt lat="47.34897" lon="-2.34204">
        <ele>15.199999809265</ele>
        <time>2021-09-16T08:03:09.000Z</time>
      </trkpt>
      <trkpt lat="47.34902" lon="-2.34204">
        <ele>15.199999809265</ele>
        <time>2021-09-16T08:03:10.000Z</time>
      </trkpt>
      <trkpt lat="47.34907" lon="-2.34205">
        <ele>15.199999809265</ele>
        <time>2021-09-16T08:03:11.000Z</time>
      </trkpt>
      <trkpt lat="47.34917" lon="-2.34207">
        <ele>15.199999809265</ele>
        <time>2021-09-16T08:03:13.000Z</time>
      </trkpt>
      <trkpt lat="47.34936" lon="-2.34201">
        <ele>14.800000190735</ele>
        <time>2021-09-16T08:03:17.000Z</time>
      </trkpt>
      <trkpt lat="47.34941" lon="-2.34199">
        <ele>14.39999961853</ele>
        <time>2021-09-16T08:03:18.000Z</time>
      </trkpt>
      <trkpt lat="47.34946" lon="-2.34196">
        <ele>13.60000038147</ele>
        <time>2021-09-16T08:03:19.000Z</time>
      </trkpt>
      <trkpt lat="47.3495" lon="-2.34195">
        <ele>13.199999809265</ele>
        <time>2021-09-16T08:03:20.000Z</time>
      </trkpt>
      <trkpt lat="47.34959" lon="-2.34192">
        <ele>12.60000038147</ele>
        <time>2021-09-16T08:03:22.000Z</time>
      </trkpt>
      <trkpt lat="47.34962" lon="-2.3419">
        <ele>12.199999809265</ele>
        <time>2021-09-16T08:03:23.000Z</time>
      </trkpt>
      <trkpt lat="47.34966" lon="-2.3419">
        <ele>11.800000190735</ele>
        <time>2021-09-16T08:03:24.000Z</time>
      </trkpt>
      <trkpt lat="47.34969" lon="-2.34192">
        <ele>11.39999961853</ele>
        <time>2021-09-16T08:03:25.000Z</time>
      </trkpt>
      <trkpt lat="47.34972" lon="-2.34195">
        <ele>11</ele>
        <time>2021-09-16T08:03:26.000Z</time>
      </trkpt>
      <trkpt lat="47.34984" lon="-2.34213">
        <ele>10.60000038147</ele>
        <time>2021-09-16T08:03:30.000Z</time>
      </trkpt>
      <trkpt lat="47.34987" lon="-2.34219">
        <ele>10.199999809265</ele>
        <time>2021-09-16T08:03:31.000Z</time>
      </trkpt>
      <trkpt lat="47.34988" lon="-2.34226">
        <ele>9.6000003814697</ele>
        <time>2021-09-16T08:03:32.000Z</time>
      </trkpt>
      <trkpt lat="47.3499" lon="-2.34234">
        <ele>9.1999998092651</ele>
        <time>2021-09-16T08:03:33.000Z</time>
      </trkpt>
      <trkpt lat="47.34991" lon="-2.34242">
        <ele>8.8000001907349</ele>
        <time>2021-09-16T08:03:34.000Z</time>
      </trkpt>
      <trkpt lat="47.34992" lon="-2.3425">
        <ele>8.8000001907349</ele>
        <time>2021-09-16T08:03:35.000Z</time>
      </trkpt>
      <trkpt lat="47.34995" lon="-2.34267">
        <ele>8.3999996185303</ele>
        <time>2021-09-16T08:03:37.000Z</time>
      </trkpt>
      <trkpt lat="47.34997" lon="-2.34276">
        <ele>8</ele>
        <time>2021-09-16T08:03:38.000Z</time>
      </trkpt>
      <trkpt lat="47.34998" lon="-2.34285">
        <ele>7.5999999046326</ele>
        <time>2021-09-16T08:03:39.000Z</time>
      </trkpt>
      <trkpt lat="47.35" lon="-2.34294">
        <ele>7.1999998092651</ele>
        <time>2021-09-16T08:03:40.000Z</time>
      </trkpt>
      <trkpt lat="47.35002" lon="-2.34303">
        <ele>6.8000001907349</ele>
        <time>2021-09-16T08:03:41.000Z</time>
      </trkpt>
      <trkpt lat="47.35007" lon="-2.3432">
        <ele>6.1999998092651</ele>
        <time>2021-09-16T08:03:43.000Z</time>
      </trkpt>
      <trkpt lat="47.35009" lon="-2.34328">
        <ele>5.1999998092651</ele>
        <time>2021-09-16T08:03:44.000Z</time>
      </trkpt>
      <trkpt lat="47.35012" lon="-2.34335">
        <ele>4.8000001907349</ele>
        <time>2021-09-16T08:03:45.000Z</time>
      </trkpt>
      <trkpt lat="47.35014" lon="-2.34342">
        <ele>4.1999998092651</ele>
        <time>2021-09-16T08:03:46.000Z</time>
      </trkpt>
      <trkpt lat="47.35016" lon="-2.34348">
        <ele>3.7999999523163</ele>
        <time>2021-09-16T08:03:47.000Z</time>
      </trkpt>
      <trkpt lat="47.35018" lon="-2.34352">
        <ele>3.2000000476837</ele>
        <time>2021-09-16T08:03:48.000Z</time>
      </trkpt>
      <trkpt lat="47.35019" lon="-2.34355">
        <ele>2.7999999523163</ele>
        <time>2021-09-16T08:03:49.000Z</time>
      </trkpt>
      <trkpt lat="47.35021" lon="-2.34356">
        <ele>2.4000000953674</ele>
        <time>2021-09-16T08:03:50.000Z</time>
      </trkpt>
      <trkpt lat="47.3502" lon="-2.34356">
        <ele>1.7999999523163</ele>
        <time>2021-09-16T08:03:51.000Z</time>
      </trkpt>
      <trkpt lat="47.35018" lon="-2.34358">
        <ele>1.7999999523163</ele>
        <time>2021-09-16T08:03:52.000Z</time>
      </trkpt>
      <trkpt lat="47.3501" lon="-2.34364">
        <ele>1.7999999523163</ele>
        <time>2021-09-16T08:03:55.000Z</time>
      </trkpt>
      <trkpt lat="47.34987" lon="-2.3437">
        <ele>1.7999999523163</ele>
        <time>2021-09-16T08:04:02.000Z</time>
      </trkpt>
      <trkpt lat="47.34964" lon="-2.34372">
        <ele>1.7999999523163</ele>
        <time>2021-09-16T08:04:08.000Z</time>
      </trkpt>
      <trkpt lat="47.3494" lon="-2.34372">
        <ele>1.7999999523163</ele>
        <time>2021-09-16T08:04:14.000Z</time>
      </trkpt>
      <trkpt lat="47.34923" lon="-2.34369">
        <ele>2.2000000476837</ele>
        <time>2021-09-16T08:04:19.000Z</time>
      </trkpt>
      <trkpt lat="47.3492" lon="-2.34369">
        <ele>2.5999999046326</ele>
        <time>2021-09-16T08:04:20.000Z</time>
      </trkpt>
      <trkpt lat="47.34917" lon="-2.34369">
        <ele>3</ele>
        <time>2021-09-16T08:04:21.000Z</time>
      </trkpt>
      <trkpt lat="47.34914" lon="-2.3437">
        <ele>3.4000000953674</ele>
        <time>2021-09-16T08:04:22.000Z</time>
      </trkpt>
      <trkpt lat="47.34911" lon="-2.3437">
        <ele>3.7999999523163</ele>
        <time>2021-09-16T08:04:23.000Z</time>
      </trkpt>
      <trkpt lat="47.34899" lon="-2.34374">
        <ele>3.7999999523163</ele>
        <time>2021-09-16T08:04:27.000Z</time>
      </trkpt>
      <trkpt lat="47.34882" lon="-2.34373">
        <ele>3.7999999523163</ele>
        <time>2021-09-16T08:04:33.000Z</time>
      </trkpt>
      <trkpt lat="47.34876" lon="-2.34373">
        <ele>4.1999998092651</ele>
        <time>2021-09-16T08:04:35.000Z</time>
      </trkpt>
      <trkpt lat="47.34873" lon="-2.34373">
        <ele>4.8000001907349</ele>
        <time>2021-09-16T08:04:36.000Z</time>
      </trkpt>
      <trkpt lat="47.3487" lon="-2.34372">
        <ele>5.1999998092651</ele>
        <time>2021-09-16T08:04:37.000Z</time>
      </trkpt>
      <trkpt lat="47.34868" lon="-2.34372">
        <ele>5.5999999046326</ele>
        <time>2021-09-16T08:04:38.000Z</time>
      </trkpt>
      <trkpt lat="47.34864" lon="-2.34372">
        <ele>6</ele>
        <time>2021-09-16T08:04:39.000Z</time>
      </trkpt>
      <trkpt lat="47.34858" lon="-2.34373">
        <ele>6</ele>
        <time>2021-09-16T08:04:41.000Z</time>
      </trkpt>
      <trkpt lat="47.34829" lon="-2.34379">
        <ele>6</ele>
        <time>2021-09-16T08:04:48.000Z</time>
      </trkpt>
      <trkpt lat="47.34805" lon="-2.34382">
        <ele>6</ele>
        <time>2021-09-16T08:04:54.000Z</time>
      </trkpt>
      <trkpt lat="47.34788" lon="-2.34386">
        <ele>6</ele>
        <time>2021-09-16T08:04:59.000Z</time>
      </trkpt>
      <trkpt lat="47.34783" lon="-2.34388">
        <ele>6</ele>
        <time>2021-09-16T08:05:01.000Z</time>
      </trkpt>
      <trkpt lat="47.34781" lon="-2.34395">
        <ele>6</ele>
        <time>2021-09-16T08:05:03.000Z</time>
      </trkpt>
      <trkpt lat="47.34776" lon="-2.34407">
        <ele>6</ele>
        <time>2021-09-16T08:05:06.000Z</time>
      </trkpt>
      <trkpt lat="47.3477" lon="-2.34418">
        <ele>6</ele>
        <time>2021-09-16T08:05:09.000Z</time>
      </trkpt>
      <trkpt lat="47.34757" lon="-2.34445">
        <ele>6</ele>
        <time>2021-09-16T08:05:15.000Z</time>
      </trkpt>
      <trkpt lat="47.34754" lon="-2.34454">
        <ele>5.5999999046326</ele>
        <time>2021-09-16T08:05:17.000Z</time>
      </trkpt>
      <trkpt lat="47.34752" lon="-2.34459">
        <ele>5.1999998092651</ele>
        <time>2021-09-16T08:05:18.000Z</time>
      </trkpt>
      <trkpt lat="47.34751" lon="-2.34463">
        <ele>4.8000001907349</ele>
        <time>2021-09-16T08:05:19.000Z</time>
      </trkpt>
      <trkpt lat="47.3475" lon="-2.34467">
        <ele>4.4000000953674</ele>
        <time>2021-09-16T08:05:20.000Z</time>
      </trkpt>
      <trkpt lat="47.34749" lon="-2.34471">
        <ele>4</ele>
        <time>2021-09-16T08:05:21.000Z</time>
      </trkpt>
      <trkpt lat="47.34739" lon="-2.34485">
        <ele>4</ele>
        <time>2021-09-16T08:05:26.000Z</time>
      </trkpt>
      <trkpt lat="47.3472" lon="-2.34492">
        <ele>4</ele>
        <time>2021-09-16T08:05:32.000Z</time>
      </trkpt>
      <trkpt lat="47.34703" lon="-2.345">
        <ele>4</ele>
        <time>2021-09-16T08:05:38.000Z</time>
      </trkpt>
      <trkpt lat="47.34687" lon="-2.34506">
        <ele>4</ele>
        <time>2021-09-16T08:05:44.000Z</time>
      </trkpt>
      <trkpt lat="47.3467" lon="-2.34513">
        <ele>4</ele>
        <time>2021-09-16T08:05:50.000Z</time>
      </trkpt>
      <trkpt lat="47.34652" lon="-2.34517">
        <ele>4</ele>
        <time>2021-09-16T08:05:56.000Z</time>
      </trkpt>
      <trkpt lat="47.34643" lon="-2.3452">
        <ele>4.4000000953674</ele>
        <time>2021-09-16T08:05:59.000Z</time>
      </trkpt>
      <trkpt lat="47.3464" lon="-2.3452">
        <ele>4.8000001907349</ele>
        <time>2021-09-16T08:06:00.000Z</time>
      </trkpt>
      <trkpt lat="47.34637" lon="-2.34521">
        <ele>5.1999998092651</ele>
        <time>2021-09-16T08:06:01.000Z</time>
      </trkpt>
      <trkpt lat="47.34634" lon="-2.34522">
        <ele>5.5999999046326</ele>
        <time>2021-09-16T08:06:02.000Z</time>
      </trkpt>
      <trkpt lat="47.34631" lon="-2.34523">
        <ele>6</ele>
        <time>2021-09-16T08:06:03.000Z</time>
      </trkpt>
      <trkpt lat="47.3462" lon="-2.34529">
        <ele>6</ele>
        <time>2021-09-16T08:06:07.000Z</time>
      </trkpt>
      <trkpt lat="47.34617" lon="-2.34529">
        <ele>6</ele>
        <time>2021-09-16T08:06:08.000Z</time>
      </trkpt>
      <trkpt lat="47.34612" lon="-2.34533">
        <ele>6</ele>
        <time>2021-09-16T08:06:12.000Z</time>
      </trkpt>
      <trkpt lat="47.34612" lon="-2.34535">
        <ele>6</ele>
        <time>2021-09-16T08:06:13.000Z</time>
      </trkpt>
      <trkpt lat="47.34616" lon="-2.34542">
        <ele>6</ele>
        <time>2021-09-16T08:06:18.000Z</time>
      </trkpt>
      <trkpt lat="47.34615" lon="-2.34543">
        <ele>6</ele>
        <time>2021-09-16T08:06:20.000Z</time>
      </trkpt>
      <trkpt lat="47.34615" lon="-2.34544">
        <ele>6</ele>
        <time>2021-09-16T08:06:35.000Z</time>
      </trkpt>
      <trkpt lat="47.34614" lon="-2.34547">
        <ele>6</ele>
        <time>2021-09-16T08:06:36.000Z</time>
      </trkpt>
      <trkpt lat="47.34616" lon="-2.34564">
        <ele>6</ele>
        <time>2021-09-16T08:06:40.000Z</time>
      </trkpt>
      <trkpt lat="47.34623" lon="-2.34605">
        <ele>6</ele>
        <time>2021-09-16T08:06:47.000Z</time>
      </trkpt>
      <trkpt lat="47.34631" lon="-2.34654">
        <ele>5.5999999046326</ele>
        <time>2021-09-16T08:06:53.000Z</time>
      </trkpt>
      <trkpt lat="47.34633" lon="-2.34664">
        <ele>5.1999998092651</ele>
        <time>2021-09-16T08:06:54.000Z</time>
      </trkpt>
      <trkpt lat="47.34635" lon="-2.34674">
        <ele>4.8000001907349</ele>
        <time>2021-09-16T08:06:55.000Z</time>
      </trkpt>
      <trkpt lat="47.34636" lon="-2.34684">
        <ele>4.4000000953674</ele>
        <time>2021-09-16T08:06:56.000Z</time>
      </trkpt>
      <trkpt lat="47.34637" lon="-2.34694">
        <ele>4</ele>
        <time>2021-09-16T08:06:57.000Z</time>
      </trkpt>
      <trkpt lat="47.34639" lon="-2.34705">
        <ele>4</ele>
        <time>2021-09-16T08:06:58.000Z</time>
      </trkpt>
      <trkpt lat="47.3464" lon="-2.34734">
        <ele>4</ele>
        <time>2021-09-16T08:07:01.000Z</time>
      </trkpt>
      <trkpt lat="47.34637" lon="-2.34752">
        <ele>4</ele>
        <time>2021-09-16T08:07:03.000Z</time>
      </trkpt>
      <trkpt lat="47.34629" lon="-2.34779">
        <ele>4</ele>
        <time>2021-09-16T08:07:06.000Z</time>
      </trkpt>
      <trkpt lat="47.34622" lon="-2.34795">
        <ele>4</ele>
        <time>2021-09-16T08:07:08.000Z</time>
      </trkpt>
      <trkpt lat="47.34612" lon="-2.34819">
        <ele>3.5999999046326</ele>
        <time>2021-09-16T08:07:11.000Z</time>
      </trkpt>
      <trkpt lat="47.34609" lon="-2.34826">
        <ele>3.2000000476837</ele>
        <time>2021-09-16T08:07:12.000Z</time>
      </trkpt>
      <trkpt lat="47.34606" lon="-2.34834">
        <ele>2.7999999523163</ele>
        <time>2021-09-16T08:07:13.000Z</time>
      </trkpt>
      <trkpt lat="47.34603" lon="-2.34841">
        <ele>2.4000000953674</ele>
        <time>2021-09-16T08:07:14.000Z</time>
      </trkpt>
      <trkpt lat="47.346" lon="-2.34848">
        <ele>2</ele>
        <time>2021-09-16T08:07:15.000Z</time>
      </trkpt>
      <trkpt lat="47.34583" lon="-2.34889">
        <ele>2</ele>
        <time>2021-09-16T08:07:22.000Z</time>
      </trkpt>
      <trkpt lat="47.34579" lon="-2.349">
        <ele>2</ele>
        <time>2021-09-16T08:07:24.000Z</time>
      </trkpt>
      <trkpt lat="47.34579" lon="-2.34917">
        <ele>2</ele>
        <time>2021-09-16T08:07:27.000Z</time>
      </trkpt>
      <trkpt lat="47.34587" lon="-2.34938">
        <ele>2</ele>
        <time>2021-09-16T08:07:31.000Z</time>
      </trkpt>
      <trkpt lat="47.34609" lon="-2.34976">
        <ele>2</ele>
        <time>2021-09-16T08:07:38.000Z</time>
      </trkpt>
      <trkpt lat="47.34623" lon="-2.34997">
        <ele>2</ele>
        <time>2021-09-16T08:07:42.000Z</time>
      </trkpt>
      <trkpt lat="47.34631" lon="-2.3501">
        <ele>2</ele>
        <time>2021-09-16T08:07:44.000Z</time>
      </trkpt>
      <trkpt lat="47.34645" lon="-2.35031">
        <ele>2</ele>
        <time>2021-09-16T08:07:48.000Z</time>
      </trkpt>
      <trkpt lat="47.34653" lon="-2.35035">
        <ele>2</ele>
        <time>2021-09-16T08:07:50.000Z</time>
      </trkpt>
      <trkpt lat="47.34665" lon="-2.35037">
        <ele>2</ele>
        <time>2021-09-16T08:07:53.000Z</time>
      </trkpt>
      <trkpt lat="47.34668" lon="-2.35035">
        <ele>2</ele>
        <time>2021-09-16T08:07:54.000Z</time>
      </trkpt>
      <trkpt lat="47.34685" lon="-2.35043">
        <ele>2</ele>
        <time>2021-09-16T08:07:59.000Z</time>
      </trkpt>
      <trkpt lat="47.34701" lon="-2.35065">
        <ele>2</ele>
        <time>2021-09-16T08:08:04.000Z</time>
      </trkpt>
      <trkpt lat="47.34729" lon="-2.35096">
        <ele>2</ele>
        <time>2021-09-16T08:08:11.000Z</time>
      </trkpt>
      <trkpt lat="47.34732" lon="-2.35101">
        <ele>2</ele>
        <time>2021-09-16T08:08:12.000Z</time>
      </trkpt>
      <trkpt lat="47.3474" lon="-2.35118">
        <ele>2</ele>
        <time>2021-09-16T08:08:15.000Z</time>
      </trkpt>
      <trkpt lat="47.34746" lon="-2.35125">
        <ele>2</ele>
        <time>2021-09-16T08:08:17.000Z</time>
      </trkpt>
      <trkpt lat="47.34755" lon="-2.35146">
        <ele>2</ele>
        <time>2021-09-16T08:08:21.000Z</time>
      </trkpt>
      <trkpt lat="47.3476" lon="-2.35173">
        <ele>2</ele>
        <time>2021-09-16T08:08:26.000Z</time>
      </trkpt>
      <trkpt lat="47.34758" lon="-2.3518">
        <ele>2</ele>
        <time>2021-09-16T08:08:27.000Z</time>
      </trkpt>
      <trkpt lat="47.34755" lon="-2.35201">
        <ele>2</ele>
        <time>2021-09-16T08:08:30.000Z</time>
      </trkpt>
      <trkpt lat="47.34752" lon="-2.35235">
        <ele>2</ele>
        <time>2021-09-16T08:08:35.000Z</time>
      </trkpt>
      <trkpt lat="47.34747" lon="-2.3526">
        <ele>2</ele>
        <time>2021-09-16T08:08:39.000Z</time>
      </trkpt>
      <trkpt lat="47.34745" lon="-2.3527">
        <ele>2</ele>
        <time>2021-09-16T08:08:41.000Z</time>
      </trkpt>
      <trkpt lat="47.34737" lon="-2.35295">
        <ele>2</ele>
        <time>2021-09-16T08:08:46.000Z</time>
      </trkpt>
      <trkpt lat="47.34729" lon="-2.35322">
        <ele>2</ele>
        <time>2021-09-16T08:08:52.000Z</time>
      </trkpt>
      <trkpt lat="47.34727" lon="-2.35327">
        <ele>2.4000000953674</ele>
        <time>2021-09-16T08:08:53.000Z</time>
      </trkpt>
      <trkpt lat="47.34726" lon="-2.35332">
        <ele>2.7999999523163</ele>
        <time>2021-09-16T08:08:54.000Z</time>
      </trkpt>
      <trkpt lat="47.34725" lon="-2.35338">
        <ele>3.2000000476837</ele>
        <time>2021-09-16T08:08:55.000Z</time>
      </trkpt>
      <trkpt lat="47.34725" lon="-2.35342">
        <ele>3.5999999046326</ele>
        <time>2021-09-16T08:08:56.000Z</time>
      </trkpt>
      <trkpt lat="47.34725" lon="-2.35346">
        <ele>4</ele>
        <time>2021-09-16T08:08:57.000Z</time>
      </trkpt>
      <trkpt lat="47.34724" lon="-2.35365">
        <ele>4</ele>
        <time>2021-09-16T08:09:02.000Z</time>
      </trkpt>
      <trkpt lat="47.34712" lon="-2.35383">
        <ele>4</ele>
        <time>2021-09-16T08:09:06.000Z</time>
      </trkpt>
      <trkpt lat="47.34695" lon="-2.35397">
        <ele>4</ele>
        <time>2021-09-16T08:09:11.000Z</time>
      </trkpt>
      <trkpt lat="47.3468" lon="-2.354">
        <ele>4</ele>
        <time>2021-09-16T08:09:15.000Z</time>
      </trkpt>
      <trkpt lat="47.34662" lon="-2.35405">
        <ele>4</ele>
        <time>2021-09-16T08:09:20.000Z</time>
      </trkpt>
      <trkpt lat="47.34655" lon="-2.35405">
        <ele>3.5999999046326</ele>
        <time>2021-09-16T08:09:24.000Z</time>
      </trkpt>
      <trkpt lat="47.34654" lon="-2.35406">
        <ele>3.2000000476837</ele>
        <time>2021-09-16T08:09:25.000Z</time>
      </trkpt>
      <trkpt lat="47.34653" lon="-2.35406">
        <ele>2.7999999523163</ele>
        <time>2021-09-16T08:09:26.000Z</time>
      </trkpt>
      <trkpt lat="47.34652" lon="-2.35409">
        <ele>2.4000000953674</ele>
        <time>2021-09-16T08:09:27.000Z</time>
      </trkpt>
      <trkpt lat="47.34652" lon="-2.35412">
        <ele>2</ele>
        <time>2021-09-16T08:09:28.000Z</time>
      </trkpt>
      <trkpt lat="47.34656" lon="-2.35416">
        <ele>2</ele>
        <time>2021-09-16T08:09:29.000Z</time>
      </trkpt>
      <trkpt lat="47.34662" lon="-2.35422">
        <ele>2</ele>
        <time>2021-09-16T08:09:31.000Z</time>
      </trkpt>
      <trkpt lat="47.34671" lon="-2.35433">
        <ele>2</ele>
        <time>2021-09-16T08:09:34.000Z</time>
      </trkpt>
      <trkpt lat="47.34692" lon="-2.35467">
        <ele>2</ele>
        <time>2021-09-16T08:09:40.000Z</time>
      </trkpt>
      <trkpt lat="47.34716" lon="-2.35507">
        <ele>2</ele>
        <time>2021-09-16T08:09:47.000Z</time>
      </trkpt>
      <trkpt lat="47.34741" lon="-2.3555">
        <ele>2</ele>
        <time>2021-09-16T08:09:54.000Z</time>
      </trkpt>
      <trkpt lat="47.34757" lon="-2.3557">
        <ele>2</ele>
        <time>2021-09-16T08:09:58.000Z</time>
      </trkpt>
      <trkpt lat="47.34765" lon="-2.35579">
        <ele>2</ele>
        <time>2021-09-16T08:10:00.000Z</time>
      </trkpt>
      <trkpt lat="47.34799" lon="-2.35619">
        <ele>2.4000000953674</ele>
        <time>2021-09-16T08:10:08.000Z</time>
      </trkpt>
      <trkpt lat="47.34804" lon="-2.35623">
        <ele>2.7999999523163</ele>
        <time>2021-09-16T08:10:09.000Z</time>
      </trkpt>
      <trkpt lat="47.34808" lon="-2.35627">
        <ele>3.2000000476837</ele>
        <time>2021-09-16T08:10:10.000Z</time>
      </trkpt>
      <trkpt lat="47.34813" lon="-2.35631">
        <ele>3.5999999046326</ele>
        <time>2021-09-16T08:10:11.000Z</time>
      </trkpt>
      <trkpt lat="47.34817" lon="-2.35634">
        <ele>4</ele>
        <time>2021-09-16T08:10:12.000Z</time>
      </trkpt>
      <trkpt lat="47.34836" lon="-2.35646">
        <ele>4</ele>
        <time>2021-09-16T08:10:16.000Z</time>
      </trkpt>
      <trkpt lat="47.3484" lon="-2.35649">
        <ele>4</ele>
        <time>2021-09-16T08:10:17.000Z</time>
      </trkpt>
      <trkpt lat="47.34854" lon="-2.35657">
        <ele>4</ele>
        <time>2021-09-16T08:10:21.000Z</time>
      </trkpt>
      <trkpt lat="47.34855" lon="-2.35661">
        <ele>4</ele>
        <time>2021-09-16T08:10:22.000Z</time>
      </trkpt>
      <trkpt lat="47.34855" lon="-2.3567">
        <ele>4</ele>
        <time>2021-09-16T08:10:24.000Z</time>
      </trkpt>
      <trkpt lat="47.34851" lon="-2.3568">
        <ele>4</ele>
        <time>2021-09-16T08:10:26.000Z</time>
      </trkpt>
      <trkpt lat="47.34847" lon="-2.35692">
        <ele>4</ele>
        <time>2021-09-16T08:10:28.000Z</time>
      </trkpt>
      <trkpt lat="47.34837" lon="-2.35715">
        <ele>4</ele>
        <time>2021-09-16T08:10:32.000Z</time>
      </trkpt>
      <trkpt lat="47.34831" lon="-2.3572">
        <ele>4</ele>
        <time>2021-09-16T08:10:34.000Z</time>
      </trkpt>
      <trkpt lat="47.34825" lon="-2.35721">
        <ele>4</ele>
        <time>2021-09-16T08:10:36.000Z</time>
      </trkpt>
      <trkpt lat="47.3482" lon="-2.35723">
        <ele>4</ele>
        <time>2021-09-16T08:10:38.000Z</time>
      </trkpt>
      <trkpt lat="47.34804" lon="-2.35731">
        <ele>4</ele>
        <time>2021-09-16T08:10:44.000Z</time>
      </trkpt>
      <trkpt lat="47.34783" lon="-2.35741">
        <ele>4</ele>
        <time>2021-09-16T08:10:51.000Z</time>
      </trkpt>
      <trkpt lat="47.34761" lon="-2.3575">
        <ele>4</ele>
        <time>2021-09-16T08:10:57.000Z</time>
      </trkpt>
      <trkpt lat="47.34752" lon="-2.35754">
        <ele>4</ele>
        <time>2021-09-16T08:10:59.000Z</time>
      </trkpt>
      <trkpt lat="47.34737" lon="-2.35764">
        <ele>4</ele>
        <time>2021-09-16T08:11:02.000Z</time>
      </trkpt>
      <trkpt lat="47.34732" lon="-2.35768">
        <ele>4</ele>
        <time>2021-09-16T08:11:03.000Z</time>
      </trkpt>
      <trkpt lat="47.3471" lon="-2.35789">
        <ele>4</ele>
        <time>2021-09-16T08:11:08.000Z</time>
      </trkpt>
      <trkpt lat="47.34666" lon="-2.35824">
        <ele>4</ele>
        <time>2021-09-16T08:11:16.000Z</time>
      </trkpt>
      <trkpt lat="47.34626" lon="-2.35856">
        <ele>4</ele>
        <time>2021-09-16T08:11:24.000Z</time>
      </trkpt>
      <trkpt lat="47.34592" lon="-2.35884">
        <ele>4</ele>
        <time>2021-09-16T08:11:31.000Z</time>
      </trkpt>
      <trkpt lat="47.34552" lon="-2.35909">
        <ele>4</ele>
        <time>2021-09-16T08:11:38.000Z</time>
      </trkpt>
      <trkpt lat="47.34511" lon="-2.35926">
        <ele>4</ele>
        <time>2021-09-16T08:11:45.000Z</time>
      </trkpt>
      <trkpt lat="47.34483" lon="-2.35939">
        <ele>4</ele>
        <time>2021-09-16T08:11:51.000Z</time>
      </trkpt>
      <trkpt lat="47.34465" lon="-2.35949">
        <ele>4.4000000953674</ele>
        <time>2021-09-16T08:11:56.000Z</time>
      </trkpt>
      <trkpt lat="47.34462" lon="-2.35951">
        <ele>5.4000000953674</ele>
        <time>2021-09-16T08:11:57.000Z</time>
      </trkpt>
      <trkpt lat="47.34458" lon="-2.35953">
        <ele>5.8000001907349</ele>
        <time>2021-09-16T08:11:58.000Z</time>
      </trkpt>
      <trkpt lat="47.34455" lon="-2.35956">
        <ele>6.1999998092651</ele>
        <time>2021-09-16T08:11:59.000Z</time>
      </trkpt>
      <trkpt lat="47.34435" lon="-2.35974">
        <ele>6.1999998092651</ele>
        <time>2021-09-16T08:12:05.000Z</time>
      </trkpt>
      <trkpt lat="47.34416" lon="-2.35988">
        <ele>6.1999998092651</ele>
        <time>2021-09-16T08:12:11.000Z</time>
      </trkpt>
      <trkpt lat="47.3441" lon="-2.35993">
        <ele>6.5999999046326</ele>
        <time>2021-09-16T08:12:14.000Z</time>
      </trkpt>
      <trkpt lat="47.34409" lon="-2.35996">
        <ele>7</ele>
        <time>2021-09-16T08:12:15.000Z</time>
      </trkpt>
      <trkpt lat="47.34408" lon="-2.35999">
        <ele>7.4000000953674</ele>
        <time>2021-09-16T08:12:16.000Z</time>
      </trkpt>
      <trkpt lat="47.34408" lon="-2.36002">
        <ele>7.8000001907349</ele>
        <time>2021-09-16T08:12:17.000Z</time>
      </trkpt>
      <trkpt lat="47.34408" lon="-2.36005">
        <ele>8.1999998092651</ele>
        <time>2021-09-16T08:12:18.000Z</time>
      </trkpt>
      <trkpt lat="47.3441" lon="-2.36012">
        <ele>8.1999998092651</ele>
        <time>2021-09-16T08:12:20.000Z</time>
      </trkpt>
      <trkpt lat="47.34415" lon="-2.36021">
        <ele>8.1999998092651</ele>
        <time>2021-09-16T08:12:23.000Z</time>
      </trkpt>
      <trkpt lat="47.3442" lon="-2.36029">
        <ele>8.1999998092651</ele>
        <time>2021-09-16T08:12:26.000Z</time>
      </trkpt>
      <trkpt lat="47.34426" lon="-2.36057">
        <ele>8.1999998092651</ele>
        <time>2021-09-16T08:12:32.000Z</time>
      </trkpt>
      <trkpt lat="47.3444" lon="-2.36095">
        <ele>8.1999998092651</ele>
        <time>2021-09-16T08:12:40.000Z</time>
      </trkpt>
      <trkpt lat="47.34452" lon="-2.36129">
        <ele>8.1999998092651</ele>
        <time>2021-09-16T08:12:47.000Z</time>
      </trkpt>
      <trkpt lat="47.34468" lon="-2.36168">
        <ele>8.1999998092651</ele>
        <time>2021-09-16T08:12:53.000Z</time>
      </trkpt>
      <trkpt lat="47.34478" lon="-2.36187">
        <ele>7.8000001907349</ele>
        <time>2021-09-16T08:12:56.000Z</time>
      </trkpt>
      <trkpt lat="47.34481" lon="-2.36193">
        <ele>7.4000000953674</ele>
        <time>2021-09-16T08:12:57.000Z</time>
      </trkpt>
      <trkpt lat="47.34484" lon="-2.36199">
        <ele>7</ele>
        <time>2021-09-16T08:12:58.000Z</time>
      </trkpt>
      <trkpt lat="47.34488" lon="-2.36205">
        <ele>6.5999999046326</ele>
        <time>2021-09-16T08:12:59.000Z</time>
      </trkpt>
      <trkpt lat="47.34491" lon="-2.36211">
        <ele>6.1999998092651</ele>
        <time>2021-09-16T08:13:00.000Z</time>
      </trkpt>
      <trkpt lat="47.34495" lon="-2.36217">
        <ele>6.1999998092651</ele>
        <time>2021-09-16T08:13:01.000Z</time>
      </trkpt>
      <trkpt lat="47.34508" lon="-2.36242">
        <ele>6.1999998092651</ele>
        <time>2021-09-16T08:13:05.000Z</time>
      </trkpt>
      <trkpt lat="47.34512" lon="-2.36254">
        <ele>6.1999998092651</ele>
        <time>2021-09-16T08:13:07.000Z</time>
      </trkpt>
      <trkpt lat="47.34514" lon="-2.3626">
        <ele>6.1999998092651</ele>
        <time>2021-09-16T08:13:08.000Z</time>
      </trkpt>
      <trkpt lat="47.34524" lon="-2.36292">
        <ele>6.1999998092651</ele>
        <time>2021-09-16T08:13:13.000Z</time>
      </trkpt>
      <trkpt lat="47.34536" lon="-2.36325">
        <ele>6.1999998092651</ele>
        <time>2021-09-16T08:13:19.000Z</time>
      </trkpt>
      <trkpt lat="47.34544" lon="-2.36344">
        <ele>6.1999998092651</ele>
        <time>2021-09-16T08:13:22.000Z</time>
      </trkpt>
      <trkpt lat="47.3455" lon="-2.36359">
        <ele>6.1999998092651</ele>
        <time>2021-09-16T08:13:24.000Z</time>
      </trkpt>
      <trkpt lat="47.3456" lon="-2.36379">
        <ele>6.1999998092651</ele>
        <time>2021-09-16T08:13:27.000Z</time>
      </trkpt>
      <trkpt lat="47.34568" lon="-2.36392">
        <ele>6.1999998092651</ele>
        <time>2021-09-16T08:13:29.000Z</time>
      </trkpt>
      <trkpt lat="47.34589" lon="-2.36422">
        <ele>6.5999999046326</ele>
        <time>2021-09-16T08:13:34.000Z</time>
      </trkpt>
      <trkpt lat="47.34592" lon="-2.36428">
        <ele>7</ele>
        <time>2021-09-16T08:13:35.000Z</time>
      </trkpt>
      <trkpt lat="47.34596" lon="-2.36433">
        <ele>8</ele>
        <time>2021-09-16T08:13:36.000Z</time>
      </trkpt>
      <trkpt lat="47.346" lon="-2.36437">
        <ele>8.3999996185303</ele>
        <time>2021-09-16T08:13:37.000Z</time>
      </trkpt>
      <trkpt lat="47.34609" lon="-2.36436">
        <ele>8.3999996185303</ele>
        <time>2021-09-16T08:13:39.000Z</time>
      </trkpt>
      <trkpt lat="47.34618" lon="-2.3643">
        <ele>8.3999996185303</ele>
        <time>2021-09-16T08:13:41.000Z</time>
      </trkpt>
      <trkpt lat="47.34628" lon="-2.36424">
        <ele>8.3999996185303</ele>
        <time>2021-09-16T08:13:43.000Z</time>
      </trkpt>
      <trkpt lat="47.3465" lon="-2.36414">
        <ele>8.8000001907349</ele>
        <time>2021-09-16T08:13:47.000Z</time>
      </trkpt>
      <trkpt lat="47.34654" lon="-2.36411">
        <ele>9.1999998092651</ele>
        <time>2021-09-16T08:13:48.000Z</time>
      </trkpt>
      <trkpt lat="47.34659" lon="-2.36409">
        <ele>9.6000003814697</ele>
        <time>2021-09-16T08:13:49.000Z</time>
      </trkpt>
      <trkpt lat="47.34664" lon="-2.36407">
        <ele>10</ele>
        <time>2021-09-16T08:13:50.000Z</time>
      </trkpt>
      <trkpt lat="47.34669" lon="-2.36404">
        <ele>10.39999961853</ele>
        <time>2021-09-16T08:13:51.000Z</time>
      </trkpt>
      <trkpt lat="47.34674" lon="-2.36403">
        <ele>10.39999961853</ele>
        <time>2021-09-16T08:13:52.000Z</time>
      </trkpt>
      <trkpt lat="47.34689" lon="-2.36399">
        <ele>10.39999961853</ele>
        <time>2021-09-16T08:13:55.000Z</time>
      </trkpt>
      <trkpt lat="47.34703" lon="-2.36394">
        <ele>10.800000190735</ele>
        <time>2021-09-16T08:13:58.000Z</time>
      </trkpt>
      <trkpt lat="47.34708" lon="-2.36392">
        <ele>11.199999809265</ele>
        <time>2021-09-16T08:13:59.000Z</time>
      </trkpt>
      <trkpt lat="47.34713" lon="-2.36389">
        <ele>12.199999809265</ele>
        <time>2021-09-16T08:14:00.000Z</time>
      </trkpt>
      <trkpt lat="47.34718" lon="-2.36387">
        <ele>12.60000038147</ele>
        <time>2021-09-16T08:14:01.000Z</time>
      </trkpt>
      <trkpt lat="47.34753" lon="-2.36365">
        <ele>12.60000038147</ele>
        <time>2021-09-16T08:14:09.000Z</time>
      </trkpt>
      <trkpt lat="47.34786" lon="-2.36343">
        <ele>12.60000038147</ele>
        <time>2021-09-16T08:14:16.000Z</time>
      </trkpt>
      <trkpt lat="47.34819" lon="-2.3632">
        <ele>12.60000038147</ele>
        <time>2021-09-16T08:14:23.000Z</time>
      </trkpt>
      <trkpt lat="47.34832" lon="-2.36315">
        <ele>12.60000038147</ele>
        <time>2021-09-16T08:14:26.000Z</time>
      </trkpt>
      <trkpt lat="47.34841" lon="-2.3632">
        <ele>12.60000038147</ele>
        <time>2021-09-16T08:14:28.000Z</time>
      </trkpt>
      <trkpt lat="47.34849" lon="-2.36327">
        <ele>12.60000038147</ele>
        <time>2021-09-16T08:14:30.000Z</time>
      </trkpt>
      <trkpt lat="47.34857" lon="-2.36332">
        <ele>12.60000038147</ele>
        <time>2021-09-16T08:14:32.000Z</time>
      </trkpt>
      <trkpt lat="47.34862" lon="-2.36335">
        <ele>12.60000038147</ele>
        <time>2021-09-16T08:14:33.000Z</time>
      </trkpt>
      <trkpt lat="47.34896" lon="-2.36354">
        <ele>12.60000038147</ele>
        <time>2021-09-16T08:14:40.000Z</time>
      </trkpt>
      <trkpt lat="47.34935" lon="-2.36377">
        <ele>12.60000038147</ele>
        <time>2021-09-16T08:14:48.000Z</time>
      </trkpt>
      <trkpt lat="47.3496" lon="-2.36392">
        <ele>12.199999809265</ele>
        <time>2021-09-16T08:14:52.000Z</time>
      </trkpt>
      <trkpt lat="47.34966" lon="-2.36396">
        <ele>11.800000190735</ele>
        <time>2021-09-16T08:14:53.000Z</time>
      </trkpt>
      <trkpt lat="47.34974" lon="-2.36401">
        <ele>11.39999961853</ele>
        <time>2021-09-16T08:14:54.000Z</time>
      </trkpt>
      <trkpt lat="47.34981" lon="-2.36406">
        <ele>10.800000190735</ele>
        <time>2021-09-16T08:14:55.000Z</time>
      </trkpt>
      <trkpt lat="47.34987" lon="-2.3641">
        <ele>10.39999961853</ele>
        <time>2021-09-16T08:14:56.000Z</time>
      </trkpt>
      <trkpt lat="47.35" lon="-2.36423">
        <ele>10</ele>
        <time>2021-09-16T08:14:58.000Z</time>
      </trkpt>
      <trkpt lat="47.35006" lon="-2.36431">
        <ele>9.6000003814697</ele>
        <time>2021-09-16T08:14:59.000Z</time>
      </trkpt>
      <trkpt lat="47.35012" lon="-2.3644">
        <ele>9.1999998092651</ele>
        <time>2021-09-16T08:15:00.000Z</time>
      </trkpt>
      <trkpt lat="47.35015" lon="-2.3645">
        <ele>8.8000001907349</ele>
        <time>2021-09-16T08:15:01.000Z</time>
      </trkpt>
      <trkpt lat="47.35019" lon="-2.3646">
        <ele>8.1999998092651</ele>
        <time>2021-09-16T08:15:02.000Z</time>
      </trkpt>
      <trkpt lat="47.35023" lon="-2.36471">
        <ele>8.1999998092651</ele>
        <time>2021-09-16T08:15:03.000Z</time>
      </trkpt>
      <trkpt lat="47.35027" lon="-2.36481">
        <ele>8.1999998092651</ele>
        <time>2021-09-16T08:15:04.000Z</time>
      </trkpt>
      <trkpt lat="47.35035" lon="-2.36496">
        <ele>8.1999998092651</ele>
        <time>2021-09-16T08:15:06.000Z</time>
      </trkpt>
      <trkpt lat="47.35044" lon="-2.36511">
        <ele>8.1999998092651</ele>
        <time>2021-09-16T08:15:08.000Z</time>
      </trkpt>
      <trkpt lat="47.35068" lon="-2.36559">
        <ele>8.1999998092651</ele>
        <time>2021-09-16T08:15:14.000Z</time>
      </trkpt>
      <trkpt lat="47.35084" lon="-2.36612">
        <ele>8.1999998092651</ele>
        <time>2021-09-16T08:15:20.000Z</time>
      </trkpt>
      <trkpt lat="47.35095" lon="-2.36646">
        <ele>8.8000001907349</ele>
        <time>2021-09-16T08:15:24.000Z</time>
      </trkpt>
      <trkpt lat="47.35098" lon="-2.36654">
        <ele>9.1999998092651</ele>
        <time>2021-09-16T08:15:25.000Z</time>
      </trkpt>
      <trkpt lat="47.351" lon="-2.36662">
        <ele>9.6000003814697</ele>
        <time>2021-09-16T08:15:26.000Z</time>
      </trkpt>
      <trkpt lat="47.35103" lon="-2.36669">
        <ele>10</ele>
        <time>2021-09-16T08:15:27.000Z</time>
      </trkpt>
      <trkpt lat="47.35105" lon="-2.36677">
        <ele>10.39999961853</ele>
        <time>2021-09-16T08:15:28.000Z</time>
      </trkpt>
      <trkpt lat="47.35118" lon="-2.36726">
        <ele>10.39999961853</ele>
        <time>2021-09-16T08:15:34.000Z</time>
      </trkpt>
      <trkpt lat="47.35133" lon="-2.36792">
        <ele>10.39999961853</ele>
        <time>2021-09-16T08:15:42.000Z</time>
      </trkpt>
      <trkpt lat="47.35148" lon="-2.36866">
        <ele>10.39999961853</ele>
        <time>2021-09-16T08:15:51.000Z</time>
      </trkpt>
      <trkpt lat="47.35162" lon="-2.36917">
        <ele>10.39999961853</ele>
        <time>2021-09-16T08:15:57.000Z</time>
      </trkpt>
      <trkpt lat="47.35169" lon="-2.36931">
        <ele>10.39999961853</ele>
        <time>2021-09-16T08:15:59.000Z</time>
      </trkpt>
      <trkpt lat="47.3518" lon="-2.36953">
        <ele>10.800000190735</ele>
        <time>2021-09-16T08:16:02.000Z</time>
      </trkpt>
      <trkpt lat="47.35183" lon="-2.36959">
        <ele>11.199999809265</ele>
        <time>2021-09-16T08:16:03.000Z</time>
      </trkpt>
      <trkpt lat="47.35187" lon="-2.36966">
        <ele>11.60000038147</ele>
        <time>2021-09-16T08:16:04.000Z</time>
      </trkpt>
      <trkpt lat="47.3519" lon="-2.36973">
        <ele>12</ele>
        <time>2021-09-16T08:16:05.000Z</time>
      </trkpt>
      <trkpt lat="47.35192" lon="-2.36979">
        <ele>12.39999961853</ele>
        <time>2021-09-16T08:16:06.000Z</time>
      </trkpt>
      <trkpt lat="47.35199" lon="-2.36993">
        <ele>12.39999961853</ele>
        <time>2021-09-16T08:16:08.000Z</time>
      </trkpt>
      <trkpt lat="47.35209" lon="-2.37015">
        <ele>12.39999961853</ele>
        <time>2021-09-16T08:16:11.000Z</time>
      </trkpt>
      <trkpt lat="47.35217" lon="-2.3704">
        <ele>12.39999961853</ele>
        <time>2021-09-16T08:16:14.000Z</time>
      </trkpt>
      <trkpt lat="47.35228" lon="-2.3709">
        <ele>12.39999961853</ele>
        <time>2021-09-16T08:16:20.000Z</time>
      </trkpt>
      <trkpt lat="47.35239" lon="-2.37145">
        <ele>12.39999961853</ele>
        <time>2021-09-16T08:16:27.000Z</time>
      </trkpt>
      <trkpt lat="47.35243" lon="-2.37161">
        <ele>12.39999961853</ele>
        <time>2021-09-16T08:16:31.000Z</time>
      </trkpt>
      <trkpt lat="47.35243" lon="-2.3716">
        <ele>12.39999961853</ele>
        <time>2021-09-16T08:16:32.000Z</time>
      </trkpt>
      <trkpt lat="47.35244" lon="-2.37164">
        <ele>12.39999961853</ele>
        <time>2021-09-16T08:16:49.000Z</time>
      </trkpt>
      <trkpt lat="47.35244" lon="-2.37166">
        <ele>12.39999961853</ele>
        <time>2021-09-16T08:16:50.000Z</time>
      </trkpt>
      <trkpt lat="47.35252" lon="-2.3718">
        <ele>12.39999961853</ele>
        <time>2021-09-16T08:16:55.000Z</time>
      </trkpt>
      <trkpt lat="47.35265" lon="-2.37201">
        <ele>12.39999961853</ele>
        <time>2021-09-16T08:16:59.000Z</time>
      </trkpt>
      <trkpt lat="47.35278" lon="-2.37221">
        <ele>12.39999961853</ele>
        <time>2021-09-16T08:17:04.000Z</time>
      </trkpt>
      <trkpt lat="47.35285" lon="-2.37238">
        <ele>12.39999961853</ele>
        <time>2021-09-16T08:17:09.000Z</time>
      </trkpt>
      <trkpt lat="47.35285" lon="-2.37245">
        <ele>12.39999961853</ele>
        <time>2021-09-16T08:17:10.000Z</time>
      </trkpt>
      <trkpt lat="47.35284" lon="-2.37261">
        <ele>12.39999961853</ele>
        <time>2021-09-16T08:17:12.000Z</time>
      </trkpt>
      <trkpt lat="47.35283" lon="-2.37276">
        <ele>12.39999961853</ele>
        <time>2021-09-16T08:17:14.000Z</time>
      </trkpt>
      <trkpt lat="47.35284" lon="-2.37317">
        <ele>12.39999961853</ele>
        <time>2021-09-16T08:17:19.000Z</time>
      </trkpt>
      <trkpt lat="47.35285" lon="-2.37377">
        <ele>12.39999961853</ele>
        <time>2021-09-16T08:17:26.000Z</time>
      </trkpt>
      <trkpt lat="47.35286" lon="-2.37414">
        <ele>12.39999961853</ele>
        <time>2021-09-16T08:17:30.000Z</time>
      </trkpt>
      <trkpt lat="47.35288" lon="-2.37422">
        <ele>12.39999961853</ele>
        <time>2021-09-16T08:17:31.000Z</time>
      </trkpt>
      <trkpt lat="47.35291" lon="-2.37462">
        <ele>12.39999961853</ele>
        <time>2021-09-16T08:17:35.000Z</time>
      </trkpt>
      <trkpt lat="47.35292" lon="-2.37473">
        <ele>12.39999961853</ele>
        <time>2021-09-16T08:17:36.000Z</time>
      </trkpt>
      <trkpt lat="47.35305" lon="-2.3754">
        <ele>12</ele>
        <time>2021-09-16T08:17:42.000Z</time>
      </trkpt>
      <trkpt lat="47.35307" lon="-2.37551">
        <ele>11.60000038147</ele>
        <time>2021-09-16T08:17:43.000Z</time>
      </trkpt>
      <trkpt lat="47.3531" lon="-2.37562">
        <ele>11.199999809265</ele>
        <time>2021-09-16T08:17:44.000Z</time>
      </trkpt>
      <trkpt lat="47.35312" lon="-2.37573">
        <ele>10.800000190735</ele>
        <time>2021-09-16T08:17:45.000Z</time>
      </trkpt>
      <trkpt lat="47.35314" lon="-2.37584">
        <ele>10.39999961853</ele>
        <time>2021-09-16T08:17:46.000Z</time>
      </trkpt>
      <trkpt lat="47.35327" lon="-2.37639">
        <ele>10.39999961853</ele>
        <time>2021-09-16T08:17:51.000Z</time>
      </trkpt>
      <trkpt lat="47.35349" lon="-2.37724">
        <ele>10.39999961853</ele>
        <time>2021-09-16T08:17:59.000Z</time>
      </trkpt>
      <trkpt lat="47.3536" lon="-2.37769">
        <ele>10</ele>
        <time>2021-09-16T08:18:04.000Z</time>
      </trkpt>
      <trkpt lat="47.35361" lon="-2.37776">
        <ele>9.6000003814697</ele>
        <time>2021-09-16T08:18:05.000Z</time>
      </trkpt>
      <trkpt lat="47.35361" lon="-2.37783">
        <ele>9</ele>
        <time>2021-09-16T08:18:06.000Z</time>
      </trkpt>
      <trkpt lat="47.35358" lon="-2.37788">
        <ele>8.1999998092651</ele>
        <time>2021-09-16T08:18:07.000Z</time>
      </trkpt>
      <trkpt lat="47.35354" lon="-2.37791">
        <ele>8.1999998092651</ele>
        <time>2021-09-16T08:18:08.000Z</time>
      </trkpt>
      <trkpt lat="47.35343" lon="-2.37795">
        <ele>8.1999998092651</ele>
        <time>2021-09-16T08:18:10.000Z</time>
      </trkpt>
      <trkpt lat="47.35331" lon="-2.37798">
        <ele>8.1999998092651</ele>
        <time>2021-09-16T08:18:12.000Z</time>
      </trkpt>
      <trkpt lat="47.35289" lon="-2.37812">
        <ele>8.1999998092651</ele>
        <time>2021-09-16T08:18:18.000Z</time>
      </trkpt>
      <trkpt lat="47.35249" lon="-2.3784">
        <ele>8.1999998092651</ele>
        <time>2021-09-16T08:18:24.000Z</time>
      </trkpt>
      <trkpt lat="47.35236" lon="-2.37853">
        <ele>8.1999998092651</ele>
        <time>2021-09-16T08:18:26.000Z</time>
      </trkpt>
      <trkpt lat="47.35215" lon="-2.37869">
        <ele>8.1999998092651</ele>
        <time>2021-09-16T08:18:29.000Z</time>
      </trkpt>
      <trkpt lat="47.35194" lon="-2.37884">
        <ele>7.4000000953674</ele>
        <time>2021-09-16T08:18:32.000Z</time>
      </trkpt>
      <trkpt lat="47.35187" lon="-2.3789">
        <ele>7</ele>
        <time>2021-09-16T08:18:33.000Z</time>
      </trkpt>
      <trkpt lat="47.3518" lon="-2.37895">
        <ele>6.4000000953674</ele>
        <time>2021-09-16T08:18:34.000Z</time>
      </trkpt>
      <trkpt lat="47.35173" lon="-2.37901">
        <ele>6</ele>
        <time>2021-09-16T08:18:35.000Z</time>
      </trkpt>
      <trkpt lat="47.3516" lon="-2.3791">
        <ele>6</ele>
        <time>2021-09-16T08:18:37.000Z</time>
      </trkpt>
      <trkpt lat="47.35119" lon="-2.37942">
        <ele>6</ele>
        <time>2021-09-16T08:18:43.000Z</time>
      </trkpt>
      <trkpt lat="47.35073" lon="-2.37978">
        <ele>6</ele>
        <time>2021-09-16T08:18:50.000Z</time>
      </trkpt>
      <trkpt lat="47.35029" lon="-2.38015">
        <ele>6</ele>
        <time>2021-09-16T08:18:57.000Z</time>
      </trkpt>
      <trkpt lat="47.34988" lon="-2.38048">
        <ele>6</ele>
        <time>2021-09-16T08:19:04.000Z</time>
      </trkpt>
      <trkpt lat="47.34978" lon="-2.38055">
        <ele>6</ele>
        <time>2021-09-16T08:19:06.000Z</time>
      </trkpt>
      <trkpt lat="47.34972" lon="-2.38055">
        <ele>6</ele>
        <time>2021-09-16T08:19:07.000Z</time>
      </trkpt>
      <trkpt lat="47.34961" lon="-2.38045">
        <ele>6</ele>
        <time>2021-09-16T08:19:10.000Z</time>
      </trkpt>
      <trkpt lat="47.34956" lon="-2.38032">
        <ele>6</ele>
        <time>2021-09-16T08:19:12.000Z</time>
      </trkpt>
      <trkpt lat="47.34946" lon="-2.38011">
        <ele>6</ele>
        <time>2021-09-16T08:19:15.000Z</time>
      </trkpt>
      <trkpt lat="47.34942" lon="-2.38005">
        <ele>6</ele>
        <time>2021-09-16T08:19:16.000Z</time>
      </trkpt>
      <trkpt lat="47.34927" lon="-2.37989">
        <ele>6</ele>
        <time>2021-09-16T08:19:19.000Z</time>
      </trkpt>
      <trkpt lat="47.34921" lon="-2.37984">
        <ele>6</ele>
        <time>2021-09-16T08:19:20.000Z</time>
      </trkpt>
      <trkpt lat="47.34888" lon="-2.37959">
        <ele>6</ele>
        <time>2021-09-16T08:19:26.000Z</time>
      </trkpt>
      <trkpt lat="47.34861" lon="-2.37935">
        <ele>6</ele>
        <time>2021-09-16T08:19:31.000Z</time>
      </trkpt>
      <trkpt lat="47.34827" lon="-2.37911">
        <ele>6</ele>
        <time>2021-09-16T08:19:37.000Z</time>
      </trkpt>
      <trkpt lat="47.34811" lon="-2.37898">
        <ele>6.4000000953674</ele>
        <time>2021-09-16T08:19:40.000Z</time>
      </trkpt>
      <trkpt lat="47.34805" lon="-2.37894">
        <ele>6.8000001907349</ele>
        <time>2021-09-16T08:19:41.000Z</time>
      </trkpt>
      <trkpt lat="47.34799" lon="-2.37889">
        <ele>7.1999998092651</ele>
        <time>2021-09-16T08:19:42.000Z</time>
      </trkpt>
      <trkpt lat="47.34778" lon="-2.3787">
        <ele>8</ele>
        <time>2021-09-16T08:19:43.000Z</time>
      </trkpt>
      <trkpt lat="47.34778" lon="-2.3787">
        <ele>8</ele>
        <time>2021-09-16T08:19:46.000Z</time>
      </trkpt>
      <trkpt lat="47.34773" lon="-2.37866">
        <ele>8</ele>
        <time>2021-09-16T08:19:47.000Z</time>
      </trkpt>
      <trkpt lat="47.34757" lon="-2.37863">
        <ele>8</ele>
        <time>2021-09-16T08:19:50.000Z</time>
      </trkpt>
      <trkpt lat="47.3475" lon="-2.37876">
        <ele>8</ele>
        <time>2021-09-16T08:19:53.000Z</time>
      </trkpt>
      <trkpt lat="47.34748" lon="-2.37881">
        <ele>8</ele>
        <time>2021-09-16T08:19:54.000Z</time>
      </trkpt>
      <trkpt lat="47.34738" lon="-2.37908">
        <ele>8</ele>
        <time>2021-09-16T08:19:59.000Z</time>
      </trkpt>
      <trkpt lat="47.34732" lon="-2.37919">
        <ele>8</ele>
        <time>2021-09-16T08:20:01.000Z</time>
      </trkpt>
      <trkpt lat="47.34717" lon="-2.3794">
        <ele>8</ele>
        <time>2021-09-16T08:20:05.000Z</time>
      </trkpt>
      <trkpt lat="47.34699" lon="-2.37961">
        <ele>8</ele>
        <time>2021-09-16T08:20:09.000Z</time>
      </trkpt>
      <trkpt lat="47.3469" lon="-2.3797">
        <ele>8</ele>
        <time>2021-09-16T08:20:11.000Z</time>
      </trkpt>
      <trkpt lat="47.34653" lon="-2.38003">
        <ele>8</ele>
        <time>2021-09-16T08:20:18.000Z</time>
      </trkpt>
      <trkpt lat="47.34626" lon="-2.38025">
        <ele>8</ele>
        <time>2021-09-16T08:20:23.000Z</time>
      </trkpt>
      <trkpt lat="47.34608" lon="-2.38045">
        <ele>8</ele>
        <time>2021-09-16T08:20:28.000Z</time>
      </trkpt>
      <trkpt lat="47.3461" lon="-2.38061">
        <ele>8</ele>
        <time>2021-09-16T08:20:31.000Z</time>
      </trkpt>
      <trkpt lat="47.34617" lon="-2.38077">
        <ele>8</ele>
        <time>2021-09-16T08:20:34.000Z</time>
      </trkpt>
      <trkpt lat="47.34622" lon="-2.38086">
        <ele>8</ele>
        <time>2021-09-16T08:20:36.000Z</time>
      </trkpt>
      <trkpt lat="47.34635" lon="-2.38106">
        <ele>8</ele>
        <time>2021-09-16T08:20:42.000Z</time>
      </trkpt>
      <trkpt lat="47.34645" lon="-2.38124">
        <ele>8</ele>
        <time>2021-09-16T08:20:48.000Z</time>
      </trkpt>
      <trkpt lat="47.34648" lon="-2.38152">
        <ele>8</ele>
        <time>2021-09-16T08:20:53.000Z</time>
      </trkpt>
      <trkpt lat="47.34651" lon="-2.38199">
        <ele>8</ele>
        <time>2021-09-16T08:21:01.000Z</time>
      </trkpt>
      <trkpt lat="47.34651" lon="-2.38256">
        <ele>8</ele>
        <time>2021-09-16T08:21:09.000Z</time>
      </trkpt>
      <trkpt lat="47.34653" lon="-2.38319">
        <ele>8</ele>
        <time>2021-09-16T08:21:18.000Z</time>
      </trkpt>
      <trkpt lat="47.34655" lon="-2.38365">
        <ele>8</ele>
        <time>2021-09-16T08:21:24.000Z</time>
      </trkpt>
      <trkpt lat="47.34657" lon="-2.3838">
        <ele>8</ele>
        <time>2021-09-16T08:21:26.000Z</time>
      </trkpt>
      <trkpt lat="47.34669" lon="-2.38433">
        <ele>8</ele>
        <time>2021-09-16T08:21:33.000Z</time>
      </trkpt>
      <trkpt lat="47.34679" lon="-2.38469">
        <ele>8</ele>
        <time>2021-09-16T08:21:38.000Z</time>
      </trkpt>
      <trkpt lat="47.3468" lon="-2.38475">
        <ele>8</ele>
        <time>2021-09-16T08:21:39.000Z</time>
      </trkpt>
      <trkpt lat="47.34686" lon="-2.38524">
        <ele>8</ele>
        <time>2021-09-16T08:21:46.000Z</time>
      </trkpt>
      <trkpt lat="47.34687" lon="-2.38575">
        <ele>8</ele>
        <time>2021-09-16T08:21:53.000Z</time>
      </trkpt>
      <trkpt lat="47.34688" lon="-2.38602">
        <ele>8</ele>
        <time>2021-09-16T08:21:58.000Z</time>
      </trkpt>
      <trkpt lat="47.34689" lon="-2.38631">
        <ele>8</ele>
        <time>2021-09-16T08:22:03.000Z</time>
      </trkpt>
      <trkpt lat="47.34693" lon="-2.38674">
        <ele>8</ele>
        <time>2021-09-16T08:22:10.000Z</time>
      </trkpt>
      <trkpt lat="47.34693" lon="-2.3868">
        <ele>7.5999999046326</ele>
        <time>2021-09-16T08:22:11.000Z</time>
      </trkpt>
      <trkpt lat="47.34694" lon="-2.38686">
        <ele>7.1999998092651</ele>
        <time>2021-09-16T08:22:12.000Z</time>
      </trkpt>
      <trkpt lat="47.34694" lon="-2.38691">
        <ele>6.8000001907349</ele>
        <time>2021-09-16T08:22:13.000Z</time>
      </trkpt>
      <trkpt lat="47.34695" lon="-2.38697">
        <ele>6.4000000953674</ele>
        <time>2021-09-16T08:22:14.000Z</time>
      </trkpt>
      <trkpt lat="47.34695" lon="-2.38703">
        <ele>6</ele>
        <time>2021-09-16T08:22:15.000Z</time>
      </trkpt>
      <trkpt lat="47.34696" lon="-2.38716">
        <ele>6</ele>
        <time>2021-09-16T08:22:17.000Z</time>
      </trkpt>
      <trkpt lat="47.34698" lon="-2.38767">
        <ele>6</ele>
        <time>2021-09-16T08:22:24.000Z</time>
      </trkpt>
      <trkpt lat="47.347" lon="-2.38793">
        <ele>6</ele>
        <time>2021-09-16T08:22:29.000Z</time>
      </trkpt>
      <trkpt lat="47.347" lon="-2.38822">
        <ele>6</ele>
        <time>2021-09-16T08:22:34.000Z</time>
      </trkpt>
      <trkpt lat="47.34701" lon="-2.38873">
        <ele>6</ele>
        <time>2021-09-16T08:22:42.000Z</time>
      </trkpt>
      <trkpt lat="47.34704" lon="-2.38914">
        <ele>6</ele>
        <time>2021-09-16T08:22:49.000Z</time>
      </trkpt>
      <trkpt lat="47.34704" lon="-2.3893">
        <ele>6</ele>
        <time>2021-09-16T08:22:54.000Z</time>
      </trkpt>
      <trkpt lat="47.34705" lon="-2.38949">
        <ele>6</ele>
        <time>2021-09-16T08:23:00.000Z</time>
      </trkpt>
      <trkpt lat="47.34705" lon="-2.38978">
        <ele>6</ele>
        <time>2021-09-16T08:23:06.000Z</time>
      </trkpt>
      <trkpt lat="47.34701" lon="-2.39021">
        <ele>6</ele>
        <time>2021-09-16T08:23:12.000Z</time>
      </trkpt>
      <trkpt lat="47.34693" lon="-2.39073">
        <ele>6</ele>
        <time>2021-09-16T08:23:19.000Z</time>
      </trkpt>
      <trkpt lat="47.34686" lon="-2.39124">
        <ele>6</ele>
        <time>2021-09-16T08:23:26.000Z</time>
      </trkpt>
      <trkpt lat="47.34685" lon="-2.39165">
        <ele>6</ele>
        <time>2021-09-16T08:23:32.000Z</time>
      </trkpt>
      <trkpt lat="47.34686" lon="-2.39172">
        <ele>6</ele>
        <time>2021-09-16T08:23:33.000Z</time>
      </trkpt>
      <trkpt lat="47.34687" lon="-2.39186">
        <ele>6</ele>
        <time>2021-09-16T08:23:35.000Z</time>
      </trkpt>
      <trkpt lat="47.34695" lon="-2.39211">
        <ele>6</ele>
        <time>2021-09-16T08:23:39.000Z</time>
      </trkpt>
      <trkpt lat="47.34707" lon="-2.39221">
        <ele>6</ele>
        <time>2021-09-16T08:23:43.000Z</time>
      </trkpt>
      <trkpt lat="47.34719" lon="-2.39211">
        <ele>6</ele>
        <time>2021-09-16T08:23:46.000Z</time>
      </trkpt>
      <trkpt lat="47.34745" lon="-2.39182">
        <ele>6.4000000953674</ele>
        <time>2021-09-16T08:23:52.000Z</time>
      </trkpt>
      <trkpt lat="47.34749" lon="-2.39176">
        <ele>6.8000001907349</ele>
        <time>2021-09-16T08:23:53.000Z</time>
      </trkpt>
      <trkpt lat="47.34755" lon="-2.39171">
        <ele>7.8000001907349</ele>
        <time>2021-09-16T08:23:54.000Z</time>
      </trkpt>
      <trkpt lat="47.3476" lon="-2.39164">
        <ele>8.1999998092651</ele>
        <time>2021-09-16T08:23:55.000Z</time>
      </trkpt>
      <trkpt lat="47.34781" lon="-2.39138">
        <ele>8.1999998092651</ele>
        <time>2021-09-16T08:23:59.000Z</time>
      </trkpt>
      <trkpt lat="47.34815" lon="-2.39086">
        <ele>8.1999998092651</ele>
        <time>2021-09-16T08:24:06.000Z</time>
      </trkpt>
      <trkpt lat="47.34847" lon="-2.39031">
        <ele>8.1999998092651</ele>
        <time>2021-09-16T08:24:13.000Z</time>
      </trkpt>
      <trkpt lat="47.34875" lon="-2.38981">
        <ele>7.8000001907349</ele>
        <time>2021-09-16T08:24:19.000Z</time>
      </trkpt>
      <trkpt lat="47.34879" lon="-2.38973">
        <ele>7.4000000953674</ele>
        <time>2021-09-16T08:24:20.000Z</time>
      </trkpt>
      <trkpt lat="47.34883" lon="-2.38965">
        <ele>7</ele>
        <time>2021-09-16T08:24:21.000Z</time>
      </trkpt>
      <trkpt lat="47.34887" lon="-2.38957">
        <ele>6.5999999046326</ele>
        <time>2021-09-16T08:24:22.000Z</time>
      </trkpt>
      <trkpt lat="47.34892" lon="-2.3895">
        <ele>6.1999998092651</ele>
        <time>2021-09-16T08:24:23.000Z</time>
      </trkpt>
      <trkpt lat="47.34904" lon="-2.38928">
        <ele>6.1999998092651</ele>
        <time>2021-09-16T08:24:26.000Z</time>
      </trkpt>
      <trkpt lat="47.34913" lon="-2.38911">
        <ele>6.1999998092651</ele>
        <time>2021-09-16T08:24:29.000Z</time>
      </trkpt>
      <trkpt lat="47.34917" lon="-2.38908">
        <ele>6.1999998092651</ele>
        <time>2021-09-16T08:24:30.000Z</time>
      </trkpt>
      <trkpt lat="47.34927" lon="-2.38912">
        <ele>6.1999998092651</ele>
        <time>2021-09-16T08:24:32.000Z</time>
      </trkpt>
      <trkpt lat="47.34934" lon="-2.38924">
        <ele>6.1999998092651</ele>
        <time>2021-09-16T08:24:34.000Z</time>
      </trkpt>
      <trkpt lat="47.34937" lon="-2.3893">
        <ele>6.1999998092651</ele>
        <time>2021-09-16T08:24:35.000Z</time>
      </trkpt>
      <trkpt lat="47.34956" lon="-2.38969">
        <ele>6.1999998092651</ele>
        <time>2021-09-16T08:24:40.000Z</time>
      </trkpt>
      <trkpt lat="47.3498" lon="-2.39021">
        <ele>6.1999998092651</ele>
        <time>2021-09-16T08:24:46.000Z</time>
      </trkpt>
      <trkpt lat="47.35002" lon="-2.39067">
        <ele>6.1999998092651</ele>
        <time>2021-09-16T08:24:52.000Z</time>
      </trkpt>
      <trkpt lat="47.35027" lon="-2.3912">
        <ele>6.1999998092651</ele>
        <time>2021-09-16T08:24:59.000Z</time>
      </trkpt>
      <trkpt lat="47.35036" lon="-2.39144">
        <ele>6.1999998092651</ele>
        <time>2021-09-16T08:25:02.000Z</time>
      </trkpt>
      <trkpt lat="47.35039" lon="-2.39163">
        <ele>6.1999998092651</ele>
        <time>2021-09-16T08:25:04.000Z</time>
      </trkpt>
      <trkpt lat="47.3504" lon="-2.39181">
        <ele>6.1999998092651</ele>
        <time>2021-09-16T08:25:06.000Z</time>
      </trkpt>
      <trkpt lat="47.35041" lon="-2.39217">
        <ele>6.1999998092651</ele>
        <time>2021-09-16T08:25:10.000Z</time>
      </trkpt>
      <trkpt lat="47.35045" lon="-2.39288">
        <ele>6.1999998092651</ele>
        <time>2021-09-16T08:25:18.000Z</time>
      </trkpt>
      <trkpt lat="47.35043" lon="-2.39349">
        <ele>6.1999998092651</ele>
        <time>2021-09-16T08:25:25.000Z</time>
      </trkpt>
      <trkpt lat="47.35034" lon="-2.39396">
        <ele>6.1999998092651</ele>
        <time>2021-09-16T08:25:31.000Z</time>
      </trkpt>
      <trkpt lat="47.3503" lon="-2.39421">
        <ele>6.1999998092651</ele>
        <time>2021-09-16T08:25:36.000Z</time>
      </trkpt>
      <trkpt lat="47.35031" lon="-2.39442">
        <ele>6.1999998092651</ele>
        <time>2021-09-16T08:25:41.000Z</time>
      </trkpt>
      <trkpt lat="47.35032" lon="-2.39462">
        <ele>6.1999998092651</ele>
        <time>2021-09-16T08:25:44.000Z</time>
      </trkpt>
      <trkpt lat="47.35032" lon="-2.39476">
        <ele>6.1999998092651</ele>
        <time>2021-09-16T08:25:46.000Z</time>
      </trkpt>
      <trkpt lat="47.3503" lon="-2.39535">
        <ele>6.1999998092651</ele>
        <time>2021-09-16T08:25:55.000Z</time>
      </trkpt>
      <trkpt lat="47.35028" lon="-2.39575">
        <ele>6.1999998092651</ele>
        <time>2021-09-16T08:26:00.000Z</time>
      </trkpt>
      <trkpt lat="47.35024" lon="-2.39649">
        <ele>6.1999998092651</ele>
        <time>2021-09-16T08:26:08.000Z</time>
      </trkpt>
      <trkpt lat="47.35019" lon="-2.39711">
        <ele>6.1999998092651</ele>
        <time>2021-09-16T08:26:15.000Z</time>
      </trkpt>
      <trkpt lat="47.35013" lon="-2.3978">
        <ele>6.1999998092651</ele>
        <time>2021-09-16T08:26:23.000Z</time>
      </trkpt>
      <trkpt lat="47.35011" lon="-2.39827">
        <ele>6.1999998092651</ele>
        <time>2021-09-16T08:26:28.000Z</time>
      </trkpt>
      <trkpt lat="47.35012" lon="-2.39846">
        <ele>6.1999998092651</ele>
        <time>2021-09-16T08:26:30.000Z</time>
      </trkpt>
      <trkpt lat="47.35015" lon="-2.39863">
        <ele>6.1999998092651</ele>
        <time>2021-09-16T08:26:32.000Z</time>
      </trkpt>
      <trkpt lat="47.35018" lon="-2.39879">
        <ele>6.1999998092651</ele>
        <time>2021-09-16T08:26:34.000Z</time>
      </trkpt>
      <trkpt lat="47.35016" lon="-2.39904">
        <ele>6.1999998092651</ele>
        <time>2021-09-16T08:26:37.000Z</time>
      </trkpt>
      <trkpt lat="47.35005" lon="-2.39934">
        <ele>6.1999998092651</ele>
        <time>2021-09-16T08:26:41.000Z</time>
      </trkpt>
      <trkpt lat="47.35001" lon="-2.39942">
        <ele>6.1999998092651</ele>
        <time>2021-09-16T08:26:42.000Z</time>
      </trkpt>
      <trkpt lat="47.34972" lon="-2.39993">
        <ele>6.1999998092651</ele>
        <time>2021-09-16T08:26:49.000Z</time>
      </trkpt>
      <trkpt lat="47.34944" lon="-2.40018">
        <ele>6.1999998092651</ele>
        <time>2021-09-16T08:26:54.000Z</time>
      </trkpt>
      <trkpt lat="47.34916" lon="-2.40043">
        <ele>6.5999999046326</ele>
        <time>2021-09-16T08:26:59.000Z</time>
      </trkpt>
      <trkpt lat="47.34911" lon="-2.40049">
        <ele>7</ele>
        <time>2021-09-16T08:27:00.000Z</time>
      </trkpt>
      <trkpt lat="47.34906" lon="-2.40054">
        <ele>7.4000000953674</ele>
        <time>2021-09-16T08:27:01.000Z</time>
      </trkpt>
      <trkpt lat="47.34901" lon="-2.4006">
        <ele>7.8000001907349</ele>
        <time>2021-09-16T08:27:02.000Z</time>
      </trkpt>
      <trkpt lat="47.34896" lon="-2.40065">
        <ele>8.1999998092651</ele>
        <time>2021-09-16T08:27:03.000Z</time>
      </trkpt>
      <trkpt lat="47.34877" lon="-2.40082">
        <ele>8.1999998092651</ele>
        <time>2021-09-16T08:27:07.000Z</time>
      </trkpt>
      <trkpt lat="47.34869" lon="-2.40093">
        <ele>8.1999998092651</ele>
        <time>2021-09-16T08:27:09.000Z</time>
      </trkpt>
      <trkpt lat="47.34862" lon="-2.40106">
        <ele>8.1999998092651</ele>
        <time>2021-09-16T08:27:11.000Z</time>
      </trkpt>
      <trkpt lat="47.34857" lon="-2.40122">
        <ele>8.1999998092651</ele>
        <time>2021-09-16T08:27:13.000Z</time>
      </trkpt>
      <trkpt lat="47.34856" lon="-2.4013">
        <ele>8.1999998092651</ele>
        <time>2021-09-16T08:27:14.000Z</time>
      </trkpt>
      <trkpt lat="47.34853" lon="-2.40145">
        <ele>8.1999998092651</ele>
        <time>2021-09-16T08:27:16.000Z</time>
      </trkpt>
      <trkpt lat="47.34852" lon="-2.40172">
        <ele>8.1999998092651</ele>
        <time>2021-09-16T08:27:20.000Z</time>
      </trkpt>
      <trkpt lat="47.34854" lon="-2.40186">
        <ele>8.1999998092651</ele>
        <time>2021-09-16T08:27:22.000Z</time>
      </trkpt>
      <trkpt lat="47.34868" lon="-2.40205">
        <ele>8.1999998092651</ele>
        <time>2021-09-16T08:27:25.000Z</time>
      </trkpt>
      <trkpt lat="47.34873" lon="-2.40211">
        <ele>8.1999998092651</ele>
        <time>2021-09-16T08:27:26.000Z</time>
      </trkpt>
      <trkpt lat="47.34892" lon="-2.40238">
        <ele>8.1999998092651</ele>
        <time>2021-09-16T08:27:30.000Z</time>
      </trkpt>
      <trkpt lat="47.34896" lon="-2.40245">
        <ele>8.1999998092651</ele>
        <time>2021-09-16T08:27:31.000Z</time>
      </trkpt>
      <trkpt lat="47.34899" lon="-2.4026">
        <ele>8.1999998092651</ele>
        <time>2021-09-16T08:27:33.000Z</time>
      </trkpt>
      <trkpt lat="47.3489" lon="-2.40278">
        <ele>8.1999998092651</ele>
        <time>2021-09-16T08:27:36.000Z</time>
      </trkpt>
      <trkpt lat="47.34874" lon="-2.40291">
        <ele>8.1999998092651</ele>
        <time>2021-09-16T08:27:39.000Z</time>
      </trkpt>
      <trkpt lat="47.34865" lon="-2.40301">
        <ele>8.1999998092651</ele>
        <time>2021-09-16T08:27:41.000Z</time>
      </trkpt>
      <trkpt lat="47.34854" lon="-2.40316">
        <ele>8.1999998092651</ele>
        <time>2021-09-16T08:27:44.000Z</time>
      </trkpt>
      <trkpt lat="47.34852" lon="-2.40322">
        <ele>8.1999998092651</ele>
        <time>2021-09-16T08:27:45.000Z</time>
      </trkpt>
      <trkpt lat="47.34856" lon="-2.40341">
        <ele>8.1999998092651</ele>
        <time>2021-09-16T08:27:48.000Z</time>
      </trkpt>
      <trkpt lat="47.34858" lon="-2.40348">
        <ele>8.1999998092651</ele>
        <time>2021-09-16T08:27:49.000Z</time>
      </trkpt>
      <trkpt lat="47.34866" lon="-2.40385">
        <ele>8.1999998092651</ele>
        <time>2021-09-16T08:27:55.000Z</time>
      </trkpt>
      <trkpt lat="47.34873" lon="-2.40435">
        <ele>8.1999998092651</ele>
        <time>2021-09-16T08:28:03.000Z</time>
      </trkpt>
      <trkpt lat="47.34881" lon="-2.40482">
        <ele>8.1999998092651</ele>
        <time>2021-09-16T08:28:09.000Z</time>
      </trkpt>
      <trkpt lat="47.34884" lon="-2.405">
        <ele>7.8000001907349</ele>
        <time>2021-09-16T08:28:11.000Z</time>
      </trkpt>
      <trkpt lat="47.34885" lon="-2.40509">
        <ele>7.1999998092651</ele>
        <time>2021-09-16T08:28:12.000Z</time>
      </trkpt>
      <trkpt lat="47.34886" lon="-2.40519">
        <ele>6.8000001907349</ele>
        <time>2021-09-16T08:28:13.000Z</time>
      </trkpt>
      <trkpt lat="47.34887" lon="-2.40528">
        <ele>6.4000000953674</ele>
        <time>2021-09-16T08:28:14.000Z</time>
      </trkpt>
      <trkpt lat="47.34887" lon="-2.40537">
        <ele>6</ele>
        <time>2021-09-16T08:28:15.000Z</time>
      </trkpt>
      <trkpt lat="47.34887" lon="-2.40547">
        <ele>6</ele>
        <time>2021-09-16T08:28:16.000Z</time>
      </trkpt>
      <trkpt lat="47.34878" lon="-2.4057">
        <ele>6</ele>
        <time>2021-09-16T08:28:19.000Z</time>
      </trkpt>
      <trkpt lat="47.34869" lon="-2.40584">
        <ele>6</ele>
        <time>2021-09-16T08:28:21.000Z</time>
      </trkpt>
      <trkpt lat="47.34848" lon="-2.40609">
        <ele>6</ele>
        <time>2021-09-16T08:28:25.000Z</time>
      </trkpt>
      <trkpt lat="47.34833" lon="-2.40644">
        <ele>6</ele>
        <time>2021-09-16T08:28:29.000Z</time>
      </trkpt>
      <trkpt lat="47.34831" lon="-2.40653">
        <ele>6</ele>
        <time>2021-09-16T08:28:30.000Z</time>
      </trkpt>
      <trkpt lat="47.34824" lon="-2.40685">
        <ele>6</ele>
        <time>2021-09-16T08:28:34.000Z</time>
      </trkpt>
      <trkpt lat="47.34821" lon="-2.40709">
        <ele>6</ele>
        <time>2021-09-16T08:28:37.000Z</time>
      </trkpt>
      <trkpt lat="47.34823" lon="-2.40734">
        <ele>6</ele>
        <time>2021-09-16T08:28:40.000Z</time>
      </trkpt>
      <trkpt lat="47.34823" lon="-2.40741">
        <ele>6</ele>
        <time>2021-09-16T08:28:41.000Z</time>
      </trkpt>
      <trkpt lat="47.34827" lon="-2.40759">
        <ele>6</ele>
        <time>2021-09-16T08:28:44.000Z</time>
      </trkpt>
      <trkpt lat="47.34829" lon="-2.40764">
        <ele>6</ele>
        <time>2021-09-16T08:28:45.000Z</time>
      </trkpt>
      <trkpt lat="47.34836" lon="-2.40773">
        <ele>6.4000000953674</ele>
        <time>2021-09-16T08:28:47.000Z</time>
      </trkpt>
      <trkpt lat="47.34841" lon="-2.40775">
        <ele>6.8000001907349</ele>
        <time>2021-09-16T08:28:48.000Z</time>
      </trkpt>
      <trkpt lat="47.34846" lon="-2.40775">
        <ele>7.1999998092651</ele>
        <time>2021-09-16T08:28:49.000Z</time>
      </trkpt>
      <trkpt lat="47.34852" lon="-2.40775">
        <ele>8</ele>
        <time>2021-09-16T08:28:50.000Z</time>
      </trkpt>
      <trkpt lat="47.34857" lon="-2.40775">
        <ele>8</ele>
        <time>2021-09-16T08:28:51.000Z</time>
      </trkpt>
      <trkpt lat="47.34863" lon="-2.40774">
        <ele>8</ele>
        <time>2021-09-16T08:28:52.000Z</time>
      </trkpt>
      <trkpt lat="47.34884" lon="-2.40774">
        <ele>8</ele>
        <time>2021-09-16T08:28:56.000Z</time>
      </trkpt>
      <trkpt lat="47.34893" lon="-2.40781">
        <ele>8</ele>
        <time>2021-09-16T08:28:58.000Z</time>
      </trkpt>
      <trkpt lat="47.34909" lon="-2.40806">
        <ele>8</ele>
        <time>2021-09-16T08:29:02.000Z</time>
      </trkpt>
      <trkpt lat="47.34929" lon="-2.40848">
        <ele>8</ele>
        <time>2021-09-16T08:29:08.000Z</time>
      </trkpt>
      <trkpt lat="47.34939" lon="-2.40885">
        <ele>8</ele>
        <time>2021-09-16T08:29:13.000Z</time>
      </trkpt>
      <trkpt lat="47.34942" lon="-2.40938">
        <ele>8</ele>
        <time>2021-09-16T08:29:20.000Z</time>
      </trkpt>
      <trkpt lat="47.34937" lon="-2.40997">
        <ele>8</ele>
        <time>2021-09-16T08:29:27.000Z</time>
      </trkpt>
      <trkpt lat="47.34936" lon="-2.41052">
        <ele>8</ele>
        <time>2021-09-16T08:29:33.000Z</time>
      </trkpt>
      <trkpt lat="47.34937" lon="-2.41062">
        <ele>8</ele>
        <time>2021-09-16T08:29:34.000Z</time>
      </trkpt>
      <trkpt lat="47.34945" lon="-2.41093">
        <ele>8</ele>
        <time>2021-09-16T08:29:37.000Z</time>
      </trkpt>
      <trkpt lat="47.34967" lon="-2.41145">
        <ele>8</ele>
        <time>2021-09-16T08:29:42.000Z</time>
      </trkpt>
      <trkpt lat="47.34995" lon="-2.41209">
        <ele>8</ele>
        <time>2021-09-16T08:29:49.000Z</time>
      </trkpt>
      <trkpt lat="47.35019" lon="-2.41268">
        <ele>8</ele>
        <time>2021-09-16T08:29:56.000Z</time>
      </trkpt>
      <trkpt lat="47.35042" lon="-2.4132">
        <ele>8</ele>
        <time>2021-09-16T08:30:03.000Z</time>
      </trkpt>
      <trkpt lat="47.35061" lon="-2.41366">
        <ele>8</ele>
        <time>2021-09-16T08:30:09.000Z</time>
      </trkpt>
      <trkpt lat="47.35077" lon="-2.41399">
        <ele>8</ele>
        <time>2021-09-16T08:30:14.000Z</time>
      </trkpt>
      <trkpt lat="47.35082" lon="-2.41404">
        <ele>8</ele>
        <time>2021-09-16T08:30:16.000Z</time>
      </trkpt>
      <trkpt lat="47.35086" lon="-2.41405">
        <ele>8</ele>
        <time>2021-09-16T08:30:17.000Z</time>
      </trkpt>
      <trkpt lat="47.35091" lon="-2.41403">
        <ele>7.5999999046326</ele>
        <time>2021-09-16T08:30:18.000Z</time>
      </trkpt>
      <trkpt lat="47.35095" lon="-2.41401">
        <ele>7.1999998092651</ele>
        <time>2021-09-16T08:30:19.000Z</time>
      </trkpt>
      <trkpt lat="47.35098" lon="-2.414">
        <ele>6.8000001907349</ele>
        <time>2021-09-16T08:30:20.000Z</time>
      </trkpt>
      <trkpt lat="47.35101" lon="-2.41398">
        <ele>6.4000000953674</ele>
        <time>2021-09-16T08:30:21.000Z</time>
      </trkpt>
      <trkpt lat="47.35105" lon="-2.41396">
        <ele>6</ele>
        <time>2021-09-16T08:30:22.000Z</time>
      </trkpt>
      <trkpt lat="47.35125" lon="-2.41382">
        <ele>6</ele>
        <time>2021-09-16T08:30:28.000Z</time>
      </trkpt>
      <trkpt lat="47.35129" lon="-2.4138">
        <ele>6</ele>
        <time>2021-09-16T08:30:29.000Z</time>
      </trkpt>
      <trkpt lat="47.35153" lon="-2.41365">
        <ele>6</ele>
        <time>2021-09-16T08:30:35.000Z</time>
      </trkpt>
      <trkpt lat="47.35157" lon="-2.41363">
        <ele>6</ele>
        <time>2021-09-16T08:30:36.000Z</time>
      </trkpt>
      <trkpt lat="47.35176" lon="-2.4136">
        <ele>6</ele>
        <time>2021-09-16T08:30:40.000Z</time>
      </trkpt>
      <trkpt lat="47.35185" lon="-2.41362">
        <ele>6</ele>
        <time>2021-09-16T08:30:42.000Z</time>
      </trkpt>
      <trkpt lat="47.35203" lon="-2.41379">
        <ele>6</ele>
        <time>2021-09-16T08:30:47.000Z</time>
      </trkpt>
      <trkpt lat="47.35222" lon="-2.41407">
        <ele>6</ele>
        <time>2021-09-16T08:30:52.000Z</time>
      </trkpt>
      <trkpt lat="47.35243" lon="-2.4144">
        <ele>6</ele>
        <time>2021-09-16T08:30:58.000Z</time>
      </trkpt>
      <trkpt lat="47.35247" lon="-2.41444">
        <ele>6</ele>
        <time>2021-09-16T08:30:59.000Z</time>
      </trkpt>
      <trkpt lat="47.35264" lon="-2.41449">
        <ele>6</ele>
        <time>2021-09-16T08:31:03.000Z</time>
      </trkpt>
      <trkpt lat="47.35281" lon="-2.41437">
        <ele>6</ele>
        <time>2021-09-16T08:31:07.000Z</time>
      </trkpt>
      <trkpt lat="47.35289" lon="-2.41428">
        <ele>6</ele>
        <time>2021-09-16T08:31:09.000Z</time>
      </trkpt>
      <trkpt lat="47.35299" lon="-2.41416">
        <ele>6</ele>
        <time>2021-09-16T08:31:12.000Z</time>
      </trkpt>
      <trkpt lat="47.35318" lon="-2.41379">
        <ele>6</ele>
        <time>2021-09-16T08:31:17.000Z</time>
      </trkpt>
      <trkpt lat="47.35327" lon="-2.41364">
        <ele>6</ele>
        <time>2021-09-16T08:31:19.000Z</time>
      </trkpt>
      <trkpt lat="47.35343" lon="-2.41344">
        <ele>6</ele>
        <time>2021-09-16T08:31:22.000Z</time>
      </trkpt>
      <trkpt lat="47.35373" lon="-2.41301">
        <ele>6</ele>
        <time>2021-09-16T08:31:28.000Z</time>
      </trkpt>
      <trkpt lat="47.35392" lon="-2.41279">
        <ele>6</ele>
        <time>2021-09-16T08:31:32.000Z</time>
      </trkpt>
      <trkpt lat="47.35397" lon="-2.41276">
        <ele>6</ele>
        <time>2021-09-16T08:31:33.000Z</time>
      </trkpt>
      <trkpt lat="47.35419" lon="-2.41257">
        <ele>6</ele>
        <time>2021-09-16T08:31:37.000Z</time>
      </trkpt>
      <trkpt lat="47.35424" lon="-2.41251">
        <ele>6</ele>
        <time>2021-09-16T08:31:38.000Z</time>
      </trkpt>
      <trkpt lat="47.3545" lon="-2.41212">
        <ele>6</ele>
        <time>2021-09-16T08:31:44.000Z</time>
      </trkpt>
      <trkpt lat="47.35461" lon="-2.41201">
        <ele>6</ele>
        <time>2021-09-16T08:31:46.000Z</time>
      </trkpt>
      <trkpt lat="47.35473" lon="-2.41193">
        <ele>6</ele>
        <time>2021-09-16T08:31:48.000Z</time>
      </trkpt>
      <trkpt lat="47.3549" lon="-2.41181">
        <ele>6</ele>
        <time>2021-09-16T08:31:51.000Z</time>
      </trkpt>
      <trkpt lat="47.35496" lon="-2.41176">
        <ele>6</ele>
        <time>2021-09-16T08:31:52.000Z</time>
      </trkpt>
      <trkpt lat="47.35542" lon="-2.41141">
        <ele>6</ele>
        <time>2021-09-16T08:32:00.000Z</time>
      </trkpt>
      <trkpt lat="47.35585" lon="-2.41106">
        <ele>6</ele>
        <time>2021-09-16T08:32:07.000Z</time>
      </trkpt>
      <trkpt lat="47.3562" lon="-2.41067">
        <ele>6</ele>
        <time>2021-09-16T08:32:13.000Z</time>
      </trkpt>
      <trkpt lat="47.35655" lon="-2.41023">
        <ele>6</ele>
        <time>2021-09-16T08:32:20.000Z</time>
      </trkpt>
      <trkpt lat="47.35678" lon="-2.40988">
        <ele>6</ele>
        <time>2021-09-16T08:32:26.000Z</time>
      </trkpt>
      <trkpt lat="47.35691" lon="-2.40973">
        <ele>6</ele>
        <time>2021-09-16T08:32:31.000Z</time>
      </trkpt>
      <trkpt lat="47.35693" lon="-2.40974">
        <ele>6</ele>
        <time>2021-09-16T08:32:32.000Z</time>
      </trkpt>
      <trkpt lat="47.35697" lon="-2.40979">
        <ele>6</ele>
        <time>2021-09-16T08:32:34.000Z</time>
      </trkpt>
      <trkpt lat="47.35697" lon="-2.41001">
        <ele>6</ele>
        <time>2021-09-16T08:32:38.000Z</time>
      </trkpt>
      <trkpt lat="47.35697" lon="-2.41039">
        <ele>6</ele>
        <time>2021-09-16T08:32:44.000Z</time>
      </trkpt>
      <trkpt lat="47.35702" lon="-2.41082">
        <ele>6</ele>
        <time>2021-09-16T08:32:51.000Z</time>
      </trkpt>
      <trkpt lat="47.35711" lon="-2.41129">
        <ele>6</ele>
        <time>2021-09-16T08:32:59.000Z</time>
      </trkpt>
      <trkpt lat="47.35722" lon="-2.4117">
        <ele>6</ele>
        <time>2021-09-16T08:33:06.000Z</time>
      </trkpt>
      <trkpt lat="47.35727" lon="-2.41187">
        <ele>6</ele>
        <time>2021-09-16T08:33:09.000Z</time>
      </trkpt>
      <trkpt lat="47.35727" lon="-2.41209">
        <ele>6</ele>
        <time>2021-09-16T08:33:12.000Z</time>
      </trkpt>
      <trkpt lat="47.35727" lon="-2.41216">
        <ele>6</ele>
        <time>2021-09-16T08:33:13.000Z</time>
      </trkpt>
      <trkpt lat="47.35722" lon="-2.41253">
        <ele>6</ele>
        <time>2021-09-16T08:33:18.000Z</time>
      </trkpt>
      <trkpt lat="47.35716" lon="-2.41288">
        <ele>6</ele>
        <time>2021-09-16T08:33:23.000Z</time>
      </trkpt>
      <trkpt lat="47.35714" lon="-2.41303">
        <ele>6</ele>
        <time>2021-09-16T08:33:25.000Z</time>
      </trkpt>
      <trkpt lat="47.35712" lon="-2.41361">
        <ele>6</ele>
        <time>2021-09-16T08:33:32.000Z</time>
      </trkpt>
      <trkpt lat="47.35718" lon="-2.41417">
        <ele>6</ele>
        <time>2021-09-16T08:33:39.000Z</time>
      </trkpt>
      <trkpt lat="47.35723" lon="-2.41449">
        <ele>6</ele>
        <time>2021-09-16T08:33:43.000Z</time>
      </trkpt>
      <trkpt lat="47.35724" lon="-2.41474">
        <ele>6</ele>
        <time>2021-09-16T08:33:46.000Z</time>
      </trkpt>
      <trkpt lat="47.35723" lon="-2.41483">
        <ele>6</ele>
        <time>2021-09-16T08:33:47.000Z</time>
      </trkpt>
      <trkpt lat="47.35718" lon="-2.41513">
        <ele>6</ele>
        <time>2021-09-16T08:33:51.000Z</time>
      </trkpt>
      <trkpt lat="47.35702" lon="-2.41557">
        <ele>6</ele>
        <time>2021-09-16T08:33:58.000Z</time>
      </trkpt>
      <trkpt lat="47.35701" lon="-2.41562">
        <ele>6</ele>
        <time>2021-09-16T08:33:59.000Z</time>
      </trkpt>
      <trkpt lat="47.35702" lon="-2.41579">
        <ele>6</ele>
        <time>2021-09-16T08:34:02.000Z</time>
      </trkpt>
      <trkpt lat="47.35714" lon="-2.41599">
        <ele>6</ele>
        <time>2021-09-16T08:34:07.000Z</time>
      </trkpt>
      <trkpt lat="47.35722" lon="-2.41618">
        <ele>6</ele>
        <time>2021-09-16T08:34:12.000Z</time>
      </trkpt>
      <trkpt lat="47.35723" lon="-2.41652">
        <ele>6</ele>
        <time>2021-09-16T08:34:18.000Z</time>
      </trkpt>
      <trkpt lat="47.35726" lon="-2.41697">
        <ele>6</ele>
        <time>2021-09-16T08:34:24.000Z</time>
      </trkpt>
      <trkpt lat="47.35729" lon="-2.41762">
        <ele>6</ele>
        <time>2021-09-16T08:34:32.000Z</time>
      </trkpt>
      <trkpt lat="47.35734" lon="-2.41824">
        <ele>6</ele>
        <time>2021-09-16T08:34:40.000Z</time>
      </trkpt>
      <trkpt lat="47.35739" lon="-2.41888">
        <ele>6</ele>
        <time>2021-09-16T08:34:48.000Z</time>
      </trkpt>
      <trkpt lat="47.35739" lon="-2.41915">
        <ele>6.4000000953674</ele>
        <time>2021-09-16T08:34:51.000Z</time>
      </trkpt>
      <trkpt lat="47.35739" lon="-2.41923">
        <ele>6.8000001907349</ele>
        <time>2021-09-16T08:34:52.000Z</time>
      </trkpt>
      <trkpt lat="47.35739" lon="-2.41931">
        <ele>7.1999998092651</ele>
        <time>2021-09-16T08:34:53.000Z</time>
      </trkpt>
      <trkpt lat="47.35739" lon="-2.4194">
        <ele>7.5999999046326</ele>
        <time>2021-09-16T08:34:54.000Z</time>
      </trkpt>
      <trkpt lat="47.35739" lon="-2.41965">
        <ele>8</ele>
        <time>2021-09-16T08:34:55.000Z</time>
      </trkpt>
      <trkpt lat="47.35734" lon="-2.42034">
        <ele>8</ele>
        <time>2021-09-16T08:35:05.000Z</time>
      </trkpt>
      <trkpt lat="47.35733" lon="-2.42095">
        <ele>8</ele>
        <time>2021-09-16T08:35:12.000Z</time>
      </trkpt>
      <trkpt lat="47.35736" lon="-2.42114">
        <ele>8</ele>
        <time>2021-09-16T08:35:14.000Z</time>
      </trkpt>
      <trkpt lat="47.35742" lon="-2.42129">
        <ele>8</ele>
        <time>2021-09-16T08:35:16.000Z</time>
      </trkpt>
      <trkpt lat="47.35756" lon="-2.42143">
        <ele>8</ele>
        <time>2021-09-16T08:35:19.000Z</time>
      </trkpt>
      <trkpt lat="47.35761" lon="-2.42147">
        <ele>8</ele>
        <time>2021-09-16T08:35:20.000Z</time>
      </trkpt>
      <trkpt lat="47.35796" lon="-2.42164">
        <ele>8</ele>
        <time>2021-09-16T08:35:26.000Z</time>
      </trkpt>
      <trkpt lat="47.35843" lon="-2.42184">
        <ele>8</ele>
        <time>2021-09-16T08:35:34.000Z</time>
      </trkpt>
      <trkpt lat="47.35852" lon="-2.42191">
        <ele>8</ele>
        <time>2021-09-16T08:35:36.000Z</time>
      </trkpt>
      <trkpt lat="47.3586" lon="-2.422">
        <ele>8</ele>
        <time>2021-09-16T08:35:38.000Z</time>
      </trkpt>
      <trkpt lat="47.35866" lon="-2.4221">
        <ele>8</ele>
        <time>2021-09-16T08:35:40.000Z</time>
      </trkpt>
      <trkpt lat="47.3587" lon="-2.42217">
        <ele>8</ele>
        <time>2021-09-16T08:35:42.000Z</time>
      </trkpt>
      <trkpt lat="47.3588" lon="-2.42231">
        <ele>8</ele>
        <time>2021-09-16T08:35:48.000Z</time>
      </trkpt>
      <trkpt lat="47.35891" lon="-2.42247">
        <ele>8</ele>
        <time>2021-09-16T08:35:53.000Z</time>
      </trkpt>
      <trkpt lat="47.35911" lon="-2.42274">
        <ele>8</ele>
        <time>2021-09-16T08:36:00.000Z</time>
      </trkpt>
      <trkpt lat="47.35929" lon="-2.42295">
        <ele>8</ele>
        <time>2021-09-16T08:36:06.000Z</time>
      </trkpt>
      <trkpt lat="47.35952" lon="-2.42318">
        <ele>8</ele>
        <time>2021-09-16T08:36:13.000Z</time>
      </trkpt>
      <trkpt lat="47.35962" lon="-2.42327">
        <ele>8.8000001907349</ele>
        <time>2021-09-16T08:36:16.000Z</time>
      </trkpt>
      <trkpt lat="47.35966" lon="-2.42331">
        <ele>9.1999998092651</ele>
        <time>2021-09-16T08:36:17.000Z</time>
      </trkpt>
      <trkpt lat="47.35969" lon="-2.42335">
        <ele>9.6000003814697</ele>
        <time>2021-09-16T08:36:18.000Z</time>
      </trkpt>
      <trkpt lat="47.35972" lon="-2.42339">
        <ele>10</ele>
        <time>2021-09-16T08:36:19.000Z</time>
      </trkpt>
      <trkpt lat="47.35976" lon="-2.42343">
        <ele>10</ele>
        <time>2021-09-16T08:36:20.000Z</time>
      </trkpt>
      <trkpt lat="47.35999" lon="-2.42383">
        <ele>10</ele>
        <time>2021-09-16T08:36:28.000Z</time>
      </trkpt>
      <trkpt lat="47.36017" lon="-2.42423">
        <ele>10</ele>
        <time>2021-09-16T08:36:34.000Z</time>
      </trkpt>
      <trkpt lat="47.36043" lon="-2.42481">
        <ele>10</ele>
        <time>2021-09-16T08:36:42.000Z</time>
      </trkpt>
      <trkpt lat="47.36065" lon="-2.42531">
        <ele>10</ele>
        <time>2021-09-16T08:36:49.000Z</time>
      </trkpt>
      <trkpt lat="47.36087" lon="-2.42578">
        <ele>10</ele>
        <time>2021-09-16T08:36:56.000Z</time>
      </trkpt>
      <trkpt lat="47.3611" lon="-2.42639">
        <ele>10</ele>
        <time>2021-09-16T08:37:04.000Z</time>
      </trkpt>
      <trkpt lat="47.36112" lon="-2.42647">
        <ele>10</ele>
        <time>2021-09-16T08:37:05.000Z</time>
      </trkpt>
      <trkpt lat="47.3612" lon="-2.42689">
        <ele>10</ele>
        <time>2021-09-16T08:37:10.000Z</time>
      </trkpt>
      <trkpt lat="47.36129" lon="-2.42743">
        <ele>10</ele>
        <time>2021-09-16T08:37:17.000Z</time>
      </trkpt>
      <trkpt lat="47.36137" lon="-2.42798">
        <ele>10</ele>
        <time>2021-09-16T08:37:24.000Z</time>
      </trkpt>
      <trkpt lat="47.36145" lon="-2.42862">
        <ele>10</ele>
        <time>2021-09-16T08:37:32.000Z</time>
      </trkpt>
      <trkpt lat="47.3615" lon="-2.42919">
        <ele>10</ele>
        <time>2021-09-16T08:37:39.000Z</time>
      </trkpt>
      <trkpt lat="47.36153" lon="-2.42957">
        <ele>10</ele>
        <time>2021-09-16T08:37:44.000Z</time>
      </trkpt>
      <trkpt lat="47.36154" lon="-2.42972">
        <ele>10</ele>
        <time>2021-09-16T08:37:46.000Z</time>
      </trkpt>
      <trkpt lat="47.36155" lon="-2.42985">
        <ele>10.39999961853</ele>
        <time>2021-09-16T08:37:48.000Z</time>
      </trkpt>
      <trkpt lat="47.36154" lon="-2.42992">
        <ele>10.800000190735</ele>
        <time>2021-09-16T08:37:49.000Z</time>
      </trkpt>
      <trkpt lat="47.36155" lon="-2.42998">
        <ele>11.199999809265</ele>
        <time>2021-09-16T08:37:50.000Z</time>
      </trkpt>
      <trkpt lat="47.36155" lon="-2.43004">
        <ele>11.60000038147</ele>
        <time>2021-09-16T08:37:51.000Z</time>
      </trkpt>
      <trkpt lat="47.36155" lon="-2.43009">
        <ele>12</ele>
        <time>2021-09-16T08:37:52.000Z</time>
      </trkpt>
      <trkpt lat="47.36155" lon="-2.43014">
        <ele>12</ele>
        <time>2021-09-16T08:37:53.000Z</time>
      </trkpt>
      <trkpt lat="47.36157" lon="-2.43041">
        <ele>12</ele>
        <time>2021-09-16T08:38:00.000Z</time>
      </trkpt>
      <trkpt lat="47.36157" lon="-2.43056">
        <ele>12</ele>
        <time>2021-09-16T08:38:06.000Z</time>
      </trkpt>
      <trkpt lat="47.36159" lon="-2.43079">
        <ele>12</ele>
        <time>2021-09-16T08:38:14.000Z</time>
      </trkpt>
      <trkpt lat="47.36158" lon="-2.43094">
        <ele>12</ele>
        <time>2021-09-16T08:38:20.000Z</time>
      </trkpt>
      <trkpt lat="47.36155" lon="-2.43101">
        <ele>12</ele>
        <time>2021-09-16T08:38:23.000Z</time>
      </trkpt>
      <trkpt lat="47.36151" lon="-2.43105">
        <ele>12</ele>
        <time>2021-09-16T08:38:25.000Z</time>
      </trkpt>
      <trkpt lat="47.36136" lon="-2.43113">
        <ele>12</ele>
        <time>2021-09-16T08:38:30.000Z</time>
      </trkpt>
      <trkpt lat="47.36133" lon="-2.43115">
        <ele>12</ele>
        <time>2021-09-16T08:38:31.000Z</time>
      </trkpt>
      <trkpt lat="47.36121" lon="-2.43132">
        <ele>12</ele>
        <time>2021-09-16T08:38:36.000Z</time>
      </trkpt>
      <trkpt lat="47.36108" lon="-2.43152">
        <ele>12</ele>
        <time>2021-09-16T08:38:42.000Z</time>
      </trkpt>
      <trkpt lat="47.36088" lon="-2.43181">
        <ele>12</ele>
        <time>2021-09-16T08:38:51.000Z</time>
      </trkpt>
      <trkpt lat="47.36077" lon="-2.43196">
        <ele>12.39999961853</ele>
        <time>2021-09-16T08:38:56.000Z</time>
      </trkpt>
      <trkpt lat="47.36075" lon="-2.432">
        <ele>12.800000190735</ele>
        <time>2021-09-16T08:38:57.000Z</time>
      </trkpt>
      <trkpt lat="47.36073" lon="-2.43203">
        <ele>13.199999809265</ele>
        <time>2021-09-16T08:38:58.000Z</time>
      </trkpt>
      <trkpt lat="47.36071" lon="-2.43206">
        <ele>13.60000038147</ele>
        <time>2021-09-16T08:38:59.000Z</time>
      </trkpt>
      <trkpt lat="47.36069" lon="-2.43209">
        <ele>14.199999809265</ele>
        <time>2021-09-16T08:39:00.000Z</time>
      </trkpt>
      <trkpt lat="47.36057" lon="-2.43229">
        <ele>14.199999809265</ele>
        <time>2021-09-16T08:39:05.000Z</time>
      </trkpt>
      <trkpt lat="47.36045" lon="-2.43253">
        <ele>14.199999809265</ele>
        <time>2021-09-16T08:39:10.000Z</time>
      </trkpt>
      <trkpt lat="47.36028" lon="-2.43292">
        <ele>14.199999809265</ele>
        <time>2021-09-16T08:39:17.000Z</time>
      </trkpt>
      <trkpt lat="47.36006" lon="-2.43344">
        <ele>14.199999809265</ele>
        <time>2021-09-16T08:39:26.000Z</time>
      </trkpt>
      <trkpt lat="47.35996" lon="-2.43375">
        <ele>14.199999809265</ele>
        <time>2021-09-16T08:39:31.000Z</time>
      </trkpt>
      <trkpt lat="47.35995" lon="-2.43386">
        <ele>14.199999809265</ele>
        <time>2021-09-16T08:39:33.000Z</time>
      </trkpt>
      <trkpt lat="47.36" lon="-2.43396">
        <ele>14.199999809265</ele>
        <time>2021-09-16T08:39:37.000Z</time>
      </trkpt>
      <trkpt lat="47.36003" lon="-2.434">
        <ele>14.199999809265</ele>
        <time>2021-09-16T08:39:39.000Z</time>
      </trkpt>
      <trkpt lat="47.36011" lon="-2.43414">
        <ele>14.199999809265</ele>
        <time>2021-09-16T08:39:44.000Z</time>
      </trkpt>
      <trkpt lat="47.36028" lon="-2.43436">
        <ele>14.199999809265</ele>
        <time>2021-09-16T08:39:51.000Z</time>
      </trkpt>
      <trkpt lat="47.36037" lon="-2.43446">
        <ele>14.199999809265</ele>
        <time>2021-09-16T08:39:56.000Z</time>
      </trkpt>
      <trkpt lat="47.36039" lon="-2.43447">
        <ele>14.199999809265</ele>
        <time>2021-09-16T08:39:59.000Z</time>
      </trkpt>
      <trkpt lat="47.36041" lon="-2.43447">
        <ele>14.199999809265</ele>
        <time>2021-09-16T08:40:02.000Z</time>
      </trkpt>
      <trkpt lat="47.36044" lon="-2.43447">
        <ele>14.199999809265</ele>
        <time>2021-09-16T08:40:03.000Z</time>
      </trkpt>
      <trkpt lat="47.36058" lon="-2.43445">
        <ele>14.199999809265</ele>
        <time>2021-09-16T08:40:08.000Z</time>
      </trkpt>
      <trkpt lat="47.36081" lon="-2.4344">
        <ele>14.199999809265</ele>
        <time>2021-09-16T08:40:15.000Z</time>
      </trkpt>
      <trkpt lat="47.36114" lon="-2.4343">
        <ele>14.199999809265</ele>
        <time>2021-09-16T08:40:23.000Z</time>
      </trkpt>
      <trkpt lat="47.36134" lon="-2.43421">
        <ele>14.199999809265</ele>
        <time>2021-09-16T08:40:28.000Z</time>
      </trkpt>
      <trkpt lat="47.3617" lon="-2.43405">
        <ele>14.199999809265</ele>
        <time>2021-09-16T08:40:37.000Z</time>
      </trkpt>
      <trkpt lat="47.36206" lon="-2.43394">
        <ele>14.199999809265</ele>
        <time>2021-09-16T08:40:46.000Z</time>
      </trkpt>
      <trkpt lat="47.36248" lon="-2.43386">
        <ele>14.199999809265</ele>
        <time>2021-09-16T08:40:56.000Z</time>
      </trkpt>
      <trkpt lat="47.36268" lon="-2.43382">
        <ele>14.199999809265</ele>
        <time>2021-09-16T08:41:03.000Z</time>
      </trkpt>
      <trkpt lat="47.36273" lon="-2.43381">
        <ele>14.199999809265</ele>
        <time>2021-09-16T08:41:07.000Z</time>
      </trkpt>
      <trkpt lat="47.36276" lon="-2.43382">
        <ele>14.199999809265</ele>
        <time>2021-09-16T08:41:23.000Z</time>
      </trkpt>
      <trkpt lat="47.36271" lon="-2.43385">
        <ele>14.199999809265</ele>
        <time>2021-09-16T08:41:27.000Z</time>
      </trkpt>
      <trkpt lat="47.36257" lon="-2.43385">
        <ele>14.199999809265</ele>
        <time>2021-09-16T08:41:33.000Z</time>
      </trkpt>
      <trkpt lat="47.36235" lon="-2.43389">
        <ele>14.199999809265</ele>
        <time>2021-09-16T08:41:39.000Z</time>
      </trkpt>
      <trkpt lat="47.36201" lon="-2.43396">
        <ele>14.199999809265</ele>
        <time>2021-09-16T08:41:46.000Z</time>
      </trkpt>
      <trkpt lat="47.36165" lon="-2.43406">
        <ele>14.199999809265</ele>
        <time>2021-09-16T08:41:54.000Z</time>
      </trkpt>
      <trkpt lat="47.36126" lon="-2.43425">
        <ele>14.199999809265</ele>
        <time>2021-09-16T08:42:03.000Z</time>
      </trkpt>
      <trkpt lat="47.36093" lon="-2.43435">
        <ele>14.199999809265</ele>
        <time>2021-09-16T08:42:10.000Z</time>
      </trkpt>
      <trkpt lat="47.36058" lon="-2.43444">
        <ele>14.199999809265</ele>
        <time>2021-09-16T08:42:18.000Z</time>
      </trkpt>
      <trkpt lat="47.36023" lon="-2.43454">
        <ele>14.199999809265</ele>
        <time>2021-09-16T08:42:25.000Z</time>
      </trkpt>
      <trkpt lat="47.35984" lon="-2.43468">
        <ele>14.199999809265</ele>
        <time>2021-09-16T08:42:32.000Z</time>
      </trkpt>
      <trkpt lat="47.35966" lon="-2.43473">
        <ele>14.199999809265</ele>
        <time>2021-09-16T08:42:37.000Z</time>
      </trkpt>
      <trkpt lat="47.35953" lon="-2.43475">
        <ele>14.199999809265</ele>
        <time>2021-09-16T08:42:42.000Z</time>
      </trkpt>
      <trkpt lat="47.35948" lon="-2.43473">
        <ele>14.199999809265</ele>
        <time>2021-09-16T08:42:47.000Z</time>
      </trkpt>
      <trkpt lat="47.35949" lon="-2.43467">
        <ele>14.199999809265</ele>
        <time>2021-09-16T08:42:51.000Z</time>
      </trkpt>
      <trkpt lat="47.35959" lon="-2.4347">
        <ele>14.199999809265</ele>
        <time>2021-09-16T08:42:55.000Z</time>
      </trkpt>
      <trkpt lat="47.35961" lon="-2.43485">
        <ele>14.199999809265</ele>
        <time>2021-09-16T08:42:58.000Z</time>
      </trkpt>
      <trkpt lat="47.35961" lon="-2.43517">
        <ele>14.199999809265</ele>
        <time>2021-09-16T08:43:03.000Z</time>
      </trkpt>
      <trkpt lat="47.35961" lon="-2.43524">
        <ele>14.199999809265</ele>
        <time>2021-09-16T08:43:04.000Z</time>
      </trkpt>
      <trkpt lat="47.35965" lon="-2.43569">
        <ele>14.199999809265</ele>
        <time>2021-09-16T08:43:10.000Z</time>
      </trkpt>
      <trkpt lat="47.35972" lon="-2.43615">
        <ele>14.199999809265</ele>
        <time>2021-09-16T08:43:16.000Z</time>
      </trkpt>
      <trkpt lat="47.35973" lon="-2.43627">
        <ele>13.60000038147</ele>
        <time>2021-09-16T08:43:20.000Z</time>
      </trkpt>
      <trkpt lat="47.35973" lon="-2.43627">
        <ele>13.199999809265</ele>
        <time>2021-09-16T08:43:21.000Z</time>
      </trkpt>
      <trkpt lat="47.35973" lon="-2.4363">
        <ele>12</ele>
        <time>2021-09-16T08:43:38.000Z</time>
      </trkpt>
      <trkpt lat="47.35973" lon="-2.43633">
        <ele>12</ele>
        <time>2021-09-16T08:43:39.000Z</time>
      </trkpt>
      <trkpt lat="47.35976" lon="-2.43655">
        <ele>12</ele>
        <time>2021-09-16T08:43:44.000Z</time>
      </trkpt>
      <trkpt lat="47.35983" lon="-2.43679">
        <ele>12</ele>
        <time>2021-09-16T08:43:48.000Z</time>
      </trkpt>
      <trkpt lat="47.35987" lon="-2.4369">
        <ele>12</ele>
        <time>2021-09-16T08:43:50.000Z</time>
      </trkpt>
      <trkpt lat="47.3599" lon="-2.43696">
        <ele>12</ele>
        <time>2021-09-16T08:43:51.000Z</time>
      </trkpt>
      <trkpt lat="47.36007" lon="-2.43727">
        <ele>12</ele>
        <time>2021-09-16T08:43:57.000Z</time>
      </trkpt>
      <trkpt lat="47.3601" lon="-2.43742">
        <ele>12</ele>
        <time>2021-09-16T08:44:00.000Z</time>
      </trkpt>
      <trkpt lat="47.36008" lon="-2.43746">
        <ele>12</ele>
        <time>2021-09-16T08:44:01.000Z</time>
      </trkpt>
      <trkpt lat="47.35996" lon="-2.43775">
        <ele>12</ele>
        <time>2021-09-16T08:44:07.000Z</time>
      </trkpt>
      <trkpt lat="47.35981" lon="-2.4381">
        <ele>12</ele>
        <time>2021-09-16T08:44:13.000Z</time>
      </trkpt>
      <trkpt lat="47.35971" lon="-2.43828">
        <ele>12</ele>
        <time>2021-09-16T08:44:16.000Z</time>
      </trkpt>
      <trkpt lat="47.35962" lon="-2.43847">
        <ele>12</ele>
        <time>2021-09-16T08:44:19.000Z</time>
      </trkpt>
      <trkpt lat="47.35952" lon="-2.43881">
        <ele>12</ele>
        <time>2021-09-16T08:44:24.000Z</time>
      </trkpt>
      <trkpt lat="47.3595" lon="-2.43887">
        <ele>12</ele>
        <time>2021-09-16T08:44:25.000Z</time>
      </trkpt>
      <trkpt lat="47.3594" lon="-2.43912">
        <ele>12</ele>
        <time>2021-09-16T08:44:29.000Z</time>
      </trkpt>
      <trkpt lat="47.35935" lon="-2.43928">
        <ele>12</ele>
        <time>2021-09-16T08:44:31.000Z</time>
      </trkpt>
      <trkpt lat="47.3593" lon="-2.4395">
        <ele>12</ele>
        <time>2021-09-16T08:44:34.000Z</time>
      </trkpt>
      <trkpt lat="47.35927" lon="-2.43957">
        <ele>12</ele>
        <time>2021-09-16T08:44:35.000Z</time>
      </trkpt>
      <trkpt lat="47.35914" lon="-2.43986">
        <ele>12</ele>
        <time>2021-09-16T08:44:39.000Z</time>
      </trkpt>
      <trkpt lat="47.35899" lon="-2.44018">
        <ele>12</ele>
        <time>2021-09-16T08:44:44.000Z</time>
      </trkpt>
      <trkpt lat="47.35893" lon="-2.44028">
        <ele>12</ele>
        <time>2021-09-16T08:44:46.000Z</time>
      </trkpt>
      <trkpt lat="47.3589" lon="-2.44032">
        <ele>12</ele>
        <time>2021-09-16T08:44:47.000Z</time>
      </trkpt>
      <trkpt lat="47.35873" lon="-2.44057">
        <ele>12</ele>
        <time>2021-09-16T08:44:52.000Z</time>
      </trkpt>
      <trkpt lat="47.35868" lon="-2.44076">
        <ele>12</ele>
        <time>2021-09-16T08:44:56.000Z</time>
      </trkpt>
      <trkpt lat="47.35862" lon="-2.44099">
        <ele>12</ele>
        <time>2021-09-16T08:45:01.000Z</time>
      </trkpt>
      <trkpt lat="47.3585" lon="-2.44139">
        <ele>12</ele>
        <time>2021-09-16T08:45:07.000Z</time>
      </trkpt>
      <trkpt lat="47.35843" lon="-2.44164">
        <ele>12</ele>
        <time>2021-09-16T08:45:11.000Z</time>
      </trkpt>
      <trkpt lat="47.3584" lon="-2.44175">
        <ele>12</ele>
        <time>2021-09-16T08:45:13.000Z</time>
      </trkpt>
      <trkpt lat="47.35838" lon="-2.44186">
        <ele>12</ele>
        <time>2021-09-16T08:45:17.000Z</time>
      </trkpt>
      <trkpt lat="47.35838" lon="-2.44186">
        <ele>12.39999961853</ele>
        <time>2021-09-16T08:45:18.000Z</time>
      </trkpt>
      <trkpt lat="47.35837" lon="-2.44192">
        <ele>14</ele>
        <time>2021-09-16T08:45:44.000Z</time>
      </trkpt>
      <trkpt lat="47.35836" lon="-2.44196">
        <ele>14</ele>
        <time>2021-09-16T08:45:45.000Z</time>
      </trkpt>
      <trkpt lat="47.3583" lon="-2.44219">
        <ele>14</ele>
        <time>2021-09-16T08:45:50.000Z</time>
      </trkpt>
      <trkpt lat="47.35822" lon="-2.44256">
        <ele>14</ele>
        <time>2021-09-16T08:45:57.000Z</time>
      </trkpt>
      <trkpt lat="47.35817" lon="-2.44294">
        <ele>14</ele>
        <time>2021-09-16T08:46:04.000Z</time>
      </trkpt>
      <trkpt lat="47.35813" lon="-2.44312">
        <ele>14</ele>
        <time>2021-09-16T08:46:09.000Z</time>
      </trkpt>
      <trkpt lat="47.35814" lon="-2.4433">
        <ele>14</ele>
        <time>2021-09-16T08:46:15.000Z</time>
      </trkpt>
      <trkpt lat="47.35819" lon="-2.44346">
        <ele>14</ele>
        <time>2021-09-16T08:46:20.000Z</time>
      </trkpt>
      <trkpt lat="47.35822" lon="-2.4435">
        <ele>14</ele>
        <time>2021-09-16T08:46:24.000Z</time>
      </trkpt>
      <trkpt lat="47.3582" lon="-2.44353">
        <ele>14</ele>
        <time>2021-09-16T08:46:29.000Z</time>
      </trkpt>
      <trkpt lat="47.3582" lon="-2.44353">
        <ele>14</ele>
        <time>2021-09-16T08:46:31.000Z</time>
      </trkpt>
      <trkpt lat="47.35818" lon="-2.44358">
        <ele>14</ele>
        <time>2021-09-16T08:46:37.000Z</time>
      </trkpt>
      <trkpt lat="47.35816" lon="-2.4437">
        <ele>14</ele>
        <time>2021-09-16T08:46:46.000Z</time>
      </trkpt>
      <trkpt lat="47.35813" lon="-2.44373">
        <ele>14</ele>
        <time>2021-09-16T08:46:48.000Z</time>
      </trkpt>
      <trkpt lat="47.35802" lon="-2.44384">
        <ele>14</ele>
        <time>2021-09-16T08:46:54.000Z</time>
      </trkpt>
      <trkpt lat="47.35793" lon="-2.44395">
        <ele>14</ele>
        <time>2021-09-16T08:47:00.000Z</time>
      </trkpt>
      <trkpt lat="47.35793" lon="-2.44395">
        <ele>14</ele>
        <time>2021-09-16T08:47:01.000Z</time>
      </trkpt>
      <trkpt lat="47.35791" lon="-2.44419">
        <ele>15.199999809265</ele>
        <time>2021-09-16T08:47:33.000Z</time>
      </trkpt>
      <trkpt lat="47.35791" lon="-2.44422">
        <ele>15.60000038147</ele>
        <time>2021-09-16T08:47:34.000Z</time>
      </trkpt>
      <trkpt lat="47.35792" lon="-2.44426">
        <ele>16</ele>
        <time>2021-09-16T08:47:35.000Z</time>
      </trkpt>
      <trkpt lat="47.35797" lon="-2.44446">
        <ele>16</ele>
        <time>2021-09-16T08:47:40.000Z</time>
      </trkpt>
      <trkpt lat="47.35808" lon="-2.44475">
        <ele>16</ele>
        <time>2021-09-16T08:47:46.000Z</time>
      </trkpt>
      <trkpt lat="47.35819" lon="-2.44502">
        <ele>16.60000038147</ele>
        <time>2021-09-16T08:47:52.000Z</time>
      </trkpt>
      <trkpt lat="47.3582" lon="-2.44507">
        <ele>17</ele>
        <time>2021-09-16T08:47:53.000Z</time>
      </trkpt>
      <trkpt lat="47.35821" lon="-2.44511">
        <ele>17.39999961853</ele>
        <time>2021-09-16T08:47:54.000Z</time>
      </trkpt>
      <trkpt lat="47.35822" lon="-2.44515">
        <ele>17.799999237061</ele>
        <time>2021-09-16T08:47:55.000Z</time>
      </trkpt>
      <trkpt lat="47.35823" lon="-2.44519">
        <ele>18.200000762939</ele>
        <time>2021-09-16T08:47:56.000Z</time>
      </trkpt>
      <trkpt lat="47.35828" lon="-2.44535">
        <ele>18.200000762939</ele>
        <time>2021-09-16T08:48:02.000Z</time>
      </trkpt>
      <trkpt lat="47.35832" lon="-2.44542">
        <ele>18.200000762939</ele>
        <time>2021-09-16T08:48:08.000Z</time>
      </trkpt>
      <trkpt lat="47.35832" lon="-2.44545">
        <ele>18.200000762939</ele>
        <time>2021-09-16T08:48:17.000Z</time>
      </trkpt>
      <trkpt lat="47.35829" lon="-2.44554">
        <ele>18.200000762939</ele>
        <time>2021-09-16T08:48:20.000Z</time>
      </trkpt>
      <trkpt lat="47.35818" lon="-2.44577">
        <ele>18.200000762939</ele>
        <time>2021-09-16T08:48:27.000Z</time>
      </trkpt>
      <trkpt lat="47.35813" lon="-2.44591">
        <ele>18.60000038147</ele>
        <time>2021-09-16T08:48:31.000Z</time>
      </trkpt>
      <trkpt lat="47.35811" lon="-2.44596">
        <ele>19</ele>
        <time>2021-09-16T08:48:32.000Z</time>
      </trkpt>
      <trkpt lat="47.35809" lon="-2.44601">
        <ele>19.39999961853</ele>
        <time>2021-09-16T08:48:33.000Z</time>
      </trkpt>
      <trkpt lat="47.35807" lon="-2.44606">
        <ele>19.799999237061</ele>
        <time>2021-09-16T08:48:34.000Z</time>
      </trkpt>
      <trkpt lat="47.35805" lon="-2.4461">
        <ele>20.200000762939</ele>
        <time>2021-09-16T08:48:35.000Z</time>
      </trkpt>
      <trkpt lat="47.35795" lon="-2.44638">
        <ele>20.200000762939</ele>
        <time>2021-09-16T08:48:41.000Z</time>
      </trkpt>
      <trkpt lat="47.35782" lon="-2.44666">
        <ele>20.60000038147</ele>
        <time>2021-09-16T08:48:47.000Z</time>
      </trkpt>
      <trkpt lat="47.3578" lon="-2.44672">
        <ele>21</ele>
        <time>2021-09-16T08:48:48.000Z</time>
      </trkpt>
      <trkpt lat="47.35777" lon="-2.44677">
        <ele>21.39999961853</ele>
        <time>2021-09-16T08:48:49.000Z</time>
      </trkpt>
      <trkpt lat="47.35775" lon="-2.44682">
        <ele>21.799999237061</ele>
        <time>2021-09-16T08:48:50.000Z</time>
      </trkpt>
      <trkpt lat="47.35772" lon="-2.44686">
        <ele>22.39999961853</ele>
        <time>2021-09-16T08:48:51.000Z</time>
      </trkpt>
      <trkpt lat="47.35749" lon="-2.44716">
        <ele>22.39999961853</ele>
        <time>2021-09-16T08:48:58.000Z</time>
      </trkpt>
      <trkpt lat="47.35745" lon="-2.44719">
        <ele>22.39999961853</ele>
        <time>2021-09-16T08:48:59.000Z</time>
      </trkpt>
      <trkpt lat="47.3573" lon="-2.4473">
        <ele>22.799999237061</ele>
        <time>2021-09-16T08:49:03.000Z</time>
      </trkpt>
      <trkpt lat="47.35726" lon="-2.44733">
        <ele>23.200000762939</ele>
        <time>2021-09-16T08:49:04.000Z</time>
      </trkpt>
      <trkpt lat="47.35722" lon="-2.44735">
        <ele>23.60000038147</ele>
        <time>2021-09-16T08:49:05.000Z</time>
      </trkpt>
      <trkpt lat="47.35718" lon="-2.44737">
        <ele>24</ele>
        <time>2021-09-16T08:49:06.000Z</time>
      </trkpt>
      <trkpt lat="47.35715" lon="-2.4474">
        <ele>24.39999961853</ele>
        <time>2021-09-16T08:49:07.000Z</time>
      </trkpt>
      <trkpt lat="47.35691" lon="-2.44755">
        <ele>24.39999961853</ele>
        <time>2021-09-16T08:49:13.000Z</time>
      </trkpt>
      <trkpt lat="47.35653" lon="-2.44777">
        <ele>24.39999961853</ele>
        <time>2021-09-16T08:49:22.000Z</time>
      </trkpt>
      <trkpt lat="47.35613" lon="-2.44804">
        <ele>24.39999961853</ele>
        <time>2021-09-16T08:49:31.000Z</time>
      </trkpt>
      <trkpt lat="47.35592" lon="-2.44821">
        <ele>24.39999961853</ele>
        <time>2021-09-16T08:49:37.000Z</time>
      </trkpt>
      <trkpt lat="47.3559" lon="-2.44829">
        <ele>24.39999961853</ele>
        <time>2021-09-16T08:49:41.000Z</time>
      </trkpt>
      <trkpt lat="47.35598" lon="-2.44842">
        <ele>24.39999961853</ele>
        <time>2021-09-16T08:49:45.000Z</time>
      </trkpt>
      <trkpt lat="47.35618" lon="-2.44869">
        <ele>24.39999961853</ele>
        <time>2021-09-16T08:49:52.000Z</time>
      </trkpt>
      <trkpt lat="47.35622" lon="-2.44873">
        <ele>24.39999961853</ele>
        <time>2021-09-16T08:49:53.000Z</time>
      </trkpt>
      <trkpt lat="47.35642" lon="-2.44888">
        <ele>24.39999961853</ele>
        <time>2021-09-16T08:49:58.000Z</time>
      </trkpt>
      <trkpt lat="47.35674" lon="-2.44899">
        <ele>24.39999961853</ele>
        <time>2021-09-16T08:50:05.000Z</time>
      </trkpt>
      <trkpt lat="47.3571" lon="-2.44909">
        <ele>24.39999961853</ele>
        <time>2021-09-16T08:50:13.000Z</time>
      </trkpt>
      <trkpt lat="47.35714" lon="-2.4491">
        <ele>24.39999961853</ele>
        <time>2021-09-16T08:50:14.000Z</time>
      </trkpt>
      <trkpt lat="47.3574" lon="-2.44918">
        <ele>24.39999961853</ele>
        <time>2021-09-16T08:50:19.000Z</time>
      </trkpt>
      <trkpt lat="47.35778" lon="-2.44932">
        <ele>24.39999961853</ele>
        <time>2021-09-16T08:50:26.000Z</time>
      </trkpt>
      <trkpt lat="47.35795" lon="-2.44943">
        <ele>24.39999961853</ele>
        <time>2021-09-16T08:50:29.000Z</time>
      </trkpt>
      <trkpt lat="47.35811" lon="-2.44958">
        <ele>24.39999961853</ele>
        <time>2021-09-16T08:50:32.000Z</time>
      </trkpt>
      <trkpt lat="47.35847" lon="-2.44988">
        <ele>24.39999961853</ele>
        <time>2021-09-16T08:50:39.000Z</time>
      </trkpt>
      <trkpt lat="47.35882" lon="-2.45016">
        <ele>24.39999961853</ele>
        <time>2021-09-16T08:50:46.000Z</time>
      </trkpt>
      <trkpt lat="47.35928" lon="-2.45045">
        <ele>24.39999961853</ele>
        <time>2021-09-16T08:50:55.000Z</time>
      </trkpt>
      <trkpt lat="47.35949" lon="-2.4506">
        <ele>24.39999961853</ele>
        <time>2021-09-16T08:51:00.000Z</time>
      </trkpt>
      <trkpt lat="47.35956" lon="-2.45066">
        <ele>24.39999961853</ele>
        <time>2021-09-16T08:51:02.000Z</time>
      </trkpt>
      <trkpt lat="47.35957" lon="-2.45078">
        <ele>24.39999961853</ele>
        <time>2021-09-16T08:51:05.000Z</time>
      </trkpt>
      <trkpt lat="47.35954" lon="-2.45091">
        <ele>24.39999961853</ele>
        <time>2021-09-16T08:51:09.000Z</time>
      </trkpt>
      <trkpt lat="47.35953" lon="-2.45095">
        <ele>24.39999961853</ele>
        <time>2021-09-16T08:51:10.000Z</time>
      </trkpt>
      <trkpt lat="47.35945" lon="-2.45112">
        <ele>24.39999961853</ele>
        <time>2021-09-16T08:51:15.000Z</time>
      </trkpt>
      <trkpt lat="47.35937" lon="-2.45128">
        <ele>24.39999961853</ele>
        <time>2021-09-16T08:51:21.000Z</time>
      </trkpt>
      <trkpt lat="47.35931" lon="-2.45154">
        <ele>24.39999961853</ele>
        <time>2021-09-16T08:51:28.000Z</time>
      </trkpt>
      <trkpt lat="47.35932" lon="-2.4516">
        <ele>24.39999961853</ele>
        <time>2021-09-16T08:51:29.000Z</time>
      </trkpt>
      <trkpt lat="47.35937" lon="-2.45171">
        <ele>24.39999961853</ele>
        <time>2021-09-16T08:51:31.000Z</time>
      </trkpt>
      <trkpt lat="47.35953" lon="-2.45184">
        <ele>24.39999961853</ele>
        <time>2021-09-16T08:51:35.000Z</time>
      </trkpt>
      <trkpt lat="47.35975" lon="-2.45196">
        <ele>24.39999961853</ele>
        <time>2021-09-16T08:51:39.000Z</time>
      </trkpt>
      <trkpt lat="47.3599" lon="-2.45201">
        <ele>24.39999961853</ele>
        <time>2021-09-16T08:51:42.000Z</time>
      </trkpt>
      <trkpt lat="47.36021" lon="-2.4521">
        <ele>24.39999961853</ele>
        <time>2021-09-16T08:51:48.000Z</time>
      </trkpt>
      <trkpt lat="47.36038" lon="-2.45213">
        <ele>24.39999961853</ele>
        <time>2021-09-16T08:51:51.000Z</time>
      </trkpt>
      <trkpt lat="47.36049" lon="-2.45217">
        <ele>24.39999961853</ele>
        <time>2021-09-16T08:51:53.000Z</time>
      </trkpt>
      <trkpt lat="47.36058" lon="-2.45224">
        <ele>24</ele>
        <time>2021-09-16T08:51:55.000Z</time>
      </trkpt>
      <trkpt lat="47.36062" lon="-2.4523">
        <ele>23.60000038147</ele>
        <time>2021-09-16T08:51:56.000Z</time>
      </trkpt>
      <trkpt lat="47.36066" lon="-2.45236">
        <ele>23.200000762939</ele>
        <time>2021-09-16T08:51:57.000Z</time>
      </trkpt>
      <trkpt lat="47.36069" lon="-2.45243">
        <ele>22.799999237061</ele>
        <time>2021-09-16T08:51:58.000Z</time>
      </trkpt>
      <trkpt lat="47.36072" lon="-2.4525">
        <ele>22.39999961853</ele>
        <time>2021-09-16T08:51:59.000Z</time>
      </trkpt>
      <trkpt lat="47.36093" lon="-2.45303">
        <ele>22.39999961853</ele>
        <time>2021-09-16T08:52:06.000Z</time>
      </trkpt>
      <trkpt lat="47.36118" lon="-2.45374">
        <ele>22.39999961853</ele>
        <time>2021-09-16T08:52:15.000Z</time>
      </trkpt>
      <trkpt lat="47.36125" lon="-2.45388">
        <ele>22.39999961853</ele>
        <time>2021-09-16T08:52:17.000Z</time>
      </trkpt>
      <trkpt lat="47.36132" lon="-2.45402">
        <ele>22.39999961853</ele>
        <time>2021-09-16T08:52:19.000Z</time>
      </trkpt>
      <trkpt lat="47.3615" lon="-2.45432">
        <ele>22.39999961853</ele>
        <time>2021-09-16T08:52:24.000Z</time>
      </trkpt>
      <trkpt lat="47.3618" lon="-2.45477">
        <ele>22.39999961853</ele>
        <time>2021-09-16T08:52:32.000Z</time>
      </trkpt>
      <trkpt lat="47.36195" lon="-2.45504">
        <ele>22</ele>
        <time>2021-09-16T08:52:36.000Z</time>
      </trkpt>
      <trkpt lat="47.36198" lon="-2.4551">
        <ele>21.60000038147</ele>
        <time>2021-09-16T08:52:37.000Z</time>
      </trkpt>
      <trkpt lat="47.36202" lon="-2.45516">
        <ele>21.200000762939</ele>
        <time>2021-09-16T08:52:38.000Z</time>
      </trkpt>
      <trkpt lat="47.36205" lon="-2.45523">
        <ele>20.799999237061</ele>
        <time>2021-09-16T08:52:39.000Z</time>
      </trkpt>
      <trkpt lat="47.36209" lon="-2.4553">
        <ele>20.39999961853</ele>
        <time>2021-09-16T08:52:40.000Z</time>
      </trkpt>
      <trkpt lat="47.36231" lon="-2.4557">
        <ele>19.799999237061</ele>
        <time>2021-09-16T08:52:45.000Z</time>
      </trkpt>
      <trkpt lat="47.36236" lon="-2.4558">
        <ele>19.39999961853</ele>
        <time>2021-09-16T08:52:46.000Z</time>
      </trkpt>
      <trkpt lat="47.3624" lon="-2.45589">
        <ele>19</ele>
        <time>2021-09-16T08:52:47.000Z</time>
      </trkpt>
      <trkpt lat="47.36245" lon="-2.45598">
        <ele>18.39999961853</ele>
        <time>2021-09-16T08:52:48.000Z</time>
      </trkpt>
      <trkpt lat="47.3625" lon="-2.45607">
        <ele>18</ele>
        <time>2021-09-16T08:52:49.000Z</time>
      </trkpt>
      <trkpt lat="47.36255" lon="-2.45619">
        <ele>18</ele>
        <time>2021-09-16T08:52:50.000Z</time>
      </trkpt>
      <trkpt lat="47.36258" lon="-2.4563">
        <ele>18</ele>
        <time>2021-09-16T08:52:51.000Z</time>
      </trkpt>
      <trkpt lat="47.36261" lon="-2.45642">
        <ele>17.60000038147</ele>
        <time>2021-09-16T08:52:52.000Z</time>
      </trkpt>
      <trkpt lat="47.36262" lon="-2.45655">
        <ele>17.200000762939</ele>
        <time>2021-09-16T08:52:53.000Z</time>
      </trkpt>
      <trkpt lat="47.36261" lon="-2.45666">
        <ele>16.60000038147</ele>
        <time>2021-09-16T08:52:54.000Z</time>
      </trkpt>
      <trkpt lat="47.3626" lon="-2.45677">
        <ele>16.200000762939</ele>
        <time>2021-09-16T08:52:55.000Z</time>
      </trkpt>
      <trkpt lat="47.36258" lon="-2.45686">
        <ele>15.800000190735</ele>
        <time>2021-09-16T08:52:56.000Z</time>
      </trkpt>
      <trkpt lat="47.36254" lon="-2.45702">
        <ele>15.800000190735</ele>
        <time>2021-09-16T08:52:58.000Z</time>
      </trkpt>
      <trkpt lat="47.36251" lon="-2.45709">
        <ele>15.800000190735</ele>
        <time>2021-09-16T08:52:59.000Z</time>
      </trkpt>
      <trkpt lat="47.36244" lon="-2.45719">
        <ele>15.800000190735</ele>
        <time>2021-09-16T08:53:01.000Z</time>
      </trkpt>
      <trkpt lat="47.36232" lon="-2.45719">
        <ele>15.800000190735</ele>
        <time>2021-09-16T08:53:04.000Z</time>
      </trkpt>
      <trkpt lat="47.36216" lon="-2.45711">
        <ele>15.800000190735</ele>
        <time>2021-09-16T08:53:08.000Z</time>
      </trkpt>
      <trkpt lat="47.36212" lon="-2.45713">
        <ele>15.800000190735</ele>
        <time>2021-09-16T08:53:09.000Z</time>
      </trkpt>
      <trkpt lat="47.36194" lon="-2.45719">
        <ele>15.800000190735</ele>
        <time>2021-09-16T08:53:13.000Z</time>
      </trkpt>
      <trkpt lat="47.36165" lon="-2.45728">
        <ele>15.800000190735</ele>
        <time>2021-09-16T08:53:20.000Z</time>
      </trkpt>
      <trkpt lat="47.36136" lon="-2.45735">
        <ele>15.800000190735</ele>
        <time>2021-09-16T08:53:27.000Z</time>
      </trkpt>
      <trkpt lat="47.36115" lon="-2.45744">
        <ele>16.200000762939</ele>
        <time>2021-09-16T08:53:32.000Z</time>
      </trkpt>
      <trkpt lat="47.36111" lon="-2.45747">
        <ele>17.200000762939</ele>
        <time>2021-09-16T08:53:33.000Z</time>
      </trkpt>
      <trkpt lat="47.36107" lon="-2.45749">
        <ele>17.60000038147</ele>
        <time>2021-09-16T08:53:34.000Z</time>
      </trkpt>
      <trkpt lat="47.36103" lon="-2.45752">
        <ele>18</ele>
        <time>2021-09-16T08:53:35.000Z</time>
      </trkpt>
      <trkpt lat="47.36095" lon="-2.45755">
        <ele>18</ele>
        <time>2021-09-16T08:53:37.000Z</time>
      </trkpt>
      <trkpt lat="47.36091" lon="-2.45755">
        <ele>18</ele>
        <time>2021-09-16T08:53:38.000Z</time>
      </trkpt>
      <trkpt lat="47.36087" lon="-2.45755">
        <ele>18</ele>
        <time>2021-09-16T08:53:39.000Z</time>
      </trkpt>
      <trkpt lat="47.36067" lon="-2.45757">
        <ele>18</ele>
        <time>2021-09-16T08:53:44.000Z</time>
      </trkpt>
      <trkpt lat="47.36063" lon="-2.45759">
        <ele>18</ele>
        <time>2021-09-16T08:53:45.000Z</time>
      </trkpt>
      <trkpt lat="47.36046" lon="-2.4577">
        <ele>18</ele>
        <time>2021-09-16T08:53:49.000Z</time>
      </trkpt>
      <trkpt lat="47.36006" lon="-2.45795">
        <ele>18</ele>
        <time>2021-09-16T08:53:58.000Z</time>
      </trkpt>
      <trkpt lat="47.35968" lon="-2.45811">
        <ele>18</ele>
        <time>2021-09-16T08:54:06.000Z</time>
      </trkpt>
      <trkpt lat="47.35936" lon="-2.45819">
        <ele>18</ele>
        <time>2021-09-16T08:54:12.000Z</time>
      </trkpt>
      <trkpt lat="47.35898" lon="-2.45823">
        <ele>18</ele>
        <time>2021-09-16T08:54:19.000Z</time>
      </trkpt>
      <trkpt lat="47.35878" lon="-2.45829">
        <ele>18.799999237061</ele>
        <time>2021-09-16T08:54:23.000Z</time>
      </trkpt>
      <trkpt lat="47.35873" lon="-2.4583">
        <ele>19.200000762939</ele>
        <time>2021-09-16T08:54:24.000Z</time>
      </trkpt>
      <trkpt lat="47.35868" lon="-2.45831">
        <ele>19.60000038147</ele>
        <time>2021-09-16T08:54:25.000Z</time>
      </trkpt>
      <trkpt lat="47.35863" lon="-2.45833">
        <ele>20</ele>
        <time>2021-09-16T08:54:26.000Z</time>
      </trkpt>
      <trkpt lat="47.35858" lon="-2.45834">
        <ele>20</ele>
        <time>2021-09-16T08:54:27.000Z</time>
      </trkpt>
      <trkpt lat="47.35822" lon="-2.45842">
        <ele>20.60000038147</ele>
        <time>2021-09-16T08:54:34.000Z</time>
      </trkpt>
      <trkpt lat="47.35817" lon="-2.45843">
        <ele>21</ele>
        <time>2021-09-16T08:54:35.000Z</time>
      </trkpt>
      <trkpt lat="47.35812" lon="-2.45843">
        <ele>21.39999961853</ele>
        <time>2021-09-16T08:54:36.000Z</time>
      </trkpt>
      <trkpt lat="47.35807" lon="-2.45844">
        <ele>21.799999237061</ele>
        <time>2021-09-16T08:54:37.000Z</time>
      </trkpt>
      <trkpt lat="47.35802" lon="-2.45846">
        <ele>22.200000762939</ele>
        <time>2021-09-16T08:54:38.000Z</time>
      </trkpt>
      <trkpt lat="47.35763" lon="-2.45854">
        <ele>22.60000038147</ele>
        <time>2021-09-16T08:54:46.000Z</time>
      </trkpt>
      <trkpt lat="47.35758" lon="-2.45855">
        <ele>23</ele>
        <time>2021-09-16T08:54:47.000Z</time>
      </trkpt>
      <trkpt lat="47.35753" lon="-2.45856">
        <ele>23.799999237061</ele>
        <time>2021-09-16T08:54:48.000Z</time>
      </trkpt>
      <trkpt lat="47.35748" lon="-2.45856">
        <ele>24.200000762939</ele>
        <time>2021-09-16T08:54:49.000Z</time>
      </trkpt>
      <trkpt lat="47.35728" lon="-2.45857">
        <ele>24.200000762939</ele>
        <time>2021-09-16T08:54:53.000Z</time>
      </trkpt>
      <trkpt lat="47.35687" lon="-2.45856">
        <ele>24.200000762939</ele>
        <time>2021-09-16T08:55:01.000Z</time>
      </trkpt>
      <trkpt lat="47.35645" lon="-2.45856">
        <ele>24.200000762939</ele>
        <time>2021-09-16T08:55:09.000Z</time>
      </trkpt>
      <trkpt lat="47.3564" lon="-2.45856">
        <ele>24.60000038147</ele>
        <time>2021-09-16T08:55:10.000Z</time>
      </trkpt>
      <trkpt lat="47.35636" lon="-2.45856">
        <ele>25</ele>
        <time>2021-09-16T08:55:11.000Z</time>
      </trkpt>
      <trkpt lat="47.35631" lon="-2.45856">
        <ele>26</ele>
        <time>2021-09-16T08:55:12.000Z</time>
      </trkpt>
      <trkpt lat="47.35626" lon="-2.45856">
        <ele>26.39999961853</ele>
        <time>2021-09-16T08:55:13.000Z</time>
      </trkpt>
      <trkpt lat="47.35617" lon="-2.45857">
        <ele>26.39999961853</ele>
        <time>2021-09-16T08:55:15.000Z</time>
      </trkpt>
      <trkpt lat="47.35607" lon="-2.45862">
        <ele>26.39999961853</ele>
        <time>2021-09-16T08:55:17.000Z</time>
      </trkpt>
      <trkpt lat="47.35594" lon="-2.45871">
        <ele>26.39999961853</ele>
        <time>2021-09-16T08:55:20.000Z</time>
      </trkpt>
      <trkpt lat="47.35581" lon="-2.45883">
        <ele>26.39999961853</ele>
        <time>2021-09-16T08:55:23.000Z</time>
      </trkpt>
      <trkpt lat="47.35563" lon="-2.45898">
        <ele>26.39999961853</ele>
        <time>2021-09-16T08:55:27.000Z</time>
      </trkpt>
      <trkpt lat="47.35559" lon="-2.45902">
        <ele>26.39999961853</ele>
        <time>2021-09-16T08:55:28.000Z</time>
      </trkpt>
      <trkpt lat="47.35539" lon="-2.45919">
        <ele>26.799999237061</ele>
        <time>2021-09-16T08:55:33.000Z</time>
      </trkpt>
      <trkpt lat="47.35536" lon="-2.45923">
        <ele>27.200000762939</ele>
        <time>2021-09-16T08:55:34.000Z</time>
      </trkpt>
      <trkpt lat="47.35533" lon="-2.45927">
        <ele>27.60000038147</ele>
        <time>2021-09-16T08:55:35.000Z</time>
      </trkpt>
      <trkpt lat="47.35531" lon="-2.45932">
        <ele>28</ele>
        <time>2021-09-16T08:55:36.000Z</time>
      </trkpt>
      <trkpt lat="47.35529" lon="-2.45938">
        <ele>28.39999961853</ele>
        <time>2021-09-16T08:55:37.000Z</time>
      </trkpt>
      <trkpt lat="47.35527" lon="-2.45945">
        <ele>28.39999961853</ele>
        <time>2021-09-16T08:55:38.000Z</time>
      </trkpt>
      <trkpt lat="47.35525" lon="-2.45951">
        <ele>28.39999961853</ele>
        <time>2021-09-16T08:55:39.000Z</time>
      </trkpt>
      <trkpt lat="47.35519" lon="-2.45978">
        <ele>28.39999961853</ele>
        <time>2021-09-16T08:55:43.000Z</time>
      </trkpt>
      <trkpt lat="47.35514" lon="-2.45991">
        <ele>28.39999961853</ele>
        <time>2021-09-16T08:55:45.000Z</time>
      </trkpt>
      <trkpt lat="47.35498" lon="-2.46014">
        <ele>28.39999961853</ele>
        <time>2021-09-16T08:55:49.000Z</time>
      </trkpt>
      <trkpt lat="47.35493" lon="-2.46018">
        <ele>28.39999961853</ele>
        <time>2021-09-16T08:55:50.000Z</time>
      </trkpt>
      <trkpt lat="47.35461" lon="-2.46041">
        <ele>28.39999961853</ele>
        <time>2021-09-16T08:55:56.000Z</time>
      </trkpt>
      <trkpt lat="47.35432" lon="-2.46065">
        <ele>28.39999961853</ele>
        <time>2021-09-16T08:56:02.000Z</time>
      </trkpt>
      <trkpt lat="47.35404" lon="-2.46092">
        <ele>28.39999961853</ele>
        <time>2021-09-16T08:56:08.000Z</time>
      </trkpt>
      <trkpt lat="47.35372" lon="-2.46119">
        <ele>28.39999961853</ele>
        <time>2021-09-16T08:56:14.000Z</time>
      </trkpt>
      <trkpt lat="47.35323" lon="-2.46149">
        <ele>28.39999961853</ele>
        <time>2021-09-16T08:56:22.000Z</time>
      </trkpt>
      <trkpt lat="47.35286" lon="-2.46181">
        <ele>28.39999961853</ele>
        <time>2021-09-16T08:56:28.000Z</time>
      </trkpt>
      <trkpt lat="47.35242" lon="-2.4622">
        <ele>28.39999961853</ele>
        <time>2021-09-16T08:56:35.000Z</time>
      </trkpt>
      <trkpt lat="47.35193" lon="-2.46268">
        <ele>28.39999961853</ele>
        <time>2021-09-16T08:56:43.000Z</time>
      </trkpt>
      <trkpt lat="47.35152" lon="-2.46308">
        <ele>28.39999961853</ele>
        <time>2021-09-16T08:56:50.000Z</time>
      </trkpt>
      <trkpt lat="47.35129" lon="-2.46331">
        <ele>28.39999961853</ele>
        <time>2021-09-16T08:56:54.000Z</time>
      </trkpt>
      <trkpt lat="47.3512" lon="-2.46346">
        <ele>28.39999961853</ele>
        <time>2021-09-16T08:56:56.000Z</time>
      </trkpt>
      <trkpt lat="47.35099" lon="-2.46371">
        <ele>28.39999961853</ele>
        <time>2021-09-16T08:57:00.000Z</time>
      </trkpt>
      <trkpt lat="47.35092" lon="-2.46376">
        <ele>28.39999961853</ele>
        <time>2021-09-16T08:57:01.000Z</time>
      </trkpt>
      <trkpt lat="47.35051" lon="-2.464">
        <ele>28.39999961853</ele>
        <time>2021-09-16T08:57:07.000Z</time>
      </trkpt>
      <trkpt lat="47.35008" lon="-2.4642">
        <ele>28.39999961853</ele>
        <time>2021-09-16T08:57:13.000Z</time>
      </trkpt>
      <trkpt lat="47.34961" lon="-2.46441">
        <ele>28.39999961853</ele>
        <time>2021-09-16T08:57:20.000Z</time>
      </trkpt>
      <trkpt lat="47.34923" lon="-2.46457">
        <ele>28.39999961853</ele>
        <time>2021-09-16T08:57:26.000Z</time>
      </trkpt>
      <trkpt lat="47.34889" lon="-2.46469">
        <ele>28.39999961853</ele>
        <time>2021-09-16T08:57:32.000Z</time>
      </trkpt>
      <trkpt lat="47.3488" lon="-2.46474">
        <ele>28.39999961853</ele>
        <time>2021-09-16T08:57:34.000Z</time>
      </trkpt>
      <trkpt lat="47.34869" lon="-2.46482">
        <ele>28.39999961853</ele>
        <time>2021-09-16T08:57:37.000Z</time>
      </trkpt>
      <trkpt lat="47.34862" lon="-2.46489">
        <ele>28.39999961853</ele>
        <time>2021-09-16T08:57:43.000Z</time>
      </trkpt>
      <trkpt lat="47.34862" lon="-2.46491">
        <ele>28.39999961853</ele>
        <time>2021-09-16T08:57:44.000Z</time>
      </trkpt>
      <trkpt lat="47.3486" lon="-2.46493">
        <ele>28.39999961853</ele>
        <time>2021-09-16T08:57:47.000Z</time>
      </trkpt>
      <trkpt lat="47.3485" lon="-2.46508">
        <ele>28.39999961853</ele>
        <time>2021-09-16T09:08:54.000Z</time>
      </trkpt>
      <trkpt lat="47.34848" lon="-2.46513">
        <ele>28.39999961853</ele>
        <time>2021-09-16T09:08:57.000Z</time>
      </trkpt>
      <trkpt lat="47.34842" lon="-2.46533">
        <ele>28.39999961853</ele>
        <time>2021-09-16T09:09:04.000Z</time>
      </trkpt>
      <trkpt lat="47.34835" lon="-2.46552">
        <ele>28.799999237061</ele>
        <time>2021-09-16T09:09:09.000Z</time>
      </trkpt>
      <trkpt lat="47.34834" lon="-2.46556">
        <ele>29.39999961853</ele>
        <time>2021-09-16T09:09:10.000Z</time>
      </trkpt>
      <trkpt lat="47.34832" lon="-2.4656">
        <ele>29.799999237061</ele>
        <time>2021-09-16T09:09:11.000Z</time>
      </trkpt>
      <trkpt lat="47.3483" lon="-2.46564">
        <ele>30.200000762939</ele>
        <time>2021-09-16T09:09:12.000Z</time>
      </trkpt>
      <trkpt lat="47.34828" lon="-2.46569">
        <ele>30.60000038147</ele>
        <time>2021-09-16T09:09:13.000Z</time>
      </trkpt>
      <trkpt lat="47.34817" lon="-2.46587">
        <ele>30.60000038147</ele>
        <time>2021-09-16T09:09:17.000Z</time>
      </trkpt>
      <trkpt lat="47.34794" lon="-2.46623">
        <ele>30.60000038147</ele>
        <time>2021-09-16T09:09:25.000Z</time>
      </trkpt>
      <trkpt lat="47.34789" lon="-2.46633">
        <ele>30.60000038147</ele>
        <time>2021-09-16T09:09:27.000Z</time>
      </trkpt>
      <trkpt lat="47.34777" lon="-2.46652">
        <ele>30.60000038147</ele>
        <time>2021-09-16T09:09:31.000Z</time>
      </trkpt>
      <trkpt lat="47.34756" lon="-2.46684">
        <ele>30.60000038147</ele>
        <time>2021-09-16T09:09:38.000Z</time>
      </trkpt>
      <trkpt lat="47.34747" lon="-2.46698">
        <ele>31</ele>
        <time>2021-09-16T09:09:41.000Z</time>
      </trkpt>
      <trkpt lat="47.34744" lon="-2.46703">
        <ele>31.39999961853</ele>
        <time>2021-09-16T09:09:42.000Z</time>
      </trkpt>
      <trkpt lat="47.34741" lon="-2.46708">
        <ele>31.799999237061</ele>
        <time>2021-09-16T09:09:43.000Z</time>
      </trkpt>
      <trkpt lat="47.34737" lon="-2.46714">
        <ele>32.200000762939</ele>
        <time>2021-09-16T09:09:44.000Z</time>
      </trkpt>
      <trkpt lat="47.34734" lon="-2.46719">
        <ele>32.599998474121</ele>
        <time>2021-09-16T09:09:45.000Z</time>
      </trkpt>
      <trkpt lat="47.34713" lon="-2.46749">
        <ele>32.599998474121</ele>
        <time>2021-09-16T09:09:51.000Z</time>
      </trkpt>
      <trkpt lat="47.34697" lon="-2.46777">
        <ele>33</ele>
        <time>2021-09-16T09:09:56.000Z</time>
      </trkpt>
      <trkpt lat="47.34693" lon="-2.46782">
        <ele>33.400001525879</ele>
        <time>2021-09-16T09:09:57.000Z</time>
      </trkpt>
      <trkpt lat="47.3469" lon="-2.46788">
        <ele>33.799999237061</ele>
        <time>2021-09-16T09:09:58.000Z</time>
      </trkpt>
      <trkpt lat="47.34687" lon="-2.46794">
        <ele>34.200000762939</ele>
        <time>2021-09-16T09:09:59.000Z</time>
      </trkpt>
      <trkpt lat="47.34684" lon="-2.46799">
        <ele>34.799999237061</ele>
        <time>2021-09-16T09:10:00.000Z</time>
      </trkpt>
      <trkpt lat="47.34671" lon="-2.46822">
        <ele>34.799999237061</ele>
        <time>2021-09-16T09:10:04.000Z</time>
      </trkpt>
      <trkpt lat="47.34653" lon="-2.46852">
        <ele>34.799999237061</ele>
        <time>2021-09-16T09:10:09.000Z</time>
      </trkpt>
      <trkpt lat="47.34649" lon="-2.46857">
        <ele>34.799999237061</ele>
        <time>2021-09-16T09:10:10.000Z</time>
      </trkpt>
      <trkpt lat="47.34632" lon="-2.46879">
        <ele>34.799999237061</ele>
        <time>2021-09-16T09:10:14.000Z</time>
      </trkpt>
      <trkpt lat="47.34625" lon="-2.46891">
        <ele>34.799999237061</ele>
        <time>2021-09-16T09:10:16.000Z</time>
      </trkpt>
      <trkpt lat="47.34618" lon="-2.46904">
        <ele>34.799999237061</ele>
        <time>2021-09-16T09:10:18.000Z</time>
      </trkpt>
      <trkpt lat="47.34607" lon="-2.46919">
        <ele>34.799999237061</ele>
        <time>2021-09-16T09:10:21.000Z</time>
      </trkpt>
      <trkpt lat="47.34602" lon="-2.46924">
        <ele>34.799999237061</ele>
        <time>2021-09-16T09:10:22.000Z</time>
      </trkpt>
      <trkpt lat="47.34597" lon="-2.46927">
        <ele>34.799999237061</ele>
        <time>2021-09-16T09:10:23.000Z</time>
      </trkpt>
      <trkpt lat="47.34578" lon="-2.46944">
        <ele>34.799999237061</ele>
        <time>2021-09-16T09:10:27.000Z</time>
      </trkpt>
      <trkpt lat="47.34558" lon="-2.4696">
        <ele>34.799999237061</ele>
        <time>2021-09-16T09:10:31.000Z</time>
      </trkpt>
      <trkpt lat="47.34553" lon="-2.46963">
        <ele>34.799999237061</ele>
        <time>2021-09-16T09:10:32.000Z</time>
      </trkpt>
      <trkpt lat="47.34519" lon="-2.46983">
        <ele>34.799999237061</ele>
        <time>2021-09-16T09:10:38.000Z</time>
      </trkpt>
      <trkpt lat="47.34479" lon="-2.47006">
        <ele>34.799999237061</ele>
        <time>2021-09-16T09:10:45.000Z</time>
      </trkpt>
      <trkpt lat="47.3444" lon="-2.47029">
        <ele>34.799999237061</ele>
        <time>2021-09-16T09:10:52.000Z</time>
      </trkpt>
      <trkpt lat="47.34435" lon="-2.47033">
        <ele>34.799999237061</ele>
        <time>2021-09-16T09:10:53.000Z</time>
      </trkpt>
      <trkpt lat="47.34402" lon="-2.4705">
        <ele>34.799999237061</ele>
        <time>2021-09-16T09:10:59.000Z</time>
      </trkpt>
      <trkpt lat="47.34364" lon="-2.47072">
        <ele>34.799999237061</ele>
        <time>2021-09-16T09:11:06.000Z</time>
      </trkpt>
      <trkpt lat="47.34323" lon="-2.47102">
        <ele>34.799999237061</ele>
        <time>2021-09-16T09:11:14.000Z</time>
      </trkpt>
      <trkpt lat="47.34291" lon="-2.47124">
        <ele>34.799999237061</ele>
        <time>2021-09-16T09:11:20.000Z</time>
      </trkpt>
      <trkpt lat="47.34257" lon="-2.47149">
        <ele>34.799999237061</ele>
        <time>2021-09-16T09:11:26.000Z</time>
      </trkpt>
      <trkpt lat="47.34228" lon="-2.47169">
        <ele>34.799999237061</ele>
        <time>2021-09-16T09:11:31.000Z</time>
      </trkpt>
      <trkpt lat="47.34177" lon="-2.47197">
        <ele>34.799999237061</ele>
        <time>2021-09-16T09:11:39.000Z</time>
      </trkpt>
      <trkpt lat="47.34158" lon="-2.47207">
        <ele>34</ele>
        <time>2021-09-16T09:11:42.000Z</time>
      </trkpt>
      <trkpt lat="47.34152" lon="-2.47211">
        <ele>33.599998474121</ele>
        <time>2021-09-16T09:11:43.000Z</time>
      </trkpt>
      <trkpt lat="47.34146" lon="-2.47214">
        <ele>33</ele>
        <time>2021-09-16T09:11:44.000Z</time>
      </trkpt>
      <trkpt lat="47.34139" lon="-2.47217">
        <ele>32.599998474121</ele>
        <time>2021-09-16T09:11:45.000Z</time>
      </trkpt>
      <trkpt lat="47.34133" lon="-2.4722">
        <ele>32.599998474121</ele>
        <time>2021-09-16T09:11:46.000Z</time>
      </trkpt>
      <trkpt lat="47.34121" lon="-2.47226">
        <ele>32.599998474121</ele>
        <time>2021-09-16T09:11:48.000Z</time>
      </trkpt>
      <trkpt lat="47.34081" lon="-2.47249">
        <ele>32.200000762939</ele>
        <time>2021-09-16T09:11:55.000Z</time>
      </trkpt>
      <trkpt lat="47.34075" lon="-2.47252">
        <ele>31.799999237061</ele>
        <time>2021-09-16T09:11:56.000Z</time>
      </trkpt>
      <trkpt lat="47.34069" lon="-2.47255">
        <ele>31.39999961853</ele>
        <time>2021-09-16T09:11:57.000Z</time>
      </trkpt>
      <trkpt lat="47.34064" lon="-2.47259">
        <ele>31</ele>
        <time>2021-09-16T09:11:58.000Z</time>
      </trkpt>
      <trkpt lat="47.34058" lon="-2.47262">
        <ele>30.60000038147</ele>
        <time>2021-09-16T09:11:59.000Z</time>
      </trkpt>
      <trkpt lat="47.34042" lon="-2.47272">
        <ele>30.60000038147</ele>
        <time>2021-09-16T09:12:02.000Z</time>
      </trkpt>
      <trkpt lat="47.34033" lon="-2.47278">
        <ele>30.200000762939</ele>
        <time>2021-09-16T09:12:04.000Z</time>
      </trkpt>
      <trkpt lat="47.3403" lon="-2.47279">
        <ele>29.799999237061</ele>
        <time>2021-09-16T09:12:05.000Z</time>
      </trkpt>
      <trkpt lat="47.34027" lon="-2.47281">
        <ele>29.39999961853</ele>
        <time>2021-09-16T09:12:06.000Z</time>
      </trkpt>
      <trkpt lat="47.34026" lon="-2.47283">
        <ele>28.39999961853</ele>
        <time>2021-09-16T09:12:07.000Z</time>
      </trkpt>
      <trkpt lat="47.34026" lon="-2.47285">
        <ele>28.39999961853</ele>
        <time>2021-09-16T09:12:08.000Z</time>
      </trkpt>
      <trkpt lat="47.34026" lon="-2.47288">
        <ele>28.39999961853</ele>
        <time>2021-09-16T09:12:09.000Z</time>
      </trkpt>
      <trkpt lat="47.34032" lon="-2.473">
        <ele>28.39999961853</ele>
        <time>2021-09-16T09:12:12.000Z</time>
      </trkpt>
      <trkpt lat="47.34035" lon="-2.47305">
        <ele>28.39999961853</ele>
        <time>2021-09-16T09:12:13.000Z</time>
      </trkpt>
      <trkpt lat="47.34037" lon="-2.47311">
        <ele>28</ele>
        <time>2021-09-16T09:12:14.000Z</time>
      </trkpt>
      <trkpt lat="47.34039" lon="-2.47317">
        <ele>27.60000038147</ele>
        <time>2021-09-16T09:12:15.000Z</time>
      </trkpt>
      <trkpt lat="47.34042" lon="-2.47323">
        <ele>27.200000762939</ele>
        <time>2021-09-16T09:12:16.000Z</time>
      </trkpt>
      <trkpt lat="47.34045" lon="-2.47329">
        <ele>26.799999237061</ele>
        <time>2021-09-16T09:12:17.000Z</time>
      </trkpt>
      <trkpt lat="47.34047" lon="-2.47335">
        <ele>26.39999961853</ele>
        <time>2021-09-16T09:12:18.000Z</time>
      </trkpt>
      <trkpt lat="47.34067" lon="-2.4738">
        <ele>26.39999961853</ele>
        <time>2021-09-16T09:12:25.000Z</time>
      </trkpt>
      <trkpt lat="47.34077" lon="-2.47405">
        <ele>26.39999961853</ele>
        <time>2021-09-16T09:12:30.000Z</time>
      </trkpt>
      <trkpt lat="47.34077" lon="-2.47405">
        <ele>26.39999961853</ele>
        <time>2021-09-16T09:12:31.000Z</time>
      </trkpt>
      <trkpt lat="47.34075" lon="-2.47423">
        <ele>24.39999961853</ele>
        <time>2021-09-16T09:13:37.000Z</time>
      </trkpt>
      <trkpt lat="47.34071" lon="-2.47427">
        <ele>24.39999961853</ele>
        <time>2021-09-16T09:13:39.000Z</time>
      </trkpt>
      <trkpt lat="47.34058" lon="-2.47443">
        <ele>24.39999961853</ele>
        <time>2021-09-16T09:13:43.000Z</time>
      </trkpt>
      <trkpt lat="47.34041" lon="-2.47462">
        <ele>24.39999961853</ele>
        <time>2021-09-16T09:13:47.000Z</time>
      </trkpt>
      <trkpt lat="47.34031" lon="-2.47471">
        <ele>24.39999961853</ele>
        <time>2021-09-16T09:13:49.000Z</time>
      </trkpt>
      <trkpt lat="47.34016" lon="-2.47484">
        <ele>24.39999961853</ele>
        <time>2021-09-16T09:13:52.000Z</time>
      </trkpt>
      <trkpt lat="47.34006" lon="-2.47496">
        <ele>23.799999237061</ele>
        <time>2021-09-16T09:13:54.000Z</time>
      </trkpt>
      <trkpt lat="47.34001" lon="-2.47501">
        <ele>23.39999961853</ele>
        <time>2021-09-16T09:13:55.000Z</time>
      </trkpt>
      <trkpt lat="47.33995" lon="-2.47506">
        <ele>23</ele>
        <time>2021-09-16T09:13:56.000Z</time>
      </trkpt>
      <trkpt lat="47.3399" lon="-2.47511">
        <ele>22.60000038147</ele>
        <time>2021-09-16T09:13:57.000Z</time>
      </trkpt>
      <trkpt lat="47.33984" lon="-2.47515">
        <ele>22.200000762939</ele>
        <time>2021-09-16T09:13:58.000Z</time>
      </trkpt>
      <trkpt lat="47.33967" lon="-2.47533">
        <ele>21.60000038147</ele>
        <time>2021-09-16T09:14:01.000Z</time>
      </trkpt>
      <trkpt lat="47.33962" lon="-2.4754">
        <ele>21.200000762939</ele>
        <time>2021-09-16T09:14:02.000Z</time>
      </trkpt>
      <trkpt lat="47.33958" lon="-2.47548">
        <ele>20.799999237061</ele>
        <time>2021-09-16T09:14:03.000Z</time>
      </trkpt>
      <trkpt lat="47.33953" lon="-2.47556">
        <ele>20.39999961853</ele>
        <time>2021-09-16T09:14:04.000Z</time>
      </trkpt>
      <trkpt lat="47.33949" lon="-2.47564">
        <ele>19.799999237061</ele>
        <time>2021-09-16T09:14:05.000Z</time>
      </trkpt>
      <trkpt lat="47.33945" lon="-2.47573">
        <ele>19.39999961853</ele>
        <time>2021-09-16T09:14:06.000Z</time>
      </trkpt>
      <trkpt lat="47.33942" lon="-2.47583">
        <ele>19</ele>
        <time>2021-09-16T09:14:07.000Z</time>
      </trkpt>
      <trkpt lat="47.33939" lon="-2.47594">
        <ele>18.60000038147</ele>
        <time>2021-09-16T09:14:08.000Z</time>
      </trkpt>
      <trkpt lat="47.33936" lon="-2.47605">
        <ele>18</ele>
        <time>2021-09-16T09:14:09.000Z</time>
      </trkpt>
      <trkpt lat="47.33934" lon="-2.47616">
        <ele>17.60000038147</ele>
        <time>2021-09-16T09:14:10.000Z</time>
      </trkpt>
      <trkpt lat="47.33931" lon="-2.47627">
        <ele>17.60000038147</ele>
        <time>2021-09-16T09:14:11.000Z</time>
      </trkpt>
      <trkpt lat="47.33924" lon="-2.47646">
        <ele>17.200000762939</ele>
        <time>2021-09-16T09:14:13.000Z</time>
      </trkpt>
      <trkpt lat="47.33921" lon="-2.47656">
        <ele>16.799999237061</ele>
        <time>2021-09-16T09:14:14.000Z</time>
      </trkpt>
      <trkpt lat="47.33916" lon="-2.47665">
        <ele>16.39999961853</ele>
        <time>2021-09-16T09:14:15.000Z</time>
      </trkpt>
      <trkpt lat="47.33912" lon="-2.47675">
        <ele>16</ele>
        <time>2021-09-16T09:14:16.000Z</time>
      </trkpt>
      <trkpt lat="47.33906" lon="-2.47684">
        <ele>15.60000038147</ele>
        <time>2021-09-16T09:14:17.000Z</time>
      </trkpt>
      <trkpt lat="47.33892" lon="-2.47713">
        <ele>15</ele>
        <time>2021-09-16T09:14:20.000Z</time>
      </trkpt>
      <trkpt lat="47.33886" lon="-2.47723">
        <ele>14.60000038147</ele>
        <time>2021-09-16T09:14:21.000Z</time>
      </trkpt>
      <trkpt lat="47.33882" lon="-2.47732">
        <ele>14.199999809265</ele>
        <time>2021-09-16T09:14:22.000Z</time>
      </trkpt>
      <trkpt lat="47.33866" lon="-2.47759">
        <ele>13.39999961853</ele>
        <time>2021-09-16T09:14:23.000Z</time>
      </trkpt>
      <trkpt lat="47.33861" lon="-2.47766">
        <ele>13.39999961853</ele>
        <time>2021-09-16T09:14:26.000Z</time>
      </trkpt>
      <trkpt lat="47.33855" lon="-2.47773">
        <ele>13</ele>
        <time>2021-09-16T09:14:28.000Z</time>
      </trkpt>
      <trkpt lat="47.33852" lon="-2.47774">
        <ele>12.39999961853</ele>
        <time>2021-09-16T09:14:29.000Z</time>
      </trkpt>
      <trkpt lat="47.33848" lon="-2.47772">
        <ele>12</ele>
        <time>2021-09-16T09:14:30.000Z</time>
      </trkpt>
      <trkpt lat="47.33845" lon="-2.47769">
        <ele>11.60000038147</ele>
        <time>2021-09-16T09:14:31.000Z</time>
      </trkpt>
      <trkpt lat="47.33842" lon="-2.47765">
        <ele>11.199999809265</ele>
        <time>2021-09-16T09:14:32.000Z</time>
      </trkpt>
      <trkpt lat="47.33839" lon="-2.4776">
        <ele>11.199999809265</ele>
        <time>2021-09-16T09:14:33.000Z</time>
      </trkpt>
      <trkpt lat="47.3382" lon="-2.47736">
        <ele>11.199999809265</ele>
        <time>2021-09-16T09:14:38.000Z</time>
      </trkpt>
      <trkpt lat="47.33792" lon="-2.47702">
        <ele>11.199999809265</ele>
        <time>2021-09-16T09:14:45.000Z</time>
      </trkpt>
      <trkpt lat="47.33789" lon="-2.47697">
        <ele>11.199999809265</ele>
        <time>2021-09-16T09:14:46.000Z</time>
      </trkpt>
      <trkpt lat="47.3377" lon="-2.47671">
        <ele>11.60000038147</ele>
        <time>2021-09-16T09:14:51.000Z</time>
      </trkpt>
      <trkpt lat="47.33766" lon="-2.47666">
        <ele>12</ele>
        <time>2021-09-16T09:14:52.000Z</time>
      </trkpt>
      <trkpt lat="47.33763" lon="-2.47661">
        <ele>12.39999961853</ele>
        <time>2021-09-16T09:14:53.000Z</time>
      </trkpt>
      <trkpt lat="47.3376" lon="-2.47656">
        <ele>12.800000190735</ele>
        <time>2021-09-16T09:14:54.000Z</time>
      </trkpt>
      <trkpt lat="47.33757" lon="-2.4765">
        <ele>13.199999809265</ele>
        <time>2021-09-16T09:14:55.000Z</time>
      </trkpt>
      <trkpt lat="47.33749" lon="-2.47634">
        <ele>13.199999809265</ele>
        <time>2021-09-16T09:14:58.000Z</time>
      </trkpt>
      <trkpt lat="47.33736" lon="-2.47624">
        <ele>13.199999809265</ele>
        <time>2021-09-16T09:15:01.000Z</time>
      </trkpt>
      <trkpt lat="47.33732" lon="-2.47621">
        <ele>13.199999809265</ele>
        <time>2021-09-16T09:15:02.000Z</time>
      </trkpt>
      <trkpt lat="47.33712" lon="-2.47617">
        <ele>13.199999809265</ele>
        <time>2021-09-16T09:15:06.000Z</time>
      </trkpt>
      <trkpt lat="47.3368" lon="-2.47624">
        <ele>13.199999809265</ele>
        <time>2021-09-16T09:15:12.000Z</time>
      </trkpt>
      <trkpt lat="47.33653" lon="-2.47643">
        <ele>13.199999809265</ele>
        <time>2021-09-16T09:15:17.000Z</time>
      </trkpt>
      <trkpt lat="47.33613" lon="-2.47672">
        <ele>13.199999809265</ele>
        <time>2021-09-16T09:15:24.000Z</time>
      </trkpt>
      <trkpt lat="47.33608" lon="-2.47677">
        <ele>13.199999809265</ele>
        <time>2021-09-16T09:15:25.000Z</time>
      </trkpt>
      <trkpt lat="47.33587" lon="-2.47697">
        <ele>13.199999809265</ele>
        <time>2021-09-16T09:15:29.000Z</time>
      </trkpt>
      <trkpt lat="47.33576" lon="-2.47702">
        <ele>13.199999809265</ele>
        <time>2021-09-16T09:15:31.000Z</time>
      </trkpt>
      <trkpt lat="47.3356" lon="-2.47696">
        <ele>13.199999809265</ele>
        <time>2021-09-16T09:15:34.000Z</time>
      </trkpt>
      <trkpt lat="47.33555" lon="-2.47692">
        <ele>13.199999809265</ele>
        <time>2021-09-16T09:15:35.000Z</time>
      </trkpt>
      <trkpt lat="47.33551" lon="-2.47688">
        <ele>13.199999809265</ele>
        <time>2021-09-16T09:15:36.000Z</time>
      </trkpt>
      <trkpt lat="47.3354" lon="-2.4768">
        <ele>13.199999809265</ele>
        <time>2021-09-16T09:15:38.000Z</time>
      </trkpt>
      <trkpt lat="47.33534" lon="-2.47676">
        <ele>13.199999809265</ele>
        <time>2021-09-16T09:15:39.000Z</time>
      </trkpt>
      <trkpt lat="47.33528" lon="-2.47672">
        <ele>13.199999809265</ele>
        <time>2021-09-16T09:15:40.000Z</time>
      </trkpt>
      <trkpt lat="47.33513" lon="-2.47649">
        <ele>13.199999809265</ele>
        <time>2021-09-16T09:15:43.000Z</time>
      </trkpt>
      <trkpt lat="47.33507" lon="-2.47631">
        <ele>13.199999809265</ele>
        <time>2021-09-16T09:15:45.000Z</time>
      </trkpt>
      <trkpt lat="47.335" lon="-2.47616">
        <ele>13.199999809265</ele>
        <time>2021-09-16T09:15:47.000Z</time>
      </trkpt>
      <trkpt lat="47.33498" lon="-2.47612">
        <ele>13.199999809265</ele>
        <time>2021-09-16T09:15:48.000Z</time>
      </trkpt>
      <trkpt lat="47.33495" lon="-2.47608">
        <ele>12.800000190735</ele>
        <time>2021-09-16T09:15:50.000Z</time>
      </trkpt>
      <trkpt lat="47.33494" lon="-2.47607">
        <ele>12.39999961853</ele>
        <time>2021-09-16T09:15:51.000Z</time>
      </trkpt>
      <trkpt lat="47.33492" lon="-2.47606">
        <ele>12</ele>
        <time>2021-09-16T09:15:52.000Z</time>
      </trkpt>
      <trkpt lat="47.33492" lon="-2.47606">
        <ele>11.39999961853</ele>
        <time>2021-09-16T09:15:53.000Z</time>
      </trkpt>
      <trkpt lat="47.3349" lon="-2.47605">
        <ele>11</ele>
        <time>2021-09-16T09:15:54.000Z</time>
      </trkpt>
      <trkpt lat="47.33485" lon="-2.47602">
        <ele>11</ele>
        <time>2021-09-16T09:15:58.000Z</time>
      </trkpt>
      <trkpt lat="47.33484" lon="-2.47601">
        <ele>11</ele>
        <time>2021-09-16T09:15:59.000Z</time>
      </trkpt>
      <trkpt lat="47.33474" lon="-2.47589">
        <ele>11</ele>
        <time>2021-09-16T09:16:05.000Z</time>
      </trkpt>
      <trkpt lat="47.3346" lon="-2.47561">
        <ele>11</ele>
        <time>2021-09-16T09:16:12.000Z</time>
      </trkpt>
      <trkpt lat="47.33443" lon="-2.47524">
        <ele>11</ele>
        <time>2021-09-16T09:16:19.000Z</time>
      </trkpt>
      <trkpt lat="47.33424" lon="-2.47477">
        <ele>11.60000038147</ele>
        <time>2021-09-16T09:16:27.000Z</time>
      </trkpt>
      <trkpt lat="47.33422" lon="-2.4747">
        <ele>12</ele>
        <time>2021-09-16T09:16:28.000Z</time>
      </trkpt>
      <trkpt lat="47.3342" lon="-2.47464">
        <ele>12.39999961853</ele>
        <time>2021-09-16T09:16:29.000Z</time>
      </trkpt>
      <trkpt lat="47.33417" lon="-2.47458">
        <ele>12.800000190735</ele>
        <time>2021-09-16T09:16:30.000Z</time>
      </trkpt>
      <trkpt lat="47.33416" lon="-2.47451">
        <ele>13.39999961853</ele>
        <time>2021-09-16T09:16:31.000Z</time>
      </trkpt>
      <trkpt lat="47.33414" lon="-2.47444">
        <ele>13.39999961853</ele>
        <time>2021-09-16T09:16:32.000Z</time>
      </trkpt>
      <trkpt lat="47.33412" lon="-2.4743">
        <ele>13.39999961853</ele>
        <time>2021-09-16T09:16:34.000Z</time>
      </trkpt>
      <trkpt lat="47.33397" lon="-2.47368">
        <ele>13.39999961853</ele>
        <time>2021-09-16T09:16:43.000Z</time>
      </trkpt>
      <trkpt lat="47.33388" lon="-2.47333">
        <ele>13.39999961853</ele>
        <time>2021-09-16T09:16:48.000Z</time>
      </trkpt>
      <trkpt lat="47.33387" lon="-2.47326">
        <ele>13.39999961853</ele>
        <time>2021-09-16T09:16:49.000Z</time>
      </trkpt>
      <trkpt lat="47.33382" lon="-2.47273">
        <ele>13.39999961853</ele>
        <time>2021-09-16T09:16:55.000Z</time>
      </trkpt>
      <trkpt lat="47.33375" lon="-2.47221">
        <ele>13.39999961853</ele>
        <time>2021-09-16T09:17:01.000Z</time>
      </trkpt>
      <trkpt lat="47.33367" lon="-2.47165">
        <ele>13.39999961853</ele>
        <time>2021-09-16T09:17:08.000Z</time>
      </trkpt>
      <trkpt lat="47.33368" lon="-2.47158">
        <ele>13.39999961853</ele>
        <time>2021-09-16T09:17:09.000Z</time>
      </trkpt>
      <trkpt lat="47.3337" lon="-2.47151">
        <ele>13</ele>
        <time>2021-09-16T09:17:10.000Z</time>
      </trkpt>
      <trkpt lat="47.33373" lon="-2.47146">
        <ele>12.39999961853</ele>
        <time>2021-09-16T09:17:11.000Z</time>
      </trkpt>
      <trkpt lat="47.33376" lon="-2.47141">
        <ele>12</ele>
        <time>2021-09-16T09:17:12.000Z</time>
      </trkpt>
      <trkpt lat="47.3338" lon="-2.47136">
        <ele>11.60000038147</ele>
        <time>2021-09-16T09:17:13.000Z</time>
      </trkpt>
      <trkpt lat="47.33382" lon="-2.47131">
        <ele>11.199999809265</ele>
        <time>2021-09-16T09:17:14.000Z</time>
      </trkpt>
      <trkpt lat="47.33387" lon="-2.47119">
        <ele>11.199999809265</ele>
        <time>2021-09-16T09:17:16.000Z</time>
      </trkpt>
      <trkpt lat="47.33391" lon="-2.47098">
        <ele>11.199999809265</ele>
        <time>2021-09-16T09:17:19.000Z</time>
      </trkpt>
      <trkpt lat="47.33393" lon="-2.47084">
        <ele>11.199999809265</ele>
        <time>2021-09-16T09:17:21.000Z</time>
      </trkpt>
      <trkpt lat="47.33396" lon="-2.47071">
        <ele>11.199999809265</ele>
        <time>2021-09-16T09:17:23.000Z</time>
      </trkpt>
      <trkpt lat="47.33405" lon="-2.47046">
        <ele>11.199999809265</ele>
        <time>2021-09-16T09:17:27.000Z</time>
      </trkpt>
      <trkpt lat="47.33423" lon="-2.47009">
        <ele>11.199999809265</ele>
        <time>2021-09-16T09:17:34.000Z</time>
      </trkpt>
      <trkpt lat="47.33433" lon="-2.46995">
        <ele>11.60000038147</ele>
        <time>2021-09-16T09:17:37.000Z</time>
      </trkpt>
      <trkpt lat="47.33437" lon="-2.4699">
        <ele>12</ele>
        <time>2021-09-16T09:17:38.000Z</time>
      </trkpt>
      <trkpt lat="47.3344" lon="-2.46986">
        <ele>12.39999961853</ele>
        <time>2021-09-16T09:17:39.000Z</time>
      </trkpt>
      <trkpt lat="47.33444" lon="-2.46981">
        <ele>12.800000190735</ele>
        <time>2021-09-16T09:17:40.000Z</time>
      </trkpt>
      <trkpt lat="47.33447" lon="-2.46977">
        <ele>13.39999961853</ele>
        <time>2021-09-16T09:17:41.000Z</time>
      </trkpt>
      <trkpt lat="47.33467" lon="-2.46945">
        <ele>13.39999961853</ele>
        <time>2021-09-16T09:17:48.000Z</time>
      </trkpt>
      <trkpt lat="47.33478" lon="-2.46929">
        <ele>13.39999961853</ele>
        <time>2021-09-16T09:17:52.000Z</time>
      </trkpt>
      <trkpt lat="47.33488" lon="-2.46919">
        <ele>13.39999961853</ele>
        <time>2021-09-16T09:17:55.000Z</time>
      </trkpt>
      <trkpt lat="47.33499" lon="-2.46912">
        <ele>13.800000190735</ele>
        <time>2021-09-16T09:17:58.000Z</time>
      </trkpt>
      <trkpt lat="47.33503" lon="-2.46908">
        <ele>14.199999809265</ele>
        <time>2021-09-16T09:17:59.000Z</time>
      </trkpt>
      <trkpt lat="47.33506" lon="-2.46904">
        <ele>14.60000038147</ele>
        <time>2021-09-16T09:18:00.000Z</time>
      </trkpt>
      <trkpt lat="47.33509" lon="-2.46901">
        <ele>15</ele>
        <time>2021-09-16T09:18:01.000Z</time>
      </trkpt>
      <trkpt lat="47.33512" lon="-2.46898">
        <ele>15.60000038147</ele>
        <time>2021-09-16T09:18:02.000Z</time>
      </trkpt>
      <trkpt lat="47.33515" lon="-2.46894">
        <ele>15.60000038147</ele>
        <time>2021-09-16T09:18:03.000Z</time>
      </trkpt>
      <trkpt lat="47.33527" lon="-2.46881">
        <ele>15.60000038147</ele>
        <time>2021-09-16T09:18:07.000Z</time>
      </trkpt>
      <trkpt lat="47.33533" lon="-2.46869">
        <ele>16</ele>
        <time>2021-09-16T09:18:10.000Z</time>
      </trkpt>
      <trkpt lat="47.33533" lon="-2.46864">
        <ele>16.39999961853</ele>
        <time>2021-09-16T09:18:11.000Z</time>
      </trkpt>
      <trkpt lat="47.33533" lon="-2.46858">
        <ele>16.799999237061</ele>
        <time>2021-09-16T09:18:12.000Z</time>
      </trkpt>
      <trkpt lat="47.33533" lon="-2.46853">
        <ele>17.200000762939</ele>
        <time>2021-09-16T09:18:13.000Z</time>
      </trkpt>
      <trkpt lat="47.33532" lon="-2.46849">
        <ele>17.60000038147</ele>
        <time>2021-09-16T09:18:14.000Z</time>
      </trkpt>
      <trkpt lat="47.33533" lon="-2.4684">
        <ele>18</ele>
        <time>2021-09-16T09:18:16.000Z</time>
      </trkpt>
      <trkpt lat="47.33535" lon="-2.46836">
        <ele>18.60000038147</ele>
        <time>2021-09-16T09:18:17.000Z</time>
      </trkpt>
      <trkpt lat="47.33537" lon="-2.46833">
        <ele>19</ele>
        <time>2021-09-16T09:18:18.000Z</time>
      </trkpt>
      <trkpt lat="47.33539" lon="-2.46829">
        <ele>19.799999237061</ele>
        <time>2021-09-16T09:18:19.000Z</time>
      </trkpt>
      <trkpt lat="47.33544" lon="-2.46823">
        <ele>19.799999237061</ele>
        <time>2021-09-16T09:18:21.000Z</time>
      </trkpt>
      <trkpt lat="47.33563" lon="-2.46804">
        <ele>20.39999961853</ele>
        <time>2021-09-16T09:18:28.000Z</time>
      </trkpt>
      <trkpt lat="47.33565" lon="-2.46802">
        <ele>20.799999237061</ele>
        <time>2021-09-16T09:18:29.000Z</time>
      </trkpt>
      <trkpt lat="47.33567" lon="-2.468">
        <ele>21.200000762939</ele>
        <time>2021-09-16T09:18:30.000Z</time>
      </trkpt>
      <trkpt lat="47.33569" lon="-2.46798">
        <ele>21.60000038147</ele>
        <time>2021-09-16T09:18:31.000Z</time>
      </trkpt>
      <trkpt lat="47.33571" lon="-2.46796">
        <ele>22</ele>
        <time>2021-09-16T09:18:32.000Z</time>
      </trkpt>
      <trkpt lat="47.33578" lon="-2.46789">
        <ele>22</ele>
        <time>2021-09-16T09:18:35.000Z</time>
      </trkpt>
      <trkpt lat="47.33583" lon="-2.46784">
        <ele>22.39999961853</ele>
        <time>2021-09-16T09:18:37.000Z</time>
      </trkpt>
      <trkpt lat="47.33585" lon="-2.46781">
        <ele>23</ele>
        <time>2021-09-16T09:18:38.000Z</time>
      </trkpt>
      <trkpt lat="47.33587" lon="-2.46778">
        <ele>23.39999961853</ele>
        <time>2021-09-16T09:18:39.000Z</time>
      </trkpt>
      <trkpt lat="47.3359" lon="-2.46775">
        <ele>23.799999237061</ele>
        <time>2021-09-16T09:18:40.000Z</time>
      </trkpt>
      <trkpt lat="47.33592" lon="-2.46773">
        <ele>24.200000762939</ele>
        <time>2021-09-16T09:18:41.000Z</time>
      </trkpt>
      <trkpt lat="47.336" lon="-2.46764">
        <ele>25.200000762939</ele>
        <time>2021-09-16T09:18:44.000Z</time>
      </trkpt>
      <trkpt lat="47.33602" lon="-2.46761">
        <ele>25.60000038147</ele>
        <time>2021-09-16T09:18:45.000Z</time>
      </trkpt>
      <trkpt lat="47.33605" lon="-2.46759">
        <ele>26</ele>
        <time>2021-09-16T09:18:46.000Z</time>
      </trkpt>
      <trkpt lat="47.33607" lon="-2.46756">
        <ele>26.39999961853</ele>
        <time>2021-09-16T09:18:47.000Z</time>
      </trkpt>
      <trkpt lat="47.33612" lon="-2.46751">
        <ele>26.39999961853</ele>
        <time>2021-09-16T09:18:49.000Z</time>
      </trkpt>
      <trkpt lat="47.33617" lon="-2.46741">
        <ele>26.799999237061</ele>
        <time>2021-09-16T09:18:52.000Z</time>
      </trkpt>
      <trkpt lat="47.33617" lon="-2.46737">
        <ele>27.200000762939</ele>
        <time>2021-09-16T09:18:53.000Z</time>
      </trkpt>
      <trkpt lat="47.33617" lon="-2.46733">
        <ele>27.60000038147</ele>
        <time>2021-09-16T09:18:54.000Z</time>
      </trkpt>
      <trkpt lat="47.33616" lon="-2.46728">
        <ele>28.200000762939</ele>
        <time>2021-09-16T09:18:55.000Z</time>
      </trkpt>
      <trkpt lat="47.33615" lon="-2.46723">
        <ele>28.60000038147</ele>
        <time>2021-09-16T09:18:56.000Z</time>
      </trkpt>
      <trkpt lat="47.33611" lon="-2.46708">
        <ele>28.60000038147</ele>
        <time>2021-09-16T09:18:59.000Z</time>
      </trkpt>
      <trkpt lat="47.33607" lon="-2.46698">
        <ele>28.60000038147</ele>
        <time>2021-09-16T09:19:01.000Z</time>
      </trkpt>
      <trkpt lat="47.336" lon="-2.46681">
        <ele>28.60000038147</ele>
        <time>2021-09-16T09:19:04.000Z</time>
      </trkpt>
      <trkpt lat="47.33582" lon="-2.46636">
        <ele>28.60000038147</ele>
        <time>2021-09-16T09:19:12.000Z</time>
      </trkpt>
      <trkpt lat="47.33569" lon="-2.46598">
        <ele>28.60000038147</ele>
        <time>2021-09-16T09:19:19.000Z</time>
      </trkpt>
      <trkpt lat="47.33555" lon="-2.46579">
        <ele>28.60000038147</ele>
        <time>2021-09-16T09:19:24.000Z</time>
      </trkpt>
      <trkpt lat="47.33551" lon="-2.46561">
        <ele>28.60000038147</ele>
        <time>2021-09-16T09:19:28.000Z</time>
      </trkpt>
      <trkpt lat="47.33548" lon="-2.46545">
        <ele>28.60000038147</ele>
        <time>2021-09-16T09:19:32.000Z</time>
      </trkpt>
      <trkpt lat="47.33547" lon="-2.4654">
        <ele>28.60000038147</ele>
        <time>2021-09-16T09:19:33.000Z</time>
      </trkpt>
      <trkpt lat="47.33542" lon="-2.4651">
        <ele>28.60000038147</ele>
        <time>2021-09-16T09:19:38.000Z</time>
      </trkpt>
      <trkpt lat="47.3354" lon="-2.46489">
        <ele>29</ele>
        <time>2021-09-16T09:19:42.000Z</time>
      </trkpt>
      <trkpt lat="47.33539" lon="-2.46488">
        <ele>29.39999961853</ele>
        <time>2021-09-16T09:19:43.000Z</time>
      </trkpt>
      <trkpt lat="47.33537" lon="-2.46488">
        <ele>29.799999237061</ele>
        <time>2021-09-16T09:19:44.000Z</time>
      </trkpt>
      <trkpt lat="47.33536" lon="-2.46488">
        <ele>30.39999961853</ele>
        <time>2021-09-16T09:19:45.000Z</time>
      </trkpt>
      <trkpt lat="47.33536" lon="-2.46488">
        <ele>30.799999237061</ele>
        <time>2021-09-16T09:19:46.000Z</time>
      </trkpt>
      <trkpt lat="47.33534" lon="-2.46487">
        <ele>30.799999237061</ele>
        <time>2021-09-16T09:19:56.000Z</time>
      </trkpt>
      <trkpt lat="47.33526" lon="-2.46481">
        <ele>30.799999237061</ele>
        <time>2021-09-16T09:20:01.000Z</time>
      </trkpt>
      <trkpt lat="47.33524" lon="-2.4648">
        <ele>30.799999237061</ele>
        <time>2021-09-16T09:20:02.000Z</time>
      </trkpt>
      <trkpt lat="47.33522" lon="-2.46484">
        <ele>30.799999237061</ele>
        <time>2021-09-16T09:20:05.000Z</time>
      </trkpt>
      <trkpt lat="47.33519" lon="-2.46487">
        <ele>30.799999237061</ele>
        <time>2021-09-16T09:20:08.000Z</time>
      </trkpt>
      <trkpt lat="47.33514" lon="-2.46493">
        <ele>30.799999237061</ele>
        <time>2021-09-16T09:20:11.000Z</time>
      </trkpt>
      <trkpt lat="47.33511" lon="-2.46496">
        <ele>30.799999237061</ele>
        <time>2021-09-16T09:20:12.000Z</time>
      </trkpt>
      <trkpt lat="47.33492" lon="-2.46517">
        <ele>30.799999237061</ele>
        <time>2021-09-16T09:20:17.000Z</time>
      </trkpt>
      <trkpt lat="47.33469" lon="-2.46544">
        <ele>30.39999961853</ele>
        <time>2021-09-16T09:20:23.000Z</time>
      </trkpt>
      <trkpt lat="47.33465" lon="-2.46549">
        <ele>29.799999237061</ele>
        <time>2021-09-16T09:20:24.000Z</time>
      </trkpt>
      <trkpt lat="47.3346" lon="-2.46555">
        <ele>29.39999961853</ele>
        <time>2021-09-16T09:20:25.000Z</time>
      </trkpt>
      <trkpt lat="47.33455" lon="-2.4656">
        <ele>29</ele>
        <time>2021-09-16T09:20:26.000Z</time>
      </trkpt>
      <trkpt lat="47.3345" lon="-2.46565">
        <ele>28.60000038147</ele>
        <time>2021-09-16T09:20:27.000Z</time>
      </trkpt>
      <trkpt lat="47.33445" lon="-2.4657">
        <ele>28.200000762939</ele>
        <time>2021-09-16T09:20:28.000Z</time>
      </trkpt>
      <trkpt lat="47.33439" lon="-2.46575">
        <ele>27.799999237061</ele>
        <time>2021-09-16T09:20:29.000Z</time>
      </trkpt>
      <trkpt lat="47.33434" lon="-2.46578">
        <ele>27.39999961853</ele>
        <time>2021-09-16T09:20:30.000Z</time>
      </trkpt>
      <trkpt lat="47.33428" lon="-2.46582">
        <ele>27</ele>
        <time>2021-09-16T09:20:31.000Z</time>
      </trkpt>
      <trkpt lat="47.33423" lon="-2.46585">
        <ele>26.60000038147</ele>
        <time>2021-09-16T09:20:32.000Z</time>
      </trkpt>
      <trkpt lat="47.33418" lon="-2.46589">
        <ele>26</ele>
        <time>2021-09-16T09:20:33.000Z</time>
      </trkpt>
      <trkpt lat="47.33414" lon="-2.46593">
        <ele>25.60000038147</ele>
        <time>2021-09-16T09:20:34.000Z</time>
      </trkpt>
      <trkpt lat="47.33409" lon="-2.46597">
        <ele>25</ele>
        <time>2021-09-16T09:20:35.000Z</time>
      </trkpt>
      <trkpt lat="47.33404" lon="-2.46602">
        <ele>24.60000038147</ele>
        <time>2021-09-16T09:20:36.000Z</time>
      </trkpt>
      <trkpt lat="47.33399" lon="-2.46607">
        <ele>24.200000762939</ele>
        <time>2021-09-16T09:20:37.000Z</time>
      </trkpt>
      <trkpt lat="47.3339" lon="-2.46617">
        <ele>23.60000038147</ele>
        <time>2021-09-16T09:20:39.000Z</time>
      </trkpt>
      <trkpt lat="47.33385" lon="-2.46623">
        <ele>23.200000762939</ele>
        <time>2021-09-16T09:20:40.000Z</time>
      </trkpt>
      <trkpt lat="47.3338" lon="-2.46629">
        <ele>22.799999237061</ele>
        <time>2021-09-16T09:20:41.000Z</time>
      </trkpt>
      <trkpt lat="47.33375" lon="-2.46635">
        <ele>22.39999961853</ele>
        <time>2021-09-16T09:20:42.000Z</time>
      </trkpt>
      <trkpt lat="47.33371" lon="-2.46639">
        <ele>22</ele>
        <time>2021-09-16T09:20:43.000Z</time>
      </trkpt>
      <trkpt lat="47.33359" lon="-2.46644">
        <ele>21.60000038147</ele>
        <time>2021-09-16T09:20:45.000Z</time>
      </trkpt>
      <trkpt lat="47.33354" lon="-2.46647">
        <ele>21.200000762939</ele>
        <time>2021-09-16T09:20:46.000Z</time>
      </trkpt>
      <trkpt lat="47.33348" lon="-2.46649">
        <ele>20.200000762939</ele>
        <time>2021-09-16T09:20:47.000Z</time>
      </trkpt>
      <trkpt lat="47.33343" lon="-2.46651">
        <ele>19.799999237061</ele>
        <time>2021-09-16T09:20:48.000Z</time>
      </trkpt>
      <trkpt lat="47.33331" lon="-2.46654">
        <ele>19.799999237061</ele>
        <time>2021-09-16T09:20:51.000Z</time>
      </trkpt>
      <trkpt lat="47.33328" lon="-2.46649">
        <ele>19.799999237061</ele>
        <time>2021-09-16T09:20:53.000Z</time>
      </trkpt>
      <trkpt lat="47.33328" lon="-2.46645">
        <ele>19.39999961853</ele>
        <time>2021-09-16T09:20:54.000Z</time>
      </trkpt>
      <trkpt lat="47.33328" lon="-2.4664">
        <ele>19</ele>
        <time>2021-09-16T09:20:55.000Z</time>
      </trkpt>
      <trkpt lat="47.33328" lon="-2.46634">
        <ele>18.60000038147</ele>
        <time>2021-09-16T09:20:56.000Z</time>
      </trkpt>
      <trkpt lat="47.33326" lon="-2.46627">
        <ele>18.200000762939</ele>
        <time>2021-09-16T09:20:57.000Z</time>
      </trkpt>
      <trkpt lat="47.33324" lon="-2.46621">
        <ele>17.799999237061</ele>
        <time>2021-09-16T09:20:58.000Z</time>
      </trkpt>
      <trkpt lat="47.33314" lon="-2.46608">
        <ele>17.799999237061</ele>
        <time>2021-09-16T09:21:01.000Z</time>
      </trkpt>
      <trkpt lat="47.3331" lon="-2.46604">
        <ele>17.799999237061</ele>
        <time>2021-09-16T09:21:02.000Z</time>
      </trkpt>
      <trkpt lat="47.33306" lon="-2.46598">
        <ele>17.799999237061</ele>
        <time>2021-09-16T09:21:03.000Z</time>
      </trkpt>
      <trkpt lat="47.33299" lon="-2.46585">
        <ele>17.799999237061</ele>
        <time>2021-09-16T09:21:05.000Z</time>
      </trkpt>
      <trkpt lat="47.33295" lon="-2.46569">
        <ele>17.799999237061</ele>
        <time>2021-09-16T09:21:07.000Z</time>
      </trkpt>
      <trkpt lat="47.33293" lon="-2.46561">
        <ele>18.200000762939</ele>
        <time>2021-09-16T09:21:08.000Z</time>
      </trkpt>
      <trkpt lat="47.33291" lon="-2.46553">
        <ele>18.60000038147</ele>
        <time>2021-09-16T09:21:09.000Z</time>
      </trkpt>
      <trkpt lat="47.3329" lon="-2.46544">
        <ele>19.39999961853</ele>
        <time>2021-09-16T09:21:10.000Z</time>
      </trkpt>
      <trkpt lat="47.3329" lon="-2.46536">
        <ele>19.799999237061</ele>
        <time>2021-09-16T09:21:11.000Z</time>
      </trkpt>
      <trkpt lat="47.33289" lon="-2.46528">
        <ele>19.799999237061</ele>
        <time>2021-09-16T09:21:12.000Z</time>
      </trkpt>
      <trkpt lat="47.33284" lon="-2.46485">
        <ele>19.799999237061</ele>
        <time>2021-09-16T09:21:18.000Z</time>
      </trkpt>
      <trkpt lat="47.33282" lon="-2.46466">
        <ele>20.200000762939</ele>
        <time>2021-09-16T09:21:21.000Z</time>
      </trkpt>
      <trkpt lat="47.33282" lon="-2.4646">
        <ele>20.799999237061</ele>
        <time>2021-09-16T09:21:22.000Z</time>
      </trkpt>
      <trkpt lat="47.33281" lon="-2.46453">
        <ele>21.200000762939</ele>
        <time>2021-09-16T09:21:23.000Z</time>
      </trkpt>
      <trkpt lat="47.33279" lon="-2.46448">
        <ele>21.60000038147</ele>
        <time>2021-09-16T09:21:24.000Z</time>
      </trkpt>
      <trkpt lat="47.33277" lon="-2.46443">
        <ele>22.200000762939</ele>
        <time>2021-09-16T09:21:25.000Z</time>
      </trkpt>
      <trkpt lat="47.33272" lon="-2.46434">
        <ele>22.200000762939</ele>
        <time>2021-09-16T09:21:27.000Z</time>
      </trkpt>
      <trkpt lat="47.33257" lon="-2.46427">
        <ele>22.200000762939</ele>
        <time>2021-09-16T09:21:31.000Z</time>
      </trkpt>
      <trkpt lat="47.33237" lon="-2.46439">
        <ele>22.200000762939</ele>
        <time>2021-09-16T09:21:35.000Z</time>
      </trkpt>
      <trkpt lat="47.33225" lon="-2.46461">
        <ele>21.799999237061</ele>
        <time>2021-09-16T09:21:38.000Z</time>
      </trkpt>
      <trkpt lat="47.33221" lon="-2.46467">
        <ele>21.200000762939</ele>
        <time>2021-09-16T09:21:39.000Z</time>
      </trkpt>
      <trkpt lat="47.33217" lon="-2.4647">
        <ele>20.799999237061</ele>
        <time>2021-09-16T09:21:40.000Z</time>
      </trkpt>
      <trkpt lat="47.33213" lon="-2.46471">
        <ele>20.39999961853</ele>
        <time>2021-09-16T09:21:41.000Z</time>
      </trkpt>
      <trkpt lat="47.33209" lon="-2.46472">
        <ele>20</ele>
        <time>2021-09-16T09:21:42.000Z</time>
      </trkpt>
      <trkpt lat="47.33205" lon="-2.46473">
        <ele>20</ele>
        <time>2021-09-16T09:21:43.000Z</time>
      </trkpt>
      <trkpt lat="47.332" lon="-2.46473">
        <ele>19.60000038147</ele>
        <time>2021-09-16T09:21:44.000Z</time>
      </trkpt>
      <trkpt lat="47.33195" lon="-2.46474">
        <ele>19</ele>
        <time>2021-09-16T09:21:45.000Z</time>
      </trkpt>
      <trkpt lat="47.3319" lon="-2.46476">
        <ele>18.60000038147</ele>
        <time>2021-09-16T09:21:46.000Z</time>
      </trkpt>
      <trkpt lat="47.33184" lon="-2.46477">
        <ele>18.200000762939</ele>
        <time>2021-09-16T09:21:47.000Z</time>
      </trkpt>
      <trkpt lat="47.33179" lon="-2.46481">
        <ele>17.60000038147</ele>
        <time>2021-09-16T09:21:48.000Z</time>
      </trkpt>
      <trkpt lat="47.33172" lon="-2.46484">
        <ele>17.200000762939</ele>
        <time>2021-09-16T09:21:49.000Z</time>
      </trkpt>
      <trkpt lat="47.33167" lon="-2.46487">
        <ele>16.799999237061</ele>
        <time>2021-09-16T09:21:50.000Z</time>
      </trkpt>
      <trkpt lat="47.33161" lon="-2.46489">
        <ele>16.39999961853</ele>
        <time>2021-09-16T09:21:51.000Z</time>
      </trkpt>
      <trkpt lat="47.33155" lon="-2.46492">
        <ele>16</ele>
        <time>2021-09-16T09:21:52.000Z</time>
      </trkpt>
      <trkpt lat="47.33149" lon="-2.46494">
        <ele>15.60000038147</ele>
        <time>2021-09-16T09:21:53.000Z</time>
      </trkpt>
      <trkpt lat="47.33143" lon="-2.46495">
        <ele>15.199999809265</ele>
        <time>2021-09-16T09:21:54.000Z</time>
      </trkpt>
      <trkpt lat="47.33137" lon="-2.46496">
        <ele>14.60000038147</ele>
        <time>2021-09-16T09:21:55.000Z</time>
      </trkpt>
      <trkpt lat="47.33131" lon="-2.46497">
        <ele>14.199999809265</ele>
        <time>2021-09-16T09:21:56.000Z</time>
      </trkpt>
      <trkpt lat="47.33125" lon="-2.46498">
        <ele>13.60000038147</ele>
        <time>2021-09-16T09:21:57.000Z</time>
      </trkpt>
      <trkpt lat="47.33118" lon="-2.465">
        <ele>13.199999809265</ele>
        <time>2021-09-16T09:21:58.000Z</time>
      </trkpt>
      <trkpt lat="47.3311" lon="-2.46503">
        <ele>12.800000190735</ele>
        <time>2021-09-16T09:22:00.000Z</time>
      </trkpt>
      <trkpt lat="47.33107" lon="-2.46505">
        <ele>12.39999961853</ele>
        <time>2021-09-16T09:22:01.000Z</time>
      </trkpt>
      <trkpt lat="47.33103" lon="-2.46507">
        <ele>12</ele>
        <time>2021-09-16T09:22:02.000Z</time>
      </trkpt>
      <trkpt lat="47.33099" lon="-2.4651">
        <ele>11.60000038147</ele>
        <time>2021-09-16T09:22:03.000Z</time>
      </trkpt>
      <trkpt lat="47.33094" lon="-2.46513">
        <ele>11</ele>
        <time>2021-09-16T09:22:04.000Z</time>
      </trkpt>
      <trkpt lat="47.33083" lon="-2.46518">
        <ele>10.60000038147</ele>
        <time>2021-09-16T09:22:06.000Z</time>
      </trkpt>
      <trkpt lat="47.33076" lon="-2.46522">
        <ele>10.199999809265</ele>
        <time>2021-09-16T09:22:07.000Z</time>
      </trkpt>
      <trkpt lat="47.3307" lon="-2.46525">
        <ele>9.8000001907349</ele>
        <time>2021-09-16T09:22:08.000Z</time>
      </trkpt>
      <trkpt lat="47.33063" lon="-2.46528">
        <ele>9.1999998092651</ele>
        <time>2021-09-16T09:22:09.000Z</time>
      </trkpt>
      <trkpt lat="47.33055" lon="-2.46531">
        <ele>8.8000001907349</ele>
        <time>2021-09-16T09:22:10.000Z</time>
      </trkpt>
      <trkpt lat="47.33047" lon="-2.46534">
        <ele>8.8000001907349</ele>
        <time>2021-09-16T09:22:11.000Z</time>
      </trkpt>
      <trkpt lat="47.33031" lon="-2.46538">
        <ele>8.3999996185303</ele>
        <time>2021-09-16T09:22:13.000Z</time>
      </trkpt>
      <trkpt lat="47.33024" lon="-2.46537">
        <ele>8</ele>
        <time>2021-09-16T09:22:14.000Z</time>
      </trkpt>
      <trkpt lat="47.33017" lon="-2.46538">
        <ele>7.5999999046326</ele>
        <time>2021-09-16T09:22:15.000Z</time>
      </trkpt>
      <trkpt lat="47.3301" lon="-2.4654">
        <ele>7.1999998092651</ele>
        <time>2021-09-16T09:22:16.000Z</time>
      </trkpt>
      <trkpt lat="47.33002" lon="-2.46543">
        <ele>6.5999999046326</ele>
        <time>2021-09-16T09:22:17.000Z</time>
      </trkpt>
      <trkpt lat="47.32995" lon="-2.46547">
        <ele>6.1999998092651</ele>
        <time>2021-09-16T09:22:18.000Z</time>
      </trkpt>
      <trkpt lat="47.32987" lon="-2.46551">
        <ele>5.8000001907349</ele>
        <time>2021-09-16T09:22:19.000Z</time>
      </trkpt>
      <trkpt lat="47.3298" lon="-2.46555">
        <ele>5.4000000953674</ele>
        <time>2021-09-16T09:22:20.000Z</time>
      </trkpt>
      <trkpt lat="47.32974" lon="-2.46558">
        <ele>5</ele>
        <time>2021-09-16T09:22:21.000Z</time>
      </trkpt>
      <trkpt lat="47.32968" lon="-2.46561">
        <ele>4.4000000953674</ele>
        <time>2021-09-16T09:22:22.000Z</time>
      </trkpt>
      <trkpt lat="47.32962" lon="-2.46563">
        <ele>3.7999999523163</ele>
        <time>2021-09-16T09:22:23.000Z</time>
      </trkpt>
      <trkpt lat="47.32958" lon="-2.46563">
        <ele>2.5999999046326</ele>
        <time>2021-09-16T09:22:24.000Z</time>
      </trkpt>
      <trkpt lat="47.32956" lon="-2.46562">
        <ele>2</ele>
        <time>2021-09-16T09:22:25.000Z</time>
      </trkpt>
      <trkpt lat="47.32953" lon="-2.4656">
        <ele>1.3999999761581</ele>
        <time>2021-09-16T09:22:26.000Z</time>
      </trkpt>
      <trkpt lat="47.32952" lon="-2.46555">
        <ele>0.80000001192093</ele>
        <time>2021-09-16T09:22:27.000Z</time>
      </trkpt>
      <trkpt lat="47.32951" lon="-2.4655">
        <ele>0.20000000298023</ele>
        <time>2021-09-16T09:22:28.000Z</time>
      </trkpt>
      <trkpt lat="47.32952" lon="-2.46544">
        <ele>-0.40000000596046</ele>
        <time>2021-09-16T09:22:29.000Z</time>
      </trkpt>
      <trkpt lat="47.32952" lon="-2.46537">
        <ele>-0.40000000596046</ele>
        <time>2021-09-16T09:22:30.000Z</time>
      </trkpt>
      <trkpt lat="47.32953" lon="-2.46529">
        <ele>-0.40000000596046</ele>
        <time>2021-09-16T09:22:31.000Z</time>
      </trkpt>
      <trkpt lat="47.32955" lon="-2.46493">
        <ele>-0.40000000596046</ele>
        <time>2021-09-16T09:22:36.000Z</time>
      </trkpt>
      <trkpt lat="47.32955" lon="-2.46486">
        <ele>-0.40000000596046</ele>
        <time>2021-09-16T09:22:37.000Z</time>
      </trkpt>
      <trkpt lat="47.32957" lon="-2.46446">
        <ele>13.1</ele>
        <time>2021-09-16T09:22:43.000Z</time>
      </trkpt>
      <trkpt lat="47.32957" lon="-2.46439">
        <ele>0.60000002384186</ele>
        <time>2021-09-16T09:22:44.000Z</time>
      </trkpt>
      <trkpt lat="47.32957" lon="-2.46433">
        <ele>1</ele>
        <time>2021-09-16T09:22:45.000Z</time>
      </trkpt>
      <trkpt lat="47.32958" lon="-2.46426">
        <ele>1.6000000238419</ele>
        <time>2021-09-16T09:22:46.000Z</time>
      </trkpt>
      <trkpt lat="47.32958" lon="-2.4642">
        <ele>2</ele>
        <time>2021-09-16T09:22:47.000Z</time>
      </trkpt>
      <trkpt lat="47.32959" lon="-2.46414">
        <ele>2.4000000953674</ele>
        <time>2021-09-16T09:22:48.000Z</time>
      </trkpt>
      <trkpt lat="47.32959" lon="-2.46408">
        <ele>3.4000000953674</ele>
        <time>2021-09-16T09:22:49.000Z</time>
      </trkpt>
      <trkpt lat="47.32959" lon="-2.46402">
        <ele>3.7999999523163</ele>
        <time>2021-09-16T09:22:50.000Z</time>
      </trkpt>
      <trkpt lat="47.32959" lon="-2.46396">
        <ele>4.4000000953674</ele>
        <time>2021-09-16T09:22:51.000Z</time>
      </trkpt>
      <trkpt lat="47.32959" lon="-2.46374">
        <ele>4.8000001907349</ele>
        <time>2021-09-16T09:22:55.000Z</time>
      </trkpt>
      <trkpt lat="47.32958" lon="-2.46369">
        <ele>5.1999998092651</ele>
        <time>2021-09-16T09:22:56.000Z</time>
      </trkpt>
      <trkpt lat="47.32957" lon="-2.46364">
        <ele>5.5999999046326</ele>
        <time>2021-09-16T09:22:57.000Z</time>
      </trkpt>
      <trkpt lat="47.32956" lon="-2.46359">
        <ele>6</ele>
        <time>2021-09-16T09:22:58.000Z</time>
      </trkpt>
      <trkpt lat="47.32955" lon="-2.46353">
        <ele>6.5999999046326</ele>
        <time>2021-09-16T09:22:59.000Z</time>
      </trkpt>
      <trkpt lat="47.32954" lon="-2.46347">
        <ele>7</ele>
        <time>2021-09-16T09:23:00.000Z</time>
      </trkpt>
      <trkpt lat="47.32953" lon="-2.46341">
        <ele>7.4000000953674</ele>
        <time>2021-09-16T09:23:01.000Z</time>
      </trkpt>
      <trkpt lat="47.32951" lon="-2.46337">
        <ele>7.8000001907349</ele>
        <time>2021-09-16T09:23:02.000Z</time>
      </trkpt>
      <trkpt lat="47.3295" lon="-2.46332">
        <ele>8.1999998092651</ele>
        <time>2021-09-16T09:23:03.000Z</time>
      </trkpt>
      <trkpt lat="47.32948" lon="-2.46326">
        <ele>8.6000003814697</ele>
        <time>2021-09-16T09:23:04.000Z</time>
      </trkpt>
      <trkpt lat="47.32947" lon="-2.46321">
        <ele>9</ele>
        <time>2021-09-16T09:23:05.000Z</time>
      </trkpt>
      <trkpt lat="47.32945" lon="-2.46316">
        <ele>9.3999996185303</ele>
        <time>2021-09-16T09:23:06.000Z</time>
      </trkpt>
      <trkpt lat="47.32944" lon="-2.46311">
        <ele>9.8000001907349</ele>
        <time>2021-09-16T09:23:07.000Z</time>
      </trkpt>
      <trkpt lat="47.32942" lon="-2.46306">
        <ele>10.199999809265</ele>
        <time>2021-09-16T09:23:08.000Z</time>
      </trkpt>
      <trkpt lat="47.32941" lon="-2.46301">
        <ele>10.60000038147</ele>
        <time>2021-09-16T09:23:09.000Z</time>
      </trkpt>
      <trkpt lat="47.32936" lon="-2.46281">
        <ele>10.60000038147</ele>
        <time>2021-09-16T09:23:13.000Z</time>
      </trkpt>
      <trkpt lat="47.32934" lon="-2.46275">
        <ele>11</ele>
        <time>2021-09-16T09:23:14.000Z</time>
      </trkpt>
      <trkpt lat="47.32932" lon="-2.46269">
        <ele>11.39999961853</ele>
        <time>2021-09-16T09:23:15.000Z</time>
      </trkpt>
      <trkpt lat="47.32931" lon="-2.46264">
        <ele>11.800000190735</ele>
        <time>2021-09-16T09:23:16.000Z</time>
      </trkpt>
      <trkpt lat="47.3293" lon="-2.46258">
        <ele>12.39999961853</ele>
        <time>2021-09-16T09:23:17.000Z</time>
      </trkpt>
      <trkpt lat="47.32928" lon="-2.46252">
        <ele>12.800000190735</ele>
        <time>2021-09-16T09:23:18.000Z</time>
      </trkpt>
      <trkpt lat="47.32926" lon="-2.46246">
        <ele>12.800000190735</ele>
        <time>2021-09-16T09:23:19.000Z</time>
      </trkpt>
      <trkpt lat="47.3292" lon="-2.46222">
        <ele>12.800000190735</ele>
        <time>2021-09-16T09:23:23.000Z</time>
      </trkpt>
      <trkpt lat="47.32917" lon="-2.46211">
        <ele>12.800000190735</ele>
        <time>2021-09-16T09:23:25.000Z</time>
      </trkpt>
      <trkpt lat="47.32908" lon="-2.46178">
        <ele>12.800000190735</ele>
        <time>2021-09-16T09:23:32.000Z</time>
      </trkpt>
      <trkpt lat="47.32894" lon="-2.46148">
        <ele>12.800000190735</ele>
        <time>2021-09-16T09:23:40.000Z</time>
      </trkpt>
      <trkpt lat="47.32877" lon="-2.46158">
        <ele>12.800000190735</ele>
        <time>2021-09-16T09:23:44.000Z</time>
      </trkpt>
      <trkpt lat="47.32853" lon="-2.46171">
        <ele>12.800000190735</ele>
        <time>2021-09-16T09:23:48.000Z</time>
      </trkpt>
      <trkpt lat="47.32846" lon="-2.46175">
        <ele>12.39999961853</ele>
        <time>2021-09-16T09:23:49.000Z</time>
      </trkpt>
      <trkpt lat="47.3284" lon="-2.46178">
        <ele>12</ele>
        <time>2021-09-16T09:23:50.000Z</time>
      </trkpt>
      <trkpt lat="47.32834" lon="-2.46181">
        <ele>11.60000038147</ele>
        <time>2021-09-16T09:23:51.000Z</time>
      </trkpt>
      <trkpt lat="47.32828" lon="-2.46184">
        <ele>11</ele>
        <time>2021-09-16T09:23:52.000Z</time>
      </trkpt>
      <trkpt lat="47.32822" lon="-2.46187">
        <ele>10.60000038147</ele>
        <time>2021-09-16T09:23:53.000Z</time>
      </trkpt>
      <trkpt lat="47.32816" lon="-2.46188">
        <ele>10</ele>
        <time>2021-09-16T09:23:54.000Z</time>
      </trkpt>
      <trkpt lat="47.3281" lon="-2.46189">
        <ele>9.6000003814697</ele>
        <time>2021-09-16T09:23:55.000Z</time>
      </trkpt>
      <trkpt lat="47.32804" lon="-2.46187">
        <ele>9</ele>
        <time>2021-09-16T09:23:56.000Z</time>
      </trkpt>
      <trkpt lat="47.32799" lon="-2.46185">
        <ele>8.6000003814697</ele>
        <time>2021-09-16T09:23:57.000Z</time>
      </trkpt>
      <trkpt lat="47.32794" lon="-2.46181">
        <ele>8.6000003814697</ele>
        <time>2021-09-16T09:23:58.000Z</time>
      </trkpt>
      <trkpt lat="47.32789" lon="-2.46177">
        <ele>8.6000003814697</ele>
        <time>2021-09-16T09:23:59.000Z</time>
      </trkpt>
      <trkpt lat="47.3278" lon="-2.46169">
        <ele>8.6000003814697</ele>
        <time>2021-09-16T09:24:01.000Z</time>
      </trkpt>
      <trkpt lat="47.32766" lon="-2.46153">
        <ele>8.6000003814697</ele>
        <time>2021-09-16T09:24:04.000Z</time>
      </trkpt>
      <trkpt lat="47.32764" lon="-2.46145">
        <ele>8</ele>
        <time>2021-09-16T09:24:05.000Z</time>
      </trkpt>
      <trkpt lat="47.32763" lon="-2.46139">
        <ele>7.5999999046326</ele>
        <time>2021-09-16T09:24:06.000Z</time>
      </trkpt>
      <trkpt lat="47.32763" lon="-2.46133">
        <ele>7.1999998092651</ele>
        <time>2021-09-16T09:24:07.000Z</time>
      </trkpt>
      <trkpt lat="47.32762" lon="-2.46129">
        <ele>6.8000001907349</ele>
        <time>2021-09-16T09:24:08.000Z</time>
      </trkpt>
      <trkpt lat="47.32761" lon="-2.46123">
        <ele>6.1999998092651</ele>
        <time>2021-09-16T09:24:09.000Z</time>
      </trkpt>
      <trkpt lat="47.32758" lon="-2.4611">
        <ele>6.1999998092651</ele>
        <time>2021-09-16T09:24:11.000Z</time>
      </trkpt>
      <trkpt lat="47.32756" lon="-2.46104">
        <ele>5.8000001907349</ele>
        <time>2021-09-16T09:24:12.000Z</time>
      </trkpt>
      <trkpt lat="47.32754" lon="-2.461">
        <ele>5.4000000953674</ele>
        <time>2021-09-16T09:24:13.000Z</time>
      </trkpt>
      <trkpt lat="47.32751" lon="-2.46095">
        <ele>4.8000001907349</ele>
        <time>2021-09-16T09:24:14.000Z</time>
      </trkpt>
      <trkpt lat="47.32749" lon="-2.46091">
        <ele>4.4000000953674</ele>
        <time>2021-09-16T09:24:15.000Z</time>
      </trkpt>
      <trkpt lat="47.32746" lon="-2.46086">
        <ele>4</ele>
        <time>2021-09-16T09:24:16.000Z</time>
      </trkpt>
      <trkpt lat="47.32731" lon="-2.46069">
        <ele>4</ele>
        <time>2021-09-16T09:24:21.000Z</time>
      </trkpt>
      <trkpt lat="47.32724" lon="-2.46063">
        <ele>3.5999999046326</ele>
        <time>2021-09-16T09:24:23.000Z</time>
      </trkpt>
      <trkpt lat="47.32721" lon="-2.4606">
        <ele>3.2000000476837</ele>
        <time>2021-09-16T09:24:24.000Z</time>
      </trkpt>
      <trkpt lat="47.32718" lon="-2.46055">
        <ele>2.7999999523163</ele>
        <time>2021-09-16T09:24:25.000Z</time>
      </trkpt>
      <trkpt lat="47.32715" lon="-2.46051">
        <ele>2.4000000953674</ele>
        <time>2021-09-16T09:24:26.000Z</time>
      </trkpt>
      <trkpt lat="47.32711" lon="-2.46048">
        <ele>2</ele>
        <time>2021-09-16T09:24:27.000Z</time>
      </trkpt>
      <trkpt lat="47.32693" lon="-2.46024">
        <ele>2</ele>
        <time>2021-09-16T09:24:33.000Z</time>
      </trkpt>
      <trkpt lat="47.32675" lon="-2.45996">
        <ele>2</ele>
        <time>2021-09-16T09:24:39.000Z</time>
      </trkpt>
      <trkpt lat="47.32664" lon="-2.45983">
        <ele>2</ele>
        <time>2021-09-16T09:24:42.000Z</time>
      </trkpt>
      <trkpt lat="47.3265" lon="-2.45971">
        <ele>2</ele>
        <time>2021-09-16T09:24:45.000Z</time>
      </trkpt>
      <trkpt lat="47.32636" lon="-2.45958">
        <ele>2</ele>
        <time>2021-09-16T09:24:48.000Z</time>
      </trkpt>
      <trkpt lat="47.32625" lon="-2.4594">
        <ele>2</ele>
        <time>2021-09-16T09:24:51.000Z</time>
      </trkpt>
      <trkpt lat="47.32602" lon="-2.45903">
        <ele>2</ele>
        <time>2021-09-16T09:24:57.000Z</time>
      </trkpt>
      <trkpt lat="47.32576" lon="-2.45872">
        <ele>2</ele>
        <time>2021-09-16T09:25:03.000Z</time>
      </trkpt>
      <trkpt lat="47.32567" lon="-2.45858">
        <ele>2</ele>
        <time>2021-09-16T09:25:05.000Z</time>
      </trkpt>
      <trkpt lat="47.32556" lon="-2.45835">
        <ele>2</ele>
        <time>2021-09-16T09:25:08.000Z</time>
      </trkpt>
      <trkpt lat="47.32552" lon="-2.45829">
        <ele>2</ele>
        <time>2021-09-16T09:25:09.000Z</time>
      </trkpt>
      <trkpt lat="47.32532" lon="-2.45805">
        <ele>2</ele>
        <time>2021-09-16T09:25:13.000Z</time>
      </trkpt>
      <trkpt lat="47.32524" lon="-2.4579">
        <ele>1.3999999761581</ele>
        <time>2021-09-16T09:25:15.000Z</time>
      </trkpt>
      <trkpt lat="47.32519" lon="-2.45782">
        <ele>0.60000002384186</ele>
        <time>2021-09-16T09:25:16.000Z</time>
      </trkpt>
      <trkpt lat="47.32514" lon="-2.45775">
        <ele>0.20000000298023</ele>
        <time>2021-09-16T09:25:17.000Z</time>
      </trkpt>
      <trkpt lat="47.3251" lon="-2.45767">
        <ele>-0.40000000596046</ele>
        <time>2021-09-16T09:25:18.000Z</time>
      </trkpt>
      <trkpt lat="47.32477" lon="-2.45705">
        <ele>-0.40000000596046</ele>
        <time>2021-09-16T09:25:26.000Z</time>
      </trkpt>
      <trkpt lat="47.32452" lon="-2.45663">
        <ele>-0.40000000596046</ele>
        <time>2021-09-16T09:25:32.000Z</time>
      </trkpt>
      <trkpt lat="47.32429" lon="-2.4563">
        <ele>-0.40000000596046</ele>
        <time>2021-09-16T09:25:38.000Z</time>
      </trkpt>
      <trkpt lat="47.32412" lon="-2.45594">
        <ele>-0.40000000596046</ele>
        <time>2021-09-16T09:25:45.000Z</time>
      </trkpt>
      <trkpt lat="47.32407" lon="-2.45584">
        <ele>-0.40000000596046</ele>
        <time>2021-09-16T09:25:48.000Z</time>
      </trkpt>
      <trkpt lat="47.32405" lon="-2.45579">
        <ele>-0.40000000596046</ele>
        <time>2021-09-16T09:25:49.000Z</time>
      </trkpt>
      <trkpt lat="47.32388" lon="-2.45545">
        <ele>-0.40000000596046</ele>
        <time>2021-09-16T09:25:55.000Z</time>
      </trkpt>
      <trkpt lat="47.32367" lon="-2.45506">
        <ele>-0.40000000596046</ele>
        <time>2021-09-16T09:26:01.000Z</time>
      </trkpt>
      <trkpt lat="47.32332" lon="-2.45453">
        <ele>-0.40000000596046</ele>
        <time>2021-09-16T09:26:09.000Z</time>
      </trkpt>
      <trkpt lat="47.32309" lon="-2.45416">
        <ele>-0.40000000596046</ele>
        <time>2021-09-16T09:26:15.000Z</time>
      </trkpt>
      <trkpt lat="47.32309" lon="-2.4541">
        <ele>-0.40000000596046</ele>
        <time>2021-09-16T09:26:16.000Z</time>
      </trkpt>
      <trkpt lat="47.32314" lon="-2.45392">
        <ele>-0.40000000596046</ele>
        <time>2021-09-16T09:26:19.000Z</time>
      </trkpt>
      <trkpt lat="47.32316" lon="-2.45373">
        <ele>-0.40000000596046</ele>
        <time>2021-09-16T09:26:22.000Z</time>
      </trkpt>
      <trkpt lat="47.32315" lon="-2.45367">
        <ele>-0.40000000596046</ele>
        <time>2021-09-16T09:26:23.000Z</time>
      </trkpt>
      <trkpt lat="47.32313" lon="-2.45342">
        <ele>-0.40000000596046</ele>
        <time>2021-09-16T09:26:27.000Z</time>
      </trkpt>
      <trkpt lat="47.32313" lon="-2.45336">
        <ele>0.20000000298023</ele>
        <time>2021-09-16T09:26:28.000Z</time>
      </trkpt>
      <trkpt lat="47.32313" lon="-2.4533">
        <ele>0.60000002384186</ele>
        <time>2021-09-16T09:26:29.000Z</time>
      </trkpt>
      <trkpt lat="47.32313" lon="-2.45325">
        <ele>1.3999999761581</ele>
        <time>2021-09-16T09:26:30.000Z</time>
      </trkpt>
      <trkpt lat="47.32313" lon="-2.45319">
        <ele>2</ele>
        <time>2021-09-16T09:26:31.000Z</time>
      </trkpt>
      <trkpt lat="47.32313" lon="-2.45306">
        <ele>2</ele>
        <time>2021-09-16T09:26:33.000Z</time>
      </trkpt>
      <trkpt lat="47.32312" lon="-2.453">
        <ele>2</ele>
        <time>2021-09-16T09:26:34.000Z</time>
      </trkpt>
      <trkpt lat="47.32306" lon="-2.45279">
        <ele>2</ele>
        <time>2021-09-16T09:26:37.000Z</time>
      </trkpt>
      <trkpt lat="47.32304" lon="-2.45272">
        <ele>2</ele>
        <time>2021-09-16T09:26:38.000Z</time>
      </trkpt>
      <trkpt lat="47.32291" lon="-2.4523">
        <ele>2</ele>
        <time>2021-09-16T09:26:43.000Z</time>
      </trkpt>
      <trkpt lat="47.32286" lon="-2.45221">
        <ele>2</ele>
        <time>2021-09-16T09:26:44.000Z</time>
      </trkpt>
      <trkpt lat="47.32266" lon="-2.45175">
        <ele>2</ele>
        <time>2021-09-16T09:26:50.000Z</time>
      </trkpt>
      <trkpt lat="47.32258" lon="-2.45139">
        <ele>2</ele>
        <time>2021-09-16T09:26:56.000Z</time>
      </trkpt>
      <trkpt lat="47.32252" lon="-2.45121">
        <ele>2</ele>
        <time>2021-09-16T09:26:59.000Z</time>
      </trkpt>
      <trkpt lat="47.3225" lon="-2.45115">
        <ele>2.4000000953674</ele>
        <time>2021-09-16T09:27:00.000Z</time>
      </trkpt>
      <trkpt lat="47.32247" lon="-2.45109">
        <ele>2.7999999523163</ele>
        <time>2021-09-16T09:27:01.000Z</time>
      </trkpt>
      <trkpt lat="47.32245" lon="-2.45103">
        <ele>3.2000000476837</ele>
        <time>2021-09-16T09:27:02.000Z</time>
      </trkpt>
      <trkpt lat="47.32243" lon="-2.45097">
        <ele>3.5999999046326</ele>
        <time>2021-09-16T09:27:03.000Z</time>
      </trkpt>
      <trkpt lat="47.32241" lon="-2.45091">
        <ele>4</ele>
        <time>2021-09-16T09:27:04.000Z</time>
      </trkpt>
      <trkpt lat="47.32228" lon="-2.45061">
        <ele>4</ele>
        <time>2021-09-16T09:27:09.000Z</time>
      </trkpt>
      <trkpt lat="47.32207" lon="-2.45018">
        <ele>4</ele>
        <time>2021-09-16T09:27:17.000Z</time>
      </trkpt>
      <trkpt lat="47.32196" lon="-2.44995">
        <ele>4</ele>
        <time>2021-09-16T09:27:22.000Z</time>
      </trkpt>
      <trkpt lat="47.32183" lon="-2.44975">
        <ele>4</ele>
        <time>2021-09-16T09:27:26.000Z</time>
      </trkpt>
      <trkpt lat="47.32179" lon="-2.4497">
        <ele>4</ele>
        <time>2021-09-16T09:27:27.000Z</time>
      </trkpt>
      <trkpt lat="47.32152" lon="-2.44947">
        <ele>4</ele>
        <time>2021-09-16T09:27:32.000Z</time>
      </trkpt>
      <trkpt lat="47.32146" lon="-2.44943">
        <ele>4</ele>
        <time>2021-09-16T09:27:33.000Z</time>
      </trkpt>
      <trkpt lat="47.32141" lon="-2.44938">
        <ele>4</ele>
        <time>2021-09-16T09:27:34.000Z</time>
      </trkpt>
      <trkpt lat="47.32131" lon="-2.44926">
        <ele>4</ele>
        <time>2021-09-16T09:27:36.000Z</time>
      </trkpt>
      <trkpt lat="47.32122" lon="-2.44912">
        <ele>3.5999999046326</ele>
        <time>2021-09-16T09:27:38.000Z</time>
      </trkpt>
      <trkpt lat="47.32118" lon="-2.44904">
        <ele>3.2000000476837</ele>
        <time>2021-09-16T09:27:39.000Z</time>
      </trkpt>
      <trkpt lat="47.32115" lon="-2.44896">
        <ele>2.7999999523163</ele>
        <time>2021-09-16T09:27:40.000Z</time>
      </trkpt>
      <trkpt lat="47.32111" lon="-2.44887">
        <ele>2.4000000953674</ele>
        <time>2021-09-16T09:27:41.000Z</time>
      </trkpt>
      <trkpt lat="47.32107" lon="-2.44878">
        <ele>2</ele>
        <time>2021-09-16T09:27:42.000Z</time>
      </trkpt>
      <trkpt lat="47.321" lon="-2.44859">
        <ele>2</ele>
        <time>2021-09-16T09:27:44.000Z</time>
      </trkpt>
      <trkpt lat="47.32071" lon="-2.4479">
        <ele>2</ele>
        <time>2021-09-16T09:27:52.000Z</time>
      </trkpt>
      <trkpt lat="47.32046" lon="-2.44744">
        <ele>2</ele>
        <time>2021-09-16T09:27:58.000Z</time>
      </trkpt>
      <trkpt lat="47.32023" lon="-2.4471">
        <ele>1.6000000238419</ele>
        <time>2021-09-16T09:28:03.000Z</time>
      </trkpt>
      <trkpt lat="47.32019" lon="-2.44704">
        <ele>1.2000000476837</ele>
        <time>2021-09-16T09:28:04.000Z</time>
      </trkpt>
      <trkpt lat="47.32015" lon="-2.44697">
        <ele>0.60000002384186</ele>
        <time>2021-09-16T09:28:05.000Z</time>
      </trkpt>
      <trkpt lat="47.32011" lon="-2.44691">
        <ele>0.20000000298023</ele>
        <time>2021-09-16T09:28:06.000Z</time>
      </trkpt>
      <trkpt lat="47.32006" lon="-2.44684">
        <ele>-0.20000000298023</ele>
        <time>2021-09-16T09:28:07.000Z</time>
      </trkpt>
      <trkpt lat="47.31974" lon="-2.44644">
        <ele>-0.20000000298023</ele>
        <time>2021-09-16T09:28:14.000Z</time>
      </trkpt>
      <trkpt lat="47.31934" lon="-2.446">
        <ele>-0.20000000298023</ele>
        <time>2021-09-16T09:28:22.000Z</time>
      </trkpt>
      <trkpt lat="47.31905" lon="-2.44566">
        <ele>-0.20000000298023</ele>
        <time>2021-09-16T09:28:29.000Z</time>
      </trkpt>
      <trkpt lat="47.31902" lon="-2.44565">
        <ele>-0.60000002384186</ele>
        <time>2021-09-16T09:28:30.000Z</time>
      </trkpt>
      <trkpt lat="47.31901" lon="-2.44564">
        <ele>-1</ele>
        <time>2021-09-16T09:28:31.000Z</time>
      </trkpt>
      <trkpt lat="47.319" lon="-2.44563">
        <ele>-1.3999999761581</ele>
        <time>2021-09-16T09:28:32.000Z</time>
      </trkpt>
      <trkpt lat="47.31901" lon="-2.44564">
        <ele>-2.2000000476837</ele>
        <time>2021-09-16T09:28:33.000Z</time>
      </trkpt>
      <trkpt lat="47.31899" lon="-2.44567">
        <ele>-2.2000000476837</ele>
        <time>2021-09-16T09:29:19.000Z</time>
      </trkpt>
      <trkpt lat="47.31897" lon="-2.44569">
        <ele>-2.2000000476837</ele>
        <time>2021-09-16T09:29:20.000Z</time>
      </trkpt>
      <trkpt lat="47.31889" lon="-2.44586">
        <ele>-2.2000000476837</ele>
        <time>2021-09-16T09:29:25.000Z</time>
      </trkpt>
      <trkpt lat="47.31876" lon="-2.4462">
        <ele>-2.2000000476837</ele>
        <time>2021-09-16T09:29:31.000Z</time>
      </trkpt>
      <trkpt lat="47.31853" lon="-2.44677">
        <ele>-2.5999999046326</ele>
        <time>2021-09-16T09:29:40.000Z</time>
      </trkpt>
      <trkpt lat="47.3185" lon="-2.44682">
        <ele>-3</ele>
        <time>2021-09-16T09:29:41.000Z</time>
      </trkpt>
      <trkpt lat="47.31847" lon="-2.44688">
        <ele>-3.4000000953674</ele>
        <time>2021-09-16T09:29:42.000Z</time>
      </trkpt>
      <trkpt lat="47.31844" lon="-2.44694">
        <ele>-3.7999999523163</ele>
        <time>2021-09-16T09:29:43.000Z</time>
      </trkpt>
      <trkpt lat="47.31841" lon="-2.44699">
        <ele>-4.1999998092651</ele>
        <time>2021-09-16T09:29:44.000Z</time>
      </trkpt>
      <trkpt lat="47.31829" lon="-2.44715">
        <ele>-4.1999998092651</ele>
        <time>2021-09-16T09:29:47.000Z</time>
      </trkpt>
      <trkpt lat="47.31815" lon="-2.44727">
        <ele>-4.1999998092651</ele>
        <time>2021-09-16T09:29:50.000Z</time>
      </trkpt>
      <trkpt lat="47.31805" lon="-2.44733">
        <ele>-4.1999998092651</ele>
        <time>2021-09-16T09:29:52.000Z</time>
      </trkpt>
      <trkpt lat="47.31771" lon="-2.44751">
        <ele>-4.1999998092651</ele>
        <time>2021-09-16T09:29:59.000Z</time>
      </trkpt>
      <trkpt lat="47.31745" lon="-2.44775">
        <ele>-4.1999998092651</ele>
        <time>2021-09-16T09:30:06.000Z</time>
      </trkpt>
      <trkpt lat="47.31721" lon="-2.44782">
        <ele>-4.1999998092651</ele>
        <time>2021-09-16T09:30:13.000Z</time>
      </trkpt>
      <trkpt lat="47.31716" lon="-2.44774">
        <ele>-4.1999998092651</ele>
        <time>2021-09-16T09:30:15.000Z</time>
      </trkpt>
      <trkpt lat="47.31711" lon="-2.44761">
        <ele>-4.1999998092651</ele>
        <time>2021-09-16T09:30:17.000Z</time>
      </trkpt>
      <trkpt lat="47.31689" lon="-2.4471">
        <ele>-4.1999998092651</ele>
        <time>2021-09-16T09:30:24.000Z</time>
      </trkpt>
      <trkpt lat="47.3166" lon="-2.44637">
        <ele>-4.1999998092651</ele>
        <time>2021-09-16T09:30:33.000Z</time>
      </trkpt>
      <trkpt lat="47.31638" lon="-2.44591">
        <ele>-4.1999998092651</ele>
        <time>2021-09-16T09:30:39.000Z</time>
      </trkpt>
      <trkpt lat="47.31629" lon="-2.44576">
        <ele>-4.1999998092651</ele>
        <time>2021-09-16T09:30:41.000Z</time>
      </trkpt>
      <trkpt lat="47.31591" lon="-2.44508">
        <ele>-4.1999998092651</ele>
        <time>2021-09-16T09:30:50.000Z</time>
      </trkpt>
      <trkpt lat="47.31585" lon="-2.44489">
        <ele>-4.1999998092651</ele>
        <time>2021-09-16T09:30:52.000Z</time>
      </trkpt>
      <trkpt lat="47.31578" lon="-2.44459">
        <ele>-4.1999998092651</ele>
        <time>2021-09-16T09:30:55.000Z</time>
      </trkpt>
      <trkpt lat="47.31566" lon="-2.44376">
        <ele>-4.1999998092651</ele>
        <time>2021-09-16T09:31:03.000Z</time>
      </trkpt>
      <trkpt lat="47.31557" lon="-2.44307">
        <ele>-4.1999998092651</ele>
        <time>2021-09-16T09:31:10.000Z</time>
      </trkpt>
      <trkpt lat="47.31542" lon="-2.44224">
        <ele>-4.1999998092651</ele>
        <time>2021-09-16T09:31:19.000Z</time>
      </trkpt>
      <trkpt lat="47.3153" lon="-2.44181">
        <ele>-4.1999998092651</ele>
        <time>2021-09-16T09:31:24.000Z</time>
      </trkpt>
      <trkpt lat="47.31526" lon="-2.44173">
        <ele>-4.1999998092651</ele>
        <time>2021-09-16T09:31:25.000Z</time>
      </trkpt>
      <trkpt lat="47.3151" lon="-2.44144">
        <ele>-4.1999998092651</ele>
        <time>2021-09-16T09:31:29.000Z</time>
      </trkpt>
      <trkpt lat="47.31479" lon="-2.44102">
        <ele>-4.1999998092651</ele>
        <time>2021-09-16T09:31:35.000Z</time>
      </trkpt>
      <trkpt lat="47.31441" lon="-2.44052">
        <ele>-4.1999998092651</ele>
        <time>2021-09-16T09:31:43.000Z</time>
      </trkpt>
      <trkpt lat="47.31398" lon="-2.43999">
        <ele>-4.1999998092651</ele>
        <time>2021-09-16T09:31:52.000Z</time>
      </trkpt>
      <trkpt lat="47.31367" lon="-2.43954">
        <ele>-4.1999998092651</ele>
        <time>2021-09-16T09:31:59.000Z</time>
      </trkpt>
      <trkpt lat="47.31363" lon="-2.43946">
        <ele>-4.1999998092651</ele>
        <time>2021-09-16T09:32:00.000Z</time>
      </trkpt>
      <trkpt lat="47.31337" lon="-2.43881">
        <ele>-4.1999998092651</ele>
        <time>2021-09-16T09:32:08.000Z</time>
      </trkpt>
      <trkpt lat="47.31311" lon="-2.43826">
        <ele>-4.1999998092651</ele>
        <time>2021-09-16T09:32:15.000Z</time>
      </trkpt>
      <trkpt lat="47.31293" lon="-2.43801">
        <ele>-4.1999998092651</ele>
        <time>2021-09-16T09:32:19.000Z</time>
      </trkpt>
      <trkpt lat="47.31286" lon="-2.43788">
        <ele>-4.1999998092651</ele>
        <time>2021-09-16T09:32:21.000Z</time>
      </trkpt>
      <trkpt lat="47.31265" lon="-2.43734">
        <ele>-4.1999998092651</ele>
        <time>2021-09-16T09:32:28.000Z</time>
      </trkpt>
      <trkpt lat="47.31244" lon="-2.43674">
        <ele>-4.1999998092651</ele>
        <time>2021-09-16T09:32:35.000Z</time>
      </trkpt>
      <trkpt lat="47.31242" lon="-2.43665">
        <ele>-4.1999998092651</ele>
        <time>2021-09-16T09:32:36.000Z</time>
      </trkpt>
      <trkpt lat="47.31234" lon="-2.43618">
        <ele>-4.1999998092651</ele>
        <time>2021-09-16T09:32:41.000Z</time>
      </trkpt>
      <trkpt lat="47.31224" lon="-2.43548">
        <ele>-4.1999998092651</ele>
        <time>2021-09-16T09:32:49.000Z</time>
      </trkpt>
      <trkpt lat="47.31215" lon="-2.43486">
        <ele>-4.1999998092651</ele>
        <time>2021-09-16T09:32:56.000Z</time>
      </trkpt>
      <trkpt lat="47.31204" lon="-2.43416">
        <ele>-4.1999998092651</ele>
        <time>2021-09-16T09:33:04.000Z</time>
      </trkpt>
      <trkpt lat="47.31192" lon="-2.43337">
        <ele>-4.1999998092651</ele>
        <time>2021-09-16T09:33:13.000Z</time>
      </trkpt>
      <trkpt lat="47.31174" lon="-2.4329">
        <ele>-4.1999998092651</ele>
        <time>2021-09-16T09:33:19.000Z</time>
      </trkpt>
      <trkpt lat="47.3114" lon="-2.43236">
        <ele>-4.1999998092651</ele>
        <time>2021-09-16T09:33:27.000Z</time>
      </trkpt>
      <trkpt lat="47.31117" lon="-2.43201">
        <ele>-4.1999998092651</ele>
        <time>2021-09-16T09:33:33.000Z</time>
      </trkpt>
      <trkpt lat="47.31113" lon="-2.43196">
        <ele>-4.1999998092651</ele>
        <time>2021-09-16T09:33:34.000Z</time>
      </trkpt>
      <trkpt lat="47.31104" lon="-2.43193">
        <ele>-4.1999998092651</ele>
        <time>2021-09-16T09:33:36.000Z</time>
      </trkpt>
      <trkpt lat="47.31088" lon="-2.43203">
        <ele>-4.1999998092651</ele>
        <time>2021-09-16T09:33:39.000Z</time>
      </trkpt>
      <trkpt lat="47.31083" lon="-2.43208">
        <ele>-4.1999998092651</ele>
        <time>2021-09-16T09:33:40.000Z</time>
      </trkpt>
      <trkpt lat="47.31072" lon="-2.43217">
        <ele>-4.1999998092651</ele>
        <time>2021-09-16T09:33:42.000Z</time>
      </trkpt>
      <trkpt lat="47.31056" lon="-2.43232">
        <ele>-4.1999998092651</ele>
        <time>2021-09-16T09:33:45.000Z</time>
      </trkpt>
      <trkpt lat="47.31026" lon="-2.43272">
        <ele>-4.1999998092651</ele>
        <time>2021-09-16T09:33:51.000Z</time>
      </trkpt>
      <trkpt lat="47.31007" lon="-2.43298">
        <ele>-5</ele>
        <time>2021-09-16T09:33:55.000Z</time>
      </trkpt>
      <trkpt lat="47.31002" lon="-2.43303">
        <ele>-5.4000000953674</ele>
        <time>2021-09-16T09:33:56.000Z</time>
      </trkpt>
      <trkpt lat="47.30996" lon="-2.43308">
        <ele>-5.8000001907349</ele>
        <time>2021-09-16T09:33:57.000Z</time>
      </trkpt>
      <trkpt lat="47.3099" lon="-2.43312">
        <ele>-6.4000000953674</ele>
        <time>2021-09-16T09:33:58.000Z</time>
      </trkpt>
      <trkpt lat="47.30965" lon="-2.43323">
        <ele>-6.4000000953674</ele>
        <time>2021-09-16T09:34:02.000Z</time>
      </trkpt>
      <trkpt lat="47.30911" lon="-2.43346">
        <ele>-6.4000000953674</ele>
        <time>2021-09-16T09:34:11.000Z</time>
      </trkpt>
      <trkpt lat="47.30859" lon="-2.43368">
        <ele>-6.4000000953674</ele>
        <time>2021-09-16T09:34:20.000Z</time>
      </trkpt>
      <trkpt lat="47.30814" lon="-2.43387">
        <ele>-6.4000000953674</ele>
        <time>2021-09-16T09:34:28.000Z</time>
      </trkpt>
      <trkpt lat="47.30779" lon="-2.4339">
        <ele>-6.4000000953674</ele>
        <time>2021-09-16T09:34:34.000Z</time>
      </trkpt>
      <trkpt lat="47.30736" lon="-2.43391">
        <ele>-6.4000000953674</ele>
        <time>2021-09-16T09:34:41.000Z</time>
      </trkpt>
      <trkpt lat="47.30695" lon="-2.43393">
        <ele>-6.4000000953674</ele>
        <time>2021-09-16T09:34:48.000Z</time>
      </trkpt>
      <trkpt lat="47.30659" lon="-2.43399">
        <ele>-6.4000000953674</ele>
        <time>2021-09-16T09:34:54.000Z</time>
      </trkpt>
      <trkpt lat="47.30608" lon="-2.4341">
        <ele>-6.4000000953674</ele>
        <time>2021-09-16T09:35:02.000Z</time>
      </trkpt>
      <trkpt lat="47.3056" lon="-2.4342">
        <ele>-6.8000001907349</ele>
        <time>2021-09-16T09:35:10.000Z</time>
      </trkpt>
      <trkpt lat="47.30554" lon="-2.4342">
        <ele>-7.1999998092651</ele>
        <time>2021-09-16T09:35:11.000Z</time>
      </trkpt>
      <trkpt lat="47.30548" lon="-2.4342">
        <ele>-7.5999999046326</ele>
        <time>2021-09-16T09:35:12.000Z</time>
      </trkpt>
      <trkpt lat="47.30542" lon="-2.43419">
        <ele>-8</ele>
        <time>2021-09-16T09:35:13.000Z</time>
      </trkpt>
      <trkpt lat="47.30535" lon="-2.43418">
        <ele>-8.3999996185303</ele>
        <time>2021-09-16T09:35:14.000Z</time>
      </trkpt>
      <trkpt lat="47.30523" lon="-2.43416">
        <ele>-8.3999996185303</ele>
        <time>2021-09-16T09:35:16.000Z</time>
      </trkpt>
      <trkpt lat="47.30478" lon="-2.43411">
        <ele>-8.3999996185303</ele>
        <time>2021-09-16T09:35:23.000Z</time>
      </trkpt>
      <trkpt lat="47.30465" lon="-2.43411">
        <ele>-8.3999996185303</ele>
        <time>2021-09-16T09:35:25.000Z</time>
      </trkpt>
      <trkpt lat="47.30449" lon="-2.43417">
        <ele>-8.3999996185303</ele>
        <time>2021-09-16T09:35:28.000Z</time>
      </trkpt>
      <trkpt lat="47.30439" lon="-2.43421">
        <ele>-8.3999996185303</ele>
        <time>2021-09-16T09:35:30.000Z</time>
      </trkpt>
      <trkpt lat="47.30429" lon="-2.43416">
        <ele>-8.3999996185303</ele>
        <time>2021-09-16T09:35:32.000Z</time>
      </trkpt>
      <trkpt lat="47.30421" lon="-2.43396">
        <ele>-8.3999996185303</ele>
        <time>2021-09-16T09:35:35.000Z</time>
      </trkpt>
      <trkpt lat="47.30418" lon="-2.43379">
        <ele>-8.3999996185303</ele>
        <time>2021-09-16T09:35:37.000Z</time>
      </trkpt>
      <trkpt lat="47.30414" lon="-2.43352">
        <ele>-8.3999996185303</ele>
        <time>2021-09-16T09:35:40.000Z</time>
      </trkpt>
      <trkpt lat="47.304" lon="-2.43285">
        <ele>-8.3999996185303</ele>
        <time>2021-09-16T09:35:48.000Z</time>
      </trkpt>
      <trkpt lat="47.30387" lon="-2.43247">
        <ele>-8.3999996185303</ele>
        <time>2021-09-16T09:35:53.000Z</time>
      </trkpt>
      <trkpt lat="47.30382" lon="-2.43241">
        <ele>-8.3999996185303</ele>
        <time>2021-09-16T09:35:54.000Z</time>
      </trkpt>
      <trkpt lat="47.30365" lon="-2.43236">
        <ele>-8.3999996185303</ele>
        <time>2021-09-16T09:35:57.000Z</time>
      </trkpt>
      <trkpt lat="47.30353" lon="-2.43239">
        <ele>-8.3999996185303</ele>
        <time>2021-09-16T09:35:59.000Z</time>
      </trkpt>
      <trkpt lat="47.30334" lon="-2.43244">
        <ele>-8.3999996185303</ele>
        <time>2021-09-16T09:36:02.000Z</time>
      </trkpt>
      <trkpt lat="47.30288" lon="-2.43253">
        <ele>-8.3999996185303</ele>
        <time>2021-09-16T09:36:09.000Z</time>
      </trkpt>
      <trkpt lat="47.30247" lon="-2.43267">
        <ele>-8.3999996185303</ele>
        <time>2021-09-16T09:36:15.000Z</time>
      </trkpt>
      <trkpt lat="47.30203" lon="-2.43288">
        <ele>-8.3999996185303</ele>
        <time>2021-09-16T09:36:22.000Z</time>
      </trkpt>
      <trkpt lat="47.30158" lon="-2.43309">
        <ele>-8.3999996185303</ele>
        <time>2021-09-16T09:36:29.000Z</time>
      </trkpt>
      <trkpt lat="47.30117" lon="-2.43322">
        <ele>-8.3999996185303</ele>
        <time>2021-09-16T09:36:35.000Z</time>
      </trkpt>
      <trkpt lat="47.30059" lon="-2.43335">
        <ele>-8.3999996185303</ele>
        <time>2021-09-16T09:36:44.000Z</time>
      </trkpt>
      <trkpt lat="47.30046" lon="-2.43336">
        <ele>-8.3999996185303</ele>
        <time>2021-09-16T09:36:46.000Z</time>
      </trkpt>
      <trkpt lat="47.30034" lon="-2.43336">
        <ele>-8.3999996185303</ele>
        <time>2021-09-16T09:36:48.000Z</time>
      </trkpt>
      <trkpt lat="47.30015" lon="-2.43331">
        <ele>-8.3999996185303</ele>
        <time>2021-09-16T09:36:51.000Z</time>
      </trkpt>
      <trkpt lat="47.30009" lon="-2.43327">
        <ele>-8.3999996185303</ele>
        <time>2021-09-16T09:36:52.000Z</time>
      </trkpt>
      <trkpt lat="47.30003" lon="-2.43322">
        <ele>-8.3999996185303</ele>
        <time>2021-09-16T09:36:53.000Z</time>
      </trkpt>
      <trkpt lat="47.29987" lon="-2.43308">
        <ele>-8.3999996185303</ele>
        <time>2021-09-16T09:36:56.000Z</time>
      </trkpt>
      <trkpt lat="47.29971" lon="-2.43296">
        <ele>-8.3999996185303</ele>
        <time>2021-09-16T09:36:59.000Z</time>
      </trkpt>
      <trkpt lat="47.29958" lon="-2.43295">
        <ele>-8.3999996185303</ele>
        <time>2021-09-16T09:37:01.000Z</time>
      </trkpt>
      <trkpt lat="47.29942" lon="-2.43301">
        <ele>-8.3999996185303</ele>
        <time>2021-09-16T09:37:04.000Z</time>
      </trkpt>
      <trkpt lat="47.2993" lon="-2.43305">
        <ele>-8.3999996185303</ele>
        <time>2021-09-16T09:37:06.000Z</time>
      </trkpt>
      <trkpt lat="47.29898" lon="-2.43316">
        <ele>-8.3999996185303</ele>
        <time>2021-09-16T09:37:12.000Z</time>
      </trkpt>
      <trkpt lat="47.29885" lon="-2.43319">
        <ele>-8.3999996185303</ele>
        <time>2021-09-16T09:37:16.000Z</time>
      </trkpt>
      <trkpt lat="47.2988" lon="-2.43314">
        <ele>-8.3999996185303</ele>
        <time>2021-09-16T09:37:20.000Z</time>
      </trkpt>
      <trkpt lat="47.2988" lon="-2.43314">
        <ele>-8.3999996185303</ele>
        <time>2021-09-16T09:37:21.000Z</time>
      </trkpt>
      <trkpt lat="47.29879" lon="-2.43313">
        <ele>-8.3999996185303</ele>
        <time>2021-09-16T09:37:23.000Z</time>
      </trkpt>
      <trkpt lat="47.29877" lon="-2.43309">
        <ele>-8.3999996185303</ele>
        <time>2021-09-16T09:37:25.000Z</time>
      </trkpt>
      <trkpt lat="47.29873" lon="-2.433">
        <ele>-8.3999996185303</ele>
        <time>2021-09-16T09:37:28.000Z</time>
      </trkpt>
      <trkpt lat="47.29868" lon="-2.4329">
        <ele>-8.3999996185303</ele>
        <time>2021-09-16T09:37:30.000Z</time>
      </trkpt>
      <trkpt lat="47.29855" lon="-2.43264">
        <ele>-8.3999996185303</ele>
        <time>2021-09-16T09:37:35.000Z</time>
      </trkpt>
      <trkpt lat="47.29852" lon="-2.43259">
        <ele>-8.3999996185303</ele>
        <time>2021-09-16T09:37:36.000Z</time>
      </trkpt>
      <trkpt lat="47.29837" lon="-2.43227">
        <ele>-8.3999996185303</ele>
        <time>2021-09-16T09:37:41.000Z</time>
      </trkpt>
      <trkpt lat="47.29833" lon="-2.43221">
        <ele>-8.3999996185303</ele>
        <time>2021-09-16T09:37:42.000Z</time>
      </trkpt>
      <trkpt lat="47.29818" lon="-2.432">
        <ele>-8.3999996185303</ele>
        <time>2021-09-16T09:37:46.000Z</time>
      </trkpt>
      <trkpt lat="47.29814" lon="-2.43195">
        <ele>-8.3999996185303</ele>
        <time>2021-09-16T09:37:47.000Z</time>
      </trkpt>
      <trkpt lat="47.298" lon="-2.43184">
        <ele>-8.3999996185303</ele>
        <time>2021-09-16T09:37:50.000Z</time>
      </trkpt>
      <trkpt lat="47.29795" lon="-2.43183">
        <ele>-8.3999996185303</ele>
        <time>2021-09-16T09:37:51.000Z</time>
      </trkpt>
      <trkpt lat="47.29774" lon="-2.4319">
        <ele>-8.3999996185303</ele>
        <time>2021-09-16T09:37:55.000Z</time>
      </trkpt>
      <trkpt lat="47.29731" lon="-2.43203">
        <ele>-8.3999996185303</ele>
        <time>2021-09-16T09:38:02.000Z</time>
      </trkpt>
      <trkpt lat="47.29688" lon="-2.43214">
        <ele>-8.3999996185303</ele>
        <time>2021-09-16T09:38:09.000Z</time>
      </trkpt>
      <trkpt lat="47.29645" lon="-2.43227">
        <ele>-8.3999996185303</ele>
        <time>2021-09-16T09:38:16.000Z</time>
      </trkpt>
      <trkpt lat="47.29611" lon="-2.43239">
        <ele>-8.3999996185303</ele>
        <time>2021-09-16T09:38:22.000Z</time>
      </trkpt>
      <trkpt lat="47.29576" lon="-2.43258">
        <ele>-8.3999996185303</ele>
        <time>2021-09-16T09:38:29.000Z</time>
      </trkpt>
      <trkpt lat="47.29571" lon="-2.43262">
        <ele>-8.3999996185303</ele>
        <time>2021-09-16T09:38:30.000Z</time>
      </trkpt>
      <trkpt lat="47.29563" lon="-2.43272">
        <ele>-7.8000001907349</ele>
        <time>2021-09-16T09:38:32.000Z</time>
      </trkpt>
      <trkpt lat="47.29559" lon="-2.43278">
        <ele>-7.4000000953674</ele>
        <time>2021-09-16T09:38:33.000Z</time>
      </trkpt>
      <trkpt lat="47.29556" lon="-2.43283">
        <ele>-7</ele>
        <time>2021-09-16T09:38:34.000Z</time>
      </trkpt>
      <trkpt lat="47.29552" lon="-2.4329">
        <ele>-6.5999999046326</ele>
        <time>2021-09-16T09:38:35.000Z</time>
      </trkpt>
      <trkpt lat="47.29549" lon="-2.43296">
        <ele>-6.1999998092651</ele>
        <time>2021-09-16T09:38:36.000Z</time>
      </trkpt>
      <trkpt lat="47.2954" lon="-2.43315">
        <ele>-6.1999998092651</ele>
        <time>2021-09-16T09:38:39.000Z</time>
      </trkpt>
      <trkpt lat="47.29533" lon="-2.43327">
        <ele>-6.1999998092651</ele>
        <time>2021-09-16T09:38:41.000Z</time>
      </trkpt>
      <trkpt lat="47.29521" lon="-2.43353">
        <ele>-6.1999998092651</ele>
        <time>2021-09-16T09:38:45.000Z</time>
      </trkpt>
      <trkpt lat="47.29503" lon="-2.43383">
        <ele>-6.1999998092651</ele>
        <time>2021-09-16T09:38:50.000Z</time>
      </trkpt>
      <trkpt lat="47.29499" lon="-2.43389">
        <ele>-6.1999998092651</ele>
        <time>2021-09-16T09:38:51.000Z</time>
      </trkpt>
      <trkpt lat="47.29478" lon="-2.43432">
        <ele>-6.1999998092651</ele>
        <time>2021-09-16T09:38:57.000Z</time>
      </trkpt>
      <trkpt lat="47.29459" lon="-2.43463">
        <ele>-6.1999998092651</ele>
        <time>2021-09-16T09:39:02.000Z</time>
      </trkpt>
      <trkpt lat="47.29455" lon="-2.43466">
        <ele>-6.1999998092651</ele>
        <time>2021-09-16T09:39:03.000Z</time>
      </trkpt>
      <trkpt lat="47.29444" lon="-2.43457">
        <ele>-6.1999998092651</ele>
        <time>2021-09-16T09:39:06.000Z</time>
      </trkpt>
      <trkpt lat="47.29436" lon="-2.43437">
        <ele>-6.1999998092651</ele>
        <time>2021-09-16T09:39:10.000Z</time>
      </trkpt>
      <trkpt lat="47.29432" lon="-2.43405">
        <ele>-6.1999998092651</ele>
        <time>2021-09-16T09:39:15.000Z</time>
      </trkpt>
      <trkpt lat="47.29419" lon="-2.43389">
        <ele>-6.1999998092651</ele>
        <time>2021-09-16T09:39:19.000Z</time>
      </trkpt>
      <trkpt lat="47.29408" lon="-2.43381">
        <ele>-6.1999998092651</ele>
        <time>2021-09-16T09:39:22.000Z</time>
      </trkpt>
      <trkpt lat="47.29405" lon="-2.43362">
        <ele>-6.1999998092651</ele>
        <time>2021-09-16T09:39:25.000Z</time>
      </trkpt>
      <trkpt lat="47.29404" lon="-2.43356">
        <ele>-6.1999998092651</ele>
        <time>2021-09-16T09:39:26.000Z</time>
      </trkpt>
      <trkpt lat="47.29389" lon="-2.43333">
        <ele>-6.1999998092651</ele>
        <time>2021-09-16T09:39:30.000Z</time>
      </trkpt>
      <trkpt lat="47.29381" lon="-2.4332">
        <ele>-6.1999998092651</ele>
        <time>2021-09-16T09:39:32.000Z</time>
      </trkpt>
      <trkpt lat="47.29373" lon="-2.4331">
        <ele>-6.1999998092651</ele>
        <time>2021-09-16T09:39:34.000Z</time>
      </trkpt>
      <trkpt lat="47.29365" lon="-2.433">
        <ele>-6.1999998092651</ele>
        <time>2021-09-16T09:39:36.000Z</time>
      </trkpt>
      <trkpt lat="47.29359" lon="-2.43275">
        <ele>-6.1999998092651</ele>
        <time>2021-09-16T09:39:40.000Z</time>
      </trkpt>
      <trkpt lat="47.29358" lon="-2.43246">
        <ele>-6.1999998092651</ele>
        <time>2021-09-16T09:39:45.000Z</time>
      </trkpt>
      <trkpt lat="47.29361" lon="-2.4324">
        <ele>-6.1999998092651</ele>
        <time>2021-09-16T09:39:46.000Z</time>
      </trkpt>
      <trkpt lat="47.2937" lon="-2.43225">
        <ele>-6.1999998092651</ele>
        <time>2021-09-16T09:39:48.000Z</time>
      </trkpt>
      <trkpt lat="47.29373" lon="-2.43218">
        <ele>-6.1999998092651</ele>
        <time>2021-09-16T09:39:49.000Z</time>
      </trkpt>
      <trkpt lat="47.29373" lon="-2.432">
        <ele>-6.1999998092651</ele>
        <time>2021-09-16T09:39:51.000Z</time>
      </trkpt>
      <trkpt lat="47.29371" lon="-2.43182">
        <ele>-6.1999998092651</ele>
        <time>2021-09-16T09:39:53.000Z</time>
      </trkpt>
      <trkpt lat="47.29369" lon="-2.43173">
        <ele>-6.1999998092651</ele>
        <time>2021-09-16T09:39:54.000Z</time>
      </trkpt>
      <trkpt lat="47.29367" lon="-2.43164">
        <ele>-6.1999998092651</ele>
        <time>2021-09-16T09:39:55.000Z</time>
      </trkpt>
      <trkpt lat="47.29365" lon="-2.43156">
        <ele>-6.1999998092651</ele>
        <time>2021-09-16T09:39:56.000Z</time>
      </trkpt>
      <trkpt lat="47.29353" lon="-2.43124">
        <ele>-6.1999998092651</ele>
        <time>2021-09-16T09:40:00.000Z</time>
      </trkpt>
      <trkpt lat="47.2934" lon="-2.43094">
        <ele>-6.1999998092651</ele>
        <time>2021-09-16T09:40:04.000Z</time>
      </trkpt>
      <trkpt lat="47.29335" lon="-2.43089">
        <ele>-6.1999998092651</ele>
        <time>2021-09-16T09:40:05.000Z</time>
      </trkpt>
      <trkpt lat="47.29319" lon="-2.43078">
        <ele>-6.1999998092651</ele>
        <time>2021-09-16T09:40:08.000Z</time>
      </trkpt>
      <trkpt lat="47.29313" lon="-2.43075">
        <ele>-6.1999998092651</ele>
        <time>2021-09-16T09:40:09.000Z</time>
      </trkpt>
      <trkpt lat="47.29302" lon="-2.43058">
        <ele>-6.1999998092651</ele>
        <time>2021-09-16T09:40:12.000Z</time>
      </trkpt>
      <trkpt lat="47.29301" lon="-2.43036">
        <ele>-6.1999998092651</ele>
        <time>2021-09-16T09:40:15.000Z</time>
      </trkpt>
      <trkpt lat="47.29302" lon="-2.43027">
        <ele>-6.1999998092651</ele>
        <time>2021-09-16T09:40:16.000Z</time>
      </trkpt>
      <trkpt lat="47.29309" lon="-2.42982">
        <ele>-6.1999998092651</ele>
        <time>2021-09-16T09:40:21.000Z</time>
      </trkpt>
      <trkpt lat="47.2931" lon="-2.42953">
        <ele>-6.1999998092651</ele>
        <time>2021-09-16T09:40:24.000Z</time>
      </trkpt>
      <trkpt lat="47.29309" lon="-2.42935">
        <ele>-6.1999998092651</ele>
        <time>2021-09-16T09:40:26.000Z</time>
      </trkpt>
      <trkpt lat="47.29315" lon="-2.42902">
        <ele>-6.1999998092651</ele>
        <time>2021-09-16T09:40:30.000Z</time>
      </trkpt>
      <trkpt lat="47.2933" lon="-2.42852">
        <ele>-6.1999998092651</ele>
        <time>2021-09-16T09:40:36.000Z</time>
      </trkpt>
      <trkpt lat="47.29334" lon="-2.42845">
        <ele>-6.1999998092651</ele>
        <time>2021-09-16T09:40:37.000Z</time>
      </trkpt>
      <trkpt lat="47.29362" lon="-2.42808">
        <ele>-6.1999998092651</ele>
        <time>2021-09-16T09:40:43.000Z</time>
      </trkpt>
      <trkpt lat="47.29377" lon="-2.42783">
        <ele>-6.1999998092651</ele>
        <time>2021-09-16T09:40:47.000Z</time>
      </trkpt>
      <trkpt lat="47.29381" lon="-2.42766">
        <ele>-6.1999998092651</ele>
        <time>2021-09-16T09:40:49.000Z</time>
      </trkpt>
      <trkpt lat="47.29387" lon="-2.42742">
        <ele>-6.1999998092651</ele>
        <time>2021-09-16T09:40:52.000Z</time>
      </trkpt>
      <trkpt lat="47.29401" lon="-2.42706">
        <ele>-6.1999998092651</ele>
        <time>2021-09-16T09:40:57.000Z</time>
      </trkpt>
      <trkpt lat="47.29404" lon="-2.42699">
        <ele>-6.5999999046326</ele>
        <time>2021-09-16T09:40:58.000Z</time>
      </trkpt>
      <trkpt lat="47.29408" lon="-2.42693">
        <ele>-7</ele>
        <time>2021-09-16T09:40:59.000Z</time>
      </trkpt>
      <trkpt lat="47.2941" lon="-2.42687">
        <ele>-7.4000000953674</ele>
        <time>2021-09-16T09:41:00.000Z</time>
      </trkpt>
      <trkpt lat="47.29413" lon="-2.4268">
        <ele>-7.8000001907349</ele>
        <time>2021-09-16T09:41:01.000Z</time>
      </trkpt>
      <trkpt lat="47.29415" lon="-2.42673">
        <ele>-8.1999998092651</ele>
        <time>2021-09-16T09:41:02.000Z</time>
      </trkpt>
      <trkpt lat="47.29417" lon="-2.42665">
        <ele>-8.1999998092651</ele>
        <time>2021-09-16T09:41:03.000Z</time>
      </trkpt>
      <trkpt lat="47.2942" lon="-2.42601">
        <ele>-8.1999998092651</ele>
        <time>2021-09-16T09:41:11.000Z</time>
      </trkpt>
      <trkpt lat="47.29421" lon="-2.42593">
        <ele>-8.1999998092651</ele>
        <time>2021-09-16T09:41:12.000Z</time>
      </trkpt>
      <trkpt lat="47.2943" lon="-2.42574">
        <ele>-8.1999998092651</ele>
        <time>2021-09-16T09:41:15.000Z</time>
      </trkpt>
      <trkpt lat="47.29438" lon="-2.42564">
        <ele>-8.1999998092651</ele>
        <time>2021-09-16T09:41:17.000Z</time>
      </trkpt>
      <trkpt lat="47.29455" lon="-2.42547">
        <ele>-8.1999998092651</ele>
        <time>2021-09-16T09:41:21.000Z</time>
      </trkpt>
      <trkpt lat="47.29481" lon="-2.42519">
        <ele>-8.1999998092651</ele>
        <time>2021-09-16T09:41:27.000Z</time>
      </trkpt>
      <trkpt lat="47.29508" lon="-2.42491">
        <ele>-8.1999998092651</ele>
        <time>2021-09-16T09:41:33.000Z</time>
      </trkpt>
      <trkpt lat="47.29513" lon="-2.42485">
        <ele>-8.1999998092651</ele>
        <time>2021-09-16T09:41:34.000Z</time>
      </trkpt>
      <trkpt lat="47.29529" lon="-2.42473">
        <ele>-8.1999998092651</ele>
        <time>2021-09-16T09:41:37.000Z</time>
      </trkpt>
      <trkpt lat="47.29534" lon="-2.42468">
        <ele>-8.1999998092651</ele>
        <time>2021-09-16T09:41:38.000Z</time>
      </trkpt>
      <trkpt lat="47.29546" lon="-2.42448">
        <ele>-8.1999998092651</ele>
        <time>2021-09-16T09:41:41.000Z</time>
      </trkpt>
      <trkpt lat="47.2955" lon="-2.42441">
        <ele>-8.1999998092651</ele>
        <time>2021-09-16T09:41:42.000Z</time>
      </trkpt>
      <trkpt lat="47.29554" lon="-2.42436">
        <ele>-8.1999998092651</ele>
        <time>2021-09-16T09:41:43.000Z</time>
      </trkpt>
      <trkpt lat="47.29563" lon="-2.42427">
        <ele>-8.1999998092651</ele>
        <time>2021-09-16T09:41:45.000Z</time>
      </trkpt>
      <trkpt lat="47.29568" lon="-2.42424">
        <ele>-8.1999998092651</ele>
        <time>2021-09-16T09:41:46.000Z</time>
      </trkpt>
      <trkpt lat="47.2958" lon="-2.42422">
        <ele>-8.1999998092651</ele>
        <time>2021-09-16T09:41:48.000Z</time>
      </trkpt>
      <trkpt lat="47.29596" lon="-2.42426">
        <ele>-8.1999998092651</ele>
        <time>2021-09-16T09:41:51.000Z</time>
      </trkpt>
      <trkpt lat="47.29607" lon="-2.4243">
        <ele>-8.1999998092651</ele>
        <time>2021-09-16T09:41:53.000Z</time>
      </trkpt>
      <trkpt lat="47.29624" lon="-2.42431">
        <ele>-8.1999998092651</ele>
        <time>2021-09-16T09:41:57.000Z</time>
      </trkpt>
      <trkpt lat="47.2963" lon="-2.42412">
        <ele>-8.1999998092651</ele>
        <time>2021-09-16T09:42:00.000Z</time>
      </trkpt>
      <trkpt lat="47.29631" lon="-2.42404">
        <ele>-8.1999998092651</ele>
        <time>2021-09-16T09:42:01.000Z</time>
      </trkpt>
      <trkpt lat="47.29639" lon="-2.42362">
        <ele>-8.1999998092651</ele>
        <time>2021-09-16T09:42:06.000Z</time>
      </trkpt>
      <trkpt lat="47.2965" lon="-2.42317">
        <ele>-8.1999998092651</ele>
        <time>2021-09-16T09:42:12.000Z</time>
      </trkpt>
      <trkpt lat="47.29656" lon="-2.42284">
        <ele>-8.1999998092651</ele>
        <time>2021-09-16T09:42:17.000Z</time>
      </trkpt>
      <trkpt lat="47.29658" lon="-2.42277">
        <ele>-8.1999998092651</ele>
        <time>2021-09-16T09:42:18.000Z</time>
      </trkpt>
      <trkpt lat="47.29661" lon="-2.42263">
        <ele>-8.1999998092651</ele>
        <time>2021-09-16T09:42:20.000Z</time>
      </trkpt>
      <trkpt lat="47.29664" lon="-2.42251">
        <ele>-8.1999998092651</ele>
        <time>2021-09-16T09:42:22.000Z</time>
      </trkpt>
      <trkpt lat="47.29676" lon="-2.42215">
        <ele>-8.1999998092651</ele>
        <time>2021-09-16T09:42:28.000Z</time>
      </trkpt>
      <trkpt lat="47.29685" lon="-2.42198">
        <ele>-8.1999998092651</ele>
        <time>2021-09-16T09:42:31.000Z</time>
      </trkpt>
      <trkpt lat="47.29701" lon="-2.4217">
        <ele>-8.1999998092651</ele>
        <time>2021-09-16T09:42:36.000Z</time>
      </trkpt>
      <trkpt lat="47.29728" lon="-2.42122">
        <ele>-8.1999998092651</ele>
        <time>2021-09-16T09:42:44.000Z</time>
      </trkpt>
      <trkpt lat="47.29755" lon="-2.42075">
        <ele>-8.1999998092651</ele>
        <time>2021-09-16T09:42:52.000Z</time>
      </trkpt>
      <trkpt lat="47.29782" lon="-2.42024">
        <ele>-8.1999998092651</ele>
        <time>2021-09-16T09:43:00.000Z</time>
      </trkpt>
      <trkpt lat="47.29787" lon="-2.41992">
        <ele>-8.1999998092651</ele>
        <time>2021-09-16T09:43:04.000Z</time>
      </trkpt>
      <trkpt lat="47.29784" lon="-2.41975">
        <ele>-8.1999998092651</ele>
        <time>2021-09-16T09:43:06.000Z</time>
      </trkpt>
      <trkpt lat="47.29779" lon="-2.41952">
        <ele>-8.1999998092651</ele>
        <time>2021-09-16T09:43:09.000Z</time>
      </trkpt>
      <trkpt lat="47.29767" lon="-2.41889">
        <ele>-8.1999998092651</ele>
        <time>2021-09-16T09:43:17.000Z</time>
      </trkpt>
      <trkpt lat="47.29767" lon="-2.41846">
        <ele>-8.1999998092651</ele>
        <time>2021-09-16T09:43:22.000Z</time>
      </trkpt>
      <trkpt lat="47.29769" lon="-2.41788">
        <ele>-8.1999998092651</ele>
        <time>2021-09-16T09:43:29.000Z</time>
      </trkpt>
      <trkpt lat="47.29768" lon="-2.4176">
        <ele>-8.1999998092651</ele>
        <time>2021-09-16T09:43:33.000Z</time>
      </trkpt>
      <trkpt lat="47.29763" lon="-2.41748">
        <ele>-8.1999998092651</ele>
        <time>2021-09-16T09:43:35.000Z</time>
      </trkpt>
      <trkpt lat="47.29751" lon="-2.41749">
        <ele>-8.1999998092651</ele>
        <time>2021-09-16T09:43:38.000Z</time>
      </trkpt>
      <trkpt lat="47.29743" lon="-2.41754">
        <ele>-8.1999998092651</ele>
        <time>2021-09-16T09:43:40.000Z</time>
      </trkpt>
      <trkpt lat="47.29739" lon="-2.41757">
        <ele>-8.1999998092651</ele>
        <time>2021-09-16T09:43:41.000Z</time>
      </trkpt>
      <trkpt lat="47.2973" lon="-2.41766">
        <ele>-8.1999998092651</ele>
        <time>2021-09-16T09:43:43.000Z</time>
      </trkpt>
      <trkpt lat="47.29707" lon="-2.41799">
        <ele>-8.1999998092651</ele>
        <time>2021-09-16T09:43:49.000Z</time>
      </trkpt>
      <trkpt lat="47.297" lon="-2.41811">
        <ele>-8.1999998092651</ele>
        <time>2021-09-16T09:43:51.000Z</time>
      </trkpt>
      <trkpt lat="47.29691" lon="-2.41819">
        <ele>-8.1999998092651</ele>
        <time>2021-09-16T09:43:53.000Z</time>
      </trkpt>
      <trkpt lat="47.29681" lon="-2.41821">
        <ele>-8.1999998092651</ele>
        <time>2021-09-16T09:43:55.000Z</time>
      </trkpt>
      <trkpt lat="47.2967" lon="-2.41821">
        <ele>-8.1999998092651</ele>
        <time>2021-09-16T09:43:57.000Z</time>
      </trkpt>
      <trkpt lat="47.29665" lon="-2.41823">
        <ele>-8.1999998092651</ele>
        <time>2021-09-16T09:43:58.000Z</time>
      </trkpt>
      <trkpt lat="47.29654" lon="-2.41827">
        <ele>-8.1999998092651</ele>
        <time>2021-09-16T09:44:00.000Z</time>
      </trkpt>
      <trkpt lat="47.2964" lon="-2.41816">
        <ele>-8.1999998092651</ele>
        <time>2021-09-16T09:44:03.000Z</time>
      </trkpt>
      <trkpt lat="47.29634" lon="-2.41792">
        <ele>-8.1999998092651</ele>
        <time>2021-09-16T09:44:06.000Z</time>
      </trkpt>
      <trkpt lat="47.29632" lon="-2.41783">
        <ele>-8.1999998092651</ele>
        <time>2021-09-16T09:44:07.000Z</time>
      </trkpt>
      <trkpt lat="47.2963" lon="-2.41774">
        <ele>-8.1999998092651</ele>
        <time>2021-09-16T09:44:08.000Z</time>
      </trkpt>
      <trkpt lat="47.29622" lon="-2.41759">
        <ele>-8.1999998092651</ele>
        <time>2021-09-16T09:44:10.000Z</time>
      </trkpt>
      <trkpt lat="47.29606" lon="-2.4174">
        <ele>-8.1999998092651</ele>
        <time>2021-09-16T09:44:13.000Z</time>
      </trkpt>
      <trkpt lat="47.29596" lon="-2.4173">
        <ele>-8.1999998092651</ele>
        <time>2021-09-16T09:44:15.000Z</time>
      </trkpt>
      <trkpt lat="47.29569" lon="-2.41711">
        <ele>-8.1999998092651</ele>
        <time>2021-09-16T09:44:20.000Z</time>
      </trkpt>
      <trkpt lat="47.29564" lon="-2.41708">
        <ele>-8.1999998092651</ele>
        <time>2021-09-16T09:44:21.000Z</time>
      </trkpt>
      <trkpt lat="47.29559" lon="-2.41705">
        <ele>-8.1999998092651</ele>
        <time>2021-09-16T09:44:22.000Z</time>
      </trkpt>
      <trkpt lat="47.29547" lon="-2.41688">
        <ele>-8.1999998092651</ele>
        <time>2021-09-16T09:44:25.000Z</time>
      </trkpt>
      <trkpt lat="47.29544" lon="-2.41681">
        <ele>-8.1999998092651</ele>
        <time>2021-09-16T09:44:26.000Z</time>
      </trkpt>
      <trkpt lat="47.2953" lon="-2.41644">
        <ele>-8.1999998092651</ele>
        <time>2021-09-16T09:44:31.000Z</time>
      </trkpt>
      <trkpt lat="47.29526" lon="-2.41617">
        <ele>-8.1999998092651</ele>
        <time>2021-09-16T09:44:34.000Z</time>
      </trkpt>
      <trkpt lat="47.29526" lon="-2.41597">
        <ele>-8.1999998092651</ele>
        <time>2021-09-16T09:44:36.000Z</time>
      </trkpt>
      <trkpt lat="47.29527" lon="-2.41587">
        <ele>-8.1999998092651</ele>
        <time>2021-09-16T09:44:37.000Z</time>
      </trkpt>
      <trkpt lat="47.29534" lon="-2.4156">
        <ele>-8.1999998092651</ele>
        <time>2021-09-16T09:44:40.000Z</time>
      </trkpt>
      <trkpt lat="47.29537" lon="-2.41551">
        <ele>-8.1999998092651</ele>
        <time>2021-09-16T09:44:41.000Z</time>
      </trkpt>
      <trkpt lat="47.29541" lon="-2.41534">
        <ele>-8.1999998092651</ele>
        <time>2021-09-16T09:44:43.000Z</time>
      </trkpt>
      <trkpt lat="47.2954" lon="-2.41525">
        <ele>-8.1999998092651</ele>
        <time>2021-09-16T09:44:44.000Z</time>
      </trkpt>
      <trkpt lat="47.29529" lon="-2.41495">
        <ele>-8.1999998092651</ele>
        <time>2021-09-16T09:44:48.000Z</time>
      </trkpt>
      <trkpt lat="47.29525" lon="-2.41487">
        <ele>-8.1999998092651</ele>
        <time>2021-09-16T09:44:49.000Z</time>
      </trkpt>
      <trkpt lat="47.2952" lon="-2.41481">
        <ele>-8.1999998092651</ele>
        <time>2021-09-16T09:44:50.000Z</time>
      </trkpt>
      <trkpt lat="47.29508" lon="-2.41473">
        <ele>-8.1999998092651</ele>
        <time>2021-09-16T09:44:52.000Z</time>
      </trkpt>
      <trkpt lat="47.2949" lon="-2.4148">
        <ele>-8.1999998092651</ele>
        <time>2021-09-16T09:44:55.000Z</time>
      </trkpt>
      <trkpt lat="47.29466" lon="-2.4148">
        <ele>-8.1999998092651</ele>
        <time>2021-09-16T09:44:59.000Z</time>
      </trkpt>
      <trkpt lat="47.29448" lon="-2.41484">
        <ele>-8.1999998092651</ele>
        <time>2021-09-16T09:45:02.000Z</time>
      </trkpt>
      <trkpt lat="47.29441" lon="-2.41484">
        <ele>-8.1999998092651</ele>
        <time>2021-09-16T09:45:03.000Z</time>
      </trkpt>
      <trkpt lat="47.29424" lon="-2.41477">
        <ele>-8.1999998092651</ele>
        <time>2021-09-16T09:45:06.000Z</time>
      </trkpt>
      <trkpt lat="47.29415" lon="-2.41466">
        <ele>-8.1999998092651</ele>
        <time>2021-09-16T09:45:08.000Z</time>
      </trkpt>
      <trkpt lat="47.29401" lon="-2.41448">
        <ele>-8.1999998092651</ele>
        <time>2021-09-16T09:45:11.000Z</time>
      </trkpt>
      <trkpt lat="47.29391" lon="-2.41428">
        <ele>-8.1999998092651</ele>
        <time>2021-09-16T09:45:14.000Z</time>
      </trkpt>
      <trkpt lat="47.29382" lon="-2.41406">
        <ele>-8.1999998092651</ele>
        <time>2021-09-16T09:45:17.000Z</time>
      </trkpt>
      <trkpt lat="47.2936" lon="-2.41367">
        <ele>-8.1999998092651</ele>
        <time>2021-09-16T09:45:23.000Z</time>
      </trkpt>
      <trkpt lat="47.29351" lon="-2.41355">
        <ele>-8.1999998092651</ele>
        <time>2021-09-16T09:45:25.000Z</time>
      </trkpt>
      <trkpt lat="47.29346" lon="-2.41338">
        <ele>-8.1999998092651</ele>
        <time>2021-09-16T09:45:27.000Z</time>
      </trkpt>
      <trkpt lat="47.29352" lon="-2.41313">
        <ele>-8.1999998092651</ele>
        <time>2021-09-16T09:45:30.000Z</time>
      </trkpt>
      <trkpt lat="47.29359" lon="-2.41298">
        <ele>-8.1999998092651</ele>
        <time>2021-09-16T09:45:33.000Z</time>
      </trkpt>
      <trkpt lat="47.29359" lon="-2.41286">
        <ele>-8.1999998092651</ele>
        <time>2021-09-16T09:45:37.000Z</time>
      </trkpt>
      <trkpt lat="47.29357" lon="-2.41269">
        <ele>-8.1999998092651</ele>
        <time>2021-09-16T09:45:42.000Z</time>
      </trkpt>
      <trkpt lat="47.29357" lon="-2.41266">
        <ele>-8.1999998092651</ele>
        <time>2021-09-16T09:45:43.000Z</time>
      </trkpt>
      <trkpt lat="47.29356" lon="-2.4125">
        <ele>-8.1999998092651</ele>
        <time>2021-09-16T09:45:48.000Z</time>
      </trkpt>
      <trkpt lat="47.29355" lon="-2.41247">
        <ele>-8.1999998092651</ele>
        <time>2021-09-16T09:45:51.000Z</time>
      </trkpt>
      <trkpt lat="47.29352" lon="-2.41245">
        <ele>-8.1999998092651</ele>
        <time>2021-09-16T09:46:36.000Z</time>
      </trkpt>
      <trkpt lat="47.29342" lon="-2.41231">
        <ele>-8.1999998092651</ele>
        <time>2021-09-16T09:46:40.000Z</time>
      </trkpt>
      <trkpt lat="47.29317" lon="-2.41203">
        <ele>-8.1999998092651</ele>
        <time>2021-09-16T09:46:46.000Z</time>
      </trkpt>
      <trkpt lat="47.29304" lon="-2.41187">
        <ele>-8.1999998092651</ele>
        <time>2021-09-16T09:46:49.000Z</time>
      </trkpt>
      <trkpt lat="47.29299" lon="-2.41173">
        <ele>-8.1999998092651</ele>
        <time>2021-09-16T09:46:51.000Z</time>
      </trkpt>
      <trkpt lat="47.2928" lon="-2.41132">
        <ele>-8.1999998092651</ele>
        <time>2021-09-16T09:46:57.000Z</time>
      </trkpt>
      <trkpt lat="47.29253" lon="-2.41097">
        <ele>-8.1999998092651</ele>
        <time>2021-09-16T09:47:03.000Z</time>
      </trkpt>
      <trkpt lat="47.29246" lon="-2.41084">
        <ele>-8.1999998092651</ele>
        <time>2021-09-16T09:47:05.000Z</time>
      </trkpt>
      <trkpt lat="47.29248" lon="-2.41069">
        <ele>-8.1999998092651</ele>
        <time>2021-09-16T09:47:07.000Z</time>
      </trkpt>
      <trkpt lat="47.29255" lon="-2.41044">
        <ele>-8.1999998092651</ele>
        <time>2021-09-16T09:47:10.000Z</time>
      </trkpt>
      <trkpt lat="47.29246" lon="-2.41031">
        <ele>-8.1999998092651</ele>
        <time>2021-09-16T09:47:12.000Z</time>
      </trkpt>
      <trkpt lat="47.29225" lon="-2.40997">
        <ele>-8.1999998092651</ele>
        <time>2021-09-16T09:47:17.000Z</time>
      </trkpt>
      <trkpt lat="47.29208" lon="-2.40959">
        <ele>-8.1999998092651</ele>
        <time>2021-09-16T09:47:22.000Z</time>
      </trkpt>
      <trkpt lat="47.29204" lon="-2.40953">
        <ele>-8.1999998092651</ele>
        <time>2021-09-16T09:47:23.000Z</time>
      </trkpt>
      <trkpt lat="47.29189" lon="-2.40946">
        <ele>-8.1999998092651</ele>
        <time>2021-09-16T09:47:26.000Z</time>
      </trkpt>
      <trkpt lat="47.29184" lon="-2.40945">
        <ele>-8.1999998092651</ele>
        <time>2021-09-16T09:47:27.000Z</time>
      </trkpt>
      <trkpt lat="47.29169" lon="-2.40941">
        <ele>-8.1999998092651</ele>
        <time>2021-09-16T09:47:30.000Z</time>
      </trkpt>
      <trkpt lat="47.29161" lon="-2.40936">
        <ele>-8.1999998092651</ele>
        <time>2021-09-16T09:47:32.000Z</time>
      </trkpt>
      <trkpt lat="47.29159" lon="-2.40932">
        <ele>-8.1999998092651</ele>
        <time>2021-09-16T09:47:34.000Z</time>
      </trkpt>
      <trkpt lat="47.29159" lon="-2.4093">
        <ele>-8.1999998092651</ele>
        <time>2021-09-16T09:47:35.000Z</time>
      </trkpt>
      <trkpt lat="47.29159" lon="-2.4093">
        <ele>-8.1999998092651</ele>
        <time>2021-09-16T09:47:37.000Z</time>
      </trkpt>
      <trkpt lat="47.29159" lon="-2.40927">
        <ele>-8.1999998092651</ele>
        <time>2021-09-16T09:47:42.000Z</time>
      </trkpt>
      <trkpt lat="47.29159" lon="-2.40922">
        <ele>-8.1999998092651</ele>
        <time>2021-09-16T09:47:43.000Z</time>
      </trkpt>
      <trkpt lat="47.29161" lon="-2.409">
        <ele>-8.1999998092651</ele>
        <time>2021-09-16T09:47:47.000Z</time>
      </trkpt>
      <trkpt lat="47.29171" lon="-2.40858">
        <ele>-8.1999998092651</ele>
        <time>2021-09-16T09:47:53.000Z</time>
      </trkpt>
      <trkpt lat="47.2917" lon="-2.40828">
        <ele>-8.1999998092651</ele>
        <time>2021-09-16T09:47:57.000Z</time>
      </trkpt>
      <trkpt lat="47.29175" lon="-2.40797">
        <ele>-8.1999998092651</ele>
        <time>2021-09-16T09:48:01.000Z</time>
      </trkpt>
      <trkpt lat="47.29178" lon="-2.40789">
        <ele>-8.1999998092651</ele>
        <time>2021-09-16T09:48:02.000Z</time>
      </trkpt>
      <trkpt lat="47.29192" lon="-2.4075">
        <ele>-8.1999998092651</ele>
        <time>2021-09-16T09:48:07.000Z</time>
      </trkpt>
      <trkpt lat="47.29197" lon="-2.40743">
        <ele>-8.1999998092651</ele>
        <time>2021-09-16T09:48:08.000Z</time>
      </trkpt>
      <trkpt lat="47.29222" lon="-2.40706">
        <ele>-8.1999998092651</ele>
        <time>2021-09-16T09:48:14.000Z</time>
      </trkpt>
      <trkpt lat="47.29228" lon="-2.40691">
        <ele>-8.1999998092651</ele>
        <time>2021-09-16T09:48:16.000Z</time>
      </trkpt>
      <trkpt lat="47.29232" lon="-2.40672">
        <ele>-8.1999998092651</ele>
        <time>2021-09-16T09:48:18.000Z</time>
      </trkpt>
      <trkpt lat="47.29225" lon="-2.40644">
        <ele>-8.1999998092651</ele>
        <time>2021-09-16T09:48:21.000Z</time>
      </trkpt>
      <trkpt lat="47.29221" lon="-2.40636">
        <ele>-8.1999998092651</ele>
        <time>2021-09-16T09:48:22.000Z</time>
      </trkpt>
      <trkpt lat="47.29216" lon="-2.40628">
        <ele>-8.1999998092651</ele>
        <time>2021-09-16T09:48:23.000Z</time>
      </trkpt>
      <trkpt lat="47.29206" lon="-2.40614">
        <ele>-8.1999998092651</ele>
        <time>2021-09-16T09:48:25.000Z</time>
      </trkpt>
      <trkpt lat="47.29188" lon="-2.40615">
        <ele>-8.1999998092651</ele>
        <time>2021-09-16T09:48:28.000Z</time>
      </trkpt>
      <trkpt lat="47.29178" lon="-2.40624">
        <ele>-8.1999998092651</ele>
        <time>2021-09-16T09:48:30.000Z</time>
      </trkpt>
      <trkpt lat="47.29172" lon="-2.40628">
        <ele>-8.1999998092651</ele>
        <time>2021-09-16T09:48:31.000Z</time>
      </trkpt>
      <trkpt lat="47.29167" lon="-2.40633">
        <ele>-8.1999998092651</ele>
        <time>2021-09-16T09:48:32.000Z</time>
      </trkpt>
      <trkpt lat="47.29151" lon="-2.40643">
        <ele>-8.1999998092651</ele>
        <time>2021-09-16T09:48:35.000Z</time>
      </trkpt>
      <trkpt lat="47.29146" lon="-2.40641">
        <ele>-8.1999998092651</ele>
        <time>2021-09-16T09:48:36.000Z</time>
      </trkpt>
      <trkpt lat="47.29141" lon="-2.4063">
        <ele>-8.1999998092651</ele>
        <time>2021-09-16T09:48:38.000Z</time>
      </trkpt>
      <trkpt lat="47.29137" lon="-2.40599">
        <ele>-8.1999998092651</ele>
        <time>2021-09-16T09:48:42.000Z</time>
      </trkpt>
      <trkpt lat="47.29122" lon="-2.40572">
        <ele>-8.1999998092651</ele>
        <time>2021-09-16T09:48:46.000Z</time>
      </trkpt>
      <trkpt lat="47.29113" lon="-2.40561">
        <ele>-8.1999998092651</ele>
        <time>2021-09-16T09:48:48.000Z</time>
      </trkpt>
      <trkpt lat="47.29099" lon="-2.40545">
        <ele>-8.1999998092651</ele>
        <time>2021-09-16T09:48:51.000Z</time>
      </trkpt>
      <trkpt lat="47.29097" lon="-2.40523">
        <ele>-8.1999998092651</ele>
        <time>2021-09-16T09:48:54.000Z</time>
      </trkpt>
      <trkpt lat="47.29108" lon="-2.40503">
        <ele>-8.1999998092651</ele>
        <time>2021-09-16T09:48:57.000Z</time>
      </trkpt>
      <trkpt lat="47.2913" lon="-2.40488">
        <ele>-8.1999998092651</ele>
        <time>2021-09-16T09:49:01.000Z</time>
      </trkpt>
      <trkpt lat="47.29141" lon="-2.40484">
        <ele>-8.1999998092651</ele>
        <time>2021-09-16T09:49:03.000Z</time>
      </trkpt>
      <trkpt lat="47.29153" lon="-2.40486">
        <ele>-8.1999998092651</ele>
        <time>2021-09-16T09:49:05.000Z</time>
      </trkpt>
      <trkpt lat="47.29165" lon="-2.40503">
        <ele>-8.1999998092651</ele>
        <time>2021-09-16T09:49:08.000Z</time>
      </trkpt>
      <trkpt lat="47.29176" lon="-2.4052">
        <ele>-8.1999998092651</ele>
        <time>2021-09-16T09:49:11.000Z</time>
      </trkpt>
      <trkpt lat="47.29192" lon="-2.40515">
        <ele>-8.1999998092651</ele>
        <time>2021-09-16T09:49:14.000Z</time>
      </trkpt>
      <trkpt lat="47.2922" lon="-2.40498">
        <ele>-8.1999998092651</ele>
        <time>2021-09-16T09:49:19.000Z</time>
      </trkpt>
      <trkpt lat="47.29226" lon="-2.40494">
        <ele>-8.1999998092651</ele>
        <time>2021-09-16T09:49:20.000Z</time>
      </trkpt>
      <trkpt lat="47.29254" lon="-2.40479">
        <ele>-8.1999998092651</ele>
        <time>2021-09-16T09:49:25.000Z</time>
      </trkpt>
      <trkpt lat="47.2927" lon="-2.40472">
        <ele>-8.1999998092651</ele>
        <time>2021-09-16T09:49:28.000Z</time>
      </trkpt>
      <trkpt lat="47.29281" lon="-2.40467">
        <ele>-8.1999998092651</ele>
        <time>2021-09-16T09:49:30.000Z</time>
      </trkpt>
      <trkpt lat="47.29293" lon="-2.4045">
        <ele>-8.1999998092651</ele>
        <time>2021-09-16T09:49:33.000Z</time>
      </trkpt>
      <trkpt lat="47.29298" lon="-2.40435">
        <ele>-8.1999998092651</ele>
        <time>2021-09-16T09:49:35.000Z</time>
      </trkpt>
      <trkpt lat="47.29305" lon="-2.40413">
        <ele>-8.1999998092651</ele>
        <time>2021-09-16T09:49:38.000Z</time>
      </trkpt>
      <trkpt lat="47.29299" lon="-2.40389">
        <ele>-8.1999998092651</ele>
        <time>2021-09-16T09:49:41.000Z</time>
      </trkpt>
      <trkpt lat="47.29295" lon="-2.40382">
        <ele>-8.1999998092651</ele>
        <time>2021-09-16T09:49:42.000Z</time>
      </trkpt>
      <trkpt lat="47.29289" lon="-2.40369">
        <ele>-8.1999998092651</ele>
        <time>2021-09-16T09:49:44.000Z</time>
      </trkpt>
      <trkpt lat="47.29285" lon="-2.40354">
        <ele>-8.1999998092651</ele>
        <time>2021-09-16T09:49:46.000Z</time>
      </trkpt>
      <trkpt lat="47.29291" lon="-2.40333">
        <ele>-8.1999998092651</ele>
        <time>2021-09-16T09:49:49.000Z</time>
      </trkpt>
      <trkpt lat="47.29299" lon="-2.40324">
        <ele>-8.1999998092651</ele>
        <time>2021-09-16T09:49:51.000Z</time>
      </trkpt>
      <trkpt lat="47.29309" lon="-2.40314">
        <ele>-8.1999998092651</ele>
        <time>2021-09-16T09:49:53.000Z</time>
      </trkpt>
      <trkpt lat="47.29341" lon="-2.40278">
        <ele>-8.1999998092651</ele>
        <time>2021-09-16T09:50:00.000Z</time>
      </trkpt>
      <trkpt lat="47.29367" lon="-2.40255">
        <ele>-8.1999998092651</ele>
        <time>2021-09-16T09:50:05.000Z</time>
      </trkpt>
      <trkpt lat="47.29377" lon="-2.40246">
        <ele>-8.1999998092651</ele>
        <time>2021-09-16T09:50:07.000Z</time>
      </trkpt>
      <trkpt lat="47.29392" lon="-2.40236">
        <ele>-8.1999998092651</ele>
        <time>2021-09-16T09:50:10.000Z</time>
      </trkpt>
      <trkpt lat="47.29424" lon="-2.40218">
        <ele>-8.1999998092651</ele>
        <time>2021-09-16T09:50:16.000Z</time>
      </trkpt>
      <trkpt lat="47.2943" lon="-2.40216">
        <ele>-8.1999998092651</ele>
        <time>2021-09-16T09:50:17.000Z</time>
      </trkpt>
      <trkpt lat="47.29446" lon="-2.40209">
        <ele>-8.1999998092651</ele>
        <time>2021-09-16T09:50:20.000Z</time>
      </trkpt>
      <trkpt lat="47.29452" lon="-2.40186">
        <ele>-8.1999998092651</ele>
        <time>2021-09-16T09:50:23.000Z</time>
      </trkpt>
      <trkpt lat="47.29454" lon="-2.4017">
        <ele>-8.1999998092651</ele>
        <time>2021-09-16T09:50:25.000Z</time>
      </trkpt>
      <trkpt lat="47.29456" lon="-2.40147">
        <ele>-8.1999998092651</ele>
        <time>2021-09-16T09:50:28.000Z</time>
      </trkpt>
      <trkpt lat="47.29459" lon="-2.40105">
        <ele>-8.1999998092651</ele>
        <time>2021-09-16T09:50:33.000Z</time>
      </trkpt>
      <trkpt lat="47.29463" lon="-2.40069">
        <ele>-8.1999998092651</ele>
        <time>2021-09-16T09:50:37.000Z</time>
      </trkpt>
      <trkpt lat="47.29463" lon="-2.40052">
        <ele>-8.1999998092651</ele>
        <time>2021-09-16T09:50:39.000Z</time>
      </trkpt>
      <trkpt lat="47.29461" lon="-2.4001">
        <ele>-8.1999998092651</ele>
        <time>2021-09-16T09:50:44.000Z</time>
      </trkpt>
      <trkpt lat="47.29461" lon="-2.39994">
        <ele>-8.1999998092651</ele>
        <time>2021-09-16T09:50:46.000Z</time>
      </trkpt>
      <trkpt lat="47.29462" lon="-2.39986">
        <ele>-8.1999998092651</ele>
        <time>2021-09-16T09:50:47.000Z</time>
      </trkpt>
      <trkpt lat="47.29468" lon="-2.39964">
        <ele>-8.1999998092651</ele>
        <time>2021-09-16T09:50:50.000Z</time>
      </trkpt>
      <trkpt lat="47.29472" lon="-2.39952">
        <ele>-8.1999998092651</ele>
        <time>2021-09-16T09:50:52.000Z</time>
      </trkpt>
      <trkpt lat="47.29481" lon="-2.39933">
        <ele>-8.1999998092651</ele>
        <time>2021-09-16T09:50:56.000Z</time>
      </trkpt>
      <trkpt lat="47.29487" lon="-2.3992">
        <ele>-8.1999998092651</ele>
        <time>2021-09-16T09:51:01.000Z</time>
      </trkpt>
      <trkpt lat="47.29487" lon="-2.3992">
        <ele>-8.1999998092651</ele>
        <time>2021-09-16T09:51:02.000Z</time>
      </trkpt>
      <trkpt lat="47.29489" lon="-2.39917">
        <ele>-8.1999998092651</ele>
        <time>2021-09-16T09:51:28.000Z</time>
      </trkpt>
      <trkpt lat="47.29489" lon="-2.39914">
        <ele>-8.1999998092651</ele>
        <time>2021-09-16T09:51:29.000Z</time>
      </trkpt>
      <trkpt lat="47.29491" lon="-2.39905">
        <ele>-8.1999998092651</ele>
        <time>2021-09-16T09:51:33.000Z</time>
      </trkpt>
      <trkpt lat="47.29491" lon="-2.39905">
        <ele>-8.1999998092651</ele>
        <time>2021-09-16T09:51:34.000Z</time>
      </trkpt>
      <trkpt lat="47.29491" lon="-2.39902">
        <ele>-8.1999998092651</ele>
        <time>2021-09-16T09:51:52.000Z</time>
      </trkpt>
      <trkpt lat="47.29495" lon="-2.399">
        <ele>-8.1999998092651</ele>
        <time>2021-09-16T09:51:55.000Z</time>
      </trkpt>
      <trkpt lat="47.29495" lon="-2.39901">
        <ele>-8.1999998092651</ele>
        <time>2021-09-16T09:51:57.000Z</time>
      </trkpt>
      <trkpt lat="47.29497" lon="-2.39898">
        <ele>-8.1999998092651</ele>
        <time>2021-09-16T09:52:32.000Z</time>
      </trkpt>
      <trkpt lat="47.29499" lon="-2.39896">
        <ele>-8.1999998092651</ele>
        <time>2021-09-16T09:52:33.000Z</time>
      </trkpt>
      <trkpt lat="47.2951" lon="-2.39879">
        <ele>-8.1999998092651</ele>
        <time>2021-09-16T09:52:38.000Z</time>
      </trkpt>
      <trkpt lat="47.29523" lon="-2.39852">
        <ele>-8.1999998092651</ele>
        <time>2021-09-16T09:52:43.000Z</time>
      </trkpt>
      <trkpt lat="47.29548" lon="-2.39803">
        <ele>-8.1999998092651</ele>
        <time>2021-09-16T09:52:51.000Z</time>
      </trkpt>
      <trkpt lat="47.29569" lon="-2.39755">
        <ele>-8.1999998092651</ele>
        <time>2021-09-16T09:52:58.000Z</time>
      </trkpt>
      <trkpt lat="47.29585" lon="-2.39724">
        <ele>-7.8000001907349</ele>
        <time>2021-09-16T09:53:03.000Z</time>
      </trkpt>
      <trkpt lat="47.29588" lon="-2.39719">
        <ele>-7.4000000953674</ele>
        <time>2021-09-16T09:53:04.000Z</time>
      </trkpt>
      <trkpt lat="47.29592" lon="-2.39713">
        <ele>-7</ele>
        <time>2021-09-16T09:53:05.000Z</time>
      </trkpt>
      <trkpt lat="47.29595" lon="-2.39707">
        <ele>-6.5999999046326</ele>
        <time>2021-09-16T09:53:06.000Z</time>
      </trkpt>
      <trkpt lat="47.29599" lon="-2.397">
        <ele>-6.1999998092651</ele>
        <time>2021-09-16T09:53:07.000Z</time>
      </trkpt>
      <trkpt lat="47.29621" lon="-2.3966">
        <ele>-6.1999998092651</ele>
        <time>2021-09-16T09:53:14.000Z</time>
      </trkpt>
      <trkpt lat="47.29624" lon="-2.39653">
        <ele>-6.1999998092651</ele>
        <time>2021-09-16T09:53:15.000Z</time>
      </trkpt>
      <trkpt lat="47.29629" lon="-2.39625">
        <ele>-6.1999998092651</ele>
        <time>2021-09-16T09:53:19.000Z</time>
      </trkpt>
      <trkpt lat="47.29629" lon="-2.39611">
        <ele>-6.1999998092651</ele>
        <time>2021-09-16T09:53:21.000Z</time>
      </trkpt>
      <trkpt lat="47.2963" lon="-2.39597">
        <ele>-6.1999998092651</ele>
        <time>2021-09-16T09:53:23.000Z</time>
      </trkpt>
      <trkpt lat="47.2963" lon="-2.39591">
        <ele>-6.1999998092651</ele>
        <time>2021-09-16T09:53:24.000Z</time>
      </trkpt>
      <trkpt lat="47.29629" lon="-2.39578">
        <ele>-6.1999998092651</ele>
        <time>2021-09-16T09:53:26.000Z</time>
      </trkpt>
      <trkpt lat="47.29623" lon="-2.39571">
        <ele>-6.1999998092651</ele>
        <time>2021-09-16T09:53:28.000Z</time>
      </trkpt>
      <trkpt lat="47.29614" lon="-2.39572">
        <ele>-6.1999998092651</ele>
        <time>2021-09-16T09:53:31.000Z</time>
      </trkpt>
      <trkpt lat="47.29609" lon="-2.39565">
        <ele>-6.1999998092651</ele>
        <time>2021-09-16T09:53:35.000Z</time>
      </trkpt>
      <trkpt lat="47.29615" lon="-2.39561">
        <ele>-6.1999998092651</ele>
        <time>2021-09-16T09:53:38.000Z</time>
      </trkpt>
      <trkpt lat="47.29618" lon="-2.3956">
        <ele>-5.1999998092651</ele>
        <time>2021-09-16T09:53:39.000Z</time>
      </trkpt>
      <trkpt lat="47.29621" lon="-2.39559">
        <ele>-4.8000001907349</ele>
        <time>2021-09-16T09:53:40.000Z</time>
      </trkpt>
      <trkpt lat="47.29623" lon="-2.39558">
        <ele>-4.4000000953674</ele>
        <time>2021-09-16T09:53:41.000Z</time>
      </trkpt>
      <trkpt lat="47.29624" lon="-2.39556">
        <ele>-4</ele>
        <time>2021-09-16T09:53:42.000Z</time>
      </trkpt>
      <trkpt lat="47.29623" lon="-2.39554">
        <ele>-4</ele>
        <time>2021-09-16T09:53:43.000Z</time>
      </trkpt>
      <trkpt lat="47.29616" lon="-2.39552">
        <ele>-4</ele>
        <time>2021-09-16T09:53:46.000Z</time>
      </trkpt>
      <trkpt lat="47.29612" lon="-2.39552">
        <ele>-3.5999999046326</ele>
        <time>2021-09-16T09:53:47.000Z</time>
      </trkpt>
      <trkpt lat="47.29609" lon="-2.39551">
        <ele>-3.2000000476837</ele>
        <time>2021-09-16T09:53:48.000Z</time>
      </trkpt>
      <trkpt lat="47.29606" lon="-2.39551">
        <ele>-2.7999999523163</ele>
        <time>2021-09-16T09:53:49.000Z</time>
      </trkpt>
      <trkpt lat="47.29603" lon="-2.39551">
        <ele>-2.4000000953674</ele>
        <time>2021-09-16T09:53:50.000Z</time>
      </trkpt>
      <trkpt lat="47.296" lon="-2.3955">
        <ele>-2</ele>
        <time>2021-09-16T09:53:51.000Z</time>
      </trkpt>
      <trkpt lat="47.29582" lon="-2.39547">
        <ele>-2</ele>
        <time>2021-09-16T09:53:57.000Z</time>
      </trkpt>
      <trkpt lat="47.29578" lon="-2.39546">
        <ele>-1.6000000238419</ele>
        <time>2021-09-16T09:53:58.000Z</time>
      </trkpt>
      <trkpt lat="47.29573" lon="-2.39545">
        <ele>-1.2000000476837</ele>
        <time>2021-09-16T09:53:59.000Z</time>
      </trkpt>
      <trkpt lat="47.29568" lon="-2.39545">
        <ele>-0.80000001192093</ele>
        <time>2021-09-16T09:54:00.000Z</time>
      </trkpt>
      <trkpt lat="47.29563" lon="-2.39543">
        <ele>-0.40000000596046</ele>
        <time>2021-09-16T09:54:01.000Z</time>
      </trkpt>
      <trkpt lat="47.29557" lon="-2.39541">
        <ele>6</ele>
        <time>2021-09-16T09:54:02.000Z</time>
      </trkpt>
      <trkpt lat="47.29542" lon="-2.39538">
        <ele>-0.40000000596046</ele>
        <time>2021-09-16T09:54:04.000Z</time>
      </trkpt>
      <trkpt lat="47.29534" lon="-2.39537">
        <ele>-0.80000001192093</ele>
        <time>2021-09-16T09:54:05.000Z</time>
      </trkpt>
      <trkpt lat="47.29526" lon="-2.39536">
        <ele>-1.2000000476837</ele>
        <time>2021-09-16T09:54:06.000Z</time>
      </trkpt>
      <trkpt lat="47.29516" lon="-2.39534">
        <ele>-1.6000000238419</ele>
        <time>2021-09-16T09:54:07.000Z</time>
      </trkpt>
      <trkpt lat="47.29507" lon="-2.39532">
        <ele>-2</ele>
        <time>2021-09-16T09:54:08.000Z</time>
      </trkpt>
      <trkpt lat="47.29465" lon="-2.39523">
        <ele>-2</ele>
        <time>2021-09-16T09:54:13.000Z</time>
      </trkpt>
      <trkpt lat="47.29432" lon="-2.39517">
        <ele>-2.4000000953674</ele>
        <time>2021-09-16T09:54:17.000Z</time>
      </trkpt>
      <trkpt lat="47.29424" lon="-2.39515">
        <ele>-2.7999999523163</ele>
        <time>2021-09-16T09:54:18.000Z</time>
      </trkpt>
      <trkpt lat="47.29416" lon="-2.39514">
        <ele>-3.2000000476837</ele>
        <time>2021-09-16T09:54:19.000Z</time>
      </trkpt>
      <trkpt lat="47.29408" lon="-2.39512">
        <ele>-3.5999999046326</ele>
        <time>2021-09-16T09:54:20.000Z</time>
      </trkpt>
      <trkpt lat="47.29401" lon="-2.39511">
        <ele>-4</ele>
        <time>2021-09-16T09:54:21.000Z</time>
      </trkpt>
      <trkpt lat="47.2934" lon="-2.39499">
        <ele>-4</ele>
        <time>2021-09-16T09:54:29.000Z</time>
      </trkpt>
      <trkpt lat="47.29333" lon="-2.39497">
        <ele>-4</ele>
        <time>2021-09-16T09:54:30.000Z</time>
      </trkpt>
      <trkpt lat="47.29275" lon="-2.39486">
        <ele>-4</ele>
        <time>2021-09-16T09:54:38.000Z</time>
      </trkpt>
      <trkpt lat="47.29221" lon="-2.39475">
        <ele>-4</ele>
        <time>2021-09-16T09:54:46.000Z</time>
      </trkpt>
      <trkpt lat="47.29178" lon="-2.39468">
        <ele>-4</ele>
        <time>2021-09-16T09:54:53.000Z</time>
      </trkpt>
      <trkpt lat="47.29148" lon="-2.3946">
        <ele>-4</ele>
        <time>2021-09-16T09:54:59.000Z</time>
      </trkpt>
      <trkpt lat="47.29145" lon="-2.39462">
        <ele>-4.5999999046326</ele>
        <time>2021-09-16T09:55:00.000Z</time>
      </trkpt>
      <trkpt lat="47.29142" lon="-2.39461">
        <ele>-5</ele>
        <time>2021-09-16T09:55:01.000Z</time>
      </trkpt>
      <trkpt lat="47.2914" lon="-2.3946">
        <ele>-5.4000000953674</ele>
        <time>2021-09-16T09:55:02.000Z</time>
      </trkpt>
      <trkpt lat="47.29139" lon="-2.39459">
        <ele>-5.8000001907349</ele>
        <time>2021-09-16T09:55:03.000Z</time>
      </trkpt>
      <trkpt lat="47.29138" lon="-2.39456">
        <ele>-6.1999998092651</ele>
        <time>2021-09-16T09:55:04.000Z</time>
      </trkpt>
      <trkpt lat="47.29138" lon="-2.3945">
        <ele>-6.1999998092651</ele>
        <time>2021-09-16T09:55:06.000Z</time>
      </trkpt>
      <trkpt lat="47.29138" lon="-2.39443">
        <ele>-6.1999998092651</ele>
        <time>2021-09-16T09:55:08.000Z</time>
      </trkpt>
      <trkpt lat="47.29135" lon="-2.39426">
        <ele>-6.1999998092651</ele>
        <time>2021-09-16T09:55:12.000Z</time>
      </trkpt>
      <trkpt lat="47.29134" lon="-2.3942">
        <ele>-6.1999998092651</ele>
        <time>2021-09-16T09:55:13.000Z</time>
      </trkpt>
      <trkpt lat="47.29132" lon="-2.39405">
        <ele>-6.1999998092651</ele>
        <time>2021-09-16T09:55:15.000Z</time>
      </trkpt>
      <trkpt lat="47.29131" lon="-2.39397">
        <ele>-6.1999998092651</ele>
        <time>2021-09-16T09:55:16.000Z</time>
      </trkpt>
      <trkpt lat="47.29126" lon="-2.39367">
        <ele>-6.1999998092651</ele>
        <time>2021-09-16T09:55:20.000Z</time>
      </trkpt>
      <trkpt lat="47.29117" lon="-2.39367">
        <ele>-6.1999998092651</ele>
        <time>2021-09-16T09:55:22.000Z</time>
      </trkpt>
      <trkpt lat="47.29098" lon="-2.39379">
        <ele>-6.1999998092651</ele>
        <time>2021-09-16T09:55:26.000Z</time>
      </trkpt>
      <trkpt lat="47.29085" lon="-2.39376">
        <ele>-5.8000001907349</ele>
        <time>2021-09-16T09:55:29.000Z</time>
      </trkpt>
      <trkpt lat="47.29081" lon="-2.39372">
        <ele>-5.4000000953674</ele>
        <time>2021-09-16T09:55:30.000Z</time>
      </trkpt>
      <trkpt lat="47.29077" lon="-2.39367">
        <ele>-5</ele>
        <time>2021-09-16T09:55:31.000Z</time>
      </trkpt>
      <trkpt lat="47.29072" lon="-2.39363">
        <ele>-4.4000000953674</ele>
        <time>2021-09-16T09:55:32.000Z</time>
      </trkpt>
      <trkpt lat="47.29067" lon="-2.39359">
        <ele>-4</ele>
        <time>2021-09-16T09:55:33.000Z</time>
      </trkpt>
      <trkpt lat="47.29055" lon="-2.39354">
        <ele>-4</ele>
        <time>2021-09-16T09:55:35.000Z</time>
      </trkpt>
      <trkpt lat="47.29036" lon="-2.39345">
        <ele>-4</ele>
        <time>2021-09-16T09:55:38.000Z</time>
      </trkpt>
      <trkpt lat="47.29018" lon="-2.39335">
        <ele>-4.4000000953674</ele>
        <time>2021-09-16T09:55:41.000Z</time>
      </trkpt>
      <trkpt lat="47.29012" lon="-2.39332">
        <ele>-5</ele>
        <time>2021-09-16T09:55:42.000Z</time>
      </trkpt>
      <trkpt lat="47.29006" lon="-2.3933">
        <ele>-5.8000001907349</ele>
        <time>2021-09-16T09:55:43.000Z</time>
      </trkpt>
      <trkpt lat="47.29" lon="-2.39327">
        <ele>-6.1999998092651</ele>
        <time>2021-09-16T09:55:44.000Z</time>
      </trkpt>
      <trkpt lat="47.28989" lon="-2.39322">
        <ele>-6.1999998092651</ele>
        <time>2021-09-16T09:55:46.000Z</time>
      </trkpt>
      <trkpt lat="47.28973" lon="-2.3932">
        <ele>-6.1999998092651</ele>
        <time>2021-09-16T09:55:49.000Z</time>
      </trkpt>
      <trkpt lat="47.28963" lon="-2.3932">
        <ele>-6.1999998092651</ele>
        <time>2021-09-16T09:55:51.000Z</time>
      </trkpt>
      <trkpt lat="47.28949" lon="-2.39318">
        <ele>-6.1999998092651</ele>
        <time>2021-09-16T09:55:54.000Z</time>
      </trkpt>
      <trkpt lat="47.28945" lon="-2.39314">
        <ele>-6.1999998092651</ele>
        <time>2021-09-16T09:55:55.000Z</time>
      </trkpt>
      <trkpt lat="47.28938" lon="-2.39293">
        <ele>-6.1999998092651</ele>
        <time>2021-09-16T09:55:58.000Z</time>
      </trkpt>
      <trkpt lat="47.28935" lon="-2.39277">
        <ele>-6.1999998092651</ele>
        <time>2021-09-16T09:56:00.000Z</time>
      </trkpt>
      <trkpt lat="47.28933" lon="-2.3926">
        <ele>-6.1999998092651</ele>
        <time>2021-09-16T09:56:02.000Z</time>
      </trkpt>
      <trkpt lat="47.28932" lon="-2.39242">
        <ele>-6.1999998092651</ele>
        <time>2021-09-16T09:56:04.000Z</time>
      </trkpt>
      <trkpt lat="47.2893" lon="-2.39179">
        <ele>-6.1999998092651</ele>
        <time>2021-09-16T09:56:11.000Z</time>
      </trkpt>
      <trkpt lat="47.28932" lon="-2.39154">
        <ele>-6.1999998092651</ele>
        <time>2021-09-16T09:56:14.000Z</time>
      </trkpt>
      <trkpt lat="47.28934" lon="-2.39135">
        <ele>-6.1999998092651</ele>
        <time>2021-09-16T09:56:16.000Z</time>
      </trkpt>
      <trkpt lat="47.28943" lon="-2.39053">
        <ele>-6.1999998092651</ele>
        <time>2021-09-16T09:56:25.000Z</time>
      </trkpt>
      <trkpt lat="47.28949" lon="-2.38989">
        <ele>-6.1999998092651</ele>
        <time>2021-09-16T09:56:32.000Z</time>
      </trkpt>
      <trkpt lat="47.28952" lon="-2.38926">
        <ele>-6.1999998092651</ele>
        <time>2021-09-16T09:56:39.000Z</time>
      </trkpt>
      <trkpt lat="47.28955" lon="-2.38871">
        <ele>-6.1999998092651</ele>
        <time>2021-09-16T09:56:45.000Z</time>
      </trkpt>
      <trkpt lat="47.28958" lon="-2.38815">
        <ele>-6.1999998092651</ele>
        <time>2021-09-16T09:56:51.000Z</time>
      </trkpt>
      <trkpt lat="47.28957" lon="-2.38752">
        <ele>-6.1999998092651</ele>
        <time>2021-09-16T09:56:58.000Z</time>
      </trkpt>
      <trkpt lat="47.28956" lon="-2.387">
        <ele>-6.1999998092651</ele>
        <time>2021-09-16T09:57:04.000Z</time>
      </trkpt>
      <trkpt lat="47.28955" lon="-2.38637">
        <ele>-6.1999998092651</ele>
        <time>2021-09-16T09:57:11.000Z</time>
      </trkpt>
      <trkpt lat="47.28953" lon="-2.38572">
        <ele>-6.1999998092651</ele>
        <time>2021-09-16T09:57:18.000Z</time>
      </trkpt>
      <trkpt lat="47.28946" lon="-2.38505">
        <ele>-6.1999998092651</ele>
        <time>2021-09-16T09:57:25.000Z</time>
      </trkpt>
      <trkpt lat="47.2894" lon="-2.38431">
        <ele>-6.1999998092651</ele>
        <time>2021-09-16T09:57:33.000Z</time>
      </trkpt>
      <trkpt lat="47.28939" lon="-2.38422">
        <ele>-6.1999998092651</ele>
        <time>2021-09-16T09:57:34.000Z</time>
      </trkpt>
      <trkpt lat="47.28935" lon="-2.38368">
        <ele>-6.1999998092651</ele>
        <time>2021-09-16T09:57:40.000Z</time>
      </trkpt>
      <trkpt lat="47.28935" lon="-2.38359">
        <ele>-6.1999998092651</ele>
        <time>2021-09-16T09:57:41.000Z</time>
      </trkpt>
      <trkpt lat="47.28933" lon="-2.38293">
        <ele>-6.1999998092651</ele>
        <time>2021-09-16T09:57:48.000Z</time>
      </trkpt>
      <trkpt lat="47.28936" lon="-2.38242">
        <ele>-6.1999998092651</ele>
        <time>2021-09-16T09:57:54.000Z</time>
      </trkpt>
      <trkpt lat="47.28935" lon="-2.38235">
        <ele>-6.1999998092651</ele>
        <time>2021-09-16T09:57:55.000Z</time>
      </trkpt>
      <trkpt lat="47.28924" lon="-2.3822">
        <ele>-6.1999998092651</ele>
        <time>2021-09-16T09:57:58.000Z</time>
      </trkpt>
      <trkpt lat="47.28901" lon="-2.382">
        <ele>-6.1999998092651</ele>
        <time>2021-09-16T09:58:03.000Z</time>
      </trkpt>
      <trkpt lat="47.28899" lon="-2.38178">
        <ele>-6.1999998092651</ele>
        <time>2021-09-16T09:58:06.000Z</time>
      </trkpt>
      <trkpt lat="47.28899" lon="-2.3817">
        <ele>-6.1999998092651</ele>
        <time>2021-09-16T09:58:07.000Z</time>
      </trkpt>
      <trkpt lat="47.28902" lon="-2.38128">
        <ele>-6.1999998092651</ele>
        <time>2021-09-16T09:58:12.000Z</time>
      </trkpt>
      <trkpt lat="47.28905" lon="-2.3806">
        <ele>-6.1999998092651</ele>
        <time>2021-09-16T09:58:20.000Z</time>
      </trkpt>
      <trkpt lat="47.28909" lon="-2.37992">
        <ele>-6.1999998092651</ele>
        <time>2021-09-16T09:58:28.000Z</time>
      </trkpt>
      <trkpt lat="47.28914" lon="-2.3791">
        <ele>-6.1999998092651</ele>
        <time>2021-09-16T09:58:38.000Z</time>
      </trkpt>
      <trkpt lat="47.28919" lon="-2.37854">
        <ele>-6.1999998092651</ele>
        <time>2021-09-16T09:58:45.000Z</time>
      </trkpt>
      <trkpt lat="47.28925" lon="-2.3781">
        <ele>-6.1999998092651</ele>
        <time>2021-09-16T09:58:51.000Z</time>
      </trkpt>
      <trkpt lat="47.28926" lon="-2.37802">
        <ele>-6.1999998092651</ele>
        <time>2021-09-16T09:58:52.000Z</time>
      </trkpt>
      <trkpt lat="47.28929" lon="-2.37749">
        <ele>-6.1999998092651</ele>
        <time>2021-09-16T09:58:59.000Z</time>
      </trkpt>
      <trkpt lat="47.28935" lon="-2.3768">
        <ele>-5.8000001907349</ele>
        <time>2021-09-16T09:59:08.000Z</time>
      </trkpt>
      <trkpt lat="47.28935" lon="-2.37673">
        <ele>-5.4000000953674</ele>
        <time>2021-09-16T09:59:09.000Z</time>
      </trkpt>
      <trkpt lat="47.28936" lon="-2.37665">
        <ele>-5</ele>
        <time>2021-09-16T09:59:10.000Z</time>
      </trkpt>
      <trkpt lat="47.28934" lon="-2.37657">
        <ele>-4.5999999046326</ele>
        <time>2021-09-16T09:59:11.000Z</time>
      </trkpt>
      <trkpt lat="47.28931" lon="-2.37651">
        <ele>-4.1999998092651</ele>
        <time>2021-09-16T09:59:12.000Z</time>
      </trkpt>
      <trkpt lat="47.28927" lon="-2.37646">
        <ele>-4.1999998092651</ele>
        <time>2021-09-16T09:59:13.000Z</time>
      </trkpt>
      <trkpt lat="47.28915" lon="-2.37646">
        <ele>-4.1999998092651</ele>
        <time>2021-09-16T09:59:15.000Z</time>
      </trkpt>
      <trkpt lat="47.28888" lon="-2.37652">
        <ele>-4.1999998092651</ele>
        <time>2021-09-16T09:59:20.000Z</time>
      </trkpt>
      <trkpt lat="47.28868" lon="-2.37652">
        <ele>-4.1999998092651</ele>
        <time>2021-09-16T09:59:24.000Z</time>
      </trkpt>
      <trkpt lat="47.28862" lon="-2.37645">
        <ele>-4.1999998092651</ele>
        <time>2021-09-16T09:59:26.000Z</time>
      </trkpt>
      <trkpt lat="47.28856" lon="-2.37627">
        <ele>-4.1999998092651</ele>
        <time>2021-09-16T09:59:29.000Z</time>
      </trkpt>
      <trkpt lat="47.28854" lon="-2.37621">
        <ele>-4.1999998092651</ele>
        <time>2021-09-16T09:59:30.000Z</time>
      </trkpt>
      <trkpt lat="47.28853" lon="-2.37614">
        <ele>-4.1999998092651</ele>
        <time>2021-09-16T09:59:31.000Z</time>
      </trkpt>
      <trkpt lat="47.28855" lon="-2.37592">
        <ele>-4.1999998092651</ele>
        <time>2021-09-16T09:59:34.000Z</time>
      </trkpt>
      <trkpt lat="47.28867" lon="-2.37566">
        <ele>-4.1999998092651</ele>
        <time>2021-09-16T09:59:38.000Z</time>
      </trkpt>
      <trkpt lat="47.2887" lon="-2.37559">
        <ele>-4.1999998092651</ele>
        <time>2021-09-16T09:59:39.000Z</time>
      </trkpt>
      <trkpt lat="47.28882" lon="-2.37534">
        <ele>-4.1999998092651</ele>
        <time>2021-09-16T09:59:43.000Z</time>
      </trkpt>
      <trkpt lat="47.28882" lon="-2.37519">
        <ele>-4.1999998092651</ele>
        <time>2021-09-16T09:59:45.000Z</time>
      </trkpt>
      <trkpt lat="47.28879" lon="-2.37504">
        <ele>-4.1999998092651</ele>
        <time>2021-09-16T09:59:47.000Z</time>
      </trkpt>
      <trkpt lat="47.28877" lon="-2.3748">
        <ele>-4.1999998092651</ele>
        <time>2021-09-16T09:59:50.000Z</time>
      </trkpt>
      <trkpt lat="47.28866" lon="-2.37416">
        <ele>-4.1999998092651</ele>
        <time>2021-09-16T09:59:58.000Z</time>
      </trkpt>
      <trkpt lat="47.2886" lon="-2.37362">
        <ele>-4.1999998092651</ele>
        <time>2021-09-16T10:00:05.000Z</time>
      </trkpt>
      <trkpt lat="47.28853" lon="-2.37308">
        <ele>-4.1999998092651</ele>
        <time>2021-09-16T10:00:12.000Z</time>
      </trkpt>
      <trkpt lat="47.2885" lon="-2.37258">
        <ele>-4.1999998092651</ele>
        <time>2021-09-16T10:00:19.000Z</time>
      </trkpt>
      <trkpt lat="47.28849" lon="-2.37252">
        <ele>-4.1999998092651</ele>
        <time>2021-09-16T10:00:20.000Z</time>
      </trkpt>
      <trkpt lat="47.28847" lon="-2.37247">
        <ele>-3.7999999523163</ele>
        <time>2021-09-16T10:00:21.000Z</time>
      </trkpt>
      <trkpt lat="47.28845" lon="-2.37242">
        <ele>-3.4000000953674</ele>
        <time>2021-09-16T10:00:22.000Z</time>
      </trkpt>
      <trkpt lat="47.28843" lon="-2.3724">
        <ele>-3</ele>
        <time>2021-09-16T10:00:23.000Z</time>
      </trkpt>
      <trkpt lat="47.28842" lon="-2.37237">
        <ele>-2.5999999046326</ele>
        <time>2021-09-16T10:00:24.000Z</time>
      </trkpt>
      <trkpt lat="47.2884" lon="-2.37234">
        <ele>-2.2000000476837</ele>
        <time>2021-09-16T10:00:25.000Z</time>
      </trkpt>
      <trkpt lat="47.28837" lon="-2.37221">
        <ele>-2.2000000476837</ele>
        <time>2021-09-16T10:00:28.000Z</time>
      </trkpt>
      <trkpt lat="47.28833" lon="-2.37197">
        <ele>-2.2000000476837</ele>
        <time>2021-09-16T10:00:34.000Z</time>
      </trkpt>
      <trkpt lat="47.28828" lon="-2.37169">
        <ele>-2.2000000476837</ele>
        <time>2021-09-16T10:00:40.000Z</time>
      </trkpt>
      <trkpt lat="47.28823" lon="-2.3714">
        <ele>-2.2000000476837</ele>
        <time>2021-09-16T10:00:47.000Z</time>
      </trkpt>
      <trkpt lat="47.28822" lon="-2.37118">
        <ele>-2.2000000476837</ele>
        <time>2021-09-16T10:00:53.000Z</time>
      </trkpt>
      <trkpt lat="47.28822" lon="-2.37115">
        <ele>-2.2000000476837</ele>
        <time>2021-09-16T10:00:54.000Z</time>
      </trkpt>
      <trkpt lat="47.28821" lon="-2.37113">
        <ele>-2.2000000476837</ele>
        <time>2021-09-16T10:00:55.000Z</time>
      </trkpt>
      <trkpt lat="47.28821" lon="-2.37112">
        <ele>-2.2000000476837</ele>
        <time>2021-09-16T10:00:58.000Z</time>
      </trkpt>
      <trkpt lat="47.28818" lon="-2.37116">
        <ele>-1.3999999761581</ele>
        <time>2021-09-16T10:01:03.000Z</time>
      </trkpt>
      <trkpt lat="47.28817" lon="-2.37116">
        <ele>-1</ele>
        <time>2021-09-16T10:01:04.000Z</time>
      </trkpt>
      <trkpt lat="47.28816" lon="-2.37117">
        <ele>13.2</ele>
        <time>2021-09-16T10:01:05.000Z</time>
      </trkpt>
      <trkpt lat="47.28815" lon="-2.37118">
        <ele>13.4</ele>
        <time>2021-09-16T10:01:06.000Z</time>
      </trkpt>
      <trkpt lat="47.28809" lon="-2.37117">
        <ele>0.40000000596046</ele>
        <time>2021-09-16T10:01:09.000Z</time>
      </trkpt>
      <trkpt lat="47.28807" lon="-2.37117">
        <ele>0.80000001192093</ele>
        <time>2021-09-16T10:01:10.000Z</time>
      </trkpt>
      <trkpt lat="47.28805" lon="-2.37117">
        <ele>1.2000000476837</ele>
        <time>2021-09-16T10:01:11.000Z</time>
      </trkpt>
      <trkpt lat="47.28804" lon="-2.37117">
        <ele>1.7999999523163</ele>
        <time>2021-09-16T10:01:12.000Z</time>
      </trkpt>
      <trkpt lat="47.28801" lon="-2.37116">
        <ele>2.2000000476837</ele>
        <time>2021-09-16T10:01:13.000Z</time>
      </trkpt>
      <trkpt lat="47.28794" lon="-2.37111">
        <ele>2.5999999046326</ele>
        <time>2021-09-16T10:01:16.000Z</time>
      </trkpt>
      <trkpt lat="47.28792" lon="-2.37107">
        <ele>3</ele>
        <time>2021-09-16T10:01:17.000Z</time>
      </trkpt>
      <trkpt lat="47.28791" lon="-2.37104">
        <ele>3.5999999046326</ele>
        <time>2021-09-16T10:01:18.000Z</time>
      </trkpt>
      <trkpt lat="47.28789" lon="-2.37099">
        <ele>4</ele>
        <time>2021-09-16T10:01:19.000Z</time>
      </trkpt>
      <trkpt lat="47.28789" lon="-2.37094">
        <ele>4.4000000953674</ele>
        <time>2021-09-16T10:01:20.000Z</time>
      </trkpt>
      <trkpt lat="47.28788" lon="-2.37083">
        <ele>4.4000000953674</ele>
        <time>2021-09-16T10:01:22.000Z</time>
      </trkpt>
      <trkpt lat="47.28787" lon="-2.3707">
        <ele>4.8000001907349</ele>
        <time>2021-09-16T10:01:25.000Z</time>
      </trkpt>
      <trkpt lat="47.28786" lon="-2.37066">
        <ele>5.1999998092651</ele>
        <time>2021-09-16T10:01:26.000Z</time>
      </trkpt>
      <trkpt lat="47.28786" lon="-2.37062">
        <ele>5.8000001907349</ele>
        <time>2021-09-16T10:01:27.000Z</time>
      </trkpt>
      <trkpt lat="47.28785" lon="-2.37058">
        <ele>6.1999998092651</ele>
        <time>2021-09-16T10:01:28.000Z</time>
      </trkpt>
      <trkpt lat="47.28785" lon="-2.37054">
        <ele>6.5999999046326</ele>
        <time>2021-09-16T10:01:29.000Z</time>
      </trkpt>
      <trkpt lat="47.28782" lon="-2.37043">
        <ele>7</ele>
        <time>2021-09-16T10:01:32.000Z</time>
      </trkpt>
      <trkpt lat="47.28781" lon="-2.37041">
        <ele>7.4000000953674</ele>
        <time>2021-09-16T10:01:33.000Z</time>
      </trkpt>
      <trkpt lat="47.28779" lon="-2.37038">
        <ele>7.8000001907349</ele>
        <time>2021-09-16T10:01:34.000Z</time>
      </trkpt>
      <trkpt lat="47.28778" lon="-2.37035">
        <ele>8.1999998092651</ele>
        <time>2021-09-16T10:01:35.000Z</time>
      </trkpt>
      <trkpt lat="47.28777" lon="-2.37032">
        <ele>8.6000003814697</ele>
        <time>2021-09-16T10:01:36.000Z</time>
      </trkpt>
      <trkpt lat="47.28773" lon="-2.3702">
        <ele>8.6000003814697</ele>
        <time>2021-09-16T10:01:41.000Z</time>
      </trkpt>
      <trkpt lat="47.28767" lon="-2.37009">
        <ele>9</ele>
        <time>2021-09-16T10:01:45.000Z</time>
      </trkpt>
      <trkpt lat="47.28765" lon="-2.37007">
        <ele>9.6000003814697</ele>
        <time>2021-09-16T10:01:46.000Z</time>
      </trkpt>
      <trkpt lat="47.28764" lon="-2.37004">
        <ele>10</ele>
        <time>2021-09-16T10:01:47.000Z</time>
      </trkpt>
      <trkpt lat="47.28763" lon="-2.37001">
        <ele>10.39999961853</ele>
        <time>2021-09-16T10:01:48.000Z</time>
      </trkpt>
      <trkpt lat="47.28762" lon="-2.36997">
        <ele>10.800000190735</ele>
        <time>2021-09-16T10:01:49.000Z</time>
      </trkpt>
      <trkpt lat="47.28759" lon="-2.36978">
        <ele>10.800000190735</ele>
        <time>2021-09-16T10:01:53.000Z</time>
      </trkpt>
      <trkpt lat="47.28759" lon="-2.36972">
        <ele>10.800000190735</ele>
        <time>2021-09-16T10:01:54.000Z</time>
      </trkpt>
      <trkpt lat="47.28759" lon="-2.36966">
        <ele>10.199999809265</ele>
        <time>2021-09-16T10:01:55.000Z</time>
      </trkpt>
      <trkpt lat="47.28758" lon="-2.36961">
        <ele>9.8000001907349</ele>
        <time>2021-09-16T10:01:56.000Z</time>
      </trkpt>
      <trkpt lat="47.28757" lon="-2.36956">
        <ele>9.1999998092651</ele>
        <time>2021-09-16T10:01:57.000Z</time>
      </trkpt>
      <trkpt lat="47.28754" lon="-2.36951">
        <ele>8.8000001907349</ele>
        <time>2021-09-16T10:01:58.000Z</time>
      </trkpt>
      <trkpt lat="47.28751" lon="-2.36946">
        <ele>8.1999998092651</ele>
        <time>2021-09-16T10:01:59.000Z</time>
      </trkpt>
      <trkpt lat="47.28749" lon="-2.36941">
        <ele>7.5999999046326</ele>
        <time>2021-09-16T10:02:00.000Z</time>
      </trkpt>
      <trkpt lat="47.28746" lon="-2.36936">
        <ele>7</ele>
        <time>2021-09-16T10:02:01.000Z</time>
      </trkpt>
      <trkpt lat="47.28743" lon="-2.36929">
        <ele>6.4000000953674</ele>
        <time>2021-09-16T10:02:02.000Z</time>
      </trkpt>
      <trkpt lat="47.2874" lon="-2.36924">
        <ele>5.8000001907349</ele>
        <time>2021-09-16T10:02:03.000Z</time>
      </trkpt>
      <trkpt lat="47.28733" lon="-2.36914">
        <ele>5.8000001907349</ele>
        <time>2021-09-16T10:02:05.000Z</time>
      </trkpt>
      <trkpt lat="47.2872" lon="-2.36897">
        <ele>5.8000001907349</ele>
        <time>2021-09-16T10:02:10.000Z</time>
      </trkpt>
      <trkpt lat="47.28706" lon="-2.36888">
        <ele>5.8000001907349</ele>
        <time>2021-09-16T10:02:15.000Z</time>
      </trkpt>
      <trkpt lat="47.28701" lon="-2.36879">
        <ele>6.1999998092651</ele>
        <time>2021-09-16T10:02:18.000Z</time>
      </trkpt>
      <trkpt lat="47.287" lon="-2.36875">
        <ele>6.5999999046326</ele>
        <time>2021-09-16T10:02:19.000Z</time>
      </trkpt>
      <trkpt lat="47.28698" lon="-2.36871">
        <ele>7</ele>
        <time>2021-09-16T10:02:20.000Z</time>
      </trkpt>
      <trkpt lat="47.28695" lon="-2.36867">
        <ele>7.4000000953674</ele>
        <time>2021-09-16T10:02:21.000Z</time>
      </trkpt>
      <trkpt lat="47.28693" lon="-2.36864">
        <ele>7.8000001907349</ele>
        <time>2021-09-16T10:02:22.000Z</time>
      </trkpt>
      <trkpt lat="47.28681" lon="-2.36841">
        <ele>7.8000001907349</ele>
        <time>2021-09-16T10:02:27.000Z</time>
      </trkpt>
      <trkpt lat="47.28672" lon="-2.36819">
        <ele>7.8000001907349</ele>
        <time>2021-09-16T10:02:34.000Z</time>
      </trkpt>
      <trkpt lat="47.28668" lon="-2.3681">
        <ele>8.1999998092651</ele>
        <time>2021-09-16T10:02:37.000Z</time>
      </trkpt>
      <trkpt lat="47.28666" lon="-2.36808">
        <ele>8.6000003814697</ele>
        <time>2021-09-16T10:02:38.000Z</time>
      </trkpt>
      <trkpt lat="47.28665" lon="-2.36806">
        <ele>9</ele>
        <time>2021-09-16T10:02:39.000Z</time>
      </trkpt>
      <trkpt lat="47.28663" lon="-2.36803">
        <ele>9.6000003814697</ele>
        <time>2021-09-16T10:02:40.000Z</time>
      </trkpt>
      <trkpt lat="47.28661" lon="-2.36802">
        <ele>10</ele>
        <time>2021-09-16T10:02:41.000Z</time>
      </trkpt>
      <trkpt lat="47.28658" lon="-2.36803">
        <ele>10</ele>
        <time>2021-09-16T10:02:42.000Z</time>
      </trkpt>
      <trkpt lat="47.2865" lon="-2.36808">
        <ele>10</ele>
        <time>2021-09-16T10:02:44.000Z</time>
      </trkpt>
      <trkpt lat="47.28643" lon="-2.36815">
        <ele>10</ele>
        <time>2021-09-16T10:02:46.000Z</time>
      </trkpt>
      <trkpt lat="47.28624" lon="-2.36834">
        <ele>10</ele>
        <time>2021-09-16T10:02:51.000Z</time>
      </trkpt>
      <trkpt lat="47.28609" lon="-2.3685">
        <ele>9.3999996185303</ele>
        <time>2021-09-16T10:02:55.000Z</time>
      </trkpt>
      <trkpt lat="47.28604" lon="-2.36851">
        <ele>9</ele>
        <time>2021-09-16T10:02:56.000Z</time>
      </trkpt>
      <trkpt lat="47.28598" lon="-2.36851">
        <ele>8.6000003814697</ele>
        <time>2021-09-16T10:02:57.000Z</time>
      </trkpt>
      <trkpt lat="47.28594" lon="-2.36847">
        <ele>8.1999998092651</ele>
        <time>2021-09-16T10:02:58.000Z</time>
      </trkpt>
      <trkpt lat="47.28591" lon="-2.36842">
        <ele>7.8000001907349</ele>
        <time>2021-09-16T10:02:59.000Z</time>
      </trkpt>
      <trkpt lat="47.28586" lon="-2.36831">
        <ele>7.8000001907349</ele>
        <time>2021-09-16T10:03:01.000Z</time>
      </trkpt>
      <trkpt lat="47.28574" lon="-2.36809">
        <ele>7.8000001907349</ele>
        <time>2021-09-16T10:03:05.000Z</time>
      </trkpt>
      <trkpt lat="47.28566" lon="-2.36792">
        <ele>7.8000001907349</ele>
        <time>2021-09-16T10:03:08.000Z</time>
      </trkpt>
      <trkpt lat="47.28557" lon="-2.36775">
        <ele>7.8000001907349</ele>
        <time>2021-09-16T10:03:11.000Z</time>
      </trkpt>
      <trkpt lat="47.28546" lon="-2.36754">
        <ele>7.8000001907349</ele>
        <time>2021-09-16T10:03:15.000Z</time>
      </trkpt>
      <trkpt lat="47.28543" lon="-2.36748">
        <ele>7.8000001907349</ele>
        <time>2021-09-16T10:03:16.000Z</time>
      </trkpt>
      <trkpt lat="47.28538" lon="-2.36739">
        <ele>8.1999998092651</ele>
        <time>2021-09-16T10:03:18.000Z</time>
      </trkpt>
      <trkpt lat="47.28536" lon="-2.36734">
        <ele>8.6000003814697</ele>
        <time>2021-09-16T10:03:19.000Z</time>
      </trkpt>
      <trkpt lat="47.28534" lon="-2.36728">
        <ele>9</ele>
        <time>2021-09-16T10:03:20.000Z</time>
      </trkpt>
      <trkpt lat="47.28532" lon="-2.36723">
        <ele>9.3999996185303</ele>
        <time>2021-09-16T10:03:21.000Z</time>
      </trkpt>
      <trkpt lat="47.28529" lon="-2.36718">
        <ele>9.8000001907349</ele>
        <time>2021-09-16T10:03:22.000Z</time>
      </trkpt>
      <trkpt lat="47.28516" lon="-2.36699">
        <ele>10.199999809265</ele>
        <time>2021-09-16T10:03:27.000Z</time>
      </trkpt>
      <trkpt lat="47.28513" lon="-2.36696">
        <ele>10.60000038147</ele>
        <time>2021-09-16T10:03:28.000Z</time>
      </trkpt>
      <trkpt lat="47.28511" lon="-2.36692">
        <ele>11</ele>
        <time>2021-09-16T10:03:29.000Z</time>
      </trkpt>
      <trkpt lat="47.28508" lon="-2.36689">
        <ele>11.60000038147</ele>
        <time>2021-09-16T10:03:30.000Z</time>
      </trkpt>
      <trkpt lat="47.28506" lon="-2.36685">
        <ele>12</ele>
        <time>2021-09-16T10:03:31.000Z</time>
      </trkpt>
      <trkpt lat="47.28501" lon="-2.36678">
        <ele>12.39999961853</ele>
        <time>2021-09-16T10:03:33.000Z</time>
      </trkpt>
      <trkpt lat="47.28498" lon="-2.36675">
        <ele>12.800000190735</ele>
        <time>2021-09-16T10:03:34.000Z</time>
      </trkpt>
      <trkpt lat="47.28495" lon="-2.3667">
        <ele>13.199999809265</ele>
        <time>2021-09-16T10:03:35.000Z</time>
      </trkpt>
      <trkpt lat="47.28493" lon="-2.36665">
        <ele>13.60000038147</ele>
        <time>2021-09-16T10:03:36.000Z</time>
      </trkpt>
      <trkpt lat="47.28491" lon="-2.3666">
        <ele>14</ele>
        <time>2021-09-16T10:03:37.000Z</time>
      </trkpt>
      <trkpt lat="47.28489" lon="-2.36648">
        <ele>14</ele>
        <time>2021-09-16T10:03:39.000Z</time>
      </trkpt>
      <trkpt lat="47.28486" lon="-2.36637">
        <ele>14</ele>
        <time>2021-09-16T10:03:41.000Z</time>
      </trkpt>
      <trkpt lat="47.28477" lon="-2.36603">
        <ele>14</ele>
        <time>2021-09-16T10:03:47.000Z</time>
      </trkpt>
      <trkpt lat="47.2847" lon="-2.36572">
        <ele>14</ele>
        <time>2021-09-16T10:03:53.000Z</time>
      </trkpt>
      <trkpt lat="47.28478" lon="-2.36554">
        <ele>14</ele>
        <time>2021-09-16T10:03:57.000Z</time>
      </trkpt>
      <trkpt lat="47.28499" lon="-2.36526">
        <ele>14</ele>
        <time>2021-09-16T10:04:05.000Z</time>
      </trkpt>
      <trkpt lat="47.28511" lon="-2.36513">
        <ele>14</ele>
        <time>2021-09-16T10:04:10.000Z</time>
      </trkpt>
      <trkpt lat="47.28512" lon="-2.36511">
        <ele>14.39999961853</ele>
        <time>2021-09-16T10:04:11.000Z</time>
      </trkpt>
      <trkpt lat="47.28513" lon="-2.36508">
        <ele>14.800000190735</ele>
        <time>2021-09-16T10:04:12.000Z</time>
      </trkpt>
      <trkpt lat="47.28515" lon="-2.36506">
        <ele>15.199999809265</ele>
        <time>2021-09-16T10:04:13.000Z</time>
      </trkpt>
      <trkpt lat="47.28517" lon="-2.36502">
        <ele>15.60000038147</ele>
        <time>2021-09-16T10:04:14.000Z</time>
      </trkpt>
      <trkpt lat="47.28518" lon="-2.36499">
        <ele>16.200000762939</ele>
        <time>2021-09-16T10:04:15.000Z</time>
      </trkpt>
      <trkpt lat="47.28519" lon="-2.36496">
        <ele>16.200000762939</ele>
        <time>2021-09-16T10:04:16.000Z</time>
      </trkpt>
      <trkpt lat="47.28519" lon="-2.36492">
        <ele>16.200000762939</ele>
        <time>2021-09-16T10:04:17.000Z</time>
      </trkpt>
      <trkpt lat="47.28518" lon="-2.36478">
        <ele>16.200000762939</ele>
        <time>2021-09-16T10:04:20.000Z</time>
      </trkpt>
      <trkpt lat="47.28515" lon="-2.36465">
        <ele>16.60000038147</ele>
        <time>2021-09-16T10:04:23.000Z</time>
      </trkpt>
      <trkpt lat="47.28514" lon="-2.36461">
        <ele>17</ele>
        <time>2021-09-16T10:04:24.000Z</time>
      </trkpt>
      <trkpt lat="47.28512" lon="-2.36456">
        <ele>17.39999961853</ele>
        <time>2021-09-16T10:04:25.000Z</time>
      </trkpt>
      <trkpt lat="47.2851" lon="-2.36451">
        <ele>17.799999237061</ele>
        <time>2021-09-16T10:04:26.000Z</time>
      </trkpt>
      <trkpt lat="47.28507" lon="-2.36447">
        <ele>18.200000762939</ele>
        <time>2021-09-16T10:04:27.000Z</time>
      </trkpt>
      <trkpt lat="47.28498" lon="-2.36438">
        <ele>18.200000762939</ele>
        <time>2021-09-16T10:04:30.000Z</time>
      </trkpt>
      <trkpt lat="47.28493" lon="-2.36435">
        <ele>18.200000762939</ele>
        <time>2021-09-16T10:04:31.000Z</time>
      </trkpt>
      <trkpt lat="47.28483" lon="-2.36425">
        <ele>18.200000762939</ele>
        <time>2021-09-16T10:04:34.000Z</time>
      </trkpt>
      <trkpt lat="47.28469" lon="-2.3641">
        <ele>18.200000762939</ele>
        <time>2021-09-16T10:04:40.000Z</time>
      </trkpt>
      <trkpt lat="47.28451" lon="-2.36394">
        <ele>18.200000762939</ele>
        <time>2021-09-16T10:04:46.000Z</time>
      </trkpt>
      <trkpt lat="47.28426" lon="-2.36373">
        <ele>18.200000762939</ele>
        <time>2021-09-16T10:04:51.000Z</time>
      </trkpt>
      <trkpt lat="47.28415" lon="-2.36359">
        <ele>18.200000762939</ele>
        <time>2021-09-16T10:04:54.000Z</time>
      </trkpt>
      <trkpt lat="47.28407" lon="-2.36349">
        <ele>18.200000762939</ele>
        <time>2021-09-16T10:04:56.000Z</time>
      </trkpt>
      <trkpt lat="47.28389" lon="-2.36332">
        <ele>17.799999237061</ele>
        <time>2021-09-16T10:05:00.000Z</time>
      </trkpt>
      <trkpt lat="47.28384" lon="-2.36328">
        <ele>17.39999961853</ele>
        <time>2021-09-16T10:05:01.000Z</time>
      </trkpt>
      <trkpt lat="47.28379" lon="-2.36325">
        <ele>17</ele>
        <time>2021-09-16T10:05:02.000Z</time>
      </trkpt>
      <trkpt lat="47.28374" lon="-2.36323">
        <ele>16.60000038147</ele>
        <time>2021-09-16T10:05:03.000Z</time>
      </trkpt>
      <trkpt lat="47.2837" lon="-2.36319">
        <ele>16</ele>
        <time>2021-09-16T10:05:04.000Z</time>
      </trkpt>
      <trkpt lat="47.28363" lon="-2.36309">
        <ele>16</ele>
        <time>2021-09-16T10:05:06.000Z</time>
      </trkpt>
      <trkpt lat="47.2836" lon="-2.36299">
        <ele>15.60000038147</ele>
        <time>2021-09-16T10:05:08.000Z</time>
      </trkpt>
      <trkpt lat="47.2836" lon="-2.36293">
        <ele>15.199999809265</ele>
        <time>2021-09-16T10:05:09.000Z</time>
      </trkpt>
      <trkpt lat="47.2836" lon="-2.36287">
        <ele>14.800000190735</ele>
        <time>2021-09-16T10:05:10.000Z</time>
      </trkpt>
      <trkpt lat="47.28361" lon="-2.36281">
        <ele>14</ele>
        <time>2021-09-16T10:05:11.000Z</time>
      </trkpt>
      <trkpt lat="47.28371" lon="-2.36259">
        <ele>14</ele>
        <time>2021-09-16T10:05:15.000Z</time>
      </trkpt>
      <trkpt lat="47.28383" lon="-2.36242">
        <ele>14.39999961853</ele>
        <time>2021-09-16T10:05:19.000Z</time>
      </trkpt>
      <trkpt lat="47.28386" lon="-2.36238">
        <ele>14.800000190735</ele>
        <time>2021-09-16T10:05:20.000Z</time>
      </trkpt>
      <trkpt lat="47.28389" lon="-2.36234">
        <ele>15.199999809265</ele>
        <time>2021-09-16T10:05:21.000Z</time>
      </trkpt>
      <trkpt lat="47.28392" lon="-2.3623">
        <ele>15.60000038147</ele>
        <time>2021-09-16T10:05:22.000Z</time>
      </trkpt>
      <trkpt lat="47.28395" lon="-2.36226">
        <ele>16</ele>
        <time>2021-09-16T10:05:23.000Z</time>
      </trkpt>
      <trkpt lat="47.28402" lon="-2.36221">
        <ele>16.39999961853</ele>
        <time>2021-09-16T10:05:25.000Z</time>
      </trkpt>
      <trkpt lat="47.28405" lon="-2.36218">
        <ele>17</ele>
        <time>2021-09-16T10:05:26.000Z</time>
      </trkpt>
      <trkpt lat="47.28409" lon="-2.36217">
        <ele>17.39999961853</ele>
        <time>2021-09-16T10:05:27.000Z</time>
      </trkpt>
      <trkpt lat="47.28413" lon="-2.36216">
        <ele>17.799999237061</ele>
        <time>2021-09-16T10:05:28.000Z</time>
      </trkpt>
      <trkpt lat="47.28417" lon="-2.36215">
        <ele>18.200000762939</ele>
        <time>2021-09-16T10:05:29.000Z</time>
      </trkpt>
      <trkpt lat="47.28428" lon="-2.36211">
        <ele>18.200000762939</ele>
        <time>2021-09-16T10:05:33.000Z</time>
      </trkpt>
      <trkpt lat="47.28432" lon="-2.36208">
        <ele>18.200000762939</ele>
        <time>2021-09-16T10:05:38.000Z</time>
      </trkpt>
      <trkpt lat="47.28447" lon="-2.36188">
        <ele>20.39999961853</ele>
        <time>2021-09-16T10:06:04.000Z</time>
      </trkpt>
      <trkpt lat="47.28447" lon="-2.36179">
        <ele>20.39999961853</ele>
        <time>2021-09-16T10:06:07.000Z</time>
      </trkpt>
      <trkpt lat="47.28447" lon="-2.3617">
        <ele>20.799999237061</ele>
        <time>2021-09-16T10:06:10.000Z</time>
      </trkpt>
      <trkpt lat="47.28447" lon="-2.36164">
        <ele>21.200000762939</ele>
        <time>2021-09-16T10:06:11.000Z</time>
      </trkpt>
      <trkpt lat="47.28447" lon="-2.36158">
        <ele>21.60000038147</ele>
        <time>2021-09-16T10:06:12.000Z</time>
      </trkpt>
      <trkpt lat="47.28446" lon="-2.36154">
        <ele>22</ele>
        <time>2021-09-16T10:06:13.000Z</time>
      </trkpt>
      <trkpt lat="47.28445" lon="-2.3615">
        <ele>22.39999961853</ele>
        <time>2021-09-16T10:06:14.000Z</time>
      </trkpt>
      <trkpt lat="47.28442" lon="-2.36143">
        <ele>22.799999237061</ele>
        <time>2021-09-16T10:06:16.000Z</time>
      </trkpt>
      <trkpt lat="47.28443" lon="-2.36139">
        <ele>23.200000762939</ele>
        <time>2021-09-16T10:06:17.000Z</time>
      </trkpt>
      <trkpt lat="47.28443" lon="-2.36134">
        <ele>23.799999237061</ele>
        <time>2021-09-16T10:06:18.000Z</time>
      </trkpt>
      <trkpt lat="47.28442" lon="-2.3613">
        <ele>24.200000762939</ele>
        <time>2021-09-16T10:06:19.000Z</time>
      </trkpt>
      <trkpt lat="47.28442" lon="-2.36126">
        <ele>24.60000038147</ele>
        <time>2021-09-16T10:06:20.000Z</time>
      </trkpt>
      <trkpt lat="47.28438" lon="-2.36108">
        <ele>24.60000038147</ele>
        <time>2021-09-16T10:06:24.000Z</time>
      </trkpt>
      <trkpt lat="47.28437" lon="-2.36099">
        <ele>25</ele>
        <time>2021-09-16T10:06:26.000Z</time>
      </trkpt>
      <trkpt lat="47.28437" lon="-2.36095">
        <ele>25.39999961853</ele>
        <time>2021-09-16T10:06:27.000Z</time>
      </trkpt>
      <trkpt lat="47.28437" lon="-2.36091">
        <ele>25.799999237061</ele>
        <time>2021-09-16T10:06:28.000Z</time>
      </trkpt>
      <trkpt lat="47.28437" lon="-2.36086">
        <ele>26.200000762939</ele>
        <time>2021-09-16T10:06:29.000Z</time>
      </trkpt>
      <trkpt lat="47.28436" lon="-2.36081">
        <ele>26.60000038147</ele>
        <time>2021-09-16T10:06:30.000Z</time>
      </trkpt>
      <trkpt lat="47.28435" lon="-2.36063">
        <ele>27</ele>
        <time>2021-09-16T10:06:34.000Z</time>
      </trkpt>
      <trkpt lat="47.28435" lon="-2.36058">
        <ele>27.39999961853</ele>
        <time>2021-09-16T10:06:35.000Z</time>
      </trkpt>
      <trkpt lat="47.28435" lon="-2.36053">
        <ele>27.799999237061</ele>
        <time>2021-09-16T10:06:36.000Z</time>
      </trkpt>
      <trkpt lat="47.28434" lon="-2.36049">
        <ele>28.200000762939</ele>
        <time>2021-09-16T10:06:37.000Z</time>
      </trkpt>
      <trkpt lat="47.28435" lon="-2.36045">
        <ele>28.60000038147</ele>
        <time>2021-09-16T10:06:38.000Z</time>
      </trkpt>
      <trkpt lat="47.28438" lon="-2.36024">
        <ele>28.60000038147</ele>
        <time>2021-09-16T10:06:43.000Z</time>
      </trkpt>
      <trkpt lat="47.28442" lon="-2.36017">
        <ele>28.60000038147</ele>
        <time>2021-09-16T10:06:47.000Z</time>
      </trkpt>
      <trkpt lat="47.28449" lon="-2.36002">
        <ele>28.60000038147</ele>
        <time>2021-09-16T10:06:53.000Z</time>
      </trkpt>
      <trkpt lat="47.28451" lon="-2.3599">
        <ele>28.60000038147</ele>
        <time>2021-09-16T10:06:58.000Z</time>
      </trkpt>
      <trkpt lat="47.28451" lon="-2.3599">
        <ele>28.60000038147</ele>
        <time>2021-09-16T10:06:59.000Z</time>
      </trkpt>
      <trkpt lat="47.28446" lon="-2.35988">
        <ele>28.60000038147</ele>
        <time>2021-09-16T10:07:04.000Z</time>
      </trkpt>
      <trkpt lat="47.28441" lon="-2.35989">
        <ele>28.60000038147</ele>
        <time>2021-09-16T10:07:06.000Z</time>
      </trkpt>
      <trkpt lat="47.28428" lon="-2.35995">
        <ele>28.60000038147</ele>
        <time>2021-09-16T10:07:10.000Z</time>
      </trkpt>
      <trkpt lat="47.28425" lon="-2.35997">
        <ele>28.60000038147</ele>
        <time>2021-09-16T10:07:11.000Z</time>
      </trkpt>
      <trkpt lat="47.28402" lon="-2.36015">
        <ele>28.60000038147</ele>
        <time>2021-09-16T10:07:18.000Z</time>
      </trkpt>
      <trkpt lat="47.28378" lon="-2.3602">
        <ele>28.60000038147</ele>
        <time>2021-09-16T10:07:23.000Z</time>
      </trkpt>
      <trkpt lat="47.28362" lon="-2.3602">
        <ele>28.200000762939</ele>
        <time>2021-09-16T10:07:25.000Z</time>
      </trkpt>
      <trkpt lat="47.28356" lon="-2.36021">
        <ele>27.799999237061</ele>
        <time>2021-09-16T10:07:26.000Z</time>
      </trkpt>
      <trkpt lat="47.28348" lon="-2.36024">
        <ele>27.39999961853</ele>
        <time>2021-09-16T10:07:27.000Z</time>
      </trkpt>
      <trkpt lat="47.28341" lon="-2.36027">
        <ele>26.799999237061</ele>
        <time>2021-09-16T10:07:28.000Z</time>
      </trkpt>
      <trkpt lat="47.28335" lon="-2.36033">
        <ele>26</ele>
        <time>2021-09-16T10:07:29.000Z</time>
      </trkpt>
      <trkpt lat="47.28329" lon="-2.36039">
        <ele>25.39999961853</ele>
        <time>2021-09-16T10:07:30.000Z</time>
      </trkpt>
      <trkpt lat="47.28324" lon="-2.36043">
        <ele>24.60000038147</ele>
        <time>2021-09-16T10:07:31.000Z</time>
      </trkpt>
      <trkpt lat="47.28318" lon="-2.36046">
        <ele>24</ele>
        <time>2021-09-16T10:07:32.000Z</time>
      </trkpt>
      <trkpt lat="47.28308" lon="-2.36046">
        <ele>24</ele>
        <time>2021-09-16T10:07:34.000Z</time>
      </trkpt>
      <trkpt lat="47.28293" lon="-2.36044">
        <ele>23.39999961853</ele>
        <time>2021-09-16T10:07:37.000Z</time>
      </trkpt>
      <trkpt lat="47.28289" lon="-2.36041">
        <ele>23</ele>
        <time>2021-09-16T10:07:38.000Z</time>
      </trkpt>
      <trkpt lat="47.28284" lon="-2.36036">
        <ele>22.60000038147</ele>
        <time>2021-09-16T10:07:39.000Z</time>
      </trkpt>
      <trkpt lat="47.2828" lon="-2.36031">
        <ele>21.60000038147</ele>
        <time>2021-09-16T10:07:40.000Z</time>
      </trkpt>
      <trkpt lat="47.28276" lon="-2.36026">
        <ele>21</ele>
        <time>2021-09-16T10:07:41.000Z</time>
      </trkpt>
      <trkpt lat="47.28273" lon="-2.3602">
        <ele>20.39999961853</ele>
        <time>2021-09-16T10:07:42.000Z</time>
      </trkpt>
      <trkpt lat="47.28269" lon="-2.36014">
        <ele>19.60000038147</ele>
        <time>2021-09-16T10:07:43.000Z</time>
      </trkpt>
      <trkpt lat="47.28267" lon="-2.36008">
        <ele>18.799999237061</ele>
        <time>2021-09-16T10:07:44.000Z</time>
      </trkpt>
      <trkpt lat="47.28266" lon="-2.36002">
        <ele>18.200000762939</ele>
        <time>2021-09-16T10:07:45.000Z</time>
      </trkpt>
      <trkpt lat="47.28269" lon="-2.35991">
        <ele>17.39999961853</ele>
        <time>2021-09-16T10:07:46.000Z</time>
      </trkpt>
      <trkpt lat="47.2827" lon="-2.35984">
        <ele>16.39999961853</ele>
        <time>2021-09-16T10:07:47.000Z</time>
      </trkpt>
      <trkpt lat="47.2827" lon="-2.35977">
        <ele>15.60000038147</ele>
        <time>2021-09-16T10:07:48.000Z</time>
      </trkpt>
      <trkpt lat="47.2827" lon="-2.35969">
        <ele>14.800000190735</ele>
        <time>2021-09-16T10:07:49.000Z</time>
      </trkpt>
      <trkpt lat="47.2827" lon="-2.35964">
        <ele>14</ele>
        <time>2021-09-16T10:07:50.000Z</time>
      </trkpt>
      <trkpt lat="47.28269" lon="-2.35959">
        <ele>14</ele>
        <time>2021-09-16T10:07:51.000Z</time>
      </trkpt>
      <trkpt lat="47.28266" lon="-2.35949">
        <ele>14</ele>
        <time>2021-09-16T10:07:53.000Z</time>
      </trkpt>
      <trkpt lat="47.28258" lon="-2.35932">
        <ele>14</ele>
        <time>2021-09-16T10:07:57.000Z</time>
      </trkpt>
      <trkpt lat="47.28244" lon="-2.35904">
        <ele>14</ele>
        <time>2021-09-16T10:08:04.000Z</time>
      </trkpt>
      <trkpt lat="47.28223" lon="-2.35904">
        <ele>14</ele>
        <time>2021-09-16T10:08:09.000Z</time>
      </trkpt>
      <trkpt lat="47.28213" lon="-2.35901">
        <ele>14</ele>
        <time>2021-09-16T10:08:11.000Z</time>
      </trkpt>
      <trkpt lat="47.28199" lon="-2.35892">
        <ele>14</ele>
        <time>2021-09-16T10:08:14.000Z</time>
      </trkpt>
      <trkpt lat="47.28196" lon="-2.35889">
        <ele>14</ele>
        <time>2021-09-16T10:08:15.000Z</time>
      </trkpt>
      <trkpt lat="47.28185" lon="-2.35868">
        <ele>14</ele>
        <time>2021-09-16T10:08:19.000Z</time>
      </trkpt>
      <trkpt lat="47.28166" lon="-2.35841">
        <ele>14</ele>
        <time>2021-09-16T10:08:26.000Z</time>
      </trkpt>
      <trkpt lat="47.28147" lon="-2.35818">
        <ele>14</ele>
        <time>2021-09-16T10:08:31.000Z</time>
      </trkpt>
      <trkpt lat="47.28135" lon="-2.35789">
        <ele>14</ele>
        <time>2021-09-16T10:08:35.000Z</time>
      </trkpt>
      <trkpt lat="47.28133" lon="-2.3578">
        <ele>14</ele>
        <time>2021-09-16T10:08:36.000Z</time>
      </trkpt>
      <trkpt lat="47.28128" lon="-2.35755">
        <ele>14</ele>
        <time>2021-09-16T10:08:40.000Z</time>
      </trkpt>
      <trkpt lat="47.28124" lon="-2.35754">
        <ele>14</ele>
        <time>2021-09-16T10:08:41.000Z</time>
      </trkpt>
      <trkpt lat="47.28119" lon="-2.35754">
        <ele>14</ele>
        <time>2021-09-16T10:08:42.000Z</time>
      </trkpt>
      <trkpt lat="47.28115" lon="-2.35754">
        <ele>13.60000038147</ele>
        <time>2021-09-16T10:08:43.000Z</time>
      </trkpt>
      <trkpt lat="47.2811" lon="-2.35757">
        <ele>13.199999809265</ele>
        <time>2021-09-16T10:08:44.000Z</time>
      </trkpt>
      <trkpt lat="47.28106" lon="-2.35759">
        <ele>12.800000190735</ele>
        <time>2021-09-16T10:08:45.000Z</time>
      </trkpt>
      <trkpt lat="47.28101" lon="-2.35762">
        <ele>12.39999961853</ele>
        <time>2021-09-16T10:08:46.000Z</time>
      </trkpt>
      <trkpt lat="47.28097" lon="-2.35765">
        <ele>11.800000190735</ele>
        <time>2021-09-16T10:08:47.000Z</time>
      </trkpt>
      <trkpt lat="47.28092" lon="-2.35769">
        <ele>11.800000190735</ele>
        <time>2021-09-16T10:08:48.000Z</time>
      </trkpt>
      <trkpt lat="47.28083" lon="-2.35783">
        <ele>11.800000190735</ele>
        <time>2021-09-16T10:08:51.000Z</time>
      </trkpt>
      <trkpt lat="47.28079" lon="-2.358">
        <ele>11.800000190735</ele>
        <time>2021-09-16T10:08:55.000Z</time>
      </trkpt>
      <trkpt lat="47.2808" lon="-2.35801">
        <ele>11.800000190735</ele>
        <time>2021-09-16T10:08:56.000Z</time>
      </trkpt>
      <trkpt lat="47.2808" lon="-2.35798">
        <ele>11.800000190735</ele>
        <time>2021-09-16T10:08:58.000Z</time>
      </trkpt>
      <trkpt lat="47.28083" lon="-2.35788">
        <ele>11.800000190735</ele>
        <time>2021-09-16T10:09:02.000Z</time>
      </trkpt>
      <trkpt lat="47.28085" lon="-2.35784">
        <ele>12.39999961853</ele>
        <time>2021-09-16T10:09:03.000Z</time>
      </trkpt>
      <trkpt lat="47.28086" lon="-2.35779">
        <ele>12.800000190735</ele>
        <time>2021-09-16T10:09:04.000Z</time>
      </trkpt>
      <trkpt lat="47.28086" lon="-2.35773">
        <ele>13.199999809265</ele>
        <time>2021-09-16T10:09:05.000Z</time>
      </trkpt>
      <trkpt lat="47.28087" lon="-2.35768">
        <ele>13.60000038147</ele>
        <time>2021-09-16T10:09:06.000Z</time>
      </trkpt>
      <trkpt lat="47.28087" lon="-2.35762">
        <ele>14</ele>
        <time>2021-09-16T10:09:07.000Z</time>
      </trkpt>
      <trkpt lat="47.28088" lon="-2.35751">
        <ele>14</ele>
        <time>2021-09-16T10:09:09.000Z</time>
      </trkpt>
      <trkpt lat="47.28092" lon="-2.35724">
        <ele>14.60000038147</ele>
        <time>2021-09-16T10:09:14.000Z</time>
      </trkpt>
      <trkpt lat="47.28092" lon="-2.35716">
        <ele>15</ele>
        <time>2021-09-16T10:09:15.000Z</time>
      </trkpt>
      <trkpt lat="47.28091" lon="-2.35709">
        <ele>15.39999961853</ele>
        <time>2021-09-16T10:09:16.000Z</time>
      </trkpt>
      <trkpt lat="47.28091" lon="-2.35701">
        <ele>16</ele>
        <time>2021-09-16T10:09:17.000Z</time>
      </trkpt>
      <trkpt lat="47.28091" lon="-2.35693">
        <ele>16.39999961853</ele>
        <time>2021-09-16T10:09:18.000Z</time>
      </trkpt>
      <trkpt lat="47.28089" lon="-2.3568">
        <ele>16.39999961853</ele>
        <time>2021-09-16T10:09:20.000Z</time>
      </trkpt>
      <trkpt lat="47.28088" lon="-2.35673">
        <ele>16.39999961853</ele>
        <time>2021-09-16T10:09:21.000Z</time>
      </trkpt>
      <trkpt lat="47.28079" lon="-2.35637">
        <ele>16</ele>
        <time>2021-09-16T10:09:26.000Z</time>
      </trkpt>
      <trkpt lat="47.28077" lon="-2.35632">
        <ele>15.39999961853</ele>
        <time>2021-09-16T10:09:27.000Z</time>
      </trkpt>
      <trkpt lat="47.28076" lon="-2.35625">
        <ele>15</ele>
        <time>2021-09-16T10:09:28.000Z</time>
      </trkpt>
      <trkpt lat="47.28075" lon="-2.3562">
        <ele>14.39999961853</ele>
        <time>2021-09-16T10:09:29.000Z</time>
      </trkpt>
      <trkpt lat="47.28075" lon="-2.35615">
        <ele>13.800000190735</ele>
        <time>2021-09-16T10:09:30.000Z</time>
      </trkpt>
      <trkpt lat="47.28076" lon="-2.35611">
        <ele>13.199999809265</ele>
        <time>2021-09-16T10:09:31.000Z</time>
      </trkpt>
      <trkpt lat="47.28079" lon="-2.3561">
        <ele>12.39999961853</ele>
        <time>2021-09-16T10:09:32.000Z</time>
      </trkpt>
      <trkpt lat="47.28083" lon="-2.3561">
        <ele>11.800000190735</ele>
        <time>2021-09-16T10:09:33.000Z</time>
      </trkpt>
      <trkpt lat="47.28086" lon="-2.35612">
        <ele>11.39999961853</ele>
        <time>2021-09-16T10:09:34.000Z</time>
      </trkpt>
      <trkpt lat="47.28088" lon="-2.35614">
        <ele>11</ele>
        <time>2021-09-16T10:09:35.000Z</time>
      </trkpt>
      <trkpt lat="47.28088" lon="-2.35615">
        <ele>10.60000038147</ele>
        <time>2021-09-16T10:09:36.000Z</time>
      </trkpt>
      <trkpt lat="47.28089" lon="-2.35616">
        <ele>10.199999809265</ele>
        <time>2021-09-16T10:09:37.000Z</time>
      </trkpt>
      <trkpt lat="47.28088" lon="-2.35616">
        <ele>9.8000001907349</ele>
        <time>2021-09-16T10:09:38.000Z</time>
      </trkpt>
      <trkpt lat="47.28084" lon="-2.35619">
        <ele>7.8000001907349</ele>
        <time>2021-09-16T10:19:18.000Z</time>
      </trkpt>
      <trkpt lat="47.28078" lon="-2.35607">
        <ele>7.8000001907349</ele>
        <time>2021-09-16T10:19:23.000Z</time>
      </trkpt>
      <trkpt lat="47.28068" lon="-2.35587">
        <ele>7.8000001907349</ele>
        <time>2021-09-16T10:19:31.000Z</time>
      </trkpt>
      <trkpt lat="47.28055" lon="-2.35581">
        <ele>7.8000001907349</ele>
        <time>2021-09-16T10:19:36.000Z</time>
      </trkpt>
      <trkpt lat="47.28035" lon="-2.35574">
        <ele>7.8000001907349</ele>
        <time>2021-09-16T10:19:41.000Z</time>
      </trkpt>
      <trkpt lat="47.28031" lon="-2.35575">
        <ele>7.8000001907349</ele>
        <time>2021-09-16T10:19:42.000Z</time>
      </trkpt>
      <trkpt lat="47.28019" lon="-2.35579">
        <ele>7.8000001907349</ele>
        <time>2021-09-16T10:19:45.000Z</time>
      </trkpt>
      <trkpt lat="47.28015" lon="-2.35581">
        <ele>7.4000000953674</ele>
        <time>2021-09-16T10:19:46.000Z</time>
      </trkpt>
      <trkpt lat="47.28011" lon="-2.35581">
        <ele>7</ele>
        <time>2021-09-16T10:19:47.000Z</time>
      </trkpt>
      <trkpt lat="47.28007" lon="-2.35581">
        <ele>6.5999999046326</ele>
        <time>2021-09-16T10:19:48.000Z</time>
      </trkpt>
      <trkpt lat="47.28002" lon="-2.35582">
        <ele>6</ele>
        <time>2021-09-16T10:19:49.000Z</time>
      </trkpt>
      <trkpt lat="47.27998" lon="-2.35584">
        <ele>5.5999999046326</ele>
        <time>2021-09-16T10:19:50.000Z</time>
      </trkpt>
      <trkpt lat="47.27995" lon="-2.35586">
        <ele>5.5999999046326</ele>
        <time>2021-09-16T10:19:51.000Z</time>
      </trkpt>
      <trkpt lat="47.27979" lon="-2.35588">
        <ele>5.5999999046326</ele>
        <time>2021-09-16T10:19:55.000Z</time>
      </trkpt>
      <trkpt lat="47.27975" lon="-2.35586">
        <ele>5.5999999046326</ele>
        <time>2021-09-16T10:19:56.000Z</time>
      </trkpt>
      <trkpt lat="47.27958" lon="-2.35583">
        <ele>5.5999999046326</ele>
        <time>2021-09-16T10:20:00.000Z</time>
      </trkpt>
      <trkpt lat="47.27953" lon="-2.35583">
        <ele>5.5999999046326</ele>
        <time>2021-09-16T10:20:01.000Z</time>
      </trkpt>
      <trkpt lat="47.2794" lon="-2.35586">
        <ele>5.5999999046326</ele>
        <time>2021-09-16T10:20:04.000Z</time>
      </trkpt>
      <trkpt lat="47.27931" lon="-2.35587">
        <ele>5.5999999046326</ele>
        <time>2021-09-16T10:20:06.000Z</time>
      </trkpt>
      <trkpt lat="47.27918" lon="-2.3559">
        <ele>5.5999999046326</ele>
        <time>2021-09-16T10:20:09.000Z</time>
      </trkpt>
      <trkpt lat="47.27899" lon="-2.35596">
        <ele>5.1999998092651</ele>
        <time>2021-09-16T10:20:13.000Z</time>
      </trkpt>
      <trkpt lat="47.27894" lon="-2.35597">
        <ele>4.8000001907349</ele>
        <time>2021-09-16T10:20:14.000Z</time>
      </trkpt>
      <trkpt lat="47.27888" lon="-2.35599">
        <ele>4.4000000953674</ele>
        <time>2021-09-16T10:20:15.000Z</time>
      </trkpt>
      <trkpt lat="47.27883" lon="-2.356">
        <ele>4</ele>
        <time>2021-09-16T10:20:16.000Z</time>
      </trkpt>
      <trkpt lat="47.27878" lon="-2.35602">
        <ele>3.4000000953674</ele>
        <time>2021-09-16T10:20:17.000Z</time>
      </trkpt>
      <trkpt lat="47.27855" lon="-2.3561">
        <ele>3.4000000953674</ele>
        <time>2021-09-16T10:20:21.000Z</time>
      </trkpt>
      <trkpt lat="47.2782" lon="-2.3562">
        <ele>3.4000000953674</ele>
        <time>2021-09-16T10:20:27.000Z</time>
      </trkpt>
      <trkpt lat="47.27798" lon="-2.35624">
        <ele>3</ele>
        <time>2021-09-16T10:20:31.000Z</time>
      </trkpt>
      <trkpt lat="47.27793" lon="-2.35627">
        <ele>2.5999999046326</ele>
        <time>2021-09-16T10:20:32.000Z</time>
      </trkpt>
      <trkpt lat="47.27788" lon="-2.35629">
        <ele>2.2000000476837</ele>
        <time>2021-09-16T10:20:33.000Z</time>
      </trkpt>
      <trkpt lat="47.27782" lon="-2.35632">
        <ele>1.7999999523163</ele>
        <time>2021-09-16T10:20:34.000Z</time>
      </trkpt>
      <trkpt lat="47.27777" lon="-2.35635">
        <ele>1.3999999761581</ele>
        <time>2021-09-16T10:20:35.000Z</time>
      </trkpt>
      <trkpt lat="47.27768" lon="-2.35644">
        <ele>1.3999999761581</ele>
        <time>2021-09-16T10:20:37.000Z</time>
      </trkpt>
      <trkpt lat="47.27763" lon="-2.35649">
        <ele>1.3999999761581</ele>
        <time>2021-09-16T10:20:38.000Z</time>
      </trkpt>
      <trkpt lat="47.27759" lon="-2.35653">
        <ele>1.3999999761581</ele>
        <time>2021-09-16T10:20:39.000Z</time>
      </trkpt>
      <trkpt lat="47.27743" lon="-2.35676">
        <ele>1.3999999761581</ele>
        <time>2021-09-16T10:20:43.000Z</time>
      </trkpt>
      <trkpt lat="47.27739" lon="-2.35682">
        <ele>1</ele>
        <time>2021-09-16T10:20:44.000Z</time>
      </trkpt>
      <trkpt lat="47.27735" lon="-2.35688">
        <ele>0.60000002384186</ele>
        <time>2021-09-16T10:20:45.000Z</time>
      </trkpt>
      <trkpt lat="47.27731" lon="-2.35695">
        <ele>-0.40000000596046</ele>
        <time>2021-09-16T10:20:46.000Z</time>
      </trkpt>
      <trkpt lat="47.27727" lon="-2.357">
        <ele>-0.80000001192093</ele>
        <time>2021-09-16T10:20:47.000Z</time>
      </trkpt>
      <trkpt lat="47.27713" lon="-2.35717">
        <ele>-0.80000001192093</ele>
        <time>2021-09-16T10:20:50.000Z</time>
      </trkpt>
      <trkpt lat="47.27704" lon="-2.35727">
        <ele>-0.80000001192093</ele>
        <time>2021-09-16T10:20:52.000Z</time>
      </trkpt>
      <trkpt lat="47.27687" lon="-2.35741">
        <ele>-0.80000001192093</ele>
        <time>2021-09-16T10:20:55.000Z</time>
      </trkpt>
      <trkpt lat="47.27677" lon="-2.35747">
        <ele>-0.80000001192093</ele>
        <time>2021-09-16T10:20:57.000Z</time>
      </trkpt>
      <trkpt lat="47.27672" lon="-2.35745">
        <ele>-0.80000001192093</ele>
        <time>2021-09-16T10:20:58.000Z</time>
      </trkpt>
      <trkpt lat="47.27664" lon="-2.35734">
        <ele>-1.2000000476837</ele>
        <time>2021-09-16T10:21:00.000Z</time>
      </trkpt>
      <trkpt lat="47.2766" lon="-2.35728">
        <ele>-1.6000000238419</ele>
        <time>2021-09-16T10:21:01.000Z</time>
      </trkpt>
      <trkpt lat="47.27656" lon="-2.35724">
        <ele>-2</ele>
        <time>2021-09-16T10:21:02.000Z</time>
      </trkpt>
      <trkpt lat="47.27651" lon="-2.35722">
        <ele>-2.4000000953674</ele>
        <time>2021-09-16T10:21:03.000Z</time>
      </trkpt>
      <trkpt lat="47.27647" lon="-2.35719">
        <ele>-2.7999999523163</ele>
        <time>2021-09-16T10:21:04.000Z</time>
      </trkpt>
      <trkpt lat="47.27643" lon="-2.35717">
        <ele>-2.7999999523163</ele>
        <time>2021-09-16T10:21:05.000Z</time>
      </trkpt>
      <trkpt lat="47.27611" lon="-2.35709">
        <ele>-2.7999999523163</ele>
        <time>2021-09-16T10:21:11.000Z</time>
      </trkpt>
      <trkpt lat="47.27582" lon="-2.35703">
        <ele>-3.2000000476837</ele>
        <time>2021-09-16T10:21:16.000Z</time>
      </trkpt>
      <trkpt lat="47.27576" lon="-2.35702">
        <ele>-3.5999999046326</ele>
        <time>2021-09-16T10:21:17.000Z</time>
      </trkpt>
      <trkpt lat="47.27571" lon="-2.35701">
        <ele>-4</ele>
        <time>2021-09-16T10:21:18.000Z</time>
      </trkpt>
      <trkpt lat="47.27566" lon="-2.357">
        <ele>-4.5999999046326</ele>
        <time>2021-09-16T10:21:19.000Z</time>
      </trkpt>
      <trkpt lat="47.2756" lon="-2.35699">
        <ele>-5</ele>
        <time>2021-09-16T10:21:20.000Z</time>
      </trkpt>
      <trkpt lat="47.27534" lon="-2.35693">
        <ele>-5</ele>
        <time>2021-09-16T10:21:25.000Z</time>
      </trkpt>
      <trkpt lat="47.27502" lon="-2.35685">
        <ele>-5</ele>
        <time>2021-09-16T10:21:31.000Z</time>
      </trkpt>
      <trkpt lat="47.27477" lon="-2.35679">
        <ele>-5.8000001907349</ele>
        <time>2021-09-16T10:21:35.000Z</time>
      </trkpt>
      <trkpt lat="47.27472" lon="-2.35677">
        <ele>-6.1999998092651</ele>
        <time>2021-09-16T10:21:36.000Z</time>
      </trkpt>
      <trkpt lat="47.27465" lon="-2.35676">
        <ele>-6.5999999046326</ele>
        <time>2021-09-16T10:21:37.000Z</time>
      </trkpt>
      <trkpt lat="47.27459" lon="-2.35674">
        <ele>-7</ele>
        <time>2021-09-16T10:21:38.000Z</time>
      </trkpt>
      <trkpt lat="47.27425" lon="-2.35667">
        <ele>-7</ele>
        <time>2021-09-16T10:21:44.000Z</time>
      </trkpt>
      <trkpt lat="47.27414" lon="-2.35666">
        <ele>-7</ele>
        <time>2021-09-16T10:21:46.000Z</time>
      </trkpt>
      <trkpt lat="47.27402" lon="-2.35668">
        <ele>-7</ele>
        <time>2021-09-16T10:21:48.000Z</time>
      </trkpt>
      <trkpt lat="47.27397" lon="-2.3567">
        <ele>-7</ele>
        <time>2021-09-16T10:21:49.000Z</time>
      </trkpt>
      <trkpt lat="47.27366" lon="-2.3569">
        <ele>-7</ele>
        <time>2021-09-16T10:21:55.000Z</time>
      </trkpt>
      <trkpt lat="47.27351" lon="-2.357">
        <ele>-7.4000000953674</ele>
        <time>2021-09-16T10:21:58.000Z</time>
      </trkpt>
      <trkpt lat="47.27346" lon="-2.35704">
        <ele>-8.1999998092651</ele>
        <time>2021-09-16T10:21:59.000Z</time>
      </trkpt>
      <trkpt lat="47.27342" lon="-2.35708">
        <ele>-8.6000003814697</ele>
        <time>2021-09-16T10:22:00.000Z</time>
      </trkpt>
      <trkpt lat="47.27337" lon="-2.35712">
        <ele>-9</ele>
        <time>2021-09-16T10:22:01.000Z</time>
      </trkpt>
      <trkpt lat="47.27333" lon="-2.35717">
        <ele>-9</ele>
        <time>2021-09-16T10:22:02.000Z</time>
      </trkpt>
      <trkpt lat="47.27326" lon="-2.35726">
        <ele>-9</ele>
        <time>2021-09-16T10:22:04.000Z</time>
      </trkpt>
      <trkpt lat="47.27318" lon="-2.35736">
        <ele>-9</ele>
        <time>2021-09-16T10:22:07.000Z</time>
      </trkpt>
      <trkpt lat="47.27311" lon="-2.35737">
        <ele>-9</ele>
        <time>2021-09-16T10:22:09.000Z</time>
      </trkpt>
      <trkpt lat="47.27308" lon="-2.35733">
        <ele>-9</ele>
        <time>2021-09-16T10:22:10.000Z</time>
      </trkpt>
      <trkpt lat="47.27301" lon="-2.3572">
        <ele>-9</ele>
        <time>2021-09-16T10:22:13.000Z</time>
      </trkpt>
      <trkpt lat="47.27298" lon="-2.35715">
        <ele>-9</ele>
        <time>2021-09-16T10:22:14.000Z</time>
      </trkpt>
      <trkpt lat="47.27295" lon="-2.3571">
        <ele>-9</ele>
        <time>2021-09-16T10:22:15.000Z</time>
      </trkpt>
      <trkpt lat="47.27284" lon="-2.35686">
        <ele>-9</ele>
        <time>2021-09-16T10:22:20.000Z</time>
      </trkpt>
      <trkpt lat="47.27275" lon="-2.35666">
        <ele>-8.1999998092651</ele>
        <time>2021-09-16T10:22:24.000Z</time>
      </trkpt>
      <trkpt lat="47.27273" lon="-2.35661">
        <ele>-7.8000001907349</ele>
        <time>2021-09-16T10:22:25.000Z</time>
      </trkpt>
      <trkpt lat="47.2727" lon="-2.35656">
        <ele>-7.4000000953674</ele>
        <time>2021-09-16T10:22:26.000Z</time>
      </trkpt>
      <trkpt lat="47.27269" lon="-2.35651">
        <ele>-7</ele>
        <time>2021-09-16T10:22:27.000Z</time>
      </trkpt>
      <trkpt lat="47.27267" lon="-2.35646">
        <ele>-7</ele>
        <time>2021-09-16T10:22:28.000Z</time>
      </trkpt>
      <trkpt lat="47.27248" lon="-2.35606">
        <ele>-7</ele>
        <time>2021-09-16T10:22:36.000Z</time>
      </trkpt>
      <trkpt lat="47.27228" lon="-2.3556">
        <ele>-7</ele>
        <time>2021-09-16T10:22:45.000Z</time>
      </trkpt>
      <trkpt lat="47.2721" lon="-2.35521">
        <ele>-7</ele>
        <time>2021-09-16T10:22:53.000Z</time>
      </trkpt>
      <trkpt lat="47.27189" lon="-2.35475">
        <ele>-7</ele>
        <time>2021-09-16T10:23:02.000Z</time>
      </trkpt>
      <trkpt lat="47.27165" lon="-2.35428">
        <ele>-6.5999999046326</ele>
        <time>2021-09-16T10:23:11.000Z</time>
      </trkpt>
      <trkpt lat="47.27162" lon="-2.35423">
        <ele>-6.1999998092651</ele>
        <time>2021-09-16T10:23:12.000Z</time>
      </trkpt>
      <trkpt lat="47.27159" lon="-2.35417">
        <ele>-5.4000000953674</ele>
        <time>2021-09-16T10:23:13.000Z</time>
      </trkpt>
      <trkpt lat="47.27157" lon="-2.35412">
        <ele>-5</ele>
        <time>2021-09-16T10:23:14.000Z</time>
      </trkpt>
      <trkpt lat="47.27134" lon="-2.35371">
        <ele>-5</ele>
        <time>2021-09-16T10:23:22.000Z</time>
      </trkpt>
      <trkpt lat="47.27118" lon="-2.35343">
        <ele>-5</ele>
        <time>2021-09-16T10:23:28.000Z</time>
      </trkpt>
      <trkpt lat="47.27091" lon="-2.35299">
        <ele>-5</ele>
        <time>2021-09-16T10:23:36.000Z</time>
      </trkpt>
      <trkpt lat="47.27064" lon="-2.35254">
        <ele>-5</ele>
        <time>2021-09-16T10:23:44.000Z</time>
      </trkpt>
      <trkpt lat="47.27035" lon="-2.35209">
        <ele>-5</ele>
        <time>2021-09-16T10:23:52.000Z</time>
      </trkpt>
      <trkpt lat="47.27005" lon="-2.35161">
        <ele>-5</ele>
        <time>2021-09-16T10:24:00.000Z</time>
      </trkpt>
      <trkpt lat="47.2697" lon="-2.35107">
        <ele>-5</ele>
        <time>2021-09-16T10:24:09.000Z</time>
      </trkpt>
      <trkpt lat="47.26941" lon="-2.35063">
        <ele>-5</ele>
        <time>2021-09-16T10:24:17.000Z</time>
      </trkpt>
      <trkpt lat="47.26911" lon="-2.35019">
        <ele>-5</ele>
        <time>2021-09-16T10:24:25.000Z</time>
      </trkpt>
      <trkpt lat="47.26884" lon="-2.34978">
        <ele>-5</ele>
        <time>2021-09-16T10:24:32.000Z</time>
      </trkpt>
      <trkpt lat="47.26854" lon="-2.34932">
        <ele>-5</ele>
        <time>2021-09-16T10:24:40.000Z</time>
      </trkpt>
      <trkpt lat="47.26824" lon="-2.34885">
        <ele>-5</ele>
        <time>2021-09-16T10:24:48.000Z</time>
      </trkpt>
      <trkpt lat="47.26784" lon="-2.34827">
        <ele>-5</ele>
        <time>2021-09-16T10:24:58.000Z</time>
      </trkpt>
      <trkpt lat="47.26754" lon="-2.34789">
        <ele>-5</ele>
        <time>2021-09-16T10:25:05.000Z</time>
      </trkpt>
      <trkpt lat="47.26711" lon="-2.34737">
        <ele>-5</ele>
        <time>2021-09-16T10:25:14.000Z</time>
      </trkpt>
      <trkpt lat="47.2667" lon="-2.34684">
        <ele>-5</ele>
        <time>2021-09-16T10:25:23.000Z</time>
      </trkpt>
      <trkpt lat="47.26631" lon="-2.34635">
        <ele>-5</ele>
        <time>2021-09-16T10:25:31.000Z</time>
      </trkpt>
      <trkpt lat="47.26592" lon="-2.34589">
        <ele>-5</ele>
        <time>2021-09-16T10:25:39.000Z</time>
      </trkpt>
      <trkpt lat="47.26547" lon="-2.34544">
        <ele>-5</ele>
        <time>2021-09-16T10:25:48.000Z</time>
      </trkpt>
      <trkpt lat="47.26542" lon="-2.34539">
        <ele>-5</ele>
        <time>2021-09-16T10:25:49.000Z</time>
      </trkpt>
      <trkpt lat="47.26503" lon="-2.34507">
        <ele>-5</ele>
        <time>2021-09-16T10:25:56.000Z</time>
      </trkpt>
      <trkpt lat="47.2645" lon="-2.34468">
        <ele>-5</ele>
        <time>2021-09-16T10:26:05.000Z</time>
      </trkpt>
      <trkpt lat="47.26415" lon="-2.34445">
        <ele>-5</ele>
        <time>2021-09-16T10:26:11.000Z</time>
      </trkpt>
      <trkpt lat="47.26366" lon="-2.34403">
        <ele>-5</ele>
        <time>2021-09-16T10:26:20.000Z</time>
      </trkpt>
      <trkpt lat="47.26339" lon="-2.34379">
        <ele>-5</ele>
        <time>2021-09-16T10:26:25.000Z</time>
      </trkpt>
      <trkpt lat="47.26333" lon="-2.34377">
        <ele>-5</ele>
        <time>2021-09-16T10:26:26.000Z</time>
      </trkpt>
      <trkpt lat="47.26322" lon="-2.34371">
        <ele>-5</ele>
        <time>2021-09-16T10:26:28.000Z</time>
      </trkpt>
      <trkpt lat="47.26313" lon="-2.34358">
        <ele>-5</ele>
        <time>2021-09-16T10:26:30.000Z</time>
      </trkpt>
      <trkpt lat="47.26304" lon="-2.34345">
        <ele>-5</ele>
        <time>2021-09-16T10:26:32.000Z</time>
      </trkpt>
      <trkpt lat="47.26299" lon="-2.3434">
        <ele>-5</ele>
        <time>2021-09-16T10:26:33.000Z</time>
      </trkpt>
      <trkpt lat="47.26288" lon="-2.34329">
        <ele>-5</ele>
        <time>2021-09-16T10:26:35.000Z</time>
      </trkpt>
      <trkpt lat="47.26245" lon="-2.34284">
        <ele>-5</ele>
        <time>2021-09-16T10:26:43.000Z</time>
      </trkpt>
      <trkpt lat="47.26202" lon="-2.34239">
        <ele>-5</ele>
        <time>2021-09-16T10:26:51.000Z</time>
      </trkpt>
      <trkpt lat="47.26159" lon="-2.34197">
        <ele>-5</ele>
        <time>2021-09-16T10:26:59.000Z</time>
      </trkpt>
      <trkpt lat="47.26142" lon="-2.34183">
        <ele>-5</ele>
        <time>2021-09-16T10:27:02.000Z</time>
      </trkpt>
      <trkpt lat="47.2613" lon="-2.34177">
        <ele>-5</ele>
        <time>2021-09-16T10:27:04.000Z</time>
      </trkpt>
      <trkpt lat="47.2612" lon="-2.34165">
        <ele>-5</ele>
        <time>2021-09-16T10:27:06.000Z</time>
      </trkpt>
      <trkpt lat="47.26115" lon="-2.34161">
        <ele>-5</ele>
        <time>2021-09-16T10:27:07.000Z</time>
      </trkpt>
      <trkpt lat="47.26109" lon="-2.34158">
        <ele>-5</ele>
        <time>2021-09-16T10:27:08.000Z</time>
      </trkpt>
      <trkpt lat="47.26068" lon="-2.34137">
        <ele>-5</ele>
        <time>2021-09-16T10:27:15.000Z</time>
      </trkpt>
      <trkpt lat="47.26029" lon="-2.34119">
        <ele>-5</ele>
        <time>2021-09-16T10:27:22.000Z</time>
      </trkpt>
      <trkpt lat="47.25999" lon="-2.34104">
        <ele>-5</ele>
        <time>2021-09-16T10:27:28.000Z</time>
      </trkpt>
      <trkpt lat="47.25976" lon="-2.34093">
        <ele>-5.4000000953674</ele>
        <time>2021-09-16T10:27:33.000Z</time>
      </trkpt>
      <trkpt lat="47.25971" lon="-2.34091">
        <ele>-5.8000001907349</ele>
        <time>2021-09-16T10:27:34.000Z</time>
      </trkpt>
      <trkpt lat="47.25966" lon="-2.3409">
        <ele>-6.1999998092651</ele>
        <time>2021-09-16T10:27:35.000Z</time>
      </trkpt>
      <trkpt lat="47.25961" lon="-2.34088">
        <ele>-6.5999999046326</ele>
        <time>2021-09-16T10:27:36.000Z</time>
      </trkpt>
      <trkpt lat="47.25957" lon="-2.34085">
        <ele>-7</ele>
        <time>2021-09-16T10:27:37.000Z</time>
      </trkpt>
      <trkpt lat="47.25928" lon="-2.34074">
        <ele>-7</ele>
        <time>2021-09-16T10:27:44.000Z</time>
      </trkpt>
      <trkpt lat="47.2591" lon="-2.34071">
        <ele>-7</ele>
        <time>2021-09-16T10:27:49.000Z</time>
      </trkpt>
      <trkpt lat="47.25905" lon="-2.34068">
        <ele>-7</ele>
        <time>2021-09-16T10:27:50.000Z</time>
      </trkpt>
      <trkpt lat="47.25898" lon="-2.3405">
        <ele>-7</ele>
        <time>2021-09-16T10:27:53.000Z</time>
      </trkpt>
      <trkpt lat="47.259" lon="-2.34027">
        <ele>-7</ele>
        <time>2021-09-16T10:27:57.000Z</time>
      </trkpt>
      <trkpt lat="47.25904" lon="-2.34015">
        <ele>-7</ele>
        <time>2021-09-16T10:27:59.000Z</time>
      </trkpt>
      <trkpt lat="47.25911" lon="-2.33987">
        <ele>-7</ele>
        <time>2021-09-16T10:28:03.000Z</time>
      </trkpt>
      <trkpt lat="47.25929" lon="-2.33943">
        <ele>-7</ele>
        <time>2021-09-16T10:28:10.000Z</time>
      </trkpt>
      <trkpt lat="47.25942" lon="-2.33921">
        <ele>-7</ele>
        <time>2021-09-16T10:28:14.000Z</time>
      </trkpt>
      <trkpt lat="47.25944" lon="-2.33906">
        <ele>-7</ele>
        <time>2021-09-16T10:28:16.000Z</time>
      </trkpt>
      <trkpt lat="47.25953" lon="-2.33878">
        <ele>-7</ele>
        <time>2021-09-16T10:28:20.000Z</time>
      </trkpt>
      <trkpt lat="47.25956" lon="-2.33871">
        <ele>-7</ele>
        <time>2021-09-16T10:28:21.000Z</time>
      </trkpt>
      <trkpt lat="47.25976" lon="-2.33805">
        <ele>-7</ele>
        <time>2021-09-16T10:28:30.000Z</time>
      </trkpt>
      <trkpt lat="47.25995" lon="-2.33747">
        <ele>-7</ele>
        <time>2021-09-16T10:28:38.000Z</time>
      </trkpt>
      <trkpt lat="47.26013" lon="-2.33696">
        <ele>-7.5999999046326</ele>
        <time>2021-09-16T10:28:45.000Z</time>
      </trkpt>
      <trkpt lat="47.26016" lon="-2.33688">
        <ele>-8</ele>
        <time>2021-09-16T10:28:46.000Z</time>
      </trkpt>
      <trkpt lat="47.26017" lon="-2.33681">
        <ele>-8.3999996185303</ele>
        <time>2021-09-16T10:28:47.000Z</time>
      </trkpt>
      <trkpt lat="47.26019" lon="-2.33674">
        <ele>-8.8000001907349</ele>
        <time>2021-09-16T10:28:48.000Z</time>
      </trkpt>
      <trkpt lat="47.26021" lon="-2.33669">
        <ele>-9.1999998092651</ele>
        <time>2021-09-16T10:28:49.000Z</time>
      </trkpt>
      <trkpt lat="47.26024" lon="-2.33667">
        <ele>-9.1999998092651</ele>
        <time>2021-09-16T10:28:50.000Z</time>
      </trkpt>
      <trkpt lat="47.26037" lon="-2.33667">
        <ele>-9.1999998092651</ele>
        <time>2021-09-16T10:28:53.000Z</time>
      </trkpt>
      <trkpt lat="47.26054" lon="-2.33665">
        <ele>-9.1999998092651</ele>
        <time>2021-09-16T10:28:57.000Z</time>
      </trkpt>
      <trkpt lat="47.26057" lon="-2.33661">
        <ele>-9.1999998092651</ele>
        <time>2021-09-16T10:28:58.000Z</time>
      </trkpt>
      <trkpt lat="47.26063" lon="-2.33636">
        <ele>-9.1999998092651</ele>
        <time>2021-09-16T10:29:02.000Z</time>
      </trkpt>
      <trkpt lat="47.26078" lon="-2.33592">
        <ele>-9.1999998092651</ele>
        <time>2021-09-16T10:29:09.000Z</time>
      </trkpt>
      <trkpt lat="47.26093" lon="-2.33547">
        <ele>-9.1999998092651</ele>
        <time>2021-09-16T10:29:16.000Z</time>
      </trkpt>
      <trkpt lat="47.26115" lon="-2.33486">
        <ele>-9.1999998092651</ele>
        <time>2021-09-16T10:29:26.000Z</time>
      </trkpt>
      <trkpt lat="47.26127" lon="-2.33453">
        <ele>-9.1999998092651</ele>
        <time>2021-09-16T10:29:33.000Z</time>
      </trkpt>
      <trkpt lat="47.26131" lon="-2.33433">
        <ele>-9.1999998092651</ele>
        <time>2021-09-16T10:29:38.000Z</time>
      </trkpt>
      <trkpt lat="47.26124" lon="-2.33415">
        <ele>-9.1999998092651</ele>
        <time>2021-09-16T10:29:42.000Z</time>
      </trkpt>
      <trkpt lat="47.2611" lon="-2.334">
        <ele>-8.8000001907349</ele>
        <time>2021-09-16T10:29:46.000Z</time>
      </trkpt>
      <trkpt lat="47.26107" lon="-2.33396">
        <ele>-8.1999998092651</ele>
        <time>2021-09-16T10:29:47.000Z</time>
      </trkpt>
      <trkpt lat="47.26103" lon="-2.33392">
        <ele>-7.4000000953674</ele>
        <time>2021-09-16T10:29:48.000Z</time>
      </trkpt>
      <trkpt lat="47.261" lon="-2.33387">
        <ele>-7</ele>
        <time>2021-09-16T10:29:49.000Z</time>
      </trkpt>
      <trkpt lat="47.26089" lon="-2.33376">
        <ele>-7</ele>
        <time>2021-09-16T10:29:52.000Z</time>
      </trkpt>
      <trkpt lat="47.2608" lon="-2.3337">
        <ele>-7</ele>
        <time>2021-09-16T10:29:54.000Z</time>
      </trkpt>
      <trkpt lat="47.26072" lon="-2.33353">
        <ele>-7</ele>
        <time>2021-09-16T10:29:57.000Z</time>
      </trkpt>
      <trkpt lat="47.26067" lon="-2.33341">
        <ele>-7</ele>
        <time>2021-09-16T10:29:59.000Z</time>
      </trkpt>
      <trkpt lat="47.2606" lon="-2.33316">
        <ele>-7</ele>
        <time>2021-09-16T10:30:03.000Z</time>
      </trkpt>
      <trkpt lat="47.2604" lon="-2.33258">
        <ele>-7</ele>
        <time>2021-09-16T10:30:12.000Z</time>
      </trkpt>
      <trkpt lat="47.26017" lon="-2.33193">
        <ele>-7</ele>
        <time>2021-09-16T10:30:22.000Z</time>
      </trkpt>
      <trkpt lat="47.25997" lon="-2.33135">
        <ele>-7</ele>
        <time>2021-09-16T10:30:31.000Z</time>
      </trkpt>
      <trkpt lat="47.25989" lon="-2.33101">
        <ele>-7</ele>
        <time>2021-09-16T10:30:36.000Z</time>
      </trkpt>
      <trkpt lat="47.25986" lon="-2.33087">
        <ele>-7</ele>
        <time>2021-09-16T10:30:38.000Z</time>
      </trkpt>
      <trkpt lat="47.25974" lon="-2.33064">
        <ele>-7</ele>
        <time>2021-09-16T10:30:42.000Z</time>
      </trkpt>
      <trkpt lat="47.25971" lon="-2.33057">
        <ele>-7</ele>
        <time>2021-09-16T10:30:43.000Z</time>
      </trkpt>
      <trkpt lat="47.25969" lon="-2.33051">
        <ele>-7</ele>
        <time>2021-09-16T10:30:44.000Z</time>
      </trkpt>
      <trkpt lat="47.2596" lon="-2.33017">
        <ele>-7</ele>
        <time>2021-09-16T10:30:49.000Z</time>
      </trkpt>
      <trkpt lat="47.25944" lon="-2.32972">
        <ele>-7</ele>
        <time>2021-09-16T10:30:56.000Z</time>
      </trkpt>
      <trkpt lat="47.25922" lon="-2.32913">
        <ele>-7</ele>
        <time>2021-09-16T10:31:05.000Z</time>
      </trkpt>
      <trkpt lat="47.2591" lon="-2.32881">
        <ele>-7</ele>
        <time>2021-09-16T10:31:10.000Z</time>
      </trkpt>
      <trkpt lat="47.25905" lon="-2.32868">
        <ele>-7</ele>
        <time>2021-09-16T10:31:12.000Z</time>
      </trkpt>
      <trkpt lat="47.25889" lon="-2.32823">
        <ele>-7</ele>
        <time>2021-09-16T10:31:19.000Z</time>
      </trkpt>
      <trkpt lat="47.25868" lon="-2.3276">
        <ele>-7</ele>
        <time>2021-09-16T10:31:29.000Z</time>
      </trkpt>
      <trkpt lat="47.25861" lon="-2.32727">
        <ele>-7</ele>
        <time>2021-09-16T10:31:34.000Z</time>
      </trkpt>
      <trkpt lat="47.25861" lon="-2.32714">
        <ele>-7</ele>
        <time>2021-09-16T10:31:36.000Z</time>
      </trkpt>
      <trkpt lat="47.2586" lon="-2.32708">
        <ele>-7</ele>
        <time>2021-09-16T10:31:37.000Z</time>
      </trkpt>
      <trkpt lat="47.25854" lon="-2.3269">
        <ele>-7</ele>
        <time>2021-09-16T10:31:40.000Z</time>
      </trkpt>
      <trkpt lat="47.25853" lon="-2.32684">
        <ele>-7</ele>
        <time>2021-09-16T10:31:41.000Z</time>
      </trkpt>
      <trkpt lat="47.25842" lon="-2.32646">
        <ele>-7</ele>
        <time>2021-09-16T10:31:47.000Z</time>
      </trkpt>
      <trkpt lat="47.25833" lon="-2.32615">
        <ele>-7</ele>
        <time>2021-09-16T10:31:52.000Z</time>
      </trkpt>
      <trkpt lat="47.2583" lon="-2.32602">
        <ele>-7</ele>
        <time>2021-09-16T10:31:54.000Z</time>
      </trkpt>
      <trkpt lat="47.25827" lon="-2.32597">
        <ele>-7</ele>
        <time>2021-09-16T10:31:55.000Z</time>
      </trkpt>
      <trkpt lat="47.2582" lon="-2.32572">
        <ele>-7</ele>
        <time>2021-09-16T10:31:59.000Z</time>
      </trkpt>
      <trkpt lat="47.25818" lon="-2.32566">
        <ele>-7</ele>
        <time>2021-09-16T10:32:00.000Z</time>
      </trkpt>
      <trkpt lat="47.25808" lon="-2.32526">
        <ele>-7</ele>
        <time>2021-09-16T10:32:06.000Z</time>
      </trkpt>
      <trkpt lat="47.25799" lon="-2.3248">
        <ele>-7</ele>
        <time>2021-09-16T10:32:14.000Z</time>
      </trkpt>
      <trkpt lat="47.25803" lon="-2.32464">
        <ele>-7</ele>
        <time>2021-09-16T10:32:17.000Z</time>
      </trkpt>
      <trkpt lat="47.25805" lon="-2.3246">
        <ele>-7</ele>
        <time>2021-09-16T10:32:18.000Z</time>
      </trkpt>
      <trkpt lat="47.25823" lon="-2.32458">
        <ele>-7</ele>
        <time>2021-09-16T10:32:22.000Z</time>
      </trkpt>
      <trkpt lat="47.25828" lon="-2.32462">
        <ele>-7.4000000953674</ele>
        <time>2021-09-16T10:32:23.000Z</time>
      </trkpt>
      <trkpt lat="47.25833" lon="-2.32465">
        <ele>-7.8000001907349</ele>
        <time>2021-09-16T10:32:24.000Z</time>
      </trkpt>
      <trkpt lat="47.25838" lon="-2.32467">
        <ele>-8.1999998092651</ele>
        <time>2021-09-16T10:32:25.000Z</time>
      </trkpt>
      <trkpt lat="47.25843" lon="-2.32469">
        <ele>-8.6000003814697</ele>
        <time>2021-09-16T10:32:26.000Z</time>
      </trkpt>
      <trkpt lat="47.25847" lon="-2.3247">
        <ele>-9.1999998092651</ele>
        <time>2021-09-16T10:32:27.000Z</time>
      </trkpt>
      <trkpt lat="47.25851" lon="-2.32471">
        <ele>-9.1999998092651</ele>
        <time>2021-09-16T10:32:28.000Z</time>
      </trkpt>
      <trkpt lat="47.25871" lon="-2.32469">
        <ele>-9.1999998092651</ele>
        <time>2021-09-16T10:32:32.000Z</time>
      </trkpt>
      <trkpt lat="47.25899" lon="-2.3246">
        <ele>-9.1999998092651</ele>
        <time>2021-09-16T10:32:38.000Z</time>
      </trkpt>
      <trkpt lat="47.25902" lon="-2.32455">
        <ele>-9.1999998092651</ele>
        <time>2021-09-16T10:32:39.000Z</time>
      </trkpt>
      <trkpt lat="47.25906" lon="-2.32439">
        <ele>-9.1999998092651</ele>
        <time>2021-09-16T10:32:42.000Z</time>
      </trkpt>
      <trkpt lat="47.25914" lon="-2.32431">
        <ele>-9.1999998092651</ele>
        <time>2021-09-16T10:32:45.000Z</time>
      </trkpt>
      <trkpt lat="47.25918" lon="-2.3243">
        <ele>-9.1999998092651</ele>
        <time>2021-09-16T10:32:46.000Z</time>
      </trkpt>
      <trkpt lat="47.25933" lon="-2.32415">
        <ele>-9.1999998092651</ele>
        <time>2021-09-16T10:32:50.000Z</time>
      </trkpt>
      <trkpt lat="47.25961" lon="-2.32377">
        <ele>-9.1999998092651</ele>
        <time>2021-09-16T10:32:58.000Z</time>
      </trkpt>
      <trkpt lat="47.25991" lon="-2.3234">
        <ele>-9.1999998092651</ele>
        <time>2021-09-16T10:33:06.000Z</time>
      </trkpt>
      <trkpt lat="47.26014" lon="-2.32311">
        <ele>-9.1999998092651</ele>
        <time>2021-09-16T10:33:12.000Z</time>
      </trkpt>
      <trkpt lat="47.26056" lon="-2.32263">
        <ele>-9.1999998092651</ele>
        <time>2021-09-16T10:33:23.000Z</time>
      </trkpt>
      <trkpt lat="47.26064" lon="-2.32254">
        <ele>-9.1999998092651</ele>
        <time>2021-09-16T10:33:25.000Z</time>
      </trkpt>
      <trkpt lat="47.26086" lon="-2.32227">
        <ele>-9.1999998092651</ele>
        <time>2021-09-16T10:33:31.000Z</time>
      </trkpt>
      <trkpt lat="47.26093" lon="-2.32217">
        <ele>-9.1999998092651</ele>
        <time>2021-09-16T10:33:33.000Z</time>
      </trkpt>
      <trkpt lat="47.26109" lon="-2.32188">
        <ele>-9.1999998092651</ele>
        <time>2021-09-16T10:33:38.000Z</time>
      </trkpt>
      <trkpt lat="47.26111" lon="-2.32181">
        <ele>-9.1999998092651</ele>
        <time>2021-09-16T10:33:39.000Z</time>
      </trkpt>
      <trkpt lat="47.26124" lon="-2.32147">
        <ele>-9.1999998092651</ele>
        <time>2021-09-16T10:33:44.000Z</time>
      </trkpt>
      <trkpt lat="47.26133" lon="-2.32115">
        <ele>-9.1999998092651</ele>
        <time>2021-09-16T10:33:49.000Z</time>
      </trkpt>
      <trkpt lat="47.2615" lon="-2.32057">
        <ele>-9.1999998092651</ele>
        <time>2021-09-16T10:33:58.000Z</time>
      </trkpt>
      <trkpt lat="47.2616" lon="-2.32026">
        <ele>-9.1999998092651</ele>
        <time>2021-09-16T10:34:03.000Z</time>
      </trkpt>
      <trkpt lat="47.26163" lon="-2.32022">
        <ele>-9.1999998092651</ele>
        <time>2021-09-16T10:34:04.000Z</time>
      </trkpt>
      <trkpt lat="47.26174" lon="-2.3202">
        <ele>-9.1999998092651</ele>
        <time>2021-09-16T10:34:07.000Z</time>
      </trkpt>
      <trkpt lat="47.26177" lon="-2.3202">
        <ele>-9.1999998092651</ele>
        <time>2021-09-16T10:34:08.000Z</time>
      </trkpt>
      <trkpt lat="47.26188" lon="-2.32024">
        <ele>-9.1999998092651</ele>
        <time>2021-09-16T10:34:12.000Z</time>
      </trkpt>
      <trkpt lat="47.26194" lon="-2.32023">
        <ele>-9.1999998092651</ele>
        <time>2021-09-16T10:34:15.000Z</time>
      </trkpt>
      <trkpt lat="47.26196" lon="-2.32019">
        <ele>-9.1999998092651</ele>
        <time>2021-09-16T10:34:17.000Z</time>
      </trkpt>
      <trkpt lat="47.26201" lon="-2.32006">
        <ele>-9.1999998092651</ele>
        <time>2021-09-16T10:34:21.000Z</time>
      </trkpt>
      <trkpt lat="47.26217" lon="-2.31988">
        <ele>-9.1999998092651</ele>
        <time>2021-09-16T10:34:27.000Z</time>
      </trkpt>
      <trkpt lat="47.26224" lon="-2.3198">
        <ele>-9.1999998092651</ele>
        <time>2021-09-16T10:34:30.000Z</time>
      </trkpt>
      <trkpt lat="47.26228" lon="-2.3198">
        <ele>-9.1999998092651</ele>
        <time>2021-09-16T10:34:31.000Z</time>
      </trkpt>
      <trkpt lat="47.26237" lon="-2.3197">
        <ele>-9.1999998092651</ele>
        <time>2021-09-16T10:34:34.000Z</time>
      </trkpt>
      <trkpt lat="47.26239" lon="-2.31963">
        <ele>-9.1999998092651</ele>
        <time>2021-09-16T10:34:35.000Z</time>
      </trkpt>
      <trkpt lat="47.26252" lon="-2.31941">
        <ele>-9.1999998092651</ele>
        <time>2021-09-16T10:34:40.000Z</time>
      </trkpt>
      <trkpt lat="47.26265" lon="-2.31921">
        <ele>-9.1999998092651</ele>
        <time>2021-09-16T10:34:45.000Z</time>
      </trkpt>
      <trkpt lat="47.26289" lon="-2.31897">
        <ele>-9.1999998092651</ele>
        <time>2021-09-16T10:34:51.000Z</time>
      </trkpt>
      <trkpt lat="47.26299" lon="-2.31884">
        <ele>-9.1999998092651</ele>
        <time>2021-09-16T10:34:54.000Z</time>
      </trkpt>
      <trkpt lat="47.26301" lon="-2.31879">
        <ele>-9.1999998092651</ele>
        <time>2021-09-16T10:34:55.000Z</time>
      </trkpt>
      <trkpt lat="47.26302" lon="-2.31859">
        <ele>-9.1999998092651</ele>
        <time>2021-09-16T10:34:58.000Z</time>
      </trkpt>
      <trkpt lat="47.26302" lon="-2.31847">
        <ele>-9.1999998092651</ele>
        <time>2021-09-16T10:35:00.000Z</time>
      </trkpt>
      <trkpt lat="47.26304" lon="-2.31806">
        <ele>-9.1999998092651</ele>
        <time>2021-09-16T10:35:07.000Z</time>
      </trkpt>
      <trkpt lat="47.26305" lon="-2.31771">
        <ele>-9.1999998092651</ele>
        <time>2021-09-16T10:35:13.000Z</time>
      </trkpt>
      <trkpt lat="47.26302" lon="-2.31735">
        <ele>-9.1999998092651</ele>
        <time>2021-09-16T10:35:19.000Z</time>
      </trkpt>
      <trkpt lat="47.26303" lon="-2.31724">
        <ele>-9.1999998092651</ele>
        <time>2021-09-16T10:35:21.000Z</time>
      </trkpt>
      <trkpt lat="47.26307" lon="-2.31717">
        <ele>-9.1999998092651</ele>
        <time>2021-09-16T10:35:23.000Z</time>
      </trkpt>
      <trkpt lat="47.26314" lon="-2.31713">
        <ele>-9.1999998092651</ele>
        <time>2021-09-16T10:35:25.000Z</time>
      </trkpt>
      <trkpt lat="47.26324" lon="-2.31709">
        <ele>-9.1999998092651</ele>
        <time>2021-09-16T10:35:28.000Z</time>
      </trkpt>
      <trkpt lat="47.26329" lon="-2.31704">
        <ele>-9.1999998092651</ele>
        <time>2021-09-16T10:35:30.000Z</time>
      </trkpt>
      <trkpt lat="47.26331" lon="-2.317">
        <ele>-8.6000003814697</ele>
        <time>2021-09-16T10:35:31.000Z</time>
      </trkpt>
      <trkpt lat="47.26333" lon="-2.31695">
        <ele>-8.1999998092651</ele>
        <time>2021-09-16T10:35:32.000Z</time>
      </trkpt>
      <trkpt lat="47.26335" lon="-2.31691">
        <ele>-7.4000000953674</ele>
        <time>2021-09-16T10:35:33.000Z</time>
      </trkpt>
      <trkpt lat="47.26337" lon="-2.31689">
        <ele>-7</ele>
        <time>2021-09-16T10:35:34.000Z</time>
      </trkpt>
      <trkpt lat="47.26343" lon="-2.31686">
        <ele>-7</ele>
        <time>2021-09-16T10:35:36.000Z</time>
      </trkpt>
      <trkpt lat="47.26362" lon="-2.31676">
        <ele>-6.5999999046326</ele>
        <time>2021-09-16T10:35:42.000Z</time>
      </trkpt>
      <trkpt lat="47.26365" lon="-2.31674">
        <ele>-6.1999998092651</ele>
        <time>2021-09-16T10:35:43.000Z</time>
      </trkpt>
      <trkpt lat="47.26368" lon="-2.31673">
        <ele>-5.8000001907349</ele>
        <time>2021-09-16T10:35:44.000Z</time>
      </trkpt>
      <trkpt lat="47.26371" lon="-2.31672">
        <ele>-5.4000000953674</ele>
        <time>2021-09-16T10:35:45.000Z</time>
      </trkpt>
      <trkpt lat="47.26374" lon="-2.31671">
        <ele>-4.8000001907349</ele>
        <time>2021-09-16T10:35:46.000Z</time>
      </trkpt>
      <trkpt lat="47.26382" lon="-2.31666">
        <ele>-4.8000001907349</ele>
        <time>2021-09-16T10:35:49.000Z</time>
      </trkpt>
      <trkpt lat="47.26398" lon="-2.31657">
        <ele>-4.8000001907349</ele>
        <time>2021-09-16T10:35:55.000Z</time>
      </trkpt>
      <trkpt lat="47.2641" lon="-2.31646">
        <ele>-4.8000001907349</ele>
        <time>2021-09-16T10:36:00.000Z</time>
      </trkpt>
      <trkpt lat="47.26409" lon="-2.31624">
        <ele>-4.8000001907349</ele>
        <time>2021-09-16T10:36:05.000Z</time>
      </trkpt>
      <trkpt lat="47.26409" lon="-2.31588">
        <ele>-4.8000001907349</ele>
        <time>2021-09-16T10:36:13.000Z</time>
      </trkpt>
      <trkpt lat="47.2641" lon="-2.31564">
        <ele>-4.4000000953674</ele>
        <time>2021-09-16T10:36:19.000Z</time>
      </trkpt>
      <trkpt lat="47.2641" lon="-2.3156">
        <ele>-4</ele>
        <time>2021-09-16T10:36:20.000Z</time>
      </trkpt>
      <trkpt lat="47.26411" lon="-2.31556">
        <ele>-3.5999999046326</ele>
        <time>2021-09-16T10:36:21.000Z</time>
      </trkpt>
      <trkpt lat="47.26412" lon="-2.31553">
        <ele>-3.2000000476837</ele>
        <time>2021-09-16T10:36:22.000Z</time>
      </trkpt>
      <trkpt lat="47.26414" lon="-2.31551">
        <ele>-2.7999999523163</ele>
        <time>2021-09-16T10:36:23.000Z</time>
      </trkpt>
      <trkpt lat="47.26416" lon="-2.31551">
        <ele>-2.7999999523163</ele>
        <time>2021-09-16T10:36:24.000Z</time>
      </trkpt>
      <trkpt lat="47.26419" lon="-2.31553">
        <ele>-2.7999999523163</ele>
        <time>2021-09-16T10:36:28.000Z</time>
      </trkpt>
    </trkseg>
  </trk>
</gpx>